<?xml version="1.0" encoding="UTF-8" standalone="no" ?>
<gpx xmlns="http://www.topografix.com/GPX/1/1" xmlns:xsi="http://www.w3.org/2001/XMLSchema-instance" xsi:schemaLocation="http://www.topografix.com/GPX/1/1 http://www.topografix.com/GPX/1/1/gpx.xsd" version="1.1" creator="VisuGPX - https://www.visugpx.com">
  <metadata>
    <name>BRETIGNOLLES SUR MER-Le Peuble</name>
    <desc><![CDATA[Randonnee sympathique,sans difficulté,au depart du Marais Girard vers les marais et le bocage.
Possibilte d'extension vers le Chateau de Beaumarchais.]]></desc>
  </metadata>
  <trk>
    <name><![CDATA[20190221200128-NxvfE]]></name>
    <trkseg>
      <trkpt lat="46.61661" lon="-1.86885">
        <ele>1</ele>
        <time>2019-02-21T14:10:40Z</time>
      </trkpt>
      <trkpt lat="46.61663" lon="-1.86889">
        <ele>1</ele>
        <time>2019-02-21T14:10:42Z</time>
      </trkpt>
      <trkpt lat="46.61664" lon="-1.86893">
        <ele>1</ele>
        <time>2019-02-21T14:10:45Z</time>
      </trkpt>
      <trkpt lat="46.61664" lon="-1.86895">
        <ele>1</ele>
        <time>2019-02-21T14:10:47Z</time>
      </trkpt>
      <trkpt lat="46.61664" lon="-1.869">
        <ele>4</ele>
        <time>2019-02-21T14:10:50Z</time>
      </trkpt>
      <trkpt lat="46.61664" lon="-1.86904">
        <ele>4.2</ele>
        <time>2019-02-21T14:10:52Z</time>
      </trkpt>
      <trkpt lat="46.61665" lon="-1.86909">
        <ele>4.1</ele>
        <time>2019-02-21T14:10:55Z</time>
      </trkpt>
      <trkpt lat="46.61666" lon="-1.86912">
        <ele>4.1</ele>
        <time>2019-02-21T14:10:57Z</time>
      </trkpt>
      <trkpt lat="46.61667" lon="-1.86916">
        <ele>4.1</ele>
        <time>2019-02-21T14:11:00Z</time>
      </trkpt>
      <trkpt lat="46.61669" lon="-1.86919">
        <ele>4.2</ele>
        <time>2019-02-21T14:11:02Z</time>
      </trkpt>
      <trkpt lat="46.61671" lon="-1.86925">
        <ele>4.4</ele>
        <time>2019-02-21T14:11:07Z</time>
      </trkpt>
      <trkpt lat="46.61674" lon="-1.86929">
        <ele>4.6</ele>
        <time>2019-02-21T14:11:10Z</time>
      </trkpt>
      <trkpt lat="46.61675" lon="-1.86933">
        <ele>4.7</ele>
        <time>2019-02-21T14:11:12Z</time>
      </trkpt>
      <trkpt lat="46.61678" lon="-1.86937">
        <ele>4.7</ele>
        <time>2019-02-21T14:11:15Z</time>
      </trkpt>
      <trkpt lat="46.6168" lon="-1.86941">
        <ele>4.8</ele>
        <time>2019-02-21T14:11:17Z</time>
      </trkpt>
      <trkpt lat="46.61682" lon="-1.86946">
        <ele>4.8</ele>
        <time>2019-02-21T14:11:20Z</time>
      </trkpt>
      <trkpt lat="46.61684" lon="-1.86949">
        <ele>4.8</ele>
        <time>2019-02-21T14:11:22Z</time>
      </trkpt>
      <trkpt lat="46.61687" lon="-1.86953">
        <ele>4.9</ele>
        <time>2019-02-21T14:11:25Z</time>
      </trkpt>
      <trkpt lat="46.61688" lon="-1.86956">
        <ele>4.9</ele>
        <time>2019-02-21T14:11:27Z</time>
      </trkpt>
      <trkpt lat="46.61691" lon="-1.86959">
        <ele>1</ele>
        <time>2019-02-21T14:11:30Z</time>
      </trkpt>
      <trkpt lat="46.61692" lon="-1.86962">
        <ele>1</ele>
        <time>2019-02-21T14:11:32Z</time>
      </trkpt>
      <trkpt lat="46.61697" lon="-1.86967">
        <ele>4.9</ele>
        <time>2019-02-21T14:11:37Z</time>
      </trkpt>
      <trkpt lat="46.617" lon="-1.8697">
        <ele>5</ele>
        <time>2019-02-21T14:11:39Z</time>
      </trkpt>
      <trkpt lat="46.61702" lon="-1.86972">
        <ele>1</ele>
        <time>2019-02-21T14:11:42Z</time>
      </trkpt>
      <trkpt lat="46.61705" lon="-1.86976">
        <ele>1</ele>
        <time>2019-02-21T14:11:44Z</time>
      </trkpt>
      <trkpt lat="46.61707" lon="-1.86977">
        <ele>1</ele>
        <time>2019-02-21T14:11:47Z</time>
      </trkpt>
      <trkpt lat="46.61711" lon="-1.86981">
        <ele>2</ele>
        <time>2019-02-21T14:11:49Z</time>
      </trkpt>
      <trkpt lat="46.61713" lon="-1.86983">
        <ele>1</ele>
        <time>2019-02-21T14:11:52Z</time>
      </trkpt>
      <trkpt lat="46.61715" lon="-1.86985">
        <ele>3</ele>
        <time>2019-02-21T14:11:54Z</time>
      </trkpt>
      <trkpt lat="46.61719" lon="-1.86987">
        <ele>3</ele>
        <time>2019-02-21T14:11:57Z</time>
      </trkpt>
      <trkpt lat="46.6172" lon="-1.86989">
        <ele>4</ele>
        <time>2019-02-21T14:11:59Z</time>
      </trkpt>
      <trkpt lat="46.61723" lon="-1.86992">
        <ele>2</ele>
        <time>2019-02-21T14:12:02Z</time>
      </trkpt>
      <trkpt lat="46.61728" lon="-1.86997">
        <ele>4</ele>
        <time>2019-02-21T14:12:07Z</time>
      </trkpt>
      <trkpt lat="46.6173" lon="-1.86998">
        <ele>4</ele>
        <time>2019-02-21T14:12:09Z</time>
      </trkpt>
      <trkpt lat="46.61733" lon="-1.87001">
        <ele>4</ele>
        <time>2019-02-21T14:12:12Z</time>
      </trkpt>
      <trkpt lat="46.61734" lon="-1.87003">
        <ele>4</ele>
        <time>2019-02-21T14:12:14Z</time>
      </trkpt>
      <trkpt lat="46.61736" lon="-1.87006">
        <ele>4</ele>
        <time>2019-02-21T14:12:17Z</time>
      </trkpt>
      <trkpt lat="46.61738" lon="-1.87009">
        <ele>5</ele>
        <time>2019-02-21T14:12:19Z</time>
      </trkpt>
      <trkpt lat="46.6174" lon="-1.87014">
        <ele>5</ele>
        <time>2019-02-21T14:12:22Z</time>
      </trkpt>
      <trkpt lat="46.61741" lon="-1.87018">
        <ele>4</ele>
        <time>2019-02-21T14:12:24Z</time>
      </trkpt>
      <trkpt lat="46.61743" lon="-1.87023">
        <ele>4</ele>
        <time>2019-02-21T14:12:27Z</time>
      </trkpt>
      <trkpt lat="46.61744" lon="-1.87026">
        <ele>4</ele>
        <time>2019-02-21T14:12:29Z</time>
      </trkpt>
      <trkpt lat="46.61747" lon="-1.8703">
        <ele>4</ele>
        <time>2019-02-21T14:12:32Z</time>
      </trkpt>
      <trkpt lat="46.61751" lon="-1.87036">
        <ele>4</ele>
        <time>2019-02-21T14:12:37Z</time>
      </trkpt>
      <trkpt lat="46.61753" lon="-1.87038">
        <ele>4</ele>
        <time>2019-02-21T14:12:39Z</time>
      </trkpt>
      <trkpt lat="46.61757" lon="-1.87042">
        <ele>5</ele>
        <time>2019-02-21T14:12:42Z</time>
      </trkpt>
      <trkpt lat="46.61759" lon="-1.87044">
        <ele>4</ele>
        <time>2019-02-21T14:12:44Z</time>
      </trkpt>
      <trkpt lat="46.61762" lon="-1.87048">
        <ele>5</ele>
        <time>2019-02-21T14:12:47Z</time>
      </trkpt>
      <trkpt lat="46.61764" lon="-1.87051">
        <ele>5</ele>
        <time>2019-02-21T14:12:49Z</time>
      </trkpt>
      <trkpt lat="46.61767" lon="-1.87054">
        <ele>4</ele>
        <time>2019-02-21T14:12:52Z</time>
      </trkpt>
      <trkpt lat="46.61768" lon="-1.87056">
        <ele>5</ele>
        <time>2019-02-21T14:12:54Z</time>
      </trkpt>
      <trkpt lat="46.61771" lon="-1.87059">
        <ele>5</ele>
        <time>2019-02-21T14:12:57Z</time>
      </trkpt>
      <trkpt lat="46.61772" lon="-1.87061">
        <ele>4</ele>
        <time>2019-02-21T14:12:59Z</time>
      </trkpt>
      <trkpt lat="46.61775" lon="-1.87064">
        <ele>4</ele>
        <time>2019-02-21T14:13:01Z</time>
      </trkpt>
      <trkpt lat="46.6178" lon="-1.87069">
        <ele>3</ele>
        <time>2019-02-21T14:13:06Z</time>
      </trkpt>
      <trkpt lat="46.61782" lon="-1.87071">
        <ele>3</ele>
        <time>2019-02-21T14:13:09Z</time>
      </trkpt>
      <trkpt lat="46.61784" lon="-1.87073">
        <ele>3</ele>
        <time>2019-02-21T14:13:11Z</time>
      </trkpt>
      <trkpt lat="46.61787" lon="-1.87076">
        <ele>4</ele>
        <time>2019-02-21T14:13:14Z</time>
      </trkpt>
      <trkpt lat="46.61789" lon="-1.87079">
        <ele>3</ele>
        <time>2019-02-21T14:13:16Z</time>
      </trkpt>
      <trkpt lat="46.61792" lon="-1.87082">
        <ele>4</ele>
        <time>2019-02-21T14:13:19Z</time>
      </trkpt>
      <trkpt lat="46.61794" lon="-1.87084">
        <ele>4</ele>
        <time>2019-02-21T14:13:21Z</time>
      </trkpt>
      <trkpt lat="46.61796" lon="-1.87087">
        <ele>3</ele>
        <time>2019-02-21T14:13:24Z</time>
      </trkpt>
      <trkpt lat="46.61798" lon="-1.87089">
        <ele>4</ele>
        <time>2019-02-21T14:13:26Z</time>
      </trkpt>
      <trkpt lat="46.61801" lon="-1.87092">
        <ele>4</ele>
        <time>2019-02-21T14:13:29Z</time>
      </trkpt>
      <trkpt lat="46.61803" lon="-1.87094">
        <ele>4</ele>
        <time>2019-02-21T14:13:31Z</time>
      </trkpt>
      <trkpt lat="46.61808" lon="-1.87099">
        <ele>4</ele>
        <time>2019-02-21T14:13:36Z</time>
      </trkpt>
      <trkpt lat="46.61811" lon="-1.87101">
        <ele>4</ele>
        <time>2019-02-21T14:13:39Z</time>
      </trkpt>
      <trkpt lat="46.61813" lon="-1.87101">
        <ele>4</ele>
        <time>2019-02-21T14:13:41Z</time>
      </trkpt>
      <trkpt lat="46.61817" lon="-1.87102">
        <ele>5</ele>
        <time>2019-02-21T14:13:44Z</time>
      </trkpt>
      <trkpt lat="46.6182" lon="-1.87101">
        <ele>5</ele>
        <time>2019-02-21T14:13:46Z</time>
      </trkpt>
      <trkpt lat="46.61823" lon="-1.87099">
        <ele>5</ele>
        <time>2019-02-21T14:13:48Z</time>
      </trkpt>
      <trkpt lat="46.61825" lon="-1.87098">
        <ele>5</ele>
        <time>2019-02-21T14:13:51Z</time>
      </trkpt>
      <trkpt lat="46.61828" lon="-1.87096">
        <ele>6</ele>
        <time>2019-02-21T14:13:53Z</time>
      </trkpt>
      <trkpt lat="46.61831" lon="-1.87096">
        <ele>6</ele>
        <time>2019-02-21T14:13:56Z</time>
      </trkpt>
      <trkpt lat="46.61834" lon="-1.87098">
        <ele>6</ele>
        <time>2019-02-21T14:13:58Z</time>
      </trkpt>
      <trkpt lat="46.61839" lon="-1.87102">
        <ele>6</ele>
        <time>2019-02-21T14:14:03Z</time>
      </trkpt>
      <trkpt lat="46.61841" lon="-1.87106">
        <ele>6</ele>
        <time>2019-02-21T14:14:06Z</time>
      </trkpt>
      <trkpt lat="46.61842" lon="-1.87107">
        <ele>6</ele>
        <time>2019-02-21T14:14:08Z</time>
      </trkpt>
      <trkpt lat="46.61843" lon="-1.87107">
        <ele>6</ele>
        <time>2019-02-21T14:14:11Z</time>
      </trkpt>
      <trkpt lat="46.61843" lon="-1.87107">
        <ele>6</ele>
        <time>2019-02-21T14:14:13Z</time>
      </trkpt>
      <trkpt lat="46.61843" lon="-1.87108">
        <ele>6</ele>
        <time>2019-02-21T14:14:16Z</time>
      </trkpt>
      <trkpt lat="46.61843" lon="-1.87108">
        <ele>6</ele>
        <time>2019-02-21T14:14:18Z</time>
      </trkpt>
      <trkpt lat="46.61843" lon="-1.87108">
        <ele>6</ele>
        <time>2019-02-21T14:14:21Z</time>
      </trkpt>
      <trkpt lat="46.61844" lon="-1.87109">
        <ele>6</ele>
        <time>2019-02-21T14:14:23Z</time>
      </trkpt>
      <trkpt lat="46.61845" lon="-1.87113">
        <ele>5</ele>
        <time>2019-02-21T14:14:26Z</time>
      </trkpt>
      <trkpt lat="46.61847" lon="-1.87115">
        <ele>5</ele>
        <time>2019-02-21T14:14:28Z</time>
      </trkpt>
      <trkpt lat="46.61848" lon="-1.87117">
        <ele>5</ele>
        <time>2019-02-21T14:14:33Z</time>
      </trkpt>
      <trkpt lat="46.61849" lon="-1.8712">
        <ele>3</ele>
        <time>2019-02-21T14:14:35Z</time>
      </trkpt>
      <trkpt lat="46.61851" lon="-1.87125">
        <ele>4</ele>
        <time>2019-02-21T14:14:38Z</time>
      </trkpt>
      <trkpt lat="46.61852" lon="-1.87128">
        <ele>3</ele>
        <time>2019-02-21T14:14:40Z</time>
      </trkpt>
      <trkpt lat="46.61854" lon="-1.87133">
        <ele>3</ele>
        <time>2019-02-21T14:14:43Z</time>
      </trkpt>
      <trkpt lat="46.61856" lon="-1.87136">
        <ele>5</ele>
        <time>2019-02-21T14:14:45Z</time>
      </trkpt>
      <trkpt lat="46.61858" lon="-1.87141">
        <ele>4</ele>
        <time>2019-02-21T14:14:47Z</time>
      </trkpt>
      <trkpt lat="46.61859" lon="-1.87143">
        <ele>4</ele>
        <time>2019-02-21T14:14:50Z</time>
      </trkpt>
      <trkpt lat="46.61862" lon="-1.87146">
        <ele>4</ele>
        <time>2019-02-21T14:14:52Z</time>
      </trkpt>
      <trkpt lat="46.61864" lon="-1.87147">
        <ele>4</ele>
        <time>2019-02-21T14:14:55Z</time>
      </trkpt>
      <trkpt lat="46.61868" lon="-1.8715">
        <ele>4</ele>
        <time>2019-02-21T14:14:57Z</time>
      </trkpt>
      <trkpt lat="46.61874" lon="-1.87154">
        <ele>5</ele>
        <time>2019-02-21T14:15:02Z</time>
      </trkpt>
      <trkpt lat="46.61877" lon="-1.87155">
        <ele>3</ele>
        <time>2019-02-21T14:15:05Z</time>
      </trkpt>
      <trkpt lat="46.6188" lon="-1.87158">
        <ele>4</ele>
        <time>2019-02-21T14:15:07Z</time>
      </trkpt>
      <trkpt lat="46.61883" lon="-1.8716">
        <ele>4</ele>
        <time>2019-02-21T14:15:10Z</time>
      </trkpt>
      <trkpt lat="46.61887" lon="-1.87163">
        <ele>3</ele>
        <time>2019-02-21T14:15:12Z</time>
      </trkpt>
      <trkpt lat="46.61889" lon="-1.87165">
        <ele>3</ele>
        <time>2019-02-21T14:15:15Z</time>
      </trkpt>
      <trkpt lat="46.61892" lon="-1.87166">
        <ele>4</ele>
        <time>2019-02-21T14:15:17Z</time>
      </trkpt>
      <trkpt lat="46.61895" lon="-1.87168">
        <ele>4</ele>
        <time>2019-02-21T14:15:20Z</time>
      </trkpt>
      <trkpt lat="46.61898" lon="-1.87169">
        <ele>5</ele>
        <time>2019-02-21T14:15:22Z</time>
      </trkpt>
      <trkpt lat="46.61902" lon="-1.87171">
        <ele>4</ele>
        <time>2019-02-21T14:15:25Z</time>
      </trkpt>
      <trkpt lat="46.61904" lon="-1.87172">
        <ele>5</ele>
        <time>2019-02-21T14:15:27Z</time>
      </trkpt>
      <trkpt lat="46.6191" lon="-1.87175">
        <ele>6</ele>
        <time>2019-02-21T14:15:32Z</time>
      </trkpt>
      <trkpt lat="46.61914" lon="-1.87178">
        <ele>6</ele>
        <time>2019-02-21T14:15:35Z</time>
      </trkpt>
      <trkpt lat="46.61915" lon="-1.87181">
        <ele>5</ele>
        <time>2019-02-21T14:15:37Z</time>
      </trkpt>
      <trkpt lat="46.61919" lon="-1.87184">
        <ele>5</ele>
        <time>2019-02-21T14:15:40Z</time>
      </trkpt>
      <trkpt lat="46.61921" lon="-1.87186">
        <ele>5</ele>
        <time>2019-02-21T14:15:42Z</time>
      </trkpt>
      <trkpt lat="46.61925" lon="-1.87189">
        <ele>5</ele>
        <time>2019-02-21T14:15:45Z</time>
      </trkpt>
      <trkpt lat="46.61928" lon="-1.8719">
        <ele>5</ele>
        <time>2019-02-21T14:15:47Z</time>
      </trkpt>
      <trkpt lat="46.61932" lon="-1.87192">
        <ele>5</ele>
        <time>2019-02-21T14:15:50Z</time>
      </trkpt>
      <trkpt lat="46.61934" lon="-1.87194">
        <ele>5</ele>
        <time>2019-02-21T14:15:52Z</time>
      </trkpt>
      <trkpt lat="46.61938" lon="-1.87196">
        <ele>6</ele>
        <time>2019-02-21T14:15:54Z</time>
      </trkpt>
      <trkpt lat="46.61941" lon="-1.87198">
        <ele>5</ele>
        <time>2019-02-21T14:15:57Z</time>
      </trkpt>
      <trkpt lat="46.61947" lon="-1.87201">
        <ele>5</ele>
        <time>2019-02-21T14:16:02Z</time>
      </trkpt>
      <trkpt lat="46.6195" lon="-1.87202">
        <ele>6</ele>
        <time>2019-02-21T14:16:04Z</time>
      </trkpt>
      <trkpt lat="46.61953" lon="-1.87205">
        <ele>6</ele>
        <time>2019-02-21T14:16:07Z</time>
      </trkpt>
      <trkpt lat="46.61956" lon="-1.87206">
        <ele>5</ele>
        <time>2019-02-21T14:16:09Z</time>
      </trkpt>
      <trkpt lat="46.61959" lon="-1.87208">
        <ele>5</ele>
        <time>2019-02-21T14:16:12Z</time>
      </trkpt>
      <trkpt lat="46.61962" lon="-1.8721">
        <ele>6</ele>
        <time>2019-02-21T14:16:14Z</time>
      </trkpt>
      <trkpt lat="46.61965" lon="-1.87213">
        <ele>6</ele>
        <time>2019-02-21T14:16:16Z</time>
      </trkpt>
      <trkpt lat="46.61968" lon="-1.87215">
        <ele>5</ele>
        <time>2019-02-21T14:16:19Z</time>
      </trkpt>
      <trkpt lat="46.61968" lon="-1.87216">
        <ele>5</ele>
        <time>2019-02-21T14:16:21Z</time>
      </trkpt>
      <trkpt lat="46.61968" lon="-1.87218">
        <ele>5</ele>
        <time>2019-02-21T14:16:24Z</time>
      </trkpt>
      <trkpt lat="46.61968" lon="-1.87218">
        <ele>5</ele>
        <time>2019-02-21T14:16:26Z</time>
      </trkpt>
      <trkpt lat="46.6197" lon="-1.87219">
        <ele>5</ele>
        <time>2019-02-21T14:16:31Z</time>
      </trkpt>
      <trkpt lat="46.6197" lon="-1.8722">
        <ele>5</ele>
        <time>2019-02-21T14:16:34Z</time>
      </trkpt>
      <trkpt lat="46.6197" lon="-1.87221">
        <ele>5</ele>
        <time>2019-02-21T14:16:36Z</time>
      </trkpt>
      <trkpt lat="46.6197" lon="-1.87221">
        <ele>5</ele>
        <time>2019-02-21T14:16:39Z</time>
      </trkpt>
      <trkpt lat="46.6197" lon="-1.87221">
        <ele>5</ele>
        <time>2019-02-21T14:16:41Z</time>
      </trkpt>
      <trkpt lat="46.6197" lon="-1.87221">
        <ele>5</ele>
        <time>2019-02-21T14:16:44Z</time>
      </trkpt>
      <trkpt lat="46.61971" lon="-1.87222">
        <ele>5</ele>
        <time>2019-02-21T14:16:46Z</time>
      </trkpt>
      <trkpt lat="46.61973" lon="-1.87223">
        <ele>5</ele>
        <time>2019-02-21T14:16:49Z</time>
      </trkpt>
      <trkpt lat="46.61977" lon="-1.87224">
        <ele>5</ele>
        <time>2019-02-21T14:16:51Z</time>
      </trkpt>
      <trkpt lat="46.61979" lon="-1.87227">
        <ele>5</ele>
        <time>2019-02-21T14:16:54Z</time>
      </trkpt>
      <trkpt lat="46.61985" lon="-1.87231">
        <ele>5</ele>
        <time>2019-02-21T14:16:59Z</time>
      </trkpt>
      <trkpt lat="46.61988" lon="-1.87232">
        <ele>5</ele>
        <time>2019-02-21T14:17:02Z</time>
      </trkpt>
      <trkpt lat="46.61991" lon="-1.87234">
        <ele>5</ele>
        <time>2019-02-21T14:17:04Z</time>
      </trkpt>
      <trkpt lat="46.61993" lon="-1.87236">
        <ele>5</ele>
        <time>2019-02-21T14:17:07Z</time>
      </trkpt>
      <trkpt lat="46.61995" lon="-1.87237">
        <ele>5</ele>
        <time>2019-02-21T14:17:09Z</time>
      </trkpt>
      <trkpt lat="46.61999" lon="-1.8724">
        <ele>4</ele>
        <time>2019-02-21T14:17:12Z</time>
      </trkpt>
      <trkpt lat="46.62001" lon="-1.87242">
        <ele>4</ele>
        <time>2019-02-21T14:17:14Z</time>
      </trkpt>
      <trkpt lat="46.62005" lon="-1.87244">
        <ele>4</ele>
        <time>2019-02-21T14:17:17Z</time>
      </trkpt>
      <trkpt lat="46.62007" lon="-1.87246">
        <ele>4</ele>
        <time>2019-02-21T14:17:19Z</time>
      </trkpt>
      <trkpt lat="46.6201" lon="-1.87249">
        <ele>3</ele>
        <time>2019-02-21T14:17:22Z</time>
      </trkpt>
      <trkpt lat="46.62012" lon="-1.87251">
        <ele>3</ele>
        <time>2019-02-21T14:17:24Z</time>
      </trkpt>
      <trkpt lat="46.62017" lon="-1.87257">
        <ele>4</ele>
        <time>2019-02-21T14:17:29Z</time>
      </trkpt>
      <trkpt lat="46.62018" lon="-1.87259">
        <ele>3</ele>
        <time>2019-02-21T14:17:31Z</time>
      </trkpt>
      <trkpt lat="46.62021" lon="-1.87262">
        <ele>3</ele>
        <time>2019-02-21T14:17:34Z</time>
      </trkpt>
      <trkpt lat="46.62024" lon="-1.87264">
        <ele>3</ele>
        <time>2019-02-21T14:17:36Z</time>
      </trkpt>
      <trkpt lat="46.62026" lon="-1.87267">
        <ele>3</ele>
        <time>2019-02-21T14:17:39Z</time>
      </trkpt>
      <trkpt lat="46.62028" lon="-1.8727">
        <ele>3</ele>
        <time>2019-02-21T14:17:41Z</time>
      </trkpt>
      <trkpt lat="46.62031" lon="-1.87273">
        <ele>3</ele>
        <time>2019-02-21T14:17:44Z</time>
      </trkpt>
      <trkpt lat="46.62033" lon="-1.87275">
        <ele>3</ele>
        <time>2019-02-21T14:17:46Z</time>
      </trkpt>
      <trkpt lat="46.62036" lon="-1.87277">
        <ele>3</ele>
        <time>2019-02-21T14:17:48Z</time>
      </trkpt>
      <trkpt lat="46.62038" lon="-1.87279">
        <ele>3</ele>
        <time>2019-02-21T14:17:51Z</time>
      </trkpt>
      <trkpt lat="46.62042" lon="-1.87281">
        <ele>3</ele>
        <time>2019-02-21T14:17:53Z</time>
      </trkpt>
      <trkpt lat="46.62047" lon="-1.87283">
        <ele>3</ele>
        <time>2019-02-21T14:17:58Z</time>
      </trkpt>
      <trkpt lat="46.62051" lon="-1.87284">
        <ele>3</ele>
        <time>2019-02-21T14:18:01Z</time>
      </trkpt>
      <trkpt lat="46.62053" lon="-1.87284">
        <ele>3</ele>
        <time>2019-02-21T14:18:03Z</time>
      </trkpt>
      <trkpt lat="46.62057" lon="-1.87283">
        <ele>3</ele>
        <time>2019-02-21T14:18:06Z</time>
      </trkpt>
      <trkpt lat="46.62059" lon="-1.87282">
        <ele>4</ele>
        <time>2019-02-21T14:18:08Z</time>
      </trkpt>
      <trkpt lat="46.62062" lon="-1.8728">
        <ele>4</ele>
        <time>2019-02-21T14:18:11Z</time>
      </trkpt>
      <trkpt lat="46.62064" lon="-1.87278">
        <ele>4</ele>
        <time>2019-02-21T14:18:13Z</time>
      </trkpt>
      <trkpt lat="46.62066" lon="-1.87274">
        <ele>5</ele>
        <time>2019-02-21T14:18:16Z</time>
      </trkpt>
      <trkpt lat="46.62067" lon="-1.87271">
        <ele>5</ele>
        <time>2019-02-21T14:18:18Z</time>
      </trkpt>
      <trkpt lat="46.62069" lon="-1.87267">
        <ele>5</ele>
        <time>2019-02-21T14:18:21Z</time>
      </trkpt>
      <trkpt lat="46.62071" lon="-1.87264">
        <ele>5</ele>
        <time>2019-02-21T14:18:23Z</time>
      </trkpt>
      <trkpt lat="46.62075" lon="-1.87257">
        <ele>6</ele>
        <time>2019-02-21T14:18:28Z</time>
      </trkpt>
      <trkpt lat="46.62078" lon="-1.87252">
        <ele>6</ele>
        <time>2019-02-21T14:18:30Z</time>
      </trkpt>
      <trkpt lat="46.6208" lon="-1.87249">
        <ele>6</ele>
        <time>2019-02-21T14:18:33Z</time>
      </trkpt>
      <trkpt lat="46.62083" lon="-1.87244">
        <ele>7</ele>
        <time>2019-02-21T14:18:35Z</time>
      </trkpt>
      <trkpt lat="46.62084" lon="-1.87241">
        <ele>7</ele>
        <time>2019-02-21T14:18:38Z</time>
      </trkpt>
      <trkpt lat="46.62086" lon="-1.87237">
        <ele>7</ele>
        <time>2019-02-21T14:18:40Z</time>
      </trkpt>
      <trkpt lat="46.62088" lon="-1.87235">
        <ele>7</ele>
        <time>2019-02-21T14:18:43Z</time>
      </trkpt>
      <trkpt lat="46.62091" lon="-1.87232">
        <ele>7</ele>
        <time>2019-02-21T14:18:45Z</time>
      </trkpt>
      <trkpt lat="46.62093" lon="-1.8723">
        <ele>7</ele>
        <time>2019-02-21T14:18:48Z</time>
      </trkpt>
      <trkpt lat="46.62095" lon="-1.87227">
        <ele>7</ele>
        <time>2019-02-21T14:18:50Z</time>
      </trkpt>
      <trkpt lat="46.62098" lon="-1.87226">
        <ele>7</ele>
        <time>2019-02-21T14:18:53Z</time>
      </trkpt>
      <trkpt lat="46.62103" lon="-1.87222">
        <ele>7</ele>
        <time>2019-02-21T14:18:58Z</time>
      </trkpt>
      <trkpt lat="46.62106" lon="-1.8722">
        <ele>7</ele>
        <time>2019-02-21T14:19:01Z</time>
      </trkpt>
      <trkpt lat="46.62109" lon="-1.87219">
        <ele>7</ele>
        <time>2019-02-21T14:19:03Z</time>
      </trkpt>
      <trkpt lat="46.62112" lon="-1.87217">
        <ele>8</ele>
        <time>2019-02-21T14:19:06Z</time>
      </trkpt>
      <trkpt lat="46.62116" lon="-1.87216">
        <ele>8</ele>
        <time>2019-02-21T14:19:08Z</time>
      </trkpt>
      <trkpt lat="46.62118" lon="-1.87214">
        <ele>8</ele>
        <time>2019-02-21T14:19:11Z</time>
      </trkpt>
      <trkpt lat="46.62122" lon="-1.87213">
        <ele>8</ele>
        <time>2019-02-21T14:19:13Z</time>
      </trkpt>
      <trkpt lat="46.62124" lon="-1.87214">
        <ele>8</ele>
        <time>2019-02-21T14:19:16Z</time>
      </trkpt>
      <trkpt lat="46.62128" lon="-1.87214">
        <ele>8</ele>
        <time>2019-02-21T14:19:18Z</time>
      </trkpt>
      <trkpt lat="46.6213" lon="-1.87215">
        <ele>8</ele>
        <time>2019-02-21T14:19:21Z</time>
      </trkpt>
      <trkpt lat="46.62134" lon="-1.87214">
        <ele>8</ele>
        <time>2019-02-21T14:19:23Z</time>
      </trkpt>
      <trkpt lat="46.62141" lon="-1.87214">
        <ele>8</ele>
        <time>2019-02-21T14:19:28Z</time>
      </trkpt>
      <trkpt lat="46.62144" lon="-1.87216">
        <ele>8</ele>
        <time>2019-02-21T14:19:31Z</time>
      </trkpt>
      <trkpt lat="46.62148" lon="-1.87218">
        <ele>8</ele>
        <time>2019-02-21T14:19:33Z</time>
      </trkpt>
      <trkpt lat="46.62151" lon="-1.87219">
        <ele>8</ele>
        <time>2019-02-21T14:19:36Z</time>
      </trkpt>
      <trkpt lat="46.62155" lon="-1.87221">
        <ele>8</ele>
        <time>2019-02-21T14:19:38Z</time>
      </trkpt>
      <trkpt lat="46.62158" lon="-1.87222">
        <ele>9</ele>
        <time>2019-02-21T14:19:41Z</time>
      </trkpt>
      <trkpt lat="46.62162" lon="-1.87224">
        <ele>8</ele>
        <time>2019-02-21T14:19:44Z</time>
      </trkpt>
      <trkpt lat="46.62164" lon="-1.87224">
        <ele>8</ele>
        <time>2019-02-21T14:19:46Z</time>
      </trkpt>
      <trkpt lat="46.62168" lon="-1.87227">
        <ele>8</ele>
        <time>2019-02-21T14:19:49Z</time>
      </trkpt>
      <trkpt lat="46.6217" lon="-1.87227">
        <ele>8</ele>
        <time>2019-02-21T14:19:51Z</time>
      </trkpt>
      <trkpt lat="46.62174" lon="-1.87228">
        <ele>8</ele>
        <time>2019-02-21T14:19:56Z</time>
      </trkpt>
      <trkpt lat="46.62175" lon="-1.87229">
        <ele>8</ele>
        <time>2019-02-21T14:19:59Z</time>
      </trkpt>
      <trkpt lat="46.62175" lon="-1.87229">
        <ele>8</ele>
        <time>2019-02-21T14:20:01Z</time>
      </trkpt>
      <trkpt lat="46.62175" lon="-1.87229">
        <ele>8</ele>
        <time>2019-02-21T14:20:04Z</time>
      </trkpt>
      <trkpt lat="46.62176" lon="-1.87229">
        <ele>8</ele>
        <time>2019-02-21T14:20:06Z</time>
      </trkpt>
      <trkpt lat="46.62176" lon="-1.8723">
        <ele>8</ele>
        <time>2019-02-21T14:20:09Z</time>
      </trkpt>
      <trkpt lat="46.62176" lon="-1.87229">
        <ele>8</ele>
        <time>2019-02-21T14:20:11Z</time>
      </trkpt>
      <trkpt lat="46.62177" lon="-1.87228">
        <ele>8</ele>
        <time>2019-02-21T14:20:14Z</time>
      </trkpt>
      <trkpt lat="46.62179" lon="-1.87229">
        <ele>8</ele>
        <time>2019-02-21T14:20:16Z</time>
      </trkpt>
      <trkpt lat="46.62181" lon="-1.87231">
        <ele>8</ele>
        <time>2019-02-21T14:20:19Z</time>
      </trkpt>
      <trkpt lat="46.62183" lon="-1.87233">
        <ele>8</ele>
        <time>2019-02-21T14:20:21Z</time>
      </trkpt>
      <trkpt lat="46.62189" lon="-1.87238">
        <ele>8</ele>
        <time>2019-02-21T14:20:26Z</time>
      </trkpt>
      <trkpt lat="46.62191" lon="-1.8724">
        <ele>8</ele>
        <time>2019-02-21T14:20:29Z</time>
      </trkpt>
      <trkpt lat="46.62195" lon="-1.87243">
        <ele>8</ele>
        <time>2019-02-21T14:20:31Z</time>
      </trkpt>
      <trkpt lat="46.62197" lon="-1.87245">
        <ele>8</ele>
        <time>2019-02-21T14:20:34Z</time>
      </trkpt>
      <trkpt lat="46.622" lon="-1.87247">
        <ele>8</ele>
        <time>2019-02-21T14:20:36Z</time>
      </trkpt>
      <trkpt lat="46.62203" lon="-1.87249">
        <ele>8</ele>
        <time>2019-02-21T14:20:39Z</time>
      </trkpt>
      <trkpt lat="46.62207" lon="-1.87252">
        <ele>8</ele>
        <time>2019-02-21T14:20:41Z</time>
      </trkpt>
      <trkpt lat="46.62209" lon="-1.87253">
        <ele>8</ele>
        <time>2019-02-21T14:20:44Z</time>
      </trkpt>
      <trkpt lat="46.62212" lon="-1.87255">
        <ele>8</ele>
        <time>2019-02-21T14:20:46Z</time>
      </trkpt>
      <trkpt lat="46.62215" lon="-1.87257">
        <ele>8</ele>
        <time>2019-02-21T14:20:49Z</time>
      </trkpt>
      <trkpt lat="46.62219" lon="-1.87259">
        <ele>7</ele>
        <time>2019-02-21T14:20:52Z</time>
      </trkpt>
      <trkpt lat="46.62225" lon="-1.87263">
        <ele>7</ele>
        <time>2019-02-21T14:20:56Z</time>
      </trkpt>
      <trkpt lat="46.62227" lon="-1.87266">
        <ele>7</ele>
        <time>2019-02-21T14:20:59Z</time>
      </trkpt>
      <trkpt lat="46.6223" lon="-1.87269">
        <ele>7</ele>
        <time>2019-02-21T14:21:01Z</time>
      </trkpt>
      <trkpt lat="46.62233" lon="-1.87271">
        <ele>7</ele>
        <time>2019-02-21T14:21:04Z</time>
      </trkpt>
      <trkpt lat="46.62237" lon="-1.87274">
        <ele>7</ele>
        <time>2019-02-21T14:21:07Z</time>
      </trkpt>
      <trkpt lat="46.6224" lon="-1.87275">
        <ele>7</ele>
        <time>2019-02-21T14:21:09Z</time>
      </trkpt>
      <trkpt lat="46.62244" lon="-1.87277">
        <ele>7</ele>
        <time>2019-02-21T14:21:12Z</time>
      </trkpt>
      <trkpt lat="46.62246" lon="-1.87278">
        <ele>7</ele>
        <time>2019-02-21T14:21:14Z</time>
      </trkpt>
      <trkpt lat="46.6225" lon="-1.8728">
        <ele>7</ele>
        <time>2019-02-21T14:21:17Z</time>
      </trkpt>
      <trkpt lat="46.62252" lon="-1.87282">
        <ele>7</ele>
        <time>2019-02-21T14:21:19Z</time>
      </trkpt>
      <trkpt lat="46.62256" lon="-1.87284">
        <ele>7</ele>
        <time>2019-02-21T14:21:22Z</time>
      </trkpt>
      <trkpt lat="46.62262" lon="-1.87288">
        <ele>7</ele>
        <time>2019-02-21T14:21:27Z</time>
      </trkpt>
      <trkpt lat="46.62265" lon="-1.87289">
        <ele>7</ele>
        <time>2019-02-21T14:21:29Z</time>
      </trkpt>
      <trkpt lat="46.62268" lon="-1.87292">
        <ele>6</ele>
        <time>2019-02-21T14:21:32Z</time>
      </trkpt>
      <trkpt lat="46.62271" lon="-1.87293">
        <ele>6</ele>
        <time>2019-02-21T14:21:34Z</time>
      </trkpt>
      <trkpt lat="46.62274" lon="-1.87296">
        <ele>6</ele>
        <time>2019-02-21T14:21:37Z</time>
      </trkpt>
      <trkpt lat="46.62277" lon="-1.87298">
        <ele>6</ele>
        <time>2019-02-21T14:21:39Z</time>
      </trkpt>
      <trkpt lat="46.6228" lon="-1.873">
        <ele>6</ele>
        <time>2019-02-21T14:21:42Z</time>
      </trkpt>
      <trkpt lat="46.62283" lon="-1.87303">
        <ele>6</ele>
        <time>2019-02-21T14:21:44Z</time>
      </trkpt>
      <trkpt lat="46.62286" lon="-1.87304">
        <ele>6</ele>
        <time>2019-02-21T14:21:47Z</time>
      </trkpt>
      <trkpt lat="46.62289" lon="-1.87306">
        <ele>6</ele>
        <time>2019-02-21T14:21:49Z</time>
      </trkpt>
      <trkpt lat="46.62292" lon="-1.87308">
        <ele>6</ele>
        <time>2019-02-21T14:21:52Z</time>
      </trkpt>
      <trkpt lat="46.62298" lon="-1.87312">
        <ele>6</ele>
        <time>2019-02-21T14:21:57Z</time>
      </trkpt>
      <trkpt lat="46.62301" lon="-1.87314">
        <ele>6</ele>
        <time>2019-02-21T14:22:00Z</time>
      </trkpt>
      <trkpt lat="46.62304" lon="-1.87316">
        <ele>7</ele>
        <time>2019-02-21T14:22:02Z</time>
      </trkpt>
      <trkpt lat="46.62307" lon="-1.87317">
        <ele>6</ele>
        <time>2019-02-21T14:22:05Z</time>
      </trkpt>
      <trkpt lat="46.62309" lon="-1.87319">
        <ele>6</ele>
        <time>2019-02-21T14:22:07Z</time>
      </trkpt>
      <trkpt lat="46.62313" lon="-1.87321">
        <ele>6</ele>
        <time>2019-02-21T14:22:10Z</time>
      </trkpt>
      <trkpt lat="46.62317" lon="-1.87322">
        <ele>7</ele>
        <time>2019-02-21T14:22:12Z</time>
      </trkpt>
      <trkpt lat="46.62319" lon="-1.87323">
        <ele>7</ele>
        <time>2019-02-21T14:22:15Z</time>
      </trkpt>
      <trkpt lat="46.62322" lon="-1.87325">
        <ele>7</ele>
        <time>2019-02-21T14:22:17Z</time>
      </trkpt>
      <trkpt lat="46.62324" lon="-1.87327">
        <ele>7</ele>
        <time>2019-02-21T14:22:20Z</time>
      </trkpt>
      <trkpt lat="46.62328" lon="-1.87328">
        <ele>7</ele>
        <time>2019-02-21T14:22:23Z</time>
      </trkpt>
      <trkpt lat="46.62334" lon="-1.8733">
        <ele>7</ele>
        <time>2019-02-21T14:22:28Z</time>
      </trkpt>
      <trkpt lat="46.62338" lon="-1.87332">
        <ele>7</ele>
        <time>2019-02-21T14:22:30Z</time>
      </trkpt>
      <trkpt lat="46.6234" lon="-1.87332">
        <ele>7</ele>
        <time>2019-02-21T14:22:33Z</time>
      </trkpt>
      <trkpt lat="46.62344" lon="-1.87334">
        <ele>7</ele>
        <time>2019-02-21T14:22:35Z</time>
      </trkpt>
      <trkpt lat="46.62347" lon="-1.87335">
        <ele>7</ele>
        <time>2019-02-21T14:22:38Z</time>
      </trkpt>
      <trkpt lat="46.62351" lon="-1.87337">
        <ele>8</ele>
        <time>2019-02-21T14:22:41Z</time>
      </trkpt>
      <trkpt lat="46.62353" lon="-1.87338">
        <ele>8</ele>
        <time>2019-02-21T14:22:43Z</time>
      </trkpt>
      <trkpt lat="46.62356" lon="-1.8734">
        <ele>8</ele>
        <time>2019-02-21T14:22:46Z</time>
      </trkpt>
      <trkpt lat="46.6236" lon="-1.87342">
        <ele>8</ele>
        <time>2019-02-21T14:22:48Z</time>
      </trkpt>
      <trkpt lat="46.62362" lon="-1.87343">
        <ele>7</ele>
        <time>2019-02-21T14:22:51Z</time>
      </trkpt>
      <trkpt lat="46.62366" lon="-1.87344">
        <ele>8</ele>
        <time>2019-02-21T14:22:54Z</time>
      </trkpt>
      <trkpt lat="46.62372" lon="-1.87346">
        <ele>8</ele>
        <time>2019-02-21T14:22:59Z</time>
      </trkpt>
      <trkpt lat="46.62376" lon="-1.87348">
        <ele>8</ele>
        <time>2019-02-21T14:23:01Z</time>
      </trkpt>
      <trkpt lat="46.62377" lon="-1.87349">
        <ele>8</ele>
        <time>2019-02-21T14:23:04Z</time>
      </trkpt>
      <trkpt lat="46.62378" lon="-1.87348">
        <ele>8</ele>
        <time>2019-02-21T14:23:06Z</time>
      </trkpt>
      <trkpt lat="46.62378" lon="-1.87348">
        <ele>8</ele>
        <time>2019-02-21T14:23:09Z</time>
      </trkpt>
      <trkpt lat="46.62379" lon="-1.87349">
        <ele>8</ele>
        <time>2019-02-21T14:23:12Z</time>
      </trkpt>
      <trkpt lat="46.6238" lon="-1.87349">
        <ele>8</ele>
        <time>2019-02-21T14:23:14Z</time>
      </trkpt>
      <trkpt lat="46.62382" lon="-1.87349">
        <ele>8</ele>
        <time>2019-02-21T14:23:17Z</time>
      </trkpt>
      <trkpt lat="46.62382" lon="-1.87349">
        <ele>8</ele>
        <time>2019-02-21T14:23:19Z</time>
      </trkpt>
      <trkpt lat="46.62384" lon="-1.87349">
        <ele>8</ele>
        <time>2019-02-21T14:23:22Z</time>
      </trkpt>
      <trkpt lat="46.6239" lon="-1.87351">
        <ele>8</ele>
        <time>2019-02-21T14:23:27Z</time>
      </trkpt>
      <trkpt lat="46.62394" lon="-1.87353">
        <ele>8</ele>
        <time>2019-02-21T14:23:30Z</time>
      </trkpt>
      <trkpt lat="46.62397" lon="-1.87354">
        <ele>8</ele>
        <time>2019-02-21T14:23:32Z</time>
      </trkpt>
      <trkpt lat="46.624" lon="-1.87354">
        <ele>8</ele>
        <time>2019-02-21T14:23:35Z</time>
      </trkpt>
      <trkpt lat="46.62403" lon="-1.87355">
        <ele>8</ele>
        <time>2019-02-21T14:23:37Z</time>
      </trkpt>
      <trkpt lat="46.62406" lon="-1.87356">
        <ele>8</ele>
        <time>2019-02-21T14:23:40Z</time>
      </trkpt>
      <trkpt lat="46.62409" lon="-1.87357">
        <ele>8</ele>
        <time>2019-02-21T14:23:43Z</time>
      </trkpt>
      <trkpt lat="46.62411" lon="-1.87358">
        <ele>8</ele>
        <time>2019-02-21T14:23:45Z</time>
      </trkpt>
      <trkpt lat="46.62414" lon="-1.87359">
        <ele>8</ele>
        <time>2019-02-21T14:23:48Z</time>
      </trkpt>
      <trkpt lat="46.62417" lon="-1.87359">
        <ele>8</ele>
        <time>2019-02-21T14:23:50Z</time>
      </trkpt>
      <trkpt lat="46.62421" lon="-1.87359">
        <ele>8</ele>
        <time>2019-02-21T14:23:53Z</time>
      </trkpt>
      <trkpt lat="46.62427" lon="-1.87361">
        <ele>8</ele>
        <time>2019-02-21T14:23:58Z</time>
      </trkpt>
      <trkpt lat="46.6243" lon="-1.87361">
        <ele>8</ele>
        <time>2019-02-21T14:24:00Z</time>
      </trkpt>
      <trkpt lat="46.62433" lon="-1.87362">
        <ele>8</ele>
        <time>2019-02-21T14:24:03Z</time>
      </trkpt>
      <trkpt lat="46.62436" lon="-1.87363">
        <ele>8</ele>
        <time>2019-02-21T14:24:05Z</time>
      </trkpt>
      <trkpt lat="46.62439" lon="-1.87363">
        <ele>8</ele>
        <time>2019-02-21T14:24:08Z</time>
      </trkpt>
      <trkpt lat="46.62443" lon="-1.87363">
        <ele>8</ele>
        <time>2019-02-21T14:24:11Z</time>
      </trkpt>
      <trkpt lat="46.62445" lon="-1.87364">
        <ele>8</ele>
        <time>2019-02-21T14:24:13Z</time>
      </trkpt>
      <trkpt lat="46.62449" lon="-1.87363">
        <ele>8</ele>
        <time>2019-02-21T14:24:16Z</time>
      </trkpt>
      <trkpt lat="46.62453" lon="-1.87364">
        <ele>8</ele>
        <time>2019-02-21T14:24:18Z</time>
      </trkpt>
      <trkpt lat="46.62455" lon="-1.87364">
        <ele>8</ele>
        <time>2019-02-21T14:24:21Z</time>
      </trkpt>
      <trkpt lat="46.62459" lon="-1.87364">
        <ele>8</ele>
        <time>2019-02-21T14:24:24Z</time>
      </trkpt>
      <trkpt lat="46.62465" lon="-1.87365">
        <ele>8</ele>
        <time>2019-02-21T14:24:29Z</time>
      </trkpt>
      <trkpt lat="46.62468" lon="-1.87364">
        <ele>8</ele>
        <time>2019-02-21T14:24:31Z</time>
      </trkpt>
      <trkpt lat="46.6247" lon="-1.87365">
        <ele>8</ele>
        <time>2019-02-21T14:24:34Z</time>
      </trkpt>
      <trkpt lat="46.62474" lon="-1.87364">
        <ele>8</ele>
        <time>2019-02-21T14:24:37Z</time>
      </trkpt>
      <trkpt lat="46.62476" lon="-1.87364">
        <ele>8</ele>
        <time>2019-02-21T14:24:39Z</time>
      </trkpt>
      <trkpt lat="46.6248" lon="-1.87363">
        <ele>8</ele>
        <time>2019-02-21T14:24:42Z</time>
      </trkpt>
      <trkpt lat="46.62483" lon="-1.87363">
        <ele>8</ele>
        <time>2019-02-21T14:24:44Z</time>
      </trkpt>
      <trkpt lat="46.62485" lon="-1.87363">
        <ele>8</ele>
        <time>2019-02-21T14:24:47Z</time>
      </trkpt>
      <trkpt lat="46.62489" lon="-1.87362">
        <ele>8</ele>
        <time>2019-02-21T14:24:49Z</time>
      </trkpt>
      <trkpt lat="46.62492" lon="-1.87362">
        <ele>8</ele>
        <time>2019-02-21T14:24:52Z</time>
      </trkpt>
      <trkpt lat="46.62496" lon="-1.87362">
        <ele>8</ele>
        <time>2019-02-21T14:24:55Z</time>
      </trkpt>
      <trkpt lat="46.62501" lon="-1.8736">
        <ele>8</ele>
        <time>2019-02-21T14:25:00Z</time>
      </trkpt>
      <trkpt lat="46.62505" lon="-1.8736">
        <ele>8</ele>
        <time>2019-02-21T14:25:03Z</time>
      </trkpt>
      <trkpt lat="46.62508" lon="-1.87361">
        <ele>8</ele>
        <time>2019-02-21T14:25:05Z</time>
      </trkpt>
      <trkpt lat="46.62511" lon="-1.87361">
        <ele>8</ele>
        <time>2019-02-21T14:25:08Z</time>
      </trkpt>
      <trkpt lat="46.62513" lon="-1.87362">
        <ele>8</ele>
        <time>2019-02-21T14:25:10Z</time>
      </trkpt>
      <trkpt lat="46.62517" lon="-1.87363">
        <ele>8</ele>
        <time>2019-02-21T14:25:13Z</time>
      </trkpt>
      <trkpt lat="46.6252" lon="-1.87363">
        <ele>8</ele>
        <time>2019-02-21T14:25:15Z</time>
      </trkpt>
      <trkpt lat="46.62522" lon="-1.87363">
        <ele>8</ele>
        <time>2019-02-21T14:25:18Z</time>
      </trkpt>
      <trkpt lat="46.62525" lon="-1.87363">
        <ele>8</ele>
        <time>2019-02-21T14:25:21Z</time>
      </trkpt>
      <trkpt lat="46.62528" lon="-1.87364">
        <ele>8</ele>
        <time>2019-02-21T14:25:23Z</time>
      </trkpt>
      <trkpt lat="46.62532" lon="-1.87364">
        <ele>8</ele>
        <time>2019-02-21T14:25:26Z</time>
      </trkpt>
      <trkpt lat="46.62539" lon="-1.87366">
        <ele>8</ele>
        <time>2019-02-21T14:25:31Z</time>
      </trkpt>
      <trkpt lat="46.62542" lon="-1.87366">
        <ele>8</ele>
        <time>2019-02-21T14:25:34Z</time>
      </trkpt>
      <trkpt lat="46.62545" lon="-1.87366">
        <ele>8</ele>
        <time>2019-02-21T14:25:36Z</time>
      </trkpt>
      <trkpt lat="46.62549" lon="-1.87367">
        <ele>8</ele>
        <time>2019-02-21T14:25:39Z</time>
      </trkpt>
      <trkpt lat="46.62553" lon="-1.87368">
        <ele>8</ele>
        <time>2019-02-21T14:25:41Z</time>
      </trkpt>
      <trkpt lat="46.62555" lon="-1.87369">
        <ele>8</ele>
        <time>2019-02-21T14:25:44Z</time>
      </trkpt>
      <trkpt lat="46.62558" lon="-1.8737">
        <ele>8</ele>
        <time>2019-02-21T14:25:47Z</time>
      </trkpt>
      <trkpt lat="46.62561" lon="-1.87371">
        <ele>8</ele>
        <time>2019-02-21T14:25:49Z</time>
      </trkpt>
      <trkpt lat="46.62564" lon="-1.87371">
        <ele>8</ele>
        <time>2019-02-21T14:25:52Z</time>
      </trkpt>
      <trkpt lat="46.62568" lon="-1.87372">
        <ele>8</ele>
        <time>2019-02-21T14:25:54Z</time>
      </trkpt>
      <trkpt lat="46.62571" lon="-1.87371">
        <ele>8</ele>
        <time>2019-02-21T14:25:57Z</time>
      </trkpt>
      <trkpt lat="46.62577" lon="-1.8737">
        <ele>8</ele>
        <time>2019-02-21T14:26:02Z</time>
      </trkpt>
      <trkpt lat="46.6258" lon="-1.87369">
        <ele>8</ele>
        <time>2019-02-21T14:26:05Z</time>
      </trkpt>
      <trkpt lat="46.62583" lon="-1.87369">
        <ele>8</ele>
        <time>2019-02-21T14:26:07Z</time>
      </trkpt>
      <trkpt lat="46.62587" lon="-1.87368">
        <ele>8</ele>
        <time>2019-02-21T14:26:10Z</time>
      </trkpt>
      <trkpt lat="46.62589" lon="-1.87367">
        <ele>8</ele>
        <time>2019-02-21T14:26:12Z</time>
      </trkpt>
      <trkpt lat="46.62593" lon="-1.87366">
        <ele>8</ele>
        <time>2019-02-21T14:26:15Z</time>
      </trkpt>
      <trkpt lat="46.62597" lon="-1.87364">
        <ele>8</ele>
        <time>2019-02-21T14:26:17Z</time>
      </trkpt>
      <trkpt lat="46.626" lon="-1.87364">
        <ele>8</ele>
        <time>2019-02-21T14:26:20Z</time>
      </trkpt>
      <trkpt lat="46.62603" lon="-1.87364">
        <ele>8</ele>
        <time>2019-02-21T14:26:23Z</time>
      </trkpt>
      <trkpt lat="46.62606" lon="-1.87364">
        <ele>8</ele>
        <time>2019-02-21T14:26:25Z</time>
      </trkpt>
      <trkpt lat="46.62611" lon="-1.87363">
        <ele>8</ele>
        <time>2019-02-21T14:26:30Z</time>
      </trkpt>
      <trkpt lat="46.62614" lon="-1.87362">
        <ele>8</ele>
        <time>2019-02-21T14:26:33Z</time>
      </trkpt>
      <trkpt lat="46.62618" lon="-1.87362">
        <ele>8</ele>
        <time>2019-02-21T14:26:35Z</time>
      </trkpt>
      <trkpt lat="46.62621" lon="-1.87362">
        <ele>8</ele>
        <time>2019-02-21T14:26:38Z</time>
      </trkpt>
      <trkpt lat="46.62624" lon="-1.87361">
        <ele>7</ele>
        <time>2019-02-21T14:26:41Z</time>
      </trkpt>
      <trkpt lat="46.62628" lon="-1.87359">
        <ele>7</ele>
        <time>2019-02-21T14:26:43Z</time>
      </trkpt>
      <trkpt lat="46.6263" lon="-1.87358">
        <ele>7</ele>
        <time>2019-02-21T14:26:46Z</time>
      </trkpt>
      <trkpt lat="46.62631" lon="-1.87357">
        <ele>7</ele>
        <time>2019-02-21T14:26:48Z</time>
      </trkpt>
      <trkpt lat="46.62632" lon="-1.87356">
        <ele>7</ele>
        <time>2019-02-21T14:26:51Z</time>
      </trkpt>
      <trkpt lat="46.62633" lon="-1.87356">
        <ele>7</ele>
        <time>2019-02-21T14:26:54Z</time>
      </trkpt>
      <trkpt lat="46.62633" lon="-1.87355">
        <ele>7</ele>
        <time>2019-02-21T14:26:56Z</time>
      </trkpt>
      <trkpt lat="46.62633" lon="-1.87355">
        <ele>7</ele>
        <time>2019-02-21T14:27:01Z</time>
      </trkpt>
      <trkpt lat="46.62634" lon="-1.87355">
        <ele>7</ele>
        <time>2019-02-21T14:27:04Z</time>
      </trkpt>
      <trkpt lat="46.62635" lon="-1.87356">
        <ele>7</ele>
        <time>2019-02-21T14:27:06Z</time>
      </trkpt>
      <trkpt lat="46.62635" lon="-1.87356">
        <ele>7</ele>
        <time>2019-02-21T14:27:09Z</time>
      </trkpt>
      <trkpt lat="46.62635" lon="-1.87356">
        <ele>7</ele>
        <time>2019-02-21T14:27:11Z</time>
      </trkpt>
      <trkpt lat="46.62635" lon="-1.87357">
        <ele>7</ele>
        <time>2019-02-21T14:27:14Z</time>
      </trkpt>
      <trkpt lat="46.62635" lon="-1.87357">
        <ele>7</ele>
        <time>2019-02-21T14:27:17Z</time>
      </trkpt>
      <trkpt lat="46.62636" lon="-1.87357">
        <ele>7</ele>
        <time>2019-02-21T14:27:19Z</time>
      </trkpt>
      <trkpt lat="46.62635" lon="-1.87358">
        <ele>7</ele>
        <time>2019-02-21T14:27:22Z</time>
      </trkpt>
      <trkpt lat="46.62635" lon="-1.87358">
        <ele>7</ele>
        <time>2019-02-21T14:27:24Z</time>
      </trkpt>
      <trkpt lat="46.62635" lon="-1.87358">
        <ele>7</ele>
        <time>2019-02-21T14:27:27Z</time>
      </trkpt>
      <trkpt lat="46.62635" lon="-1.87359">
        <ele>7</ele>
        <time>2019-02-21T14:27:32Z</time>
      </trkpt>
      <trkpt lat="46.62636" lon="-1.87359">
        <ele>7</ele>
        <time>2019-02-21T14:27:34Z</time>
      </trkpt>
      <trkpt lat="46.62636" lon="-1.87359">
        <ele>7</ele>
        <time>2019-02-21T14:27:37Z</time>
      </trkpt>
      <trkpt lat="46.62636" lon="-1.87357">
        <ele>7</ele>
        <time>2019-02-21T14:27:40Z</time>
      </trkpt>
      <trkpt lat="46.62638" lon="-1.87356">
        <ele>7</ele>
        <time>2019-02-21T14:27:42Z</time>
      </trkpt>
      <trkpt lat="46.62638" lon="-1.87358">
        <ele>7</ele>
        <time>2019-02-21T14:27:45Z</time>
      </trkpt>
      <trkpt lat="46.62638" lon="-1.87358">
        <ele>7</ele>
        <time>2019-02-21T14:27:47Z</time>
      </trkpt>
      <trkpt lat="46.62639" lon="-1.87358">
        <ele>7</ele>
        <time>2019-02-21T14:27:50Z</time>
      </trkpt>
      <trkpt lat="46.62639" lon="-1.87358">
        <ele>7</ele>
        <time>2019-02-21T14:27:52Z</time>
      </trkpt>
      <trkpt lat="46.62639" lon="-1.87358">
        <ele>7</ele>
        <time>2019-02-21T14:27:55Z</time>
      </trkpt>
      <trkpt lat="46.62638" lon="-1.87357">
        <ele>7</ele>
        <time>2019-02-21T14:27:58Z</time>
      </trkpt>
      <trkpt lat="46.62642" lon="-1.87356">
        <ele>7</ele>
        <time>2019-02-21T14:28:03Z</time>
      </trkpt>
      <trkpt lat="46.62644" lon="-1.87356">
        <ele>7</ele>
        <time>2019-02-21T14:28:05Z</time>
      </trkpt>
      <trkpt lat="46.62648" lon="-1.87356">
        <ele>7</ele>
        <time>2019-02-21T14:28:08Z</time>
      </trkpt>
      <trkpt lat="46.62651" lon="-1.87357">
        <ele>7</ele>
        <time>2019-02-21T14:28:10Z</time>
      </trkpt>
      <trkpt lat="46.62653" lon="-1.87358">
        <ele>7</ele>
        <time>2019-02-21T14:28:13Z</time>
      </trkpt>
      <trkpt lat="46.62656" lon="-1.87359">
        <ele>7</ele>
        <time>2019-02-21T14:28:15Z</time>
      </trkpt>
      <trkpt lat="46.62658" lon="-1.8736">
        <ele>7</ele>
        <time>2019-02-21T14:28:18Z</time>
      </trkpt>
      <trkpt lat="46.62662" lon="-1.87361">
        <ele>7</ele>
        <time>2019-02-21T14:28:20Z</time>
      </trkpt>
      <trkpt lat="46.62665" lon="-1.87362">
        <ele>7</ele>
        <time>2019-02-21T14:28:23Z</time>
      </trkpt>
      <trkpt lat="46.62669" lon="-1.87362">
        <ele>7</ele>
        <time>2019-02-21T14:28:26Z</time>
      </trkpt>
      <trkpt lat="46.62671" lon="-1.87362">
        <ele>7</ele>
        <time>2019-02-21T14:28:28Z</time>
      </trkpt>
      <trkpt lat="46.62678" lon="-1.87366">
        <ele>7</ele>
        <time>2019-02-21T14:28:33Z</time>
      </trkpt>
      <trkpt lat="46.62682" lon="-1.87367">
        <ele>8</ele>
        <time>2019-02-21T14:28:36Z</time>
      </trkpt>
      <trkpt lat="46.62685" lon="-1.87369">
        <ele>8</ele>
        <time>2019-02-21T14:28:38Z</time>
      </trkpt>
      <trkpt lat="46.62687" lon="-1.8737">
        <ele>8</ele>
        <time>2019-02-21T14:28:41Z</time>
      </trkpt>
      <trkpt lat="46.62689" lon="-1.8737">
        <ele>8</ele>
        <time>2019-02-21T14:28:43Z</time>
      </trkpt>
      <trkpt lat="46.6269" lon="-1.8737">
        <ele>8</ele>
        <time>2019-02-21T14:28:46Z</time>
      </trkpt>
      <trkpt lat="46.62691" lon="-1.87371">
        <ele>8</ele>
        <time>2019-02-21T14:28:48Z</time>
      </trkpt>
      <trkpt lat="46.62692" lon="-1.87373">
        <ele>8</ele>
        <time>2019-02-21T14:28:51Z</time>
      </trkpt>
      <trkpt lat="46.62692" lon="-1.87373">
        <ele>8</ele>
        <time>2019-02-21T14:28:53Z</time>
      </trkpt>
      <trkpt lat="46.62692" lon="-1.87373">
        <ele>8</ele>
        <time>2019-02-21T14:28:56Z</time>
      </trkpt>
      <trkpt lat="46.62692" lon="-1.87373">
        <ele>8</ele>
        <time>2019-02-21T14:28:58Z</time>
      </trkpt>
      <trkpt lat="46.62692" lon="-1.87373">
        <ele>8</ele>
        <time>2019-02-21T14:29:03Z</time>
      </trkpt>
      <trkpt lat="46.62692" lon="-1.87373">
        <ele>8</ele>
        <time>2019-02-21T14:29:06Z</time>
      </trkpt>
      <trkpt lat="46.62692" lon="-1.87373">
        <ele>8</ele>
        <time>2019-02-21T14:29:08Z</time>
      </trkpt>
      <trkpt lat="46.62692" lon="-1.87374">
        <ele>8</ele>
        <time>2019-02-21T14:29:11Z</time>
      </trkpt>
      <trkpt lat="46.62693" lon="-1.87374">
        <ele>8</ele>
        <time>2019-02-21T14:29:13Z</time>
      </trkpt>
      <trkpt lat="46.62693" lon="-1.87371">
        <ele>8</ele>
        <time>2019-02-21T14:29:16Z</time>
      </trkpt>
      <trkpt lat="46.62695" lon="-1.87368">
        <ele>8</ele>
        <time>2019-02-21T14:29:18Z</time>
      </trkpt>
      <trkpt lat="46.62695" lon="-1.87366">
        <ele>8</ele>
        <time>2019-02-21T14:29:21Z</time>
      </trkpt>
      <trkpt lat="46.62697" lon="-1.87362">
        <ele>8</ele>
        <time>2019-02-21T14:29:23Z</time>
      </trkpt>
      <trkpt lat="46.62698" lon="-1.87358">
        <ele>8</ele>
        <time>2019-02-21T14:29:26Z</time>
      </trkpt>
      <trkpt lat="46.627" lon="-1.87348">
        <ele>8</ele>
        <time>2019-02-21T14:29:31Z</time>
      </trkpt>
      <trkpt lat="46.627" lon="-1.87341">
        <ele>8</ele>
        <time>2019-02-21T14:29:33Z</time>
      </trkpt>
      <trkpt lat="46.627" lon="-1.87337">
        <ele>8</ele>
        <time>2019-02-21T14:29:36Z</time>
      </trkpt>
      <trkpt lat="46.62701" lon="-1.87331">
        <ele>8</ele>
        <time>2019-02-21T14:29:38Z</time>
      </trkpt>
      <trkpt lat="46.62702" lon="-1.87326">
        <ele>8</ele>
        <time>2019-02-21T14:29:41Z</time>
      </trkpt>
      <trkpt lat="46.62702" lon="-1.8732">
        <ele>8</ele>
        <time>2019-02-21T14:29:43Z</time>
      </trkpt>
      <trkpt lat="46.62702" lon="-1.87315">
        <ele>8</ele>
        <time>2019-02-21T14:29:46Z</time>
      </trkpt>
      <trkpt lat="46.62703" lon="-1.87309">
        <ele>8</ele>
        <time>2019-02-21T14:29:48Z</time>
      </trkpt>
      <trkpt lat="46.62703" lon="-1.87305">
        <ele>8</ele>
        <time>2019-02-21T14:29:51Z</time>
      </trkpt>
      <trkpt lat="46.62705" lon="-1.87299">
        <ele>9</ele>
        <time>2019-02-21T14:29:53Z</time>
      </trkpt>
      <trkpt lat="46.62706" lon="-1.87294">
        <ele>9</ele>
        <time>2019-02-21T14:29:56Z</time>
      </trkpt>
      <trkpt lat="46.62708" lon="-1.87284">
        <ele>9</ele>
        <time>2019-02-21T14:30:01Z</time>
      </trkpt>
      <trkpt lat="46.6271" lon="-1.87279">
        <ele>9</ele>
        <time>2019-02-21T14:30:03Z</time>
      </trkpt>
      <trkpt lat="46.62711" lon="-1.87275">
        <ele>9</ele>
        <time>2019-02-21T14:30:06Z</time>
      </trkpt>
      <trkpt lat="46.62712" lon="-1.87269">
        <ele>9</ele>
        <time>2019-02-21T14:30:08Z</time>
      </trkpt>
      <trkpt lat="46.62713" lon="-1.87266">
        <ele>9</ele>
        <time>2019-02-21T14:30:11Z</time>
      </trkpt>
      <trkpt lat="46.62715" lon="-1.8726">
        <ele>10</ele>
        <time>2019-02-21T14:30:14Z</time>
      </trkpt>
      <trkpt lat="46.62715" lon="-1.87256">
        <ele>10</ele>
        <time>2019-02-21T14:30:16Z</time>
      </trkpt>
      <trkpt lat="46.62717" lon="-1.87251">
        <ele>10</ele>
        <time>2019-02-21T14:30:18Z</time>
      </trkpt>
      <trkpt lat="46.62718" lon="-1.87247">
        <ele>10</ele>
        <time>2019-02-21T14:30:21Z</time>
      </trkpt>
      <trkpt lat="46.6272" lon="-1.87241">
        <ele>10</ele>
        <time>2019-02-21T14:30:24Z</time>
      </trkpt>
      <trkpt lat="46.62722" lon="-1.87237">
        <ele>10</ele>
        <time>2019-02-21T14:30:26Z</time>
      </trkpt>
      <trkpt lat="46.62724" lon="-1.87225">
        <ele>10</ele>
        <time>2019-02-21T14:30:31Z</time>
      </trkpt>
      <trkpt lat="46.62725" lon="-1.87218">
        <ele>10</ele>
        <time>2019-02-21T14:30:34Z</time>
      </trkpt>
      <trkpt lat="46.62727" lon="-1.87211">
        <ele>10</ele>
        <time>2019-02-21T14:30:36Z</time>
      </trkpt>
      <trkpt lat="46.62729" lon="-1.87207">
        <ele>10</ele>
        <time>2019-02-21T14:30:39Z</time>
      </trkpt>
      <trkpt lat="46.62732" lon="-1.872">
        <ele>10</ele>
        <time>2019-02-21T14:30:41Z</time>
      </trkpt>
      <trkpt lat="46.62733" lon="-1.87197">
        <ele>10</ele>
        <time>2019-02-21T14:30:44Z</time>
      </trkpt>
      <trkpt lat="46.62735" lon="-1.87193">
        <ele>10</ele>
        <time>2019-02-21T14:30:47Z</time>
      </trkpt>
      <trkpt lat="46.62736" lon="-1.87191">
        <ele>10</ele>
        <time>2019-02-21T14:30:49Z</time>
      </trkpt>
      <trkpt lat="46.62738" lon="-1.87186">
        <ele>10</ele>
        <time>2019-02-21T14:30:52Z</time>
      </trkpt>
      <trkpt lat="46.62738" lon="-1.87183">
        <ele>10</ele>
        <time>2019-02-21T14:30:54Z</time>
      </trkpt>
      <trkpt lat="46.62738" lon="-1.87182">
        <ele>10</ele>
        <time>2019-02-21T14:30:57Z</time>
      </trkpt>
      <trkpt lat="46.62738" lon="-1.87183">
        <ele>10</ele>
        <time>2019-02-21T14:31:02Z</time>
      </trkpt>
      <trkpt lat="46.6274" lon="-1.87179">
        <ele>10</ele>
        <time>2019-02-21T14:31:05Z</time>
      </trkpt>
      <trkpt lat="46.6274" lon="-1.87175">
        <ele>10</ele>
        <time>2019-02-21T14:31:07Z</time>
      </trkpt>
      <trkpt lat="46.62743" lon="-1.8717">
        <ele>10</ele>
        <time>2019-02-21T14:31:10Z</time>
      </trkpt>
      <trkpt lat="46.62744" lon="-1.87166">
        <ele>10</ele>
        <time>2019-02-21T14:31:12Z</time>
      </trkpt>
      <trkpt lat="46.62746" lon="-1.87161">
        <ele>10</ele>
        <time>2019-02-21T14:31:15Z</time>
      </trkpt>
      <trkpt lat="46.62747" lon="-1.87157">
        <ele>10</ele>
        <time>2019-02-21T14:31:17Z</time>
      </trkpt>
      <trkpt lat="46.6275" lon="-1.87153">
        <ele>10</ele>
        <time>2019-02-21T14:31:20Z</time>
      </trkpt>
      <trkpt lat="46.62752" lon="-1.87148">
        <ele>10</ele>
        <time>2019-02-21T14:31:22Z</time>
      </trkpt>
      <trkpt lat="46.62752" lon="-1.87145">
        <ele>10</ele>
        <time>2019-02-21T14:31:25Z</time>
      </trkpt>
      <trkpt lat="46.62754" lon="-1.87139">
        <ele>10</ele>
        <time>2019-02-21T14:31:27Z</time>
      </trkpt>
      <trkpt lat="46.62756" lon="-1.8713">
        <ele>10</ele>
        <time>2019-02-21T14:31:33Z</time>
      </trkpt>
      <trkpt lat="46.62757" lon="-1.87127">
        <ele>9</ele>
        <time>2019-02-21T14:31:35Z</time>
      </trkpt>
      <trkpt lat="46.62759" lon="-1.87122">
        <ele>9</ele>
        <time>2019-02-21T14:31:38Z</time>
      </trkpt>
      <trkpt lat="46.62761" lon="-1.87119">
        <ele>9</ele>
        <time>2019-02-21T14:31:40Z</time>
      </trkpt>
      <trkpt lat="46.62763" lon="-1.87114">
        <ele>9</ele>
        <time>2019-02-21T14:31:43Z</time>
      </trkpt>
      <trkpt lat="46.62765" lon="-1.87108">
        <ele>9</ele>
        <time>2019-02-21T14:31:45Z</time>
      </trkpt>
      <trkpt lat="46.62766" lon="-1.87105">
        <ele>9</ele>
        <time>2019-02-21T14:31:48Z</time>
      </trkpt>
      <trkpt lat="46.62768" lon="-1.871">
        <ele>9</ele>
        <time>2019-02-21T14:31:50Z</time>
      </trkpt>
      <trkpt lat="46.6277" lon="-1.87097">
        <ele>9</ele>
        <time>2019-02-21T14:31:53Z</time>
      </trkpt>
      <trkpt lat="46.62772" lon="-1.87093">
        <ele>9</ele>
        <time>2019-02-21T14:31:56Z</time>
      </trkpt>
      <trkpt lat="46.62774" lon="-1.87091">
        <ele>9</ele>
        <time>2019-02-21T14:31:58Z</time>
      </trkpt>
      <trkpt lat="46.62778" lon="-1.87085">
        <ele>9</ele>
        <time>2019-02-21T14:32:03Z</time>
      </trkpt>
      <trkpt lat="46.6278" lon="-1.87081">
        <ele>9</ele>
        <time>2019-02-21T14:32:06Z</time>
      </trkpt>
      <trkpt lat="46.62782" lon="-1.87076">
        <ele>9</ele>
        <time>2019-02-21T14:32:08Z</time>
      </trkpt>
      <trkpt lat="46.62784" lon="-1.87073">
        <ele>9</ele>
        <time>2019-02-21T14:32:11Z</time>
      </trkpt>
      <trkpt lat="46.62787" lon="-1.87068">
        <ele>9</ele>
        <time>2019-02-21T14:32:13Z</time>
      </trkpt>
      <trkpt lat="46.62789" lon="-1.87065">
        <ele>9</ele>
        <time>2019-02-21T14:32:16Z</time>
      </trkpt>
      <trkpt lat="46.62792" lon="-1.87061">
        <ele>9</ele>
        <time>2019-02-21T14:32:19Z</time>
      </trkpt>
      <trkpt lat="46.62793" lon="-1.87058">
        <ele>9</ele>
        <time>2019-02-21T14:32:21Z</time>
      </trkpt>
      <trkpt lat="46.62797" lon="-1.87054">
        <ele>9</ele>
        <time>2019-02-21T14:32:24Z</time>
      </trkpt>
      <trkpt lat="46.62799" lon="-1.87051">
        <ele>9</ele>
        <time>2019-02-21T14:32:26Z</time>
      </trkpt>
      <trkpt lat="46.62803" lon="-1.87043">
        <ele>9</ele>
        <time>2019-02-21T14:32:31Z</time>
      </trkpt>
      <trkpt lat="46.62804" lon="-1.8704">
        <ele>9</ele>
        <time>2019-02-21T14:32:34Z</time>
      </trkpt>
      <trkpt lat="46.62806" lon="-1.87034">
        <ele>9</ele>
        <time>2019-02-21T14:32:37Z</time>
      </trkpt>
      <trkpt lat="46.62807" lon="-1.87031">
        <ele>9</ele>
        <time>2019-02-21T14:32:39Z</time>
      </trkpt>
      <trkpt lat="46.62809" lon="-1.87027">
        <ele>9</ele>
        <time>2019-02-21T14:32:42Z</time>
      </trkpt>
      <trkpt lat="46.6281" lon="-1.87023">
        <ele>10</ele>
        <time>2019-02-21T14:32:44Z</time>
      </trkpt>
      <trkpt lat="46.62812" lon="-1.87018">
        <ele>10</ele>
        <time>2019-02-21T14:32:47Z</time>
      </trkpt>
      <trkpt lat="46.62814" lon="-1.87015">
        <ele>10</ele>
        <time>2019-02-21T14:32:49Z</time>
      </trkpt>
      <trkpt lat="46.62815" lon="-1.8701">
        <ele>10</ele>
        <time>2019-02-21T14:32:52Z</time>
      </trkpt>
      <trkpt lat="46.62816" lon="-1.87005">
        <ele>10</ele>
        <time>2019-02-21T14:32:54Z</time>
      </trkpt>
      <trkpt lat="46.62817" lon="-1.87001">
        <ele>10</ele>
        <time>2019-02-21T14:32:57Z</time>
      </trkpt>
      <trkpt lat="46.6282" lon="-1.86992">
        <ele>10</ele>
        <time>2019-02-21T14:33:02Z</time>
      </trkpt>
      <trkpt lat="46.62821" lon="-1.86987">
        <ele>10</ele>
        <time>2019-02-21T14:33:05Z</time>
      </trkpt>
      <trkpt lat="46.62822" lon="-1.86984">
        <ele>10</ele>
        <time>2019-02-21T14:33:07Z</time>
      </trkpt>
      <trkpt lat="46.62823" lon="-1.86979">
        <ele>10</ele>
        <time>2019-02-21T14:33:10Z</time>
      </trkpt>
      <trkpt lat="46.62824" lon="-1.86976">
        <ele>10</ele>
        <time>2019-02-21T14:33:12Z</time>
      </trkpt>
      <trkpt lat="46.62825" lon="-1.86971">
        <ele>10</ele>
        <time>2019-02-21T14:33:15Z</time>
      </trkpt>
      <trkpt lat="46.62826" lon="-1.86968">
        <ele>10</ele>
        <time>2019-02-21T14:33:17Z</time>
      </trkpt>
      <trkpt lat="46.62826" lon="-1.86963">
        <ele>10</ele>
        <time>2019-02-21T14:33:20Z</time>
      </trkpt>
      <trkpt lat="46.62827" lon="-1.86957">
        <ele>10</ele>
        <time>2019-02-21T14:33:22Z</time>
      </trkpt>
      <trkpt lat="46.62826" lon="-1.86955">
        <ele>10</ele>
        <time>2019-02-21T14:33:25Z</time>
      </trkpt>
      <trkpt lat="46.62827" lon="-1.86951">
        <ele>10</ele>
        <time>2019-02-21T14:33:27Z</time>
      </trkpt>
      <trkpt lat="46.62828" lon="-1.86948">
        <ele>10</ele>
        <time>2019-02-21T14:33:33Z</time>
      </trkpt>
      <trkpt lat="46.62828" lon="-1.86947">
        <ele>10</ele>
        <time>2019-02-21T14:33:35Z</time>
      </trkpt>
      <trkpt lat="46.62829" lon="-1.86946">
        <ele>10</ele>
        <time>2019-02-21T14:33:38Z</time>
      </trkpt>
      <trkpt lat="46.62829" lon="-1.86945">
        <ele>10</ele>
        <time>2019-02-21T14:33:40Z</time>
      </trkpt>
      <trkpt lat="46.6283" lon="-1.86941">
        <ele>10</ele>
        <time>2019-02-21T14:33:43Z</time>
      </trkpt>
      <trkpt lat="46.6283" lon="-1.86939">
        <ele>10</ele>
        <time>2019-02-21T14:33:45Z</time>
      </trkpt>
      <trkpt lat="46.62831" lon="-1.86937">
        <ele>10</ele>
        <time>2019-02-21T14:33:48Z</time>
      </trkpt>
      <trkpt lat="46.62832" lon="-1.86934">
        <ele>10</ele>
        <time>2019-02-21T14:33:50Z</time>
      </trkpt>
      <trkpt lat="46.62832" lon="-1.8693">
        <ele>10</ele>
        <time>2019-02-21T14:33:53Z</time>
      </trkpt>
      <trkpt lat="46.62833" lon="-1.86926">
        <ele>10</ele>
        <time>2019-02-21T14:33:55Z</time>
      </trkpt>
      <trkpt lat="46.62834" lon="-1.86922">
        <ele>10</ele>
        <time>2019-02-21T14:33:58Z</time>
      </trkpt>
      <trkpt lat="46.62835" lon="-1.86918">
        <ele>10</ele>
        <time>2019-02-21T14:34:03Z</time>
      </trkpt>
      <trkpt lat="46.62835" lon="-1.86914">
        <ele>10</ele>
        <time>2019-02-21T14:34:06Z</time>
      </trkpt>
      <trkpt lat="46.62836" lon="-1.86911">
        <ele>9</ele>
        <time>2019-02-21T14:34:08Z</time>
      </trkpt>
      <trkpt lat="46.62837" lon="-1.86906">
        <ele>9</ele>
        <time>2019-02-21T14:34:11Z</time>
      </trkpt>
      <trkpt lat="46.62838" lon="-1.86904">
        <ele>9</ele>
        <time>2019-02-21T14:34:13Z</time>
      </trkpt>
      <trkpt lat="46.62842" lon="-1.86901">
        <ele>9</ele>
        <time>2019-02-21T14:34:16Z</time>
      </trkpt>
      <trkpt lat="46.62846" lon="-1.86902">
        <ele>9</ele>
        <time>2019-02-21T14:34:18Z</time>
      </trkpt>
      <trkpt lat="46.62848" lon="-1.86901">
        <ele>9</ele>
        <time>2019-02-21T14:34:21Z</time>
      </trkpt>
      <trkpt lat="46.62851" lon="-1.86901">
        <ele>9</ele>
        <time>2019-02-21T14:34:23Z</time>
      </trkpt>
      <trkpt lat="46.62853" lon="-1.869">
        <ele>10</ele>
        <time>2019-02-21T14:34:26Z</time>
      </trkpt>
      <trkpt lat="46.62857" lon="-1.86898">
        <ele>10</ele>
        <time>2019-02-21T14:34:28Z</time>
      </trkpt>
      <trkpt lat="46.62862" lon="-1.86896">
        <ele>9</ele>
        <time>2019-02-21T14:34:34Z</time>
      </trkpt>
      <trkpt lat="46.62865" lon="-1.86895">
        <ele>10</ele>
        <time>2019-02-21T14:34:36Z</time>
      </trkpt>
      <trkpt lat="46.62869" lon="-1.86893">
        <ele>10</ele>
        <time>2019-02-21T14:34:39Z</time>
      </trkpt>
      <trkpt lat="46.62871" lon="-1.86892">
        <ele>10</ele>
        <time>2019-02-21T14:34:41Z</time>
      </trkpt>
      <trkpt lat="46.62875" lon="-1.86889">
        <ele>10</ele>
        <time>2019-02-21T14:34:44Z</time>
      </trkpt>
      <trkpt lat="46.62877" lon="-1.86888">
        <ele>10</ele>
        <time>2019-02-21T14:34:46Z</time>
      </trkpt>
      <trkpt lat="46.62879" lon="-1.86887">
        <ele>10</ele>
        <time>2019-02-21T14:34:49Z</time>
      </trkpt>
      <trkpt lat="46.62882" lon="-1.86886">
        <ele>10</ele>
        <time>2019-02-21T14:34:51Z</time>
      </trkpt>
      <trkpt lat="46.62884" lon="-1.86885">
        <ele>10</ele>
        <time>2019-02-21T14:34:54Z</time>
      </trkpt>
      <trkpt lat="46.62887" lon="-1.86884">
        <ele>10</ele>
        <time>2019-02-21T14:34:57Z</time>
      </trkpt>
      <trkpt lat="46.62889" lon="-1.86884">
        <ele>10</ele>
        <time>2019-02-21T14:34:59Z</time>
      </trkpt>
      <trkpt lat="46.62893" lon="-1.86882">
        <ele>10</ele>
        <time>2019-02-21T14:35:04Z</time>
      </trkpt>
      <trkpt lat="46.62895" lon="-1.86881">
        <ele>10</ele>
        <time>2019-02-21T14:35:07Z</time>
      </trkpt>
      <trkpt lat="46.62898" lon="-1.86879">
        <ele>10</ele>
        <time>2019-02-21T14:35:09Z</time>
      </trkpt>
      <trkpt lat="46.629" lon="-1.86878">
        <ele>10</ele>
        <time>2019-02-21T14:35:12Z</time>
      </trkpt>
      <trkpt lat="46.62903" lon="-1.86876">
        <ele>10</ele>
        <time>2019-02-21T14:35:15Z</time>
      </trkpt>
      <trkpt lat="46.62906" lon="-1.86875">
        <ele>10</ele>
        <time>2019-02-21T14:35:17Z</time>
      </trkpt>
      <trkpt lat="46.62909" lon="-1.86873">
        <ele>10</ele>
        <time>2019-02-21T14:35:20Z</time>
      </trkpt>
      <trkpt lat="46.62912" lon="-1.86872">
        <ele>10</ele>
        <time>2019-02-21T14:35:22Z</time>
      </trkpt>
      <trkpt lat="46.62916" lon="-1.86871">
        <ele>10</ele>
        <time>2019-02-21T14:35:25Z</time>
      </trkpt>
      <trkpt lat="46.62919" lon="-1.86872">
        <ele>11</ele>
        <time>2019-02-21T14:35:27Z</time>
      </trkpt>
      <trkpt lat="46.62923" lon="-1.86871">
        <ele>11</ele>
        <time>2019-02-21T14:35:30Z</time>
      </trkpt>
      <trkpt lat="46.62929" lon="-1.86871">
        <ele>11</ele>
        <time>2019-02-21T14:35:35Z</time>
      </trkpt>
      <trkpt lat="46.62933" lon="-1.8687">
        <ele>11</ele>
        <time>2019-02-21T14:35:37Z</time>
      </trkpt>
      <trkpt lat="46.62936" lon="-1.8687">
        <ele>11</ele>
        <time>2019-02-21T14:35:40Z</time>
      </trkpt>
      <trkpt lat="46.62939" lon="-1.8687">
        <ele>11</ele>
        <time>2019-02-21T14:35:42Z</time>
      </trkpt>
      <trkpt lat="46.62942" lon="-1.8687">
        <ele>11</ele>
        <time>2019-02-21T14:35:45Z</time>
      </trkpt>
      <trkpt lat="46.62946" lon="-1.86869">
        <ele>11</ele>
        <time>2019-02-21T14:35:48Z</time>
      </trkpt>
      <trkpt lat="46.62948" lon="-1.86869">
        <ele>11</ele>
        <time>2019-02-21T14:35:50Z</time>
      </trkpt>
      <trkpt lat="46.62951" lon="-1.86868">
        <ele>11</ele>
        <time>2019-02-21T14:35:53Z</time>
      </trkpt>
      <trkpt lat="46.62954" lon="-1.86868">
        <ele>11</ele>
        <time>2019-02-21T14:35:55Z</time>
      </trkpt>
      <trkpt lat="46.62958" lon="-1.86867">
        <ele>12</ele>
        <time>2019-02-21T14:35:58Z</time>
      </trkpt>
      <trkpt lat="46.62963" lon="-1.86866">
        <ele>12</ele>
        <time>2019-02-21T14:36:03Z</time>
      </trkpt>
      <trkpt lat="46.62967" lon="-1.86865">
        <ele>12</ele>
        <time>2019-02-21T14:36:05Z</time>
      </trkpt>
      <trkpt lat="46.62969" lon="-1.86865">
        <ele>12</ele>
        <time>2019-02-21T14:36:08Z</time>
      </trkpt>
      <trkpt lat="46.62973" lon="-1.86864">
        <ele>12</ele>
        <time>2019-02-21T14:36:10Z</time>
      </trkpt>
      <trkpt lat="46.62974" lon="-1.86863">
        <ele>12</ele>
        <time>2019-02-21T14:36:13Z</time>
      </trkpt>
      <trkpt lat="46.62978" lon="-1.86862">
        <ele>12</ele>
        <time>2019-02-21T14:36:15Z</time>
      </trkpt>
      <trkpt lat="46.6298" lon="-1.86861">
        <ele>12</ele>
        <time>2019-02-21T14:36:18Z</time>
      </trkpt>
      <trkpt lat="46.62983" lon="-1.8686">
        <ele>12</ele>
        <time>2019-02-21T14:36:21Z</time>
      </trkpt>
      <trkpt lat="46.62985" lon="-1.86859">
        <ele>12</ele>
        <time>2019-02-21T14:36:23Z</time>
      </trkpt>
      <trkpt lat="46.62989" lon="-1.86858">
        <ele>12</ele>
        <time>2019-02-21T14:36:26Z</time>
      </trkpt>
      <trkpt lat="46.62991" lon="-1.86858">
        <ele>12</ele>
        <time>2019-02-21T14:36:28Z</time>
      </trkpt>
      <trkpt lat="46.62998" lon="-1.86858">
        <ele>12</ele>
        <time>2019-02-21T14:36:33Z</time>
      </trkpt>
      <trkpt lat="46.63" lon="-1.86858">
        <ele>12</ele>
        <time>2019-02-21T14:36:36Z</time>
      </trkpt>
      <trkpt lat="46.63003" lon="-1.86858">
        <ele>12</ele>
        <time>2019-02-21T14:36:38Z</time>
      </trkpt>
      <trkpt lat="46.63005" lon="-1.86857">
        <ele>12</ele>
        <time>2019-02-21T14:36:41Z</time>
      </trkpt>
      <trkpt lat="46.63009" lon="-1.86857">
        <ele>12</ele>
        <time>2019-02-21T14:36:43Z</time>
      </trkpt>
      <trkpt lat="46.63012" lon="-1.86857">
        <ele>12</ele>
        <time>2019-02-21T14:36:46Z</time>
      </trkpt>
      <trkpt lat="46.63015" lon="-1.86856">
        <ele>12</ele>
        <time>2019-02-21T14:36:48Z</time>
      </trkpt>
      <trkpt lat="46.63017" lon="-1.86857">
        <ele>12</ele>
        <time>2019-02-21T14:36:51Z</time>
      </trkpt>
      <trkpt lat="46.6302" lon="-1.86856">
        <ele>12</ele>
        <time>2019-02-21T14:36:54Z</time>
      </trkpt>
      <trkpt lat="46.63023" lon="-1.86856">
        <ele>12</ele>
        <time>2019-02-21T14:36:56Z</time>
      </trkpt>
      <trkpt lat="46.63026" lon="-1.86855">
        <ele>12</ele>
        <time>2019-02-21T14:36:59Z</time>
      </trkpt>
      <trkpt lat="46.63032" lon="-1.86854">
        <ele>12</ele>
        <time>2019-02-21T14:37:04Z</time>
      </trkpt>
      <trkpt lat="46.63034" lon="-1.86854">
        <ele>12</ele>
        <time>2019-02-21T14:37:06Z</time>
      </trkpt>
      <trkpt lat="46.63036" lon="-1.86853">
        <ele>12</ele>
        <time>2019-02-21T14:37:09Z</time>
      </trkpt>
      <trkpt lat="46.63039" lon="-1.86852">
        <ele>12</ele>
        <time>2019-02-21T14:37:11Z</time>
      </trkpt>
      <trkpt lat="46.63041" lon="-1.86852">
        <ele>12</ele>
        <time>2019-02-21T14:37:14Z</time>
      </trkpt>
      <trkpt lat="46.63045" lon="-1.86851">
        <ele>12</ele>
        <time>2019-02-21T14:37:17Z</time>
      </trkpt>
      <trkpt lat="46.63047" lon="-1.86852">
        <ele>12</ele>
        <time>2019-02-21T14:37:19Z</time>
      </trkpt>
      <trkpt lat="46.63048" lon="-1.86853">
        <ele>12</ele>
        <time>2019-02-21T14:37:22Z</time>
      </trkpt>
      <trkpt lat="46.63048" lon="-1.86854">
        <ele>12</ele>
        <time>2019-02-21T14:37:24Z</time>
      </trkpt>
      <trkpt lat="46.63049" lon="-1.86855">
        <ele>12</ele>
        <time>2019-02-21T14:37:27Z</time>
      </trkpt>
      <trkpt lat="46.63049" lon="-1.86856">
        <ele>12</ele>
        <time>2019-02-21T14:37:30Z</time>
      </trkpt>
      <trkpt lat="46.63054" lon="-1.86857">
        <ele>12</ele>
        <time>2019-02-21T14:37:35Z</time>
      </trkpt>
      <trkpt lat="46.63055" lon="-1.86858">
        <ele>12</ele>
        <time>2019-02-21T14:37:37Z</time>
      </trkpt>
      <trkpt lat="46.63057" lon="-1.86858">
        <ele>12</ele>
        <time>2019-02-21T14:37:40Z</time>
      </trkpt>
      <trkpt lat="46.63058" lon="-1.86857">
        <ele>12</ele>
        <time>2019-02-21T14:37:42Z</time>
      </trkpt>
      <trkpt lat="46.63059" lon="-1.86858">
        <ele>12</ele>
        <time>2019-02-21T14:37:45Z</time>
      </trkpt>
      <trkpt lat="46.63062" lon="-1.86858">
        <ele>12</ele>
        <time>2019-02-21T14:37:47Z</time>
      </trkpt>
      <trkpt lat="46.63064" lon="-1.86858">
        <ele>12</ele>
        <time>2019-02-21T14:37:50Z</time>
      </trkpt>
      <trkpt lat="46.63068" lon="-1.86858">
        <ele>12</ele>
        <time>2019-02-21T14:37:52Z</time>
      </trkpt>
      <trkpt lat="46.63071" lon="-1.86858">
        <ele>12</ele>
        <time>2019-02-21T14:37:55Z</time>
      </trkpt>
      <trkpt lat="46.63075" lon="-1.86858">
        <ele>12</ele>
        <time>2019-02-21T14:37:58Z</time>
      </trkpt>
      <trkpt lat="46.63077" lon="-1.86858">
        <ele>12</ele>
        <time>2019-02-21T14:38:00Z</time>
      </trkpt>
      <trkpt lat="46.63084" lon="-1.86858">
        <ele>12</ele>
        <time>2019-02-21T14:38:05Z</time>
      </trkpt>
      <trkpt lat="46.63088" lon="-1.86857">
        <ele>11</ele>
        <time>2019-02-21T14:38:08Z</time>
      </trkpt>
      <trkpt lat="46.63091" lon="-1.86857">
        <ele>11</ele>
        <time>2019-02-21T14:38:10Z</time>
      </trkpt>
      <trkpt lat="46.63094" lon="-1.86856">
        <ele>11</ele>
        <time>2019-02-21T14:38:13Z</time>
      </trkpt>
      <trkpt lat="46.63097" lon="-1.86854">
        <ele>11</ele>
        <time>2019-02-21T14:38:15Z</time>
      </trkpt>
      <trkpt lat="46.63101" lon="-1.86851">
        <ele>11</ele>
        <time>2019-02-21T14:38:18Z</time>
      </trkpt>
      <trkpt lat="46.63103" lon="-1.86849">
        <ele>11</ele>
        <time>2019-02-21T14:38:20Z</time>
      </trkpt>
      <trkpt lat="46.63106" lon="-1.86846">
        <ele>11</ele>
        <time>2019-02-21T14:38:23Z</time>
      </trkpt>
      <trkpt lat="46.63109" lon="-1.86844">
        <ele>11</ele>
        <time>2019-02-21T14:38:25Z</time>
      </trkpt>
      <trkpt lat="46.63112" lon="-1.86842">
        <ele>11</ele>
        <time>2019-02-21T14:38:28Z</time>
      </trkpt>
      <trkpt lat="46.63115" lon="-1.86838">
        <ele>11</ele>
        <time>2019-02-21T14:38:30Z</time>
      </trkpt>
      <trkpt lat="46.63121" lon="-1.86833">
        <ele>11</ele>
        <time>2019-02-21T14:38:35Z</time>
      </trkpt>
      <trkpt lat="46.63123" lon="-1.86831">
        <ele>11</ele>
        <time>2019-02-21T14:38:38Z</time>
      </trkpt>
      <trkpt lat="46.63125" lon="-1.86829">
        <ele>11</ele>
        <time>2019-02-21T14:38:40Z</time>
      </trkpt>
      <trkpt lat="46.63127" lon="-1.86827">
        <ele>11</ele>
        <time>2019-02-21T14:38:43Z</time>
      </trkpt>
      <trkpt lat="46.63131" lon="-1.86825">
        <ele>11</ele>
        <time>2019-02-21T14:38:45Z</time>
      </trkpt>
      <trkpt lat="46.63133" lon="-1.86825">
        <ele>11</ele>
        <time>2019-02-21T14:38:48Z</time>
      </trkpt>
      <trkpt lat="46.63136" lon="-1.86824">
        <ele>11</ele>
        <time>2019-02-21T14:38:50Z</time>
      </trkpt>
      <trkpt lat="46.63138" lon="-1.86823">
        <ele>11</ele>
        <time>2019-02-21T14:38:53Z</time>
      </trkpt>
      <trkpt lat="46.63141" lon="-1.86823">
        <ele>11</ele>
        <time>2019-02-21T14:38:55Z</time>
      </trkpt>
      <trkpt lat="46.63144" lon="-1.86821">
        <ele>11</ele>
        <time>2019-02-21T14:38:58Z</time>
      </trkpt>
      <trkpt lat="46.63149" lon="-1.8682">
        <ele>11</ele>
        <time>2019-02-21T14:39:03Z</time>
      </trkpt>
      <trkpt lat="46.63152" lon="-1.86818">
        <ele>11</ele>
        <time>2019-02-21T14:39:05Z</time>
      </trkpt>
      <trkpt lat="46.63154" lon="-1.86817">
        <ele>11</ele>
        <time>2019-02-21T14:39:08Z</time>
      </trkpt>
      <trkpt lat="46.63156" lon="-1.86817">
        <ele>11</ele>
        <time>2019-02-21T14:39:10Z</time>
      </trkpt>
      <trkpt lat="46.63157" lon="-1.86818">
        <ele>11</ele>
        <time>2019-02-21T14:39:13Z</time>
      </trkpt>
      <trkpt lat="46.63159" lon="-1.86821">
        <ele>11</ele>
        <time>2019-02-21T14:39:15Z</time>
      </trkpt>
      <trkpt lat="46.63161" lon="-1.86823">
        <ele>11</ele>
        <time>2019-02-21T14:39:18Z</time>
      </trkpt>
      <trkpt lat="46.63164" lon="-1.86825">
        <ele>11</ele>
        <time>2019-02-21T14:39:20Z</time>
      </trkpt>
      <trkpt lat="46.63168" lon="-1.86827">
        <ele>11</ele>
        <time>2019-02-21T14:39:23Z</time>
      </trkpt>
      <trkpt lat="46.6317" lon="-1.86829">
        <ele>11</ele>
        <time>2019-02-21T14:39:25Z</time>
      </trkpt>
      <trkpt lat="46.63175" lon="-1.86831">
        <ele>11</ele>
        <time>2019-02-21T14:39:28Z</time>
      </trkpt>
      <trkpt lat="46.6318" lon="-1.86835">
        <ele>11</ele>
        <time>2019-02-21T14:39:33Z</time>
      </trkpt>
      <trkpt lat="46.63182" lon="-1.86837">
        <ele>11</ele>
        <time>2019-02-21T14:39:35Z</time>
      </trkpt>
      <trkpt lat="46.63185" lon="-1.86839">
        <ele>11</ele>
        <time>2019-02-21T14:39:38Z</time>
      </trkpt>
      <trkpt lat="46.63188" lon="-1.8684">
        <ele>11</ele>
        <time>2019-02-21T14:39:40Z</time>
      </trkpt>
      <trkpt lat="46.63191" lon="-1.8684">
        <ele>11</ele>
        <time>2019-02-21T14:39:43Z</time>
      </trkpt>
      <trkpt lat="46.63193" lon="-1.86839">
        <ele>11</ele>
        <time>2019-02-21T14:39:45Z</time>
      </trkpt>
      <trkpt lat="46.63196" lon="-1.86839">
        <ele>11</ele>
        <time>2019-02-21T14:39:48Z</time>
      </trkpt>
      <trkpt lat="46.63199" lon="-1.86839">
        <ele>11</ele>
        <time>2019-02-21T14:39:50Z</time>
      </trkpt>
      <trkpt lat="46.63202" lon="-1.86839">
        <ele>11</ele>
        <time>2019-02-21T14:39:53Z</time>
      </trkpt>
      <trkpt lat="46.63204" lon="-1.8684">
        <ele>11</ele>
        <time>2019-02-21T14:39:55Z</time>
      </trkpt>
      <trkpt lat="46.63208" lon="-1.86841">
        <ele>11</ele>
        <time>2019-02-21T14:39:58Z</time>
      </trkpt>
      <trkpt lat="46.63214" lon="-1.86845">
        <ele>11</ele>
        <time>2019-02-21T14:40:03Z</time>
      </trkpt>
      <trkpt lat="46.63218" lon="-1.86847">
        <ele>11</ele>
        <time>2019-02-21T14:40:05Z</time>
      </trkpt>
      <trkpt lat="46.6322" lon="-1.86849">
        <ele>11</ele>
        <time>2019-02-21T14:40:08Z</time>
      </trkpt>
      <trkpt lat="46.63221" lon="-1.86851">
        <ele>11</ele>
        <time>2019-02-21T14:40:11Z</time>
      </trkpt>
      <trkpt lat="46.6322" lon="-1.8685">
        <ele>11</ele>
        <time>2019-02-21T14:40:13Z</time>
      </trkpt>
      <trkpt lat="46.6322" lon="-1.8685">
        <ele>11</ele>
        <time>2019-02-21T14:40:16Z</time>
      </trkpt>
      <trkpt lat="46.6322" lon="-1.8685">
        <ele>11</ele>
        <time>2019-02-21T14:40:18Z</time>
      </trkpt>
      <trkpt lat="46.6322" lon="-1.86849">
        <ele>11</ele>
        <time>2019-02-21T14:40:21Z</time>
      </trkpt>
      <trkpt lat="46.63219" lon="-1.86848">
        <ele>11</ele>
        <time>2019-02-21T14:40:23Z</time>
      </trkpt>
      <trkpt lat="46.6322" lon="-1.86848">
        <ele>11</ele>
        <time>2019-02-21T14:40:26Z</time>
      </trkpt>
      <trkpt lat="46.63223" lon="-1.86848">
        <ele>11</ele>
        <time>2019-02-21T14:40:28Z</time>
      </trkpt>
      <trkpt lat="46.63226" lon="-1.86853">
        <ele>11</ele>
        <time>2019-02-21T14:40:33Z</time>
      </trkpt>
      <trkpt lat="46.63227" lon="-1.86854">
        <ele>11</ele>
        <time>2019-02-21T14:40:36Z</time>
      </trkpt>
      <trkpt lat="46.63228" lon="-1.86855">
        <ele>11</ele>
        <time>2019-02-21T14:40:38Z</time>
      </trkpt>
      <trkpt lat="46.63228" lon="-1.86856">
        <ele>11</ele>
        <time>2019-02-21T14:40:41Z</time>
      </trkpt>
      <trkpt lat="46.63228" lon="-1.86858">
        <ele>11</ele>
        <time>2019-02-21T14:40:44Z</time>
      </trkpt>
      <trkpt lat="46.63228" lon="-1.86858">
        <ele>11</ele>
        <time>2019-02-21T14:40:46Z</time>
      </trkpt>
      <trkpt lat="46.63227" lon="-1.86859">
        <ele>11</ele>
        <time>2019-02-21T14:40:49Z</time>
      </trkpt>
      <trkpt lat="46.63228" lon="-1.8686">
        <ele>11</ele>
        <time>2019-02-21T14:40:51Z</time>
      </trkpt>
      <trkpt lat="46.63229" lon="-1.86859">
        <ele>11</ele>
        <time>2019-02-21T14:40:54Z</time>
      </trkpt>
      <trkpt lat="46.6323" lon="-1.86859">
        <ele>11</ele>
        <time>2019-02-21T14:40:56Z</time>
      </trkpt>
      <trkpt lat="46.63234" lon="-1.86859">
        <ele>11</ele>
        <time>2019-02-21T14:40:59Z</time>
      </trkpt>
      <trkpt lat="46.63238" lon="-1.86858">
        <ele>11</ele>
        <time>2019-02-21T14:41:04Z</time>
      </trkpt>
      <trkpt lat="46.6324" lon="-1.86858">
        <ele>11</ele>
        <time>2019-02-21T14:41:06Z</time>
      </trkpt>
      <trkpt lat="46.63242" lon="-1.86858">
        <ele>11</ele>
        <time>2019-02-21T14:41:09Z</time>
      </trkpt>
      <trkpt lat="46.63245" lon="-1.86856">
        <ele>11</ele>
        <time>2019-02-21T14:41:12Z</time>
      </trkpt>
      <trkpt lat="46.63248" lon="-1.86853">
        <ele>11</ele>
        <time>2019-02-21T14:41:14Z</time>
      </trkpt>
      <trkpt lat="46.63249" lon="-1.86851">
        <ele>11</ele>
        <time>2019-02-21T14:41:17Z</time>
      </trkpt>
      <trkpt lat="46.63252" lon="-1.86847">
        <ele>11</ele>
        <time>2019-02-21T14:41:19Z</time>
      </trkpt>
      <trkpt lat="46.63252" lon="-1.86847">
        <ele>11</ele>
        <time>2019-02-21T14:41:22Z</time>
      </trkpt>
      <trkpt lat="46.63253" lon="-1.86846">
        <ele>11</ele>
        <time>2019-02-21T14:41:25Z</time>
      </trkpt>
      <trkpt lat="46.63254" lon="-1.86846">
        <ele>11</ele>
        <time>2019-02-21T14:41:27Z</time>
      </trkpt>
      <trkpt lat="46.63254" lon="-1.86845">
        <ele>11</ele>
        <time>2019-02-21T14:41:30Z</time>
      </trkpt>
      <trkpt lat="46.63255" lon="-1.86843">
        <ele>10</ele>
        <time>2019-02-21T14:41:35Z</time>
      </trkpt>
      <trkpt lat="46.63254" lon="-1.86843">
        <ele>10</ele>
        <time>2019-02-21T14:41:38Z</time>
      </trkpt>
      <trkpt lat="46.63255" lon="-1.86842">
        <ele>10</ele>
        <time>2019-02-21T14:41:40Z</time>
      </trkpt>
      <trkpt lat="46.63256" lon="-1.86842">
        <ele>10</ele>
        <time>2019-02-21T14:41:43Z</time>
      </trkpt>
      <trkpt lat="46.63258" lon="-1.86841">
        <ele>10</ele>
        <time>2019-02-21T14:41:46Z</time>
      </trkpt>
      <trkpt lat="46.63259" lon="-1.8684">
        <ele>10</ele>
        <time>2019-02-21T14:41:48Z</time>
      </trkpt>
      <trkpt lat="46.63261" lon="-1.86838">
        <ele>10</ele>
        <time>2019-02-21T14:41:51Z</time>
      </trkpt>
      <trkpt lat="46.63262" lon="-1.86835">
        <ele>10</ele>
        <time>2019-02-21T14:41:53Z</time>
      </trkpt>
      <trkpt lat="46.63264" lon="-1.86834">
        <ele>10</ele>
        <time>2019-02-21T14:41:56Z</time>
      </trkpt>
      <trkpt lat="46.63264" lon="-1.86832">
        <ele>10</ele>
        <time>2019-02-21T14:41:59Z</time>
      </trkpt>
      <trkpt lat="46.63265" lon="-1.86828">
        <ele>10</ele>
        <time>2019-02-21T14:42:04Z</time>
      </trkpt>
      <trkpt lat="46.63264" lon="-1.86825">
        <ele>10</ele>
        <time>2019-02-21T14:42:06Z</time>
      </trkpt>
      <trkpt lat="46.63263" lon="-1.86823">
        <ele>10</ele>
        <time>2019-02-21T14:42:09Z</time>
      </trkpt>
      <trkpt lat="46.63262" lon="-1.86819">
        <ele>10</ele>
        <time>2019-02-21T14:42:11Z</time>
      </trkpt>
      <trkpt lat="46.6326" lon="-1.86816">
        <ele>10</ele>
        <time>2019-02-21T14:42:14Z</time>
      </trkpt>
      <trkpt lat="46.63258" lon="-1.86812">
        <ele>10</ele>
        <time>2019-02-21T14:42:17Z</time>
      </trkpt>
      <trkpt lat="46.63256" lon="-1.86809">
        <ele>10</ele>
        <time>2019-02-21T14:42:19Z</time>
      </trkpt>
      <trkpt lat="46.63253" lon="-1.86805">
        <ele>10</ele>
        <time>2019-02-21T14:42:22Z</time>
      </trkpt>
      <trkpt lat="46.63251" lon="-1.86802">
        <ele>10</ele>
        <time>2019-02-21T14:42:24Z</time>
      </trkpt>
      <trkpt lat="46.63249" lon="-1.86797">
        <ele>10</ele>
        <time>2019-02-21T14:42:27Z</time>
      </trkpt>
      <trkpt lat="46.63246" lon="-1.86793">
        <ele>10</ele>
        <time>2019-02-21T14:42:29Z</time>
      </trkpt>
      <trkpt lat="46.63242" lon="-1.86783">
        <ele>10</ele>
        <time>2019-02-21T14:42:34Z</time>
      </trkpt>
      <trkpt lat="46.63241" lon="-1.86779">
        <ele>10</ele>
        <time>2019-02-21T14:42:37Z</time>
      </trkpt>
      <trkpt lat="46.63241" lon="-1.86773">
        <ele>10</ele>
        <time>2019-02-21T14:42:40Z</time>
      </trkpt>
      <trkpt lat="46.63241" lon="-1.8677">
        <ele>10</ele>
        <time>2019-02-21T14:42:42Z</time>
      </trkpt>
      <trkpt lat="46.63241" lon="-1.86763">
        <ele>10</ele>
        <time>2019-02-21T14:42:45Z</time>
      </trkpt>
      <trkpt lat="46.63242" lon="-1.86757">
        <ele>10</ele>
        <time>2019-02-21T14:42:47Z</time>
      </trkpt>
      <trkpt lat="46.63243" lon="-1.86754">
        <ele>10</ele>
        <time>2019-02-21T14:42:50Z</time>
      </trkpt>
      <trkpt lat="46.63244" lon="-1.86749">
        <ele>10</ele>
        <time>2019-02-21T14:42:52Z</time>
      </trkpt>
      <trkpt lat="46.63245" lon="-1.86746">
        <ele>10</ele>
        <time>2019-02-21T14:42:55Z</time>
      </trkpt>
      <trkpt lat="46.63246" lon="-1.86741">
        <ele>10</ele>
        <time>2019-02-21T14:42:58Z</time>
      </trkpt>
      <trkpt lat="46.63247" lon="-1.86737">
        <ele>10</ele>
        <time>2019-02-21T14:43:00Z</time>
      </trkpt>
      <trkpt lat="46.63249" lon="-1.86727">
        <ele>10</ele>
        <time>2019-02-21T14:43:05Z</time>
      </trkpt>
      <trkpt lat="46.63253" lon="-1.86722">
        <ele>10</ele>
        <time>2019-02-21T14:43:08Z</time>
      </trkpt>
      <trkpt lat="46.63256" lon="-1.86719">
        <ele>10</ele>
        <time>2019-02-21T14:43:10Z</time>
      </trkpt>
      <trkpt lat="46.63258" lon="-1.86718">
        <ele>10</ele>
        <time>2019-02-21T14:43:13Z</time>
      </trkpt>
      <trkpt lat="46.63262" lon="-1.86718">
        <ele>10</ele>
        <time>2019-02-21T14:43:16Z</time>
      </trkpt>
      <trkpt lat="46.63265" lon="-1.86718">
        <ele>10</ele>
        <time>2019-02-21T14:43:18Z</time>
      </trkpt>
      <trkpt lat="46.63268" lon="-1.86718">
        <ele>10</ele>
        <time>2019-02-21T14:43:21Z</time>
      </trkpt>
      <trkpt lat="46.63271" lon="-1.86718">
        <ele>10</ele>
        <time>2019-02-21T14:43:23Z</time>
      </trkpt>
      <trkpt lat="46.63275" lon="-1.86718">
        <ele>10</ele>
        <time>2019-02-21T14:43:26Z</time>
      </trkpt>
      <trkpt lat="46.63279" lon="-1.86719">
        <ele>10</ele>
        <time>2019-02-21T14:43:28Z</time>
      </trkpt>
      <trkpt lat="46.63282" lon="-1.86718">
        <ele>10</ele>
        <time>2019-02-21T14:43:31Z</time>
      </trkpt>
      <trkpt lat="46.63287" lon="-1.86715">
        <ele>10</ele>
        <time>2019-02-21T14:43:36Z</time>
      </trkpt>
      <trkpt lat="46.6329" lon="-1.86713">
        <ele>10</ele>
        <time>2019-02-21T14:43:39Z</time>
      </trkpt>
      <trkpt lat="46.63292" lon="-1.86712">
        <ele>10</ele>
        <time>2019-02-21T14:43:41Z</time>
      </trkpt>
      <trkpt lat="46.63293" lon="-1.8671">
        <ele>10</ele>
        <time>2019-02-21T14:43:44Z</time>
      </trkpt>
      <trkpt lat="46.63296" lon="-1.86708">
        <ele>10</ele>
        <time>2019-02-21T14:43:46Z</time>
      </trkpt>
      <trkpt lat="46.63298" lon="-1.86706">
        <ele>10</ele>
        <time>2019-02-21T14:43:49Z</time>
      </trkpt>
      <trkpt lat="46.63301" lon="-1.86703">
        <ele>10</ele>
        <time>2019-02-21T14:43:52Z</time>
      </trkpt>
      <trkpt lat="46.63304" lon="-1.867">
        <ele>10</ele>
        <time>2019-02-21T14:43:54Z</time>
      </trkpt>
      <trkpt lat="46.63305" lon="-1.86698">
        <ele>10</ele>
        <time>2019-02-21T14:43:57Z</time>
      </trkpt>
      <trkpt lat="46.63309" lon="-1.86694">
        <ele>10</ele>
        <time>2019-02-21T14:44:00Z</time>
      </trkpt>
      <trkpt lat="46.63311" lon="-1.86692">
        <ele>10</ele>
        <time>2019-02-21T14:44:02Z</time>
      </trkpt>
      <trkpt lat="46.63315" lon="-1.86686">
        <ele>10</ele>
        <time>2019-02-21T14:44:07Z</time>
      </trkpt>
      <trkpt lat="46.63316" lon="-1.86684">
        <ele>10</ele>
        <time>2019-02-21T14:44:10Z</time>
      </trkpt>
      <trkpt lat="46.63317" lon="-1.86682">
        <ele>10</ele>
        <time>2019-02-21T14:44:12Z</time>
      </trkpt>
      <trkpt lat="46.63319" lon="-1.86679">
        <ele>10</ele>
        <time>2019-02-21T14:44:15Z</time>
      </trkpt>
      <trkpt lat="46.63322" lon="-1.86675">
        <ele>10</ele>
        <time>2019-02-21T14:44:18Z</time>
      </trkpt>
      <trkpt lat="46.63324" lon="-1.86673">
        <ele>10</ele>
        <time>2019-02-21T14:44:20Z</time>
      </trkpt>
      <trkpt lat="46.63328" lon="-1.86671">
        <ele>10</ele>
        <time>2019-02-21T14:44:23Z</time>
      </trkpt>
      <trkpt lat="46.6333" lon="-1.8667">
        <ele>10</ele>
        <time>2019-02-21T14:44:25Z</time>
      </trkpt>
      <trkpt lat="46.63334" lon="-1.86669">
        <ele>10</ele>
        <time>2019-02-21T14:44:28Z</time>
      </trkpt>
      <trkpt lat="46.63337" lon="-1.86669">
        <ele>10</ele>
        <time>2019-02-21T14:44:30Z</time>
      </trkpt>
      <trkpt lat="46.63341" lon="-1.8667">
        <ele>10</ele>
        <time>2019-02-21T14:44:33Z</time>
      </trkpt>
      <trkpt lat="46.63347" lon="-1.86671">
        <ele>10</ele>
        <time>2019-02-21T14:44:38Z</time>
      </trkpt>
      <trkpt lat="46.63349" lon="-1.8667">
        <ele>10</ele>
        <time>2019-02-21T14:44:40Z</time>
      </trkpt>
      <trkpt lat="46.63353" lon="-1.86671">
        <ele>10</ele>
        <time>2019-02-21T14:44:43Z</time>
      </trkpt>
      <trkpt lat="46.63356" lon="-1.86672">
        <ele>10</ele>
        <time>2019-02-21T14:44:45Z</time>
      </trkpt>
      <trkpt lat="46.6336" lon="-1.86674">
        <ele>10</ele>
        <time>2019-02-21T14:44:48Z</time>
      </trkpt>
      <trkpt lat="46.63364" lon="-1.86675">
        <ele>10</ele>
        <time>2019-02-21T14:44:50Z</time>
      </trkpt>
      <trkpt lat="46.63367" lon="-1.86675">
        <ele>11</ele>
        <time>2019-02-21T14:44:53Z</time>
      </trkpt>
      <trkpt lat="46.63371" lon="-1.86677">
        <ele>11</ele>
        <time>2019-02-21T14:44:55Z</time>
      </trkpt>
      <trkpt lat="46.63374" lon="-1.86678">
        <ele>11</ele>
        <time>2019-02-21T14:44:58Z</time>
      </trkpt>
      <trkpt lat="46.63378" lon="-1.8668">
        <ele>11</ele>
        <time>2019-02-21T14:45:00Z</time>
      </trkpt>
      <trkpt lat="46.63385" lon="-1.86682">
        <ele>10</ele>
        <time>2019-02-21T14:45:06Z</time>
      </trkpt>
      <trkpt lat="46.6339" lon="-1.86685">
        <ele>11</ele>
        <time>2019-02-21T14:45:08Z</time>
      </trkpt>
      <trkpt lat="46.63392" lon="-1.86688">
        <ele>11</ele>
        <time>2019-02-21T14:45:11Z</time>
      </trkpt>
      <trkpt lat="46.63396" lon="-1.8669">
        <ele>11</ele>
        <time>2019-02-21T14:45:13Z</time>
      </trkpt>
      <trkpt lat="46.63399" lon="-1.86692">
        <ele>11</ele>
        <time>2019-02-21T14:45:16Z</time>
      </trkpt>
      <trkpt lat="46.63402" lon="-1.86696">
        <ele>11</ele>
        <time>2019-02-21T14:45:19Z</time>
      </trkpt>
      <trkpt lat="46.63403" lon="-1.86702">
        <ele>11</ele>
        <time>2019-02-21T14:45:21Z</time>
      </trkpt>
      <trkpt lat="46.63404" lon="-1.86704">
        <ele>11</ele>
        <time>2019-02-21T14:45:24Z</time>
      </trkpt>
      <trkpt lat="46.63405" lon="-1.86705">
        <ele>11</ele>
        <time>2019-02-21T14:45:27Z</time>
      </trkpt>
      <trkpt lat="46.63405" lon="-1.86704">
        <ele>11</ele>
        <time>2019-02-21T14:45:29Z</time>
      </trkpt>
      <trkpt lat="46.63408" lon="-1.86704">
        <ele>12</ele>
        <time>2019-02-21T14:45:32Z</time>
      </trkpt>
      <trkpt lat="46.63414" lon="-1.86708">
        <ele>12</ele>
        <time>2019-02-21T14:45:37Z</time>
      </trkpt>
      <trkpt lat="46.63416" lon="-1.8671">
        <ele>12</ele>
        <time>2019-02-21T14:45:39Z</time>
      </trkpt>
      <trkpt lat="46.63419" lon="-1.86714">
        <ele>12</ele>
        <time>2019-02-21T14:45:42Z</time>
      </trkpt>
      <trkpt lat="46.63421" lon="-1.86718">
        <ele>12</ele>
        <time>2019-02-21T14:45:44Z</time>
      </trkpt>
      <trkpt lat="46.63423" lon="-1.86721">
        <ele>12</ele>
        <time>2019-02-21T14:45:47Z</time>
      </trkpt>
      <trkpt lat="46.63424" lon="-1.86725">
        <ele>12</ele>
        <time>2019-02-21T14:45:49Z</time>
      </trkpt>
      <trkpt lat="46.63426" lon="-1.86728">
        <ele>12</ele>
        <time>2019-02-21T14:45:52Z</time>
      </trkpt>
      <trkpt lat="46.63428" lon="-1.86733">
        <ele>11</ele>
        <time>2019-02-21T14:45:55Z</time>
      </trkpt>
      <trkpt lat="46.6343" lon="-1.86736">
        <ele>12</ele>
        <time>2019-02-21T14:45:57Z</time>
      </trkpt>
      <trkpt lat="46.63432" lon="-1.86742">
        <ele>12</ele>
        <time>2019-02-21T14:46:00Z</time>
      </trkpt>
      <trkpt lat="46.63432" lon="-1.86745">
        <ele>11</ele>
        <time>2019-02-21T14:46:02Z</time>
      </trkpt>
      <trkpt lat="46.63431" lon="-1.86754">
        <ele>11</ele>
        <time>2019-02-21T14:46:07Z</time>
      </trkpt>
      <trkpt lat="46.6343" lon="-1.86759">
        <ele>11</ele>
        <time>2019-02-21T14:46:10Z</time>
      </trkpt>
      <trkpt lat="46.6343" lon="-1.86763">
        <ele>11</ele>
        <time>2019-02-21T14:46:12Z</time>
      </trkpt>
      <trkpt lat="46.63428" lon="-1.86769">
        <ele>11</ele>
        <time>2019-02-21T14:46:15Z</time>
      </trkpt>
      <trkpt lat="46.63428" lon="-1.86772">
        <ele>11</ele>
        <time>2019-02-21T14:46:17Z</time>
      </trkpt>
      <trkpt lat="46.63431" lon="-1.86777">
        <ele>11</ele>
        <time>2019-02-21T14:46:20Z</time>
      </trkpt>
      <trkpt lat="46.63433" lon="-1.8678">
        <ele>11</ele>
        <time>2019-02-21T14:46:22Z</time>
      </trkpt>
      <trkpt lat="46.63435" lon="-1.86783">
        <ele>11</ele>
        <time>2019-02-21T14:46:25Z</time>
      </trkpt>
      <trkpt lat="46.63436" lon="-1.86787">
        <ele>12</ele>
        <time>2019-02-21T14:46:27Z</time>
      </trkpt>
      <trkpt lat="46.63438" lon="-1.86791">
        <ele>12</ele>
        <time>2019-02-21T14:46:30Z</time>
      </trkpt>
      <trkpt lat="46.63441" lon="-1.86797">
        <ele>12</ele>
        <time>2019-02-21T14:46:32Z</time>
      </trkpt>
      <trkpt lat="46.63447" lon="-1.86801">
        <ele>12</ele>
        <time>2019-02-21T14:46:37Z</time>
      </trkpt>
      <trkpt lat="46.63448" lon="-1.868">
        <ele>12</ele>
        <time>2019-02-21T14:46:40Z</time>
      </trkpt>
      <trkpt lat="46.63452" lon="-1.86799">
        <ele>12</ele>
        <time>2019-02-21T14:46:43Z</time>
      </trkpt>
      <trkpt lat="46.63454" lon="-1.86797">
        <ele>12</ele>
        <time>2019-02-21T14:46:45Z</time>
      </trkpt>
      <trkpt lat="46.63458" lon="-1.86796">
        <ele>12</ele>
        <time>2019-02-21T14:46:48Z</time>
      </trkpt>
      <trkpt lat="46.63461" lon="-1.86795">
        <ele>13</ele>
        <time>2019-02-21T14:46:50Z</time>
      </trkpt>
      <trkpt lat="46.63463" lon="-1.86795">
        <ele>13</ele>
        <time>2019-02-21T14:46:53Z</time>
      </trkpt>
      <trkpt lat="46.63466" lon="-1.86796">
        <ele>13</ele>
        <time>2019-02-21T14:46:55Z</time>
      </trkpt>
      <trkpt lat="46.63469" lon="-1.86798">
        <ele>13</ele>
        <time>2019-02-21T14:46:58Z</time>
      </trkpt>
      <trkpt lat="46.6347" lon="-1.86802">
        <ele>13</ele>
        <time>2019-02-21T14:47:01Z</time>
      </trkpt>
      <trkpt lat="46.63472" lon="-1.86808">
        <ele>13</ele>
        <time>2019-02-21T14:47:03Z</time>
      </trkpt>
      <trkpt lat="46.63473" lon="-1.86817">
        <ele>13</ele>
        <time>2019-02-21T14:47:08Z</time>
      </trkpt>
      <trkpt lat="46.63473" lon="-1.8682">
        <ele>13</ele>
        <time>2019-02-21T14:47:11Z</time>
      </trkpt>
      <trkpt lat="46.63473" lon="-1.86826">
        <ele>13</ele>
        <time>2019-02-21T14:47:14Z</time>
      </trkpt>
      <trkpt lat="46.63473" lon="-1.8683">
        <ele>13</ele>
        <time>2019-02-21T14:47:16Z</time>
      </trkpt>
      <trkpt lat="46.63473" lon="-1.86835">
        <ele>13</ele>
        <time>2019-02-21T14:47:19Z</time>
      </trkpt>
      <trkpt lat="46.63473" lon="-1.86839">
        <ele>13</ele>
        <time>2019-02-21T14:47:21Z</time>
      </trkpt>
      <trkpt lat="46.63475" lon="-1.86845">
        <ele>13</ele>
        <time>2019-02-21T14:47:24Z</time>
      </trkpt>
      <trkpt lat="46.63476" lon="-1.86849">
        <ele>13</ele>
        <time>2019-02-21T14:47:26Z</time>
      </trkpt>
      <trkpt lat="46.63478" lon="-1.86853">
        <ele>13</ele>
        <time>2019-02-21T14:47:29Z</time>
      </trkpt>
      <trkpt lat="46.63479" lon="-1.86857">
        <ele>13</ele>
        <time>2019-02-21T14:47:31Z</time>
      </trkpt>
      <trkpt lat="46.6348" lon="-1.8686">
        <ele>13</ele>
        <time>2019-02-21T14:47:34Z</time>
      </trkpt>
      <trkpt lat="46.63483" lon="-1.86867">
        <ele>14</ele>
        <time>2019-02-21T14:47:39Z</time>
      </trkpt>
      <trkpt lat="46.63486" lon="-1.86871">
        <ele>14</ele>
        <time>2019-02-21T14:47:42Z</time>
      </trkpt>
      <trkpt lat="46.63488" lon="-1.86872">
        <ele>14</ele>
        <time>2019-02-21T14:47:44Z</time>
      </trkpt>
      <trkpt lat="46.6349" lon="-1.86872">
        <ele>14</ele>
        <time>2019-02-21T14:47:47Z</time>
      </trkpt>
      <trkpt lat="46.63494" lon="-1.86872">
        <ele>14</ele>
        <time>2019-02-21T14:47:49Z</time>
      </trkpt>
      <trkpt lat="46.63496" lon="-1.86873">
        <ele>14</ele>
        <time>2019-02-21T14:47:52Z</time>
      </trkpt>
      <trkpt lat="46.63499" lon="-1.86872">
        <ele>14</ele>
        <time>2019-02-21T14:47:55Z</time>
      </trkpt>
      <trkpt lat="46.63502" lon="-1.86873">
        <ele>14</ele>
        <time>2019-02-21T14:47:57Z</time>
      </trkpt>
      <trkpt lat="46.63505" lon="-1.86874">
        <ele>14</ele>
        <time>2019-02-21T14:48:00Z</time>
      </trkpt>
      <trkpt lat="46.63508" lon="-1.86874">
        <ele>15</ele>
        <time>2019-02-21T14:48:02Z</time>
      </trkpt>
      <trkpt lat="46.63512" lon="-1.86876">
        <ele>15</ele>
        <time>2019-02-21T14:48:05Z</time>
      </trkpt>
      <trkpt lat="46.63518" lon="-1.86876">
        <ele>15</ele>
        <time>2019-02-21T14:48:10Z</time>
      </trkpt>
      <trkpt lat="46.63523" lon="-1.86877">
        <ele>15</ele>
        <time>2019-02-21T14:48:13Z</time>
      </trkpt>
      <trkpt lat="46.63526" lon="-1.86877">
        <ele>15</ele>
        <time>2019-02-21T14:48:15Z</time>
      </trkpt>
      <trkpt lat="46.63529" lon="-1.86877">
        <ele>15</ele>
        <time>2019-02-21T14:48:18Z</time>
      </trkpt>
      <trkpt lat="46.63529" lon="-1.86878">
        <ele>15</ele>
        <time>2019-02-21T14:48:20Z</time>
      </trkpt>
      <trkpt lat="46.63529" lon="-1.86878">
        <ele>15</ele>
        <time>2019-02-21T14:48:23Z</time>
      </trkpt>
      <trkpt lat="46.63529" lon="-1.86878">
        <ele>15</ele>
        <time>2019-02-21T14:48:25Z</time>
      </trkpt>
      <trkpt lat="46.63529" lon="-1.86878">
        <ele>15</ele>
        <time>2019-02-21T14:48:28Z</time>
      </trkpt>
      <trkpt lat="46.63531" lon="-1.86878">
        <ele>15</ele>
        <time>2019-02-21T14:48:30Z</time>
      </trkpt>
      <trkpt lat="46.63535" lon="-1.86878">
        <ele>15</ele>
        <time>2019-02-21T14:48:33Z</time>
      </trkpt>
      <trkpt lat="46.6354" lon="-1.8688">
        <ele>15</ele>
        <time>2019-02-21T14:48:38Z</time>
      </trkpt>
      <trkpt lat="46.6354" lon="-1.86879">
        <ele>15</ele>
        <time>2019-02-21T14:48:41Z</time>
      </trkpt>
      <trkpt lat="46.6354" lon="-1.86878">
        <ele>15</ele>
        <time>2019-02-21T14:48:43Z</time>
      </trkpt>
      <trkpt lat="46.63541" lon="-1.86879">
        <ele>15</ele>
        <time>2019-02-21T14:48:46Z</time>
      </trkpt>
      <trkpt lat="46.63543" lon="-1.86881">
        <ele>16</ele>
        <time>2019-02-21T14:48:48Z</time>
      </trkpt>
      <trkpt lat="46.63545" lon="-1.86881">
        <ele>16</ele>
        <time>2019-02-21T14:48:51Z</time>
      </trkpt>
      <trkpt lat="46.63549" lon="-1.86882">
        <ele>16</ele>
        <time>2019-02-21T14:48:54Z</time>
      </trkpt>
      <trkpt lat="46.63551" lon="-1.86882">
        <ele>16</ele>
        <time>2019-02-21T14:48:56Z</time>
      </trkpt>
      <trkpt lat="46.63555" lon="-1.86881">
        <ele>16</ele>
        <time>2019-02-21T14:48:59Z</time>
      </trkpt>
      <trkpt lat="46.63558" lon="-1.8688">
        <ele>16</ele>
        <time>2019-02-21T14:49:01Z</time>
      </trkpt>
      <trkpt lat="46.63561" lon="-1.8688">
        <ele>16</ele>
        <time>2019-02-21T14:49:04Z</time>
      </trkpt>
      <trkpt lat="46.63567" lon="-1.86878">
        <ele>16</ele>
        <time>2019-02-21T14:49:09Z</time>
      </trkpt>
      <trkpt lat="46.63571" lon="-1.86876">
        <ele>16</ele>
        <time>2019-02-21T14:49:12Z</time>
      </trkpt>
      <trkpt lat="46.63574" lon="-1.86875">
        <ele>16</ele>
        <time>2019-02-21T14:49:14Z</time>
      </trkpt>
      <trkpt lat="46.63578" lon="-1.86874">
        <ele>16</ele>
        <time>2019-02-21T14:49:17Z</time>
      </trkpt>
      <trkpt lat="46.63582" lon="-1.86872">
        <ele>16</ele>
        <time>2019-02-21T14:49:19Z</time>
      </trkpt>
      <trkpt lat="46.63585" lon="-1.86872">
        <ele>17</ele>
        <time>2019-02-21T14:49:22Z</time>
      </trkpt>
      <trkpt lat="46.63589" lon="-1.86871">
        <ele>17</ele>
        <time>2019-02-21T14:49:24Z</time>
      </trkpt>
      <trkpt lat="46.63591" lon="-1.86871">
        <ele>17</ele>
        <time>2019-02-21T14:49:27Z</time>
      </trkpt>
      <trkpt lat="46.63595" lon="-1.86869">
        <ele>17</ele>
        <time>2019-02-21T14:49:30Z</time>
      </trkpt>
      <trkpt lat="46.63598" lon="-1.86868">
        <ele>17</ele>
        <time>2019-02-21T14:49:32Z</time>
      </trkpt>
      <trkpt lat="46.63602" lon="-1.86868">
        <ele>17</ele>
        <time>2019-02-21T14:49:35Z</time>
      </trkpt>
      <trkpt lat="46.63608" lon="-1.86868">
        <ele>17</ele>
        <time>2019-02-21T14:49:40Z</time>
      </trkpt>
      <trkpt lat="46.63612" lon="-1.86868">
        <ele>17</ele>
        <time>2019-02-21T14:49:43Z</time>
      </trkpt>
      <trkpt lat="46.63615" lon="-1.86867">
        <ele>17</ele>
        <time>2019-02-21T14:49:45Z</time>
      </trkpt>
      <trkpt lat="46.63619" lon="-1.86867">
        <ele>17</ele>
        <time>2019-02-21T14:49:48Z</time>
      </trkpt>
      <trkpt lat="46.63621" lon="-1.86867">
        <ele>17</ele>
        <time>2019-02-21T14:49:50Z</time>
      </trkpt>
      <trkpt lat="46.63625" lon="-1.86866">
        <ele>17</ele>
        <time>2019-02-21T14:49:53Z</time>
      </trkpt>
      <trkpt lat="46.63626" lon="-1.86863">
        <ele>17</ele>
        <time>2019-02-21T14:49:55Z</time>
      </trkpt>
      <trkpt lat="46.63626" lon="-1.86862">
        <ele>17</ele>
        <time>2019-02-21T14:49:58Z</time>
      </trkpt>
      <trkpt lat="46.63629" lon="-1.86863">
        <ele>17</ele>
        <time>2019-02-21T14:50:00Z</time>
      </trkpt>
      <trkpt lat="46.63631" lon="-1.86865">
        <ele>17</ele>
        <time>2019-02-21T14:50:03Z</time>
      </trkpt>
      <trkpt lat="46.63635" lon="-1.86866">
        <ele>17</ele>
        <time>2019-02-21T14:50:05Z</time>
      </trkpt>
      <trkpt lat="46.63641" lon="-1.86865">
        <ele>17</ele>
        <time>2019-02-21T14:50:11Z</time>
      </trkpt>
      <trkpt lat="46.63645" lon="-1.86864">
        <ele>17</ele>
        <time>2019-02-21T14:50:13Z</time>
      </trkpt>
      <trkpt lat="46.63647" lon="-1.86864">
        <ele>17</ele>
        <time>2019-02-21T14:50:16Z</time>
      </trkpt>
      <trkpt lat="46.63651" lon="-1.86863">
        <ele>17</ele>
        <time>2019-02-21T14:50:19Z</time>
      </trkpt>
      <trkpt lat="46.63655" lon="-1.86863">
        <ele>17</ele>
        <time>2019-02-21T14:50:21Z</time>
      </trkpt>
      <trkpt lat="46.63658" lon="-1.86862">
        <ele>17</ele>
        <time>2019-02-21T14:50:24Z</time>
      </trkpt>
      <trkpt lat="46.63662" lon="-1.86863">
        <ele>17</ele>
        <time>2019-02-21T14:50:27Z</time>
      </trkpt>
      <trkpt lat="46.63665" lon="-1.86862">
        <ele>17</ele>
        <time>2019-02-21T14:50:29Z</time>
      </trkpt>
      <trkpt lat="46.63669" lon="-1.86862">
        <ele>17</ele>
        <time>2019-02-21T14:50:32Z</time>
      </trkpt>
      <trkpt lat="46.63672" lon="-1.86862">
        <ele>17</ele>
        <time>2019-02-21T14:50:34Z</time>
      </trkpt>
      <trkpt lat="46.63675" lon="-1.86862">
        <ele>17</ele>
        <time>2019-02-21T14:50:37Z</time>
      </trkpt>
      <trkpt lat="46.63683" lon="-1.8686">
        <ele>17</ele>
        <time>2019-02-21T14:50:42Z</time>
      </trkpt>
      <trkpt lat="46.63685" lon="-1.8686">
        <ele>17</ele>
        <time>2019-02-21T14:50:45Z</time>
      </trkpt>
      <trkpt lat="46.6369" lon="-1.8686">
        <ele>17</ele>
        <time>2019-02-21T14:50:48Z</time>
      </trkpt>
      <trkpt lat="46.63692" lon="-1.86861">
        <ele>17</ele>
        <time>2019-02-21T14:50:50Z</time>
      </trkpt>
      <trkpt lat="46.63696" lon="-1.86861">
        <ele>17</ele>
        <time>2019-02-21T14:50:53Z</time>
      </trkpt>
      <trkpt lat="46.63701" lon="-1.86861">
        <ele>17</ele>
        <time>2019-02-21T14:50:55Z</time>
      </trkpt>
      <trkpt lat="46.63704" lon="-1.86861">
        <ele>17</ele>
        <time>2019-02-21T14:50:58Z</time>
      </trkpt>
      <trkpt lat="46.63708" lon="-1.86863">
        <ele>17</ele>
        <time>2019-02-21T14:51:01Z</time>
      </trkpt>
      <trkpt lat="46.63712" lon="-1.86864">
        <ele>17</ele>
        <time>2019-02-21T14:51:03Z</time>
      </trkpt>
      <trkpt lat="46.63714" lon="-1.86864">
        <ele>17</ele>
        <time>2019-02-21T14:51:06Z</time>
      </trkpt>
      <trkpt lat="46.63718" lon="-1.86865">
        <ele>17</ele>
        <time>2019-02-21T14:51:09Z</time>
      </trkpt>
      <trkpt lat="46.63725" lon="-1.86865">
        <ele>17</ele>
        <time>2019-02-21T14:51:14Z</time>
      </trkpt>
      <trkpt lat="46.63729" lon="-1.86866">
        <ele>17</ele>
        <time>2019-02-21T14:51:16Z</time>
      </trkpt>
      <trkpt lat="46.63732" lon="-1.86866">
        <ele>17</ele>
        <time>2019-02-21T14:51:19Z</time>
      </trkpt>
      <trkpt lat="46.63736" lon="-1.86867">
        <ele>17</ele>
        <time>2019-02-21T14:51:22Z</time>
      </trkpt>
      <trkpt lat="46.63739" lon="-1.86868">
        <ele>17</ele>
        <time>2019-02-21T14:51:24Z</time>
      </trkpt>
      <trkpt lat="46.6374" lon="-1.86868">
        <ele>17</ele>
        <time>2019-02-21T14:51:27Z</time>
      </trkpt>
      <trkpt lat="46.6374" lon="-1.86868">
        <ele>17</ele>
        <time>2019-02-21T14:51:29Z</time>
      </trkpt>
      <trkpt lat="46.6374" lon="-1.86868">
        <ele>17</ele>
        <time>2019-02-21T14:51:32Z</time>
      </trkpt>
      <trkpt lat="46.63739" lon="-1.86868">
        <ele>17</ele>
        <time>2019-02-21T14:51:35Z</time>
      </trkpt>
      <trkpt lat="46.63739" lon="-1.86868">
        <ele>17</ele>
        <time>2019-02-21T14:51:37Z</time>
      </trkpt>
      <trkpt lat="46.63739" lon="-1.86868">
        <ele>17</ele>
        <time>2019-02-21T14:51:42Z</time>
      </trkpt>
      <trkpt lat="46.6374" lon="-1.86869">
        <ele>17</ele>
        <time>2019-02-21T14:51:45Z</time>
      </trkpt>
      <trkpt lat="46.63739" lon="-1.8687">
        <ele>17</ele>
        <time>2019-02-21T14:51:48Z</time>
      </trkpt>
      <trkpt lat="46.63739" lon="-1.86871">
        <ele>17</ele>
        <time>2019-02-21T14:51:50Z</time>
      </trkpt>
      <trkpt lat="46.63737" lon="-1.86871">
        <ele>17</ele>
        <time>2019-02-21T14:51:53Z</time>
      </trkpt>
      <trkpt lat="46.63738" lon="-1.8687">
        <ele>17</ele>
        <time>2019-02-21T14:51:55Z</time>
      </trkpt>
      <trkpt lat="46.63738" lon="-1.8687">
        <ele>17</ele>
        <time>2019-02-21T14:51:58Z</time>
      </trkpt>
      <trkpt lat="46.63738" lon="-1.8687">
        <ele>17</ele>
        <time>2019-02-21T14:52:01Z</time>
      </trkpt>
      <trkpt lat="46.63738" lon="-1.86869">
        <ele>17</ele>
        <time>2019-02-21T14:52:03Z</time>
      </trkpt>
      <trkpt lat="46.63738" lon="-1.86867">
        <ele>17</ele>
        <time>2019-02-21T14:52:06Z</time>
      </trkpt>
      <trkpt lat="46.63737" lon="-1.86863">
        <ele>17</ele>
        <time>2019-02-21T14:52:08Z</time>
      </trkpt>
      <trkpt lat="46.63737" lon="-1.86862">
        <ele>17</ele>
        <time>2019-02-21T14:52:14Z</time>
      </trkpt>
      <trkpt lat="46.63737" lon="-1.86862">
        <ele>17</ele>
        <time>2019-02-21T14:52:16Z</time>
      </trkpt>
      <trkpt lat="46.63738" lon="-1.86864">
        <ele>17</ele>
        <time>2019-02-21T14:52:19Z</time>
      </trkpt>
      <trkpt lat="46.63738" lon="-1.86867">
        <ele>17</ele>
        <time>2019-02-21T14:52:22Z</time>
      </trkpt>
      <trkpt lat="46.63738" lon="-1.86867">
        <ele>17</ele>
        <time>2019-02-21T14:52:24Z</time>
      </trkpt>
      <trkpt lat="46.63737" lon="-1.86866">
        <ele>17</ele>
        <time>2019-02-21T14:52:27Z</time>
      </trkpt>
      <trkpt lat="46.63738" lon="-1.86866">
        <ele>17</ele>
        <time>2019-02-21T14:52:30Z</time>
      </trkpt>
      <trkpt lat="46.63738" lon="-1.86867">
        <ele>17</ele>
        <time>2019-02-21T14:52:32Z</time>
      </trkpt>
      <trkpt lat="46.63738" lon="-1.86867">
        <ele>17</ele>
        <time>2019-02-21T14:52:35Z</time>
      </trkpt>
      <trkpt lat="46.63737" lon="-1.86867">
        <ele>17</ele>
        <time>2019-02-21T14:52:37Z</time>
      </trkpt>
      <trkpt lat="46.63737" lon="-1.86867">
        <ele>17</ele>
        <time>2019-02-21T14:52:40Z</time>
      </trkpt>
      <trkpt lat="46.63737" lon="-1.86868">
        <ele>17</ele>
        <time>2019-02-21T14:52:45Z</time>
      </trkpt>
      <trkpt lat="46.63737" lon="-1.86868">
        <ele>17</ele>
        <time>2019-02-21T14:52:48Z</time>
      </trkpt>
      <trkpt lat="46.63737" lon="-1.86868">
        <ele>17</ele>
        <time>2019-02-21T14:52:50Z</time>
      </trkpt>
      <trkpt lat="46.63737" lon="-1.86868">
        <ele>17</ele>
        <time>2019-02-21T14:52:53Z</time>
      </trkpt>
      <trkpt lat="46.63737" lon="-1.86868">
        <ele>17</ele>
        <time>2019-02-21T14:52:56Z</time>
      </trkpt>
      <trkpt lat="46.63737" lon="-1.86868">
        <ele>17</ele>
        <time>2019-02-21T14:52:58Z</time>
      </trkpt>
      <trkpt lat="46.63737" lon="-1.86868">
        <ele>17</ele>
        <time>2019-02-21T14:53:01Z</time>
      </trkpt>
      <trkpt lat="46.63737" lon="-1.86869">
        <ele>17</ele>
        <time>2019-02-21T14:53:04Z</time>
      </trkpt>
      <trkpt lat="46.63737" lon="-1.86868">
        <ele>17</ele>
        <time>2019-02-21T14:53:06Z</time>
      </trkpt>
      <trkpt lat="46.63737" lon="-1.86869">
        <ele>17</ele>
        <time>2019-02-21T14:53:09Z</time>
      </trkpt>
      <trkpt lat="46.63737" lon="-1.86869">
        <ele>17</ele>
        <time>2019-02-21T14:53:11Z</time>
      </trkpt>
      <trkpt lat="46.63737" lon="-1.86869">
        <ele>17</ele>
        <time>2019-02-21T14:53:16Z</time>
      </trkpt>
      <trkpt lat="46.63737" lon="-1.86868">
        <ele>17</ele>
        <time>2019-02-21T14:53:19Z</time>
      </trkpt>
      <trkpt lat="46.63737" lon="-1.86868">
        <ele>17</ele>
        <time>2019-02-21T14:53:22Z</time>
      </trkpt>
      <trkpt lat="46.63737" lon="-1.86868">
        <ele>17</ele>
        <time>2019-02-21T14:53:24Z</time>
      </trkpt>
      <trkpt lat="46.63738" lon="-1.86868">
        <ele>17</ele>
        <time>2019-02-21T14:53:27Z</time>
      </trkpt>
      <trkpt lat="46.63738" lon="-1.86869">
        <ele>17</ele>
        <time>2019-02-21T14:53:30Z</time>
      </trkpt>
      <trkpt lat="46.63738" lon="-1.8687">
        <ele>17</ele>
        <time>2019-02-21T14:53:32Z</time>
      </trkpt>
      <trkpt lat="46.63739" lon="-1.86871">
        <ele>17</ele>
        <time>2019-02-21T14:53:35Z</time>
      </trkpt>
      <trkpt lat="46.63739" lon="-1.86871">
        <ele>17</ele>
        <time>2019-02-21T14:53:37Z</time>
      </trkpt>
      <trkpt lat="46.63739" lon="-1.86872">
        <ele>17</ele>
        <time>2019-02-21T14:53:40Z</time>
      </trkpt>
      <trkpt lat="46.63739" lon="-1.86871">
        <ele>17</ele>
        <time>2019-02-21T14:53:43Z</time>
      </trkpt>
      <trkpt lat="46.63739" lon="-1.86871">
        <ele>17</ele>
        <time>2019-02-21T14:53:48Z</time>
      </trkpt>
      <trkpt lat="46.63739" lon="-1.86871">
        <ele>17</ele>
        <time>2019-02-21T14:53:50Z</time>
      </trkpt>
      <trkpt lat="46.63739" lon="-1.86871">
        <ele>17</ele>
        <time>2019-02-21T14:53:53Z</time>
      </trkpt>
      <trkpt lat="46.63739" lon="-1.8687">
        <ele>17</ele>
        <time>2019-02-21T14:53:55Z</time>
      </trkpt>
      <trkpt lat="46.63739" lon="-1.86869">
        <ele>17</ele>
        <time>2019-02-21T14:53:58Z</time>
      </trkpt>
      <trkpt lat="46.63739" lon="-1.86868">
        <ele>17</ele>
        <time>2019-02-21T14:54:01Z</time>
      </trkpt>
      <trkpt lat="46.63738" lon="-1.86868">
        <ele>17</ele>
        <time>2019-02-21T14:54:03Z</time>
      </trkpt>
      <trkpt lat="46.63738" lon="-1.86867">
        <ele>17</ele>
        <time>2019-02-21T14:54:06Z</time>
      </trkpt>
      <trkpt lat="46.63738" lon="-1.86867">
        <ele>17</ele>
        <time>2019-02-21T14:54:08Z</time>
      </trkpt>
      <trkpt lat="46.63739" lon="-1.86867">
        <ele>17</ele>
        <time>2019-02-21T14:54:11Z</time>
      </trkpt>
      <trkpt lat="46.63739" lon="-1.86867">
        <ele>17</ele>
        <time>2019-02-21T14:54:13Z</time>
      </trkpt>
      <trkpt lat="46.63739" lon="-1.86867">
        <ele>17</ele>
        <time>2019-02-21T14:54:18Z</time>
      </trkpt>
      <trkpt lat="46.63739" lon="-1.86867">
        <ele>17</ele>
        <time>2019-02-21T14:54:21Z</time>
      </trkpt>
      <trkpt lat="46.63739" lon="-1.86868">
        <ele>17</ele>
        <time>2019-02-21T14:54:24Z</time>
      </trkpt>
      <trkpt lat="46.6374" lon="-1.86867">
        <ele>17</ele>
        <time>2019-02-21T14:54:26Z</time>
      </trkpt>
      <trkpt lat="46.63742" lon="-1.86868">
        <ele>17</ele>
        <time>2019-02-21T14:54:29Z</time>
      </trkpt>
      <trkpt lat="46.63743" lon="-1.86868">
        <ele>17</ele>
        <time>2019-02-21T14:54:31Z</time>
      </trkpt>
      <trkpt lat="46.63745" lon="-1.86868">
        <ele>17</ele>
        <time>2019-02-21T14:54:34Z</time>
      </trkpt>
      <trkpt lat="46.63747" lon="-1.86868">
        <ele>17</ele>
        <time>2019-02-21T14:54:36Z</time>
      </trkpt>
      <trkpt lat="46.63748" lon="-1.86868">
        <ele>17</ele>
        <time>2019-02-21T14:54:39Z</time>
      </trkpt>
      <trkpt lat="46.63748" lon="-1.86868">
        <ele>17</ele>
        <time>2019-02-21T14:54:41Z</time>
      </trkpt>
      <trkpt lat="46.63749" lon="-1.86868">
        <ele>17</ele>
        <time>2019-02-21T14:54:46Z</time>
      </trkpt>
      <trkpt lat="46.63749" lon="-1.86869">
        <ele>17</ele>
        <time>2019-02-21T14:54:49Z</time>
      </trkpt>
      <trkpt lat="46.63749" lon="-1.86869">
        <ele>17</ele>
        <time>2019-02-21T14:54:51Z</time>
      </trkpt>
      <trkpt lat="46.6375" lon="-1.86869">
        <ele>17</ele>
        <time>2019-02-21T14:54:54Z</time>
      </trkpt>
      <trkpt lat="46.63752" lon="-1.86871">
        <ele>17</ele>
        <time>2019-02-21T14:54:56Z</time>
      </trkpt>
      <trkpt lat="46.63753" lon="-1.86872">
        <ele>17</ele>
        <time>2019-02-21T14:54:59Z</time>
      </trkpt>
      <trkpt lat="46.63755" lon="-1.86873">
        <ele>17</ele>
        <time>2019-02-21T14:55:01Z</time>
      </trkpt>
      <trkpt lat="46.63757" lon="-1.86873">
        <ele>17</ele>
        <time>2019-02-21T14:55:04Z</time>
      </trkpt>
      <trkpt lat="46.6376" lon="-1.86872">
        <ele>17</ele>
        <time>2019-02-21T14:55:07Z</time>
      </trkpt>
      <trkpt lat="46.63763" lon="-1.86871">
        <ele>17</ele>
        <time>2019-02-21T14:55:09Z</time>
      </trkpt>
      <trkpt lat="46.63767" lon="-1.86871">
        <ele>17</ele>
        <time>2019-02-21T14:55:12Z</time>
      </trkpt>
      <trkpt lat="46.63773" lon="-1.8687">
        <ele>17</ele>
        <time>2019-02-21T14:55:17Z</time>
      </trkpt>
      <trkpt lat="46.63776" lon="-1.8687">
        <ele>17</ele>
        <time>2019-02-21T14:55:19Z</time>
      </trkpt>
      <trkpt lat="46.6378" lon="-1.86871">
        <ele>17</ele>
        <time>2019-02-21T14:55:22Z</time>
      </trkpt>
      <trkpt lat="46.63784" lon="-1.86873">
        <ele>17</ele>
        <time>2019-02-21T14:55:24Z</time>
      </trkpt>
      <trkpt lat="46.63786" lon="-1.86872">
        <ele>17</ele>
        <time>2019-02-21T14:55:27Z</time>
      </trkpt>
      <trkpt lat="46.63791" lon="-1.86872">
        <ele>17</ele>
        <time>2019-02-21T14:55:30Z</time>
      </trkpt>
      <trkpt lat="46.63793" lon="-1.86871">
        <ele>17</ele>
        <time>2019-02-21T14:55:32Z</time>
      </trkpt>
      <trkpt lat="46.63797" lon="-1.86871">
        <ele>17</ele>
        <time>2019-02-21T14:55:35Z</time>
      </trkpt>
      <trkpt lat="46.638" lon="-1.86871">
        <ele>17</ele>
        <time>2019-02-21T14:55:37Z</time>
      </trkpt>
      <trkpt lat="46.63805" lon="-1.86871">
        <ele>17</ele>
        <time>2019-02-21T14:55:40Z</time>
      </trkpt>
      <trkpt lat="46.63807" lon="-1.86871">
        <ele>17</ele>
        <time>2019-02-21T14:55:42Z</time>
      </trkpt>
      <trkpt lat="46.63815" lon="-1.86871">
        <ele>17</ele>
        <time>2019-02-21T14:55:47Z</time>
      </trkpt>
      <trkpt lat="46.63817" lon="-1.8687">
        <ele>17</ele>
        <time>2019-02-21T14:55:50Z</time>
      </trkpt>
      <trkpt lat="46.63821" lon="-1.8687">
        <ele>17</ele>
        <time>2019-02-21T14:55:53Z</time>
      </trkpt>
      <trkpt lat="46.63824" lon="-1.8687">
        <ele>17</ele>
        <time>2019-02-21T14:55:55Z</time>
      </trkpt>
      <trkpt lat="46.63829" lon="-1.86871">
        <ele>17</ele>
        <time>2019-02-21T14:55:58Z</time>
      </trkpt>
      <trkpt lat="46.63832" lon="-1.8687">
        <ele>17</ele>
        <time>2019-02-21T14:56:00Z</time>
      </trkpt>
      <trkpt lat="46.63835" lon="-1.8687">
        <ele>17</ele>
        <time>2019-02-21T14:56:03Z</time>
      </trkpt>
      <trkpt lat="46.63838" lon="-1.8687">
        <ele>17</ele>
        <time>2019-02-21T14:56:05Z</time>
      </trkpt>
      <trkpt lat="46.63841" lon="-1.8687">
        <ele>17</ele>
        <time>2019-02-21T14:56:08Z</time>
      </trkpt>
      <trkpt lat="46.63844" lon="-1.86869">
        <ele>17</ele>
        <time>2019-02-21T14:56:10Z</time>
      </trkpt>
      <trkpt lat="46.63847" lon="-1.86871">
        <ele>17</ele>
        <time>2019-02-21T14:56:13Z</time>
      </trkpt>
      <trkpt lat="46.63853" lon="-1.86869">
        <ele>17</ele>
        <time>2019-02-21T14:56:18Z</time>
      </trkpt>
      <trkpt lat="46.63858" lon="-1.86869">
        <ele>17</ele>
        <time>2019-02-21T14:56:21Z</time>
      </trkpt>
      <trkpt lat="46.63862" lon="-1.86869">
        <ele>17</ele>
        <time>2019-02-21T14:56:23Z</time>
      </trkpt>
      <trkpt lat="46.63865" lon="-1.86869">
        <ele>17</ele>
        <time>2019-02-21T14:56:26Z</time>
      </trkpt>
      <trkpt lat="46.63869" lon="-1.86869">
        <ele>17</ele>
        <time>2019-02-21T14:56:28Z</time>
      </trkpt>
      <trkpt lat="46.63872" lon="-1.86868">
        <ele>17</ele>
        <time>2019-02-21T14:56:31Z</time>
      </trkpt>
      <trkpt lat="46.63876" lon="-1.86868">
        <ele>17</ele>
        <time>2019-02-21T14:56:34Z</time>
      </trkpt>
      <trkpt lat="46.63879" lon="-1.86869">
        <ele>17</ele>
        <time>2019-02-21T14:56:36Z</time>
      </trkpt>
      <trkpt lat="46.63883" lon="-1.86868">
        <ele>17</ele>
        <time>2019-02-21T14:56:39Z</time>
      </trkpt>
      <trkpt lat="46.63886" lon="-1.86868">
        <ele>17</ele>
        <time>2019-02-21T14:56:41Z</time>
      </trkpt>
      <trkpt lat="46.63889" lon="-1.86868">
        <ele>17</ele>
        <time>2019-02-21T14:56:44Z</time>
      </trkpt>
      <trkpt lat="46.63895" lon="-1.86867">
        <ele>17</ele>
        <time>2019-02-21T14:56:49Z</time>
      </trkpt>
      <trkpt lat="46.639" lon="-1.86866">
        <ele>17</ele>
        <time>2019-02-21T14:56:52Z</time>
      </trkpt>
      <trkpt lat="46.63902" lon="-1.86865">
        <ele>17</ele>
        <time>2019-02-21T14:56:54Z</time>
      </trkpt>
      <trkpt lat="46.63906" lon="-1.86863">
        <ele>17</ele>
        <time>2019-02-21T14:56:57Z</time>
      </trkpt>
      <trkpt lat="46.63911" lon="-1.8686">
        <ele>17</ele>
        <time>2019-02-21T14:56:59Z</time>
      </trkpt>
      <trkpt lat="46.63914" lon="-1.86858">
        <ele>17</ele>
        <time>2019-02-21T14:57:02Z</time>
      </trkpt>
      <trkpt lat="46.63916" lon="-1.86854">
        <ele>17</ele>
        <time>2019-02-21T14:57:05Z</time>
      </trkpt>
      <trkpt lat="46.63918" lon="-1.86851">
        <ele>17</ele>
        <time>2019-02-21T14:57:07Z</time>
      </trkpt>
      <trkpt lat="46.6392" lon="-1.86845">
        <ele>17</ele>
        <time>2019-02-21T14:57:10Z</time>
      </trkpt>
      <trkpt lat="46.63922" lon="-1.86841">
        <ele>17</ele>
        <time>2019-02-21T14:57:12Z</time>
      </trkpt>
      <trkpt lat="46.63923" lon="-1.86838">
        <ele>17</ele>
        <time>2019-02-21T14:57:15Z</time>
      </trkpt>
      <trkpt lat="46.63927" lon="-1.8683">
        <ele>17</ele>
        <time>2019-02-21T14:57:20Z</time>
      </trkpt>
      <trkpt lat="46.63929" lon="-1.86825">
        <ele>17</ele>
        <time>2019-02-21T14:57:23Z</time>
      </trkpt>
      <trkpt lat="46.63929" lon="-1.86821">
        <ele>17</ele>
        <time>2019-02-21T14:57:25Z</time>
      </trkpt>
      <trkpt lat="46.63932" lon="-1.86817">
        <ele>17</ele>
        <time>2019-02-21T14:57:28Z</time>
      </trkpt>
      <trkpt lat="46.63934" lon="-1.86814">
        <ele>17</ele>
        <time>2019-02-21T14:57:30Z</time>
      </trkpt>
      <trkpt lat="46.63937" lon="-1.86811">
        <ele>17</ele>
        <time>2019-02-21T14:57:33Z</time>
      </trkpt>
      <trkpt lat="46.63938" lon="-1.8681">
        <ele>17</ele>
        <time>2019-02-21T14:57:35Z</time>
      </trkpt>
      <trkpt lat="46.63936" lon="-1.86811">
        <ele>17</ele>
        <time>2019-02-21T14:57:38Z</time>
      </trkpt>
      <trkpt lat="46.63936" lon="-1.86812">
        <ele>17</ele>
        <time>2019-02-21T14:57:40Z</time>
      </trkpt>
      <trkpt lat="46.63936" lon="-1.86813">
        <ele>17</ele>
        <time>2019-02-21T14:57:43Z</time>
      </trkpt>
      <trkpt lat="46.63936" lon="-1.86813">
        <ele>17</ele>
        <time>2019-02-21T14:57:48Z</time>
      </trkpt>
      <trkpt lat="46.63936" lon="-1.86813">
        <ele>17</ele>
        <time>2019-02-21T14:57:50Z</time>
      </trkpt>
      <trkpt lat="46.63936" lon="-1.86813">
        <ele>17</ele>
        <time>2019-02-21T14:57:53Z</time>
      </trkpt>
      <trkpt lat="46.63936" lon="-1.86813">
        <ele>17</ele>
        <time>2019-02-21T14:57:55Z</time>
      </trkpt>
      <trkpt lat="46.63937" lon="-1.86813">
        <ele>17</ele>
        <time>2019-02-21T14:57:58Z</time>
      </trkpt>
      <trkpt lat="46.63937" lon="-1.86814">
        <ele>17</ele>
        <time>2019-02-21T14:58:00Z</time>
      </trkpt>
      <trkpt lat="46.63938" lon="-1.86814">
        <ele>17</ele>
        <time>2019-02-21T14:58:03Z</time>
      </trkpt>
      <trkpt lat="46.6394" lon="-1.86814">
        <ele>17</ele>
        <time>2019-02-21T14:58:05Z</time>
      </trkpt>
      <trkpt lat="46.63943" lon="-1.86815">
        <ele>17</ele>
        <time>2019-02-21T14:58:08Z</time>
      </trkpt>
      <trkpt lat="46.63945" lon="-1.86816">
        <ele>17</ele>
        <time>2019-02-21T14:58:10Z</time>
      </trkpt>
      <trkpt lat="46.63948" lon="-1.86817">
        <ele>17</ele>
        <time>2019-02-21T14:58:13Z</time>
      </trkpt>
      <trkpt lat="46.63954" lon="-1.86819">
        <ele>17</ele>
        <time>2019-02-21T14:58:18Z</time>
      </trkpt>
      <trkpt lat="46.63957" lon="-1.8682">
        <ele>18</ele>
        <time>2019-02-21T14:58:20Z</time>
      </trkpt>
      <trkpt lat="46.6396" lon="-1.86821">
        <ele>18</ele>
        <time>2019-02-21T14:58:23Z</time>
      </trkpt>
      <trkpt lat="46.63963" lon="-1.86822">
        <ele>18</ele>
        <time>2019-02-21T14:58:25Z</time>
      </trkpt>
      <trkpt lat="46.63967" lon="-1.86825">
        <ele>18</ele>
        <time>2019-02-21T14:58:28Z</time>
      </trkpt>
      <trkpt lat="46.63971" lon="-1.86828">
        <ele>18</ele>
        <time>2019-02-21T14:58:30Z</time>
      </trkpt>
      <trkpt lat="46.63973" lon="-1.86829">
        <ele>18</ele>
        <time>2019-02-21T14:58:33Z</time>
      </trkpt>
      <trkpt lat="46.63977" lon="-1.86831">
        <ele>18</ele>
        <time>2019-02-21T14:58:35Z</time>
      </trkpt>
      <trkpt lat="46.63979" lon="-1.86832">
        <ele>18</ele>
        <time>2019-02-21T14:58:38Z</time>
      </trkpt>
      <trkpt lat="46.63983" lon="-1.86836">
        <ele>18</ele>
        <time>2019-02-21T14:58:40Z</time>
      </trkpt>
      <trkpt lat="46.63985" lon="-1.86838">
        <ele>18</ele>
        <time>2019-02-21T14:58:43Z</time>
      </trkpt>
      <trkpt lat="46.63992" lon="-1.86843">
        <ele>18</ele>
        <time>2019-02-21T14:58:48Z</time>
      </trkpt>
      <trkpt lat="46.63996" lon="-1.86847">
        <ele>19</ele>
        <time>2019-02-21T14:58:51Z</time>
      </trkpt>
      <trkpt lat="46.63998" lon="-1.86849">
        <ele>19</ele>
        <time>2019-02-21T14:58:53Z</time>
      </trkpt>
      <trkpt lat="46.64002" lon="-1.86853">
        <ele>19</ele>
        <time>2019-02-21T14:58:56Z</time>
      </trkpt>
      <trkpt lat="46.64004" lon="-1.86855">
        <ele>19</ele>
        <time>2019-02-21T14:58:58Z</time>
      </trkpt>
      <trkpt lat="46.64008" lon="-1.8686">
        <ele>19</ele>
        <time>2019-02-21T14:59:01Z</time>
      </trkpt>
      <trkpt lat="46.64012" lon="-1.86864">
        <ele>19</ele>
        <time>2019-02-21T14:59:03Z</time>
      </trkpt>
      <trkpt lat="46.64014" lon="-1.86866">
        <ele>19</ele>
        <time>2019-02-21T14:59:06Z</time>
      </trkpt>
      <trkpt lat="46.64017" lon="-1.86869">
        <ele>19</ele>
        <time>2019-02-21T14:59:09Z</time>
      </trkpt>
      <trkpt lat="46.64019" lon="-1.86872">
        <ele>19</ele>
        <time>2019-02-21T14:59:11Z</time>
      </trkpt>
      <trkpt lat="46.64023" lon="-1.86875">
        <ele>19</ele>
        <time>2019-02-21T14:59:14Z</time>
      </trkpt>
      <trkpt lat="46.64028" lon="-1.86881">
        <ele>19</ele>
        <time>2019-02-21T14:59:19Z</time>
      </trkpt>
      <trkpt lat="46.64032" lon="-1.86885">
        <ele>19</ele>
        <time>2019-02-21T14:59:22Z</time>
      </trkpt>
      <trkpt lat="46.64034" lon="-1.86888">
        <ele>19</ele>
        <time>2019-02-21T14:59:24Z</time>
      </trkpt>
      <trkpt lat="46.64038" lon="-1.86891">
        <ele>19</ele>
        <time>2019-02-21T14:59:27Z</time>
      </trkpt>
      <trkpt lat="46.64041" lon="-1.86892">
        <ele>19</ele>
        <time>2019-02-21T14:59:29Z</time>
      </trkpt>
      <trkpt lat="46.64046" lon="-1.86895">
        <ele>19</ele>
        <time>2019-02-21T14:59:32Z</time>
      </trkpt>
      <trkpt lat="46.6405" lon="-1.86897">
        <ele>19</ele>
        <time>2019-02-21T14:59:34Z</time>
      </trkpt>
      <trkpt lat="46.64052" lon="-1.86898">
        <ele>19</ele>
        <time>2019-02-21T14:59:37Z</time>
      </trkpt>
      <trkpt lat="46.64057" lon="-1.869">
        <ele>19</ele>
        <time>2019-02-21T14:59:40Z</time>
      </trkpt>
      <trkpt lat="46.64059" lon="-1.869">
        <ele>19</ele>
        <time>2019-02-21T14:59:42Z</time>
      </trkpt>
      <trkpt lat="46.64062" lon="-1.86901">
        <ele>19</ele>
        <time>2019-02-21T14:59:45Z</time>
      </trkpt>
      <trkpt lat="46.64069" lon="-1.86902">
        <ele>19</ele>
        <time>2019-02-21T14:59:50Z</time>
      </trkpt>
      <trkpt lat="46.64073" lon="-1.86902">
        <ele>20</ele>
        <time>2019-02-21T14:59:52Z</time>
      </trkpt>
      <trkpt lat="46.64075" lon="-1.86902">
        <ele>20</ele>
        <time>2019-02-21T14:59:55Z</time>
      </trkpt>
      <trkpt lat="46.6408" lon="-1.86903">
        <ele>20</ele>
        <time>2019-02-21T14:59:58Z</time>
      </trkpt>
      <trkpt lat="46.64082" lon="-1.86903">
        <ele>20</ele>
        <time>2019-02-21T15:00:00Z</time>
      </trkpt>
      <trkpt lat="46.64085" lon="-1.86904">
        <ele>20</ele>
        <time>2019-02-21T15:00:03Z</time>
      </trkpt>
      <trkpt lat="46.64087" lon="-1.86904">
        <ele>20</ele>
        <time>2019-02-21T15:00:05Z</time>
      </trkpt>
      <trkpt lat="46.64088" lon="-1.86905">
        <ele>20</ele>
        <time>2019-02-21T15:00:08Z</time>
      </trkpt>
      <trkpt lat="46.64088" lon="-1.86906">
        <ele>20</ele>
        <time>2019-02-21T15:00:10Z</time>
      </trkpt>
      <trkpt lat="46.64088" lon="-1.86906">
        <ele>20</ele>
        <time>2019-02-21T15:00:13Z</time>
      </trkpt>
      <trkpt lat="46.64089" lon="-1.86906">
        <ele>20</ele>
        <time>2019-02-21T15:00:15Z</time>
      </trkpt>
      <trkpt lat="46.64093" lon="-1.86906">
        <ele>20</ele>
        <time>2019-02-21T15:00:20Z</time>
      </trkpt>
      <trkpt lat="46.64097" lon="-1.86906">
        <ele>20</ele>
        <time>2019-02-21T15:00:23Z</time>
      </trkpt>
      <trkpt lat="46.641" lon="-1.86906">
        <ele>20</ele>
        <time>2019-02-21T15:00:25Z</time>
      </trkpt>
      <trkpt lat="46.64102" lon="-1.86906">
        <ele>20</ele>
        <time>2019-02-21T15:00:28Z</time>
      </trkpt>
      <trkpt lat="46.64106" lon="-1.86906">
        <ele>20</ele>
        <time>2019-02-21T15:00:30Z</time>
      </trkpt>
      <trkpt lat="46.64108" lon="-1.86906">
        <ele>20</ele>
        <time>2019-02-21T15:00:33Z</time>
      </trkpt>
      <trkpt lat="46.64113" lon="-1.86906">
        <ele>20</ele>
        <time>2019-02-21T15:00:36Z</time>
      </trkpt>
      <trkpt lat="46.64115" lon="-1.86907">
        <ele>20</ele>
        <time>2019-02-21T15:00:38Z</time>
      </trkpt>
      <trkpt lat="46.6412" lon="-1.86906">
        <ele>20</ele>
        <time>2019-02-21T15:00:41Z</time>
      </trkpt>
      <trkpt lat="46.64123" lon="-1.86907">
        <ele>20</ele>
        <time>2019-02-21T15:00:43Z</time>
      </trkpt>
      <trkpt lat="46.64128" lon="-1.86907">
        <ele>20</ele>
        <time>2019-02-21T15:00:46Z</time>
      </trkpt>
      <trkpt lat="46.64135" lon="-1.86909">
        <ele>20</ele>
        <time>2019-02-21T15:00:51Z</time>
      </trkpt>
      <trkpt lat="46.64139" lon="-1.86911">
        <ele>20</ele>
        <time>2019-02-21T15:00:53Z</time>
      </trkpt>
      <trkpt lat="46.64142" lon="-1.86912">
        <ele>20</ele>
        <time>2019-02-21T15:00:56Z</time>
      </trkpt>
      <trkpt lat="46.64146" lon="-1.86914">
        <ele>20</ele>
        <time>2019-02-21T15:00:58Z</time>
      </trkpt>
      <trkpt lat="46.64149" lon="-1.86915">
        <ele>20</ele>
        <time>2019-02-21T15:01:01Z</time>
      </trkpt>
      <trkpt lat="46.64153" lon="-1.86917">
        <ele>20</ele>
        <time>2019-02-21T15:01:03Z</time>
      </trkpt>
      <trkpt lat="46.64156" lon="-1.86918">
        <ele>20</ele>
        <time>2019-02-21T15:01:06Z</time>
      </trkpt>
      <trkpt lat="46.6416" lon="-1.86919">
        <ele>20</ele>
        <time>2019-02-21T15:01:09Z</time>
      </trkpt>
      <trkpt lat="46.64162" lon="-1.8692">
        <ele>20</ele>
        <time>2019-02-21T15:01:11Z</time>
      </trkpt>
      <trkpt lat="46.64167" lon="-1.86922">
        <ele>20</ele>
        <time>2019-02-21T15:01:14Z</time>
      </trkpt>
      <trkpt lat="46.64174" lon="-1.86924">
        <ele>20</ele>
        <time>2019-02-21T15:01:19Z</time>
      </trkpt>
      <trkpt lat="46.64176" lon="-1.86923">
        <ele>20</ele>
        <time>2019-02-21T15:01:21Z</time>
      </trkpt>
      <trkpt lat="46.6418" lon="-1.8692">
        <ele>20</ele>
        <time>2019-02-21T15:01:24Z</time>
      </trkpt>
      <trkpt lat="46.64184" lon="-1.86919">
        <ele>20</ele>
        <time>2019-02-21T15:01:26Z</time>
      </trkpt>
      <trkpt lat="46.64186" lon="-1.86916">
        <ele>20</ele>
        <time>2019-02-21T15:01:29Z</time>
      </trkpt>
      <trkpt lat="46.64186" lon="-1.86913">
        <ele>20</ele>
        <time>2019-02-21T15:01:31Z</time>
      </trkpt>
      <trkpt lat="46.64189" lon="-1.86911">
        <ele>20</ele>
        <time>2019-02-21T15:01:34Z</time>
      </trkpt>
      <trkpt lat="46.6419" lon="-1.86908">
        <ele>20</ele>
        <time>2019-02-21T15:01:36Z</time>
      </trkpt>
      <trkpt lat="46.6419" lon="-1.86908">
        <ele>20</ele>
        <time>2019-02-21T15:01:39Z</time>
      </trkpt>
      <trkpt lat="46.6419" lon="-1.86908">
        <ele>20</ele>
        <time>2019-02-21T15:01:41Z</time>
      </trkpt>
      <trkpt lat="46.6419" lon="-1.86908">
        <ele>20</ele>
        <time>2019-02-21T15:01:44Z</time>
      </trkpt>
      <trkpt lat="46.6419" lon="-1.86908">
        <ele>20</ele>
        <time>2019-02-21T15:01:49Z</time>
      </trkpt>
      <trkpt lat="46.64191" lon="-1.86909">
        <ele>20</ele>
        <time>2019-02-21T15:01:52Z</time>
      </trkpt>
      <trkpt lat="46.64191" lon="-1.86909">
        <ele>20</ele>
        <time>2019-02-21T15:01:54Z</time>
      </trkpt>
      <trkpt lat="46.64191" lon="-1.8691">
        <ele>20</ele>
        <time>2019-02-21T15:01:57Z</time>
      </trkpt>
      <trkpt lat="46.64191" lon="-1.8691">
        <ele>20</ele>
        <time>2019-02-21T15:01:59Z</time>
      </trkpt>
      <trkpt lat="46.64191" lon="-1.86911">
        <ele>20</ele>
        <time>2019-02-21T15:02:02Z</time>
      </trkpt>
      <trkpt lat="46.6419" lon="-1.86906">
        <ele>20</ele>
        <time>2019-02-21T15:02:04Z</time>
      </trkpt>
      <trkpt lat="46.6419" lon="-1.86903">
        <ele>20</ele>
        <time>2019-02-21T15:02:07Z</time>
      </trkpt>
      <trkpt lat="46.6419" lon="-1.86898">
        <ele>20</ele>
        <time>2019-02-21T15:02:10Z</time>
      </trkpt>
      <trkpt lat="46.6419" lon="-1.86894">
        <ele>20</ele>
        <time>2019-02-21T15:02:12Z</time>
      </trkpt>
      <trkpt lat="46.64191" lon="-1.86888">
        <ele>20</ele>
        <time>2019-02-21T15:02:15Z</time>
      </trkpt>
      <trkpt lat="46.6419" lon="-1.86878">
        <ele>20</ele>
        <time>2019-02-21T15:02:20Z</time>
      </trkpt>
      <trkpt lat="46.6419" lon="-1.86874">
        <ele>20</ele>
        <time>2019-02-21T15:02:22Z</time>
      </trkpt>
      <trkpt lat="46.6419" lon="-1.86868">
        <ele>20</ele>
        <time>2019-02-21T15:02:25Z</time>
      </trkpt>
      <trkpt lat="46.64189" lon="-1.86864">
        <ele>20</ele>
        <time>2019-02-21T15:02:27Z</time>
      </trkpt>
      <trkpt lat="46.64189" lon="-1.86858">
        <ele>20</ele>
        <time>2019-02-21T15:02:30Z</time>
      </trkpt>
      <trkpt lat="46.64189" lon="-1.86851">
        <ele>20</ele>
        <time>2019-02-21T15:02:32Z</time>
      </trkpt>
      <trkpt lat="46.6419" lon="-1.86847">
        <ele>20</ele>
        <time>2019-02-21T15:02:35Z</time>
      </trkpt>
      <trkpt lat="46.6419" lon="-1.8684">
        <ele>20</ele>
        <time>2019-02-21T15:02:38Z</time>
      </trkpt>
      <trkpt lat="46.64189" lon="-1.86836">
        <ele>20</ele>
        <time>2019-02-21T15:02:40Z</time>
      </trkpt>
      <trkpt lat="46.64189" lon="-1.8683">
        <ele>20</ele>
        <time>2019-02-21T15:02:43Z</time>
      </trkpt>
      <trkpt lat="46.64189" lon="-1.86823">
        <ele>20</ele>
        <time>2019-02-21T15:02:45Z</time>
      </trkpt>
      <trkpt lat="46.6419" lon="-1.86814">
        <ele>20</ele>
        <time>2019-02-21T15:02:50Z</time>
      </trkpt>
      <trkpt lat="46.6419" lon="-1.8681">
        <ele>21</ele>
        <time>2019-02-21T15:02:53Z</time>
      </trkpt>
      <trkpt lat="46.6419" lon="-1.86806">
        <ele>21</ele>
        <time>2019-02-21T15:02:56Z</time>
      </trkpt>
      <trkpt lat="46.64189" lon="-1.86802">
        <ele>21</ele>
        <time>2019-02-21T15:02:58Z</time>
      </trkpt>
      <trkpt lat="46.64189" lon="-1.86796">
        <ele>21</ele>
        <time>2019-02-21T15:03:01Z</time>
      </trkpt>
      <trkpt lat="46.64189" lon="-1.86791">
        <ele>21</ele>
        <time>2019-02-21T15:03:03Z</time>
      </trkpt>
      <trkpt lat="46.64189" lon="-1.86786">
        <ele>21</ele>
        <time>2019-02-21T15:03:06Z</time>
      </trkpt>
      <trkpt lat="46.64189" lon="-1.86782">
        <ele>21</ele>
        <time>2019-02-21T15:03:08Z</time>
      </trkpt>
      <trkpt lat="46.64189" lon="-1.86775">
        <ele>21</ele>
        <time>2019-02-21T15:03:11Z</time>
      </trkpt>
      <trkpt lat="46.64188" lon="-1.86771">
        <ele>21</ele>
        <time>2019-02-21T15:03:13Z</time>
      </trkpt>
      <trkpt lat="46.64188" lon="-1.86765">
        <ele>21</ele>
        <time>2019-02-21T15:03:16Z</time>
      </trkpt>
      <trkpt lat="46.64188" lon="-1.86753">
        <ele>21</ele>
        <time>2019-02-21T15:03:21Z</time>
      </trkpt>
      <trkpt lat="46.64189" lon="-1.86746">
        <ele>21</ele>
        <time>2019-02-21T15:03:23Z</time>
      </trkpt>
      <trkpt lat="46.64189" lon="-1.86742">
        <ele>21</ele>
        <time>2019-02-21T15:03:26Z</time>
      </trkpt>
      <trkpt lat="46.64189" lon="-1.86736">
        <ele>21</ele>
        <time>2019-02-21T15:03:29Z</time>
      </trkpt>
      <trkpt lat="46.64189" lon="-1.86734">
        <ele>21</ele>
        <time>2019-02-21T15:03:31Z</time>
      </trkpt>
      <trkpt lat="46.64189" lon="-1.86728">
        <ele>21</ele>
        <time>2019-02-21T15:03:34Z</time>
      </trkpt>
      <trkpt lat="46.64189" lon="-1.86724">
        <ele>21</ele>
        <time>2019-02-21T15:03:36Z</time>
      </trkpt>
      <trkpt lat="46.64189" lon="-1.86719">
        <ele>21</ele>
        <time>2019-02-21T15:03:39Z</time>
      </trkpt>
      <trkpt lat="46.64189" lon="-1.86714">
        <ele>21</ele>
        <time>2019-02-21T15:03:41Z</time>
      </trkpt>
      <trkpt lat="46.64189" lon="-1.86708">
        <ele>21</ele>
        <time>2019-02-21T15:03:44Z</time>
      </trkpt>
      <trkpt lat="46.64189" lon="-1.86704">
        <ele>21</ele>
        <time>2019-02-21T15:03:46Z</time>
      </trkpt>
      <trkpt lat="46.6419" lon="-1.86692">
        <ele>21</ele>
        <time>2019-02-21T15:03:51Z</time>
      </trkpt>
      <trkpt lat="46.64191" lon="-1.86688">
        <ele>21</ele>
        <time>2019-02-21T15:03:54Z</time>
      </trkpt>
      <trkpt lat="46.64191" lon="-1.86682">
        <ele>21</ele>
        <time>2019-02-21T15:03:56Z</time>
      </trkpt>
      <trkpt lat="46.64191" lon="-1.86678">
        <ele>21</ele>
        <time>2019-02-21T15:03:59Z</time>
      </trkpt>
      <trkpt lat="46.64192" lon="-1.86673">
        <ele>21</ele>
        <time>2019-02-21T15:04:01Z</time>
      </trkpt>
      <trkpt lat="46.64192" lon="-1.86668">
        <ele>21</ele>
        <time>2019-02-21T15:04:04Z</time>
      </trkpt>
      <trkpt lat="46.64193" lon="-1.86661">
        <ele>21</ele>
        <time>2019-02-21T15:04:06Z</time>
      </trkpt>
      <trkpt lat="46.64194" lon="-1.86658">
        <ele>21</ele>
        <time>2019-02-21T15:04:09Z</time>
      </trkpt>
      <trkpt lat="46.64194" lon="-1.86652">
        <ele>21</ele>
        <time>2019-02-21T15:04:12Z</time>
      </trkpt>
      <trkpt lat="46.64194" lon="-1.86648">
        <ele>21</ele>
        <time>2019-02-21T15:04:14Z</time>
      </trkpt>
      <trkpt lat="46.64195" lon="-1.86636">
        <ele>21</ele>
        <time>2019-02-21T15:04:19Z</time>
      </trkpt>
      <trkpt lat="46.64196" lon="-1.8663">
        <ele>21</ele>
        <time>2019-02-21T15:04:22Z</time>
      </trkpt>
      <trkpt lat="46.64196" lon="-1.86626">
        <ele>21</ele>
        <time>2019-02-21T15:04:24Z</time>
      </trkpt>
      <trkpt lat="46.64196" lon="-1.8662">
        <ele>21</ele>
        <time>2019-02-21T15:04:27Z</time>
      </trkpt>
      <trkpt lat="46.64197" lon="-1.86616">
        <ele>21</ele>
        <time>2019-02-21T15:04:29Z</time>
      </trkpt>
      <trkpt lat="46.64198" lon="-1.86609">
        <ele>21</ele>
        <time>2019-02-21T15:04:32Z</time>
      </trkpt>
      <trkpt lat="46.64198" lon="-1.86605">
        <ele>21</ele>
        <time>2019-02-21T15:04:34Z</time>
      </trkpt>
      <trkpt lat="46.64198" lon="-1.86599">
        <ele>21</ele>
        <time>2019-02-21T15:04:37Z</time>
      </trkpt>
      <trkpt lat="46.64198" lon="-1.86595">
        <ele>21</ele>
        <time>2019-02-21T15:04:39Z</time>
      </trkpt>
      <trkpt lat="46.64198" lon="-1.86589">
        <ele>21</ele>
        <time>2019-02-21T15:04:42Z</time>
      </trkpt>
      <trkpt lat="46.64198" lon="-1.86584">
        <ele>21</ele>
        <time>2019-02-21T15:04:44Z</time>
      </trkpt>
      <trkpt lat="46.64198" lon="-1.86574">
        <ele>21</ele>
        <time>2019-02-21T15:04:49Z</time>
      </trkpt>
      <trkpt lat="46.64198" lon="-1.86568">
        <ele>21</ele>
        <time>2019-02-21T15:04:52Z</time>
      </trkpt>
      <trkpt lat="46.64198" lon="-1.86564">
        <ele>21</ele>
        <time>2019-02-21T15:04:54Z</time>
      </trkpt>
      <trkpt lat="46.64198" lon="-1.86558">
        <ele>20</ele>
        <time>2019-02-21T15:04:57Z</time>
      </trkpt>
      <trkpt lat="46.64199" lon="-1.86553">
        <ele>20</ele>
        <time>2019-02-21T15:04:59Z</time>
      </trkpt>
      <trkpt lat="46.64198" lon="-1.86548">
        <ele>20</ele>
        <time>2019-02-21T15:05:02Z</time>
      </trkpt>
      <trkpt lat="46.64198" lon="-1.86542">
        <ele>21</ele>
        <time>2019-02-21T15:05:04Z</time>
      </trkpt>
      <trkpt lat="46.64198" lon="-1.86537">
        <ele>21</ele>
        <time>2019-02-21T15:05:07Z</time>
      </trkpt>
      <trkpt lat="46.64198" lon="-1.8653">
        <ele>21</ele>
        <time>2019-02-21T15:05:09Z</time>
      </trkpt>
      <trkpt lat="46.64198" lon="-1.86526">
        <ele>21</ele>
        <time>2019-02-21T15:05:12Z</time>
      </trkpt>
      <trkpt lat="46.64198" lon="-1.8652">
        <ele>21</ele>
        <time>2019-02-21T15:05:15Z</time>
      </trkpt>
      <trkpt lat="46.64198" lon="-1.86509">
        <ele>21</ele>
        <time>2019-02-21T15:05:20Z</time>
      </trkpt>
      <trkpt lat="46.64198" lon="-1.86505">
        <ele>21</ele>
        <time>2019-02-21T15:05:22Z</time>
      </trkpt>
      <trkpt lat="46.64198" lon="-1.86499">
        <ele>21</ele>
        <time>2019-02-21T15:05:25Z</time>
      </trkpt>
      <trkpt lat="46.64198" lon="-1.86495">
        <ele>21</ele>
        <time>2019-02-21T15:05:27Z</time>
      </trkpt>
      <trkpt lat="46.64197" lon="-1.8649">
        <ele>21</ele>
        <time>2019-02-21T15:05:30Z</time>
      </trkpt>
      <trkpt lat="46.64197" lon="-1.86484">
        <ele>21</ele>
        <time>2019-02-21T15:05:32Z</time>
      </trkpt>
      <trkpt lat="46.64197" lon="-1.8648">
        <ele>21</ele>
        <time>2019-02-21T15:05:35Z</time>
      </trkpt>
      <trkpt lat="46.64196" lon="-1.86474">
        <ele>21</ele>
        <time>2019-02-21T15:05:37Z</time>
      </trkpt>
      <trkpt lat="46.64196" lon="-1.8647">
        <ele>21</ele>
        <time>2019-02-21T15:05:40Z</time>
      </trkpt>
      <trkpt lat="46.64195" lon="-1.86464">
        <ele>21</ele>
        <time>2019-02-21T15:05:43Z</time>
      </trkpt>
      <trkpt lat="46.64194" lon="-1.8646">
        <ele>21</ele>
        <time>2019-02-21T15:05:45Z</time>
      </trkpt>
      <trkpt lat="46.64194" lon="-1.86448">
        <ele>21</ele>
        <time>2019-02-21T15:05:50Z</time>
      </trkpt>
      <trkpt lat="46.64193" lon="-1.86444">
        <ele>21</ele>
        <time>2019-02-21T15:05:53Z</time>
      </trkpt>
      <trkpt lat="46.64193" lon="-1.86439">
        <ele>21</ele>
        <time>2019-02-21T15:05:55Z</time>
      </trkpt>
      <trkpt lat="46.64192" lon="-1.86434">
        <ele>21</ele>
        <time>2019-02-21T15:05:58Z</time>
      </trkpt>
      <trkpt lat="46.64191" lon="-1.86428">
        <ele>21</ele>
        <time>2019-02-21T15:06:00Z</time>
      </trkpt>
      <trkpt lat="46.64191" lon="-1.86424">
        <ele>22</ele>
        <time>2019-02-21T15:06:03Z</time>
      </trkpt>
      <trkpt lat="46.6419" lon="-1.86418">
        <ele>22</ele>
        <time>2019-02-21T15:06:06Z</time>
      </trkpt>
      <trkpt lat="46.64189" lon="-1.86414">
        <ele>22</ele>
        <time>2019-02-21T15:06:08Z</time>
      </trkpt>
      <trkpt lat="46.64188" lon="-1.86407">
        <ele>22</ele>
        <time>2019-02-21T15:06:11Z</time>
      </trkpt>
      <trkpt lat="46.64187" lon="-1.86403">
        <ele>22</ele>
        <time>2019-02-21T15:06:13Z</time>
      </trkpt>
      <trkpt lat="46.64187" lon="-1.86397">
        <ele>22</ele>
        <time>2019-02-21T15:06:16Z</time>
      </trkpt>
      <trkpt lat="46.64187" lon="-1.86387">
        <ele>22</ele>
        <time>2019-02-21T15:06:21Z</time>
      </trkpt>
      <trkpt lat="46.64187" lon="-1.86383">
        <ele>22</ele>
        <time>2019-02-21T15:06:23Z</time>
      </trkpt>
      <trkpt lat="46.64187" lon="-1.86377">
        <ele>22</ele>
        <time>2019-02-21T15:06:26Z</time>
      </trkpt>
      <trkpt lat="46.64187" lon="-1.86371">
        <ele>22</ele>
        <time>2019-02-21T15:06:28Z</time>
      </trkpt>
      <trkpt lat="46.64186" lon="-1.86368">
        <ele>22</ele>
        <time>2019-02-21T15:06:31Z</time>
      </trkpt>
      <trkpt lat="46.64186" lon="-1.86362">
        <ele>22</ele>
        <time>2019-02-21T15:06:33Z</time>
      </trkpt>
      <trkpt lat="46.64186" lon="-1.86359">
        <ele>22</ele>
        <time>2019-02-21T15:06:36Z</time>
      </trkpt>
      <trkpt lat="46.64187" lon="-1.86355">
        <ele>22</ele>
        <time>2019-02-21T15:06:39Z</time>
      </trkpt>
      <trkpt lat="46.64187" lon="-1.86353">
        <ele>22</ele>
        <time>2019-02-21T15:06:41Z</time>
      </trkpt>
      <trkpt lat="46.64187" lon="-1.8635">
        <ele>22</ele>
        <time>2019-02-21T15:06:44Z</time>
      </trkpt>
      <trkpt lat="46.64186" lon="-1.86344">
        <ele>22</ele>
        <time>2019-02-21T15:06:46Z</time>
      </trkpt>
      <trkpt lat="46.64187" lon="-1.86334">
        <ele>22</ele>
        <time>2019-02-21T15:06:51Z</time>
      </trkpt>
      <trkpt lat="46.64187" lon="-1.8633">
        <ele>22</ele>
        <time>2019-02-21T15:06:54Z</time>
      </trkpt>
      <trkpt lat="46.64187" lon="-1.86325">
        <ele>22</ele>
        <time>2019-02-21T15:06:57Z</time>
      </trkpt>
      <trkpt lat="46.64186" lon="-1.86322">
        <ele>22</ele>
        <time>2019-02-21T15:06:59Z</time>
      </trkpt>
      <trkpt lat="46.64186" lon="-1.86317">
        <ele>22</ele>
        <time>2019-02-21T15:07:02Z</time>
      </trkpt>
      <trkpt lat="46.64186" lon="-1.86312">
        <ele>22</ele>
        <time>2019-02-21T15:07:04Z</time>
      </trkpt>
      <trkpt lat="46.64186" lon="-1.86309">
        <ele>22</ele>
        <time>2019-02-21T15:07:07Z</time>
      </trkpt>
      <trkpt lat="46.64186" lon="-1.86303">
        <ele>22</ele>
        <time>2019-02-21T15:07:09Z</time>
      </trkpt>
      <trkpt lat="46.64186" lon="-1.863">
        <ele>22</ele>
        <time>2019-02-21T15:07:12Z</time>
      </trkpt>
      <trkpt lat="46.64186" lon="-1.86299">
        <ele>22</ele>
        <time>2019-02-21T15:07:15Z</time>
      </trkpt>
      <trkpt lat="46.64187" lon="-1.86298">
        <ele>22</ele>
        <time>2019-02-21T15:07:20Z</time>
      </trkpt>
      <trkpt lat="46.64187" lon="-1.86298">
        <ele>22</ele>
        <time>2019-02-21T15:07:22Z</time>
      </trkpt>
      <trkpt lat="46.64187" lon="-1.86299">
        <ele>22</ele>
        <time>2019-02-21T15:07:25Z</time>
      </trkpt>
      <trkpt lat="46.64188" lon="-1.86302">
        <ele>22</ele>
        <time>2019-02-21T15:07:27Z</time>
      </trkpt>
      <trkpt lat="46.64188" lon="-1.86304">
        <ele>22</ele>
        <time>2019-02-21T15:07:30Z</time>
      </trkpt>
      <trkpt lat="46.64189" lon="-1.86306">
        <ele>22</ele>
        <time>2019-02-21T15:07:33Z</time>
      </trkpt>
      <trkpt lat="46.64189" lon="-1.86308">
        <ele>22</ele>
        <time>2019-02-21T15:07:35Z</time>
      </trkpt>
      <trkpt lat="46.64189" lon="-1.86311">
        <ele>22</ele>
        <time>2019-02-21T15:07:38Z</time>
      </trkpt>
      <trkpt lat="46.6419" lon="-1.86313">
        <ele>22</ele>
        <time>2019-02-21T15:07:40Z</time>
      </trkpt>
      <trkpt lat="46.6419" lon="-1.86313">
        <ele>22</ele>
        <time>2019-02-21T15:07:43Z</time>
      </trkpt>
      <trkpt lat="46.6419" lon="-1.86313">
        <ele>22</ele>
        <time>2019-02-21T15:07:46Z</time>
      </trkpt>
      <trkpt lat="46.6419" lon="-1.86315">
        <ele>22</ele>
        <time>2019-02-21T15:07:51Z</time>
      </trkpt>
      <trkpt lat="46.64189" lon="-1.86316">
        <ele>22</ele>
        <time>2019-02-21T15:07:53Z</time>
      </trkpt>
      <trkpt lat="46.64189" lon="-1.86315">
        <ele>22</ele>
        <time>2019-02-21T15:07:56Z</time>
      </trkpt>
      <trkpt lat="46.6419" lon="-1.86312">
        <ele>22</ele>
        <time>2019-02-21T15:07:59Z</time>
      </trkpt>
      <trkpt lat="46.6419" lon="-1.86312">
        <ele>22</ele>
        <time>2019-02-21T15:08:01Z</time>
      </trkpt>
      <trkpt lat="46.64191" lon="-1.86312">
        <ele>22</ele>
        <time>2019-02-21T15:08:04Z</time>
      </trkpt>
      <trkpt lat="46.64191" lon="-1.8631">
        <ele>22</ele>
        <time>2019-02-21T15:08:06Z</time>
      </trkpt>
      <trkpt lat="46.64191" lon="-1.8631">
        <ele>22</ele>
        <time>2019-02-21T15:08:09Z</time>
      </trkpt>
      <trkpt lat="46.64191" lon="-1.86309">
        <ele>22</ele>
        <time>2019-02-21T15:08:12Z</time>
      </trkpt>
      <trkpt lat="46.64191" lon="-1.86309">
        <ele>22</ele>
        <time>2019-02-21T15:08:14Z</time>
      </trkpt>
      <trkpt lat="46.64191" lon="-1.86309">
        <ele>22</ele>
        <time>2019-02-21T15:08:17Z</time>
      </trkpt>
      <trkpt lat="46.64191" lon="-1.86309">
        <ele>22</ele>
        <time>2019-02-21T15:08:22Z</time>
      </trkpt>
      <trkpt lat="46.64191" lon="-1.86307">
        <ele>22</ele>
        <time>2019-02-21T15:08:24Z</time>
      </trkpt>
      <trkpt lat="46.6419" lon="-1.86305">
        <ele>22</ele>
        <time>2019-02-21T15:08:27Z</time>
      </trkpt>
      <trkpt lat="46.6419" lon="-1.86302">
        <ele>22</ele>
        <time>2019-02-21T15:08:30Z</time>
      </trkpt>
      <trkpt lat="46.6419" lon="-1.86302">
        <ele>22</ele>
        <time>2019-02-21T15:08:32Z</time>
      </trkpt>
      <trkpt lat="46.64191" lon="-1.86301">
        <ele>22</ele>
        <time>2019-02-21T15:08:35Z</time>
      </trkpt>
      <trkpt lat="46.64191" lon="-1.86301">
        <ele>22</ele>
        <time>2019-02-21T15:08:37Z</time>
      </trkpt>
      <trkpt lat="46.64191" lon="-1.86301">
        <ele>22</ele>
        <time>2019-02-21T15:08:40Z</time>
      </trkpt>
      <trkpt lat="46.64191" lon="-1.86301">
        <ele>22</ele>
        <time>2019-02-21T15:08:43Z</time>
      </trkpt>
      <trkpt lat="46.64191" lon="-1.86301">
        <ele>22</ele>
        <time>2019-02-21T15:08:45Z</time>
      </trkpt>
      <trkpt lat="46.64191" lon="-1.863">
        <ele>22</ele>
        <time>2019-02-21T15:08:48Z</time>
      </trkpt>
      <trkpt lat="46.6419" lon="-1.86301">
        <ele>22</ele>
        <time>2019-02-21T15:08:53Z</time>
      </trkpt>
      <trkpt lat="46.64189" lon="-1.86301">
        <ele>22</ele>
        <time>2019-02-21T15:08:56Z</time>
      </trkpt>
      <trkpt lat="46.64189" lon="-1.86301">
        <ele>22</ele>
        <time>2019-02-21T15:08:58Z</time>
      </trkpt>
      <trkpt lat="46.64189" lon="-1.86301">
        <ele>22</ele>
        <time>2019-02-21T15:09:01Z</time>
      </trkpt>
      <trkpt lat="46.64188" lon="-1.86301">
        <ele>22</ele>
        <time>2019-02-21T15:09:04Z</time>
      </trkpt>
      <trkpt lat="46.64187" lon="-1.863">
        <ele>22</ele>
        <time>2019-02-21T15:09:06Z</time>
      </trkpt>
      <trkpt lat="46.64187" lon="-1.86299">
        <ele>22</ele>
        <time>2019-02-21T15:09:09Z</time>
      </trkpt>
      <trkpt lat="46.64187" lon="-1.86299">
        <ele>22</ele>
        <time>2019-02-21T15:09:11Z</time>
      </trkpt>
      <trkpt lat="46.64188" lon="-1.86299">
        <ele>22</ele>
        <time>2019-02-21T15:09:14Z</time>
      </trkpt>
      <trkpt lat="46.64188" lon="-1.863">
        <ele>22</ele>
        <time>2019-02-21T15:09:16Z</time>
      </trkpt>
      <trkpt lat="46.64188" lon="-1.863">
        <ele>22</ele>
        <time>2019-02-21T15:09:19Z</time>
      </trkpt>
      <trkpt lat="46.64188" lon="-1.863">
        <ele>22</ele>
        <time>2019-02-21T15:09:24Z</time>
      </trkpt>
      <trkpt lat="46.64188" lon="-1.863">
        <ele>22</ele>
        <time>2019-02-21T15:09:27Z</time>
      </trkpt>
      <trkpt lat="46.64188" lon="-1.863">
        <ele>22</ele>
        <time>2019-02-21T15:09:29Z</time>
      </trkpt>
      <trkpt lat="46.64188" lon="-1.86301">
        <ele>22</ele>
        <time>2019-02-21T15:09:32Z</time>
      </trkpt>
      <trkpt lat="46.64188" lon="-1.86301">
        <ele>22</ele>
        <time>2019-02-21T15:09:35Z</time>
      </trkpt>
      <trkpt lat="46.64188" lon="-1.86301">
        <ele>22</ele>
        <time>2019-02-21T15:09:37Z</time>
      </trkpt>
      <trkpt lat="46.64188" lon="-1.86301">
        <ele>22</ele>
        <time>2019-02-21T15:09:40Z</time>
      </trkpt>
      <trkpt lat="46.64188" lon="-1.86301">
        <ele>22</ele>
        <time>2019-02-21T15:09:42Z</time>
      </trkpt>
      <trkpt lat="46.64188" lon="-1.863">
        <ele>22</ele>
        <time>2019-02-21T15:09:45Z</time>
      </trkpt>
      <trkpt lat="46.64188" lon="-1.863">
        <ele>22</ele>
        <time>2019-02-21T15:09:48Z</time>
      </trkpt>
      <trkpt lat="46.64188" lon="-1.86299">
        <ele>22</ele>
        <time>2019-02-21T15:09:50Z</time>
      </trkpt>
      <trkpt lat="46.64189" lon="-1.86299">
        <ele>22</ele>
        <time>2019-02-21T15:09:56Z</time>
      </trkpt>
      <trkpt lat="46.64189" lon="-1.86299">
        <ele>22</ele>
        <time>2019-02-21T15:09:58Z</time>
      </trkpt>
      <trkpt lat="46.64189" lon="-1.863">
        <ele>22</ele>
        <time>2019-02-21T15:10:01Z</time>
      </trkpt>
      <trkpt lat="46.64189" lon="-1.86299">
        <ele>22</ele>
        <time>2019-02-21T15:10:04Z</time>
      </trkpt>
      <trkpt lat="46.64189" lon="-1.86299">
        <ele>22</ele>
        <time>2019-02-21T15:10:06Z</time>
      </trkpt>
      <trkpt lat="46.64188" lon="-1.863">
        <ele>22</ele>
        <time>2019-02-21T15:10:09Z</time>
      </trkpt>
      <trkpt lat="46.64188" lon="-1.863">
        <ele>22</ele>
        <time>2019-02-21T15:10:11Z</time>
      </trkpt>
      <trkpt lat="46.64189" lon="-1.863">
        <ele>22</ele>
        <time>2019-02-21T15:10:14Z</time>
      </trkpt>
      <trkpt lat="46.64189" lon="-1.863">
        <ele>22</ele>
        <time>2019-02-21T15:10:16Z</time>
      </trkpt>
      <trkpt lat="46.64189" lon="-1.863">
        <ele>22</ele>
        <time>2019-02-21T15:10:19Z</time>
      </trkpt>
      <trkpt lat="46.64189" lon="-1.863">
        <ele>22</ele>
        <time>2019-02-21T15:10:24Z</time>
      </trkpt>
      <trkpt lat="46.64189" lon="-1.863">
        <ele>22</ele>
        <time>2019-02-21T15:10:27Z</time>
      </trkpt>
      <trkpt lat="46.64189" lon="-1.863">
        <ele>22</ele>
        <time>2019-02-21T15:10:30Z</time>
      </trkpt>
      <trkpt lat="46.64189" lon="-1.86301">
        <ele>22</ele>
        <time>2019-02-21T15:10:32Z</time>
      </trkpt>
      <trkpt lat="46.64189" lon="-1.863">
        <ele>22</ele>
        <time>2019-02-21T15:10:35Z</time>
      </trkpt>
      <trkpt lat="46.64189" lon="-1.863">
        <ele>22</ele>
        <time>2019-02-21T15:10:37Z</time>
      </trkpt>
      <trkpt lat="46.64189" lon="-1.86299">
        <ele>22</ele>
        <time>2019-02-21T15:10:40Z</time>
      </trkpt>
      <trkpt lat="46.64189" lon="-1.86299">
        <ele>22</ele>
        <time>2019-02-21T15:10:43Z</time>
      </trkpt>
      <trkpt lat="46.64189" lon="-1.86299">
        <ele>22</ele>
        <time>2019-02-21T15:10:45Z</time>
      </trkpt>
      <trkpt lat="46.64188" lon="-1.863">
        <ele>22</ele>
        <time>2019-02-21T15:10:48Z</time>
      </trkpt>
      <trkpt lat="46.64188" lon="-1.863">
        <ele>22</ele>
        <time>2019-02-21T15:10:50Z</time>
      </trkpt>
      <trkpt lat="46.64189" lon="-1.86305">
        <ele>22</ele>
        <time>2019-02-21T15:10:56Z</time>
      </trkpt>
      <trkpt lat="46.6419" lon="-1.86309">
        <ele>22</ele>
        <time>2019-02-21T15:10:58Z</time>
      </trkpt>
      <trkpt lat="46.64189" lon="-1.86313">
        <ele>22</ele>
        <time>2019-02-21T15:11:01Z</time>
      </trkpt>
      <trkpt lat="46.64189" lon="-1.86317">
        <ele>22</ele>
        <time>2019-02-21T15:11:03Z</time>
      </trkpt>
      <trkpt lat="46.64189" lon="-1.86317">
        <ele>22</ele>
        <time>2019-02-21T15:11:06Z</time>
      </trkpt>
      <trkpt lat="46.64189" lon="-1.86318">
        <ele>22</ele>
        <time>2019-02-21T15:11:09Z</time>
      </trkpt>
      <trkpt lat="46.64189" lon="-1.86317">
        <ele>22</ele>
        <time>2019-02-21T15:11:11Z</time>
      </trkpt>
      <trkpt lat="46.64189" lon="-1.86312">
        <ele>22</ele>
        <time>2019-02-21T15:11:14Z</time>
      </trkpt>
      <trkpt lat="46.64189" lon="-1.86309">
        <ele>22</ele>
        <time>2019-02-21T15:11:16Z</time>
      </trkpt>
      <trkpt lat="46.64189" lon="-1.86308">
        <ele>22</ele>
        <time>2019-02-21T15:11:19Z</time>
      </trkpt>
      <trkpt lat="46.64189" lon="-1.86303">
        <ele>22</ele>
        <time>2019-02-21T15:11:22Z</time>
      </trkpt>
      <trkpt lat="46.64188" lon="-1.86295">
        <ele>22</ele>
        <time>2019-02-21T15:11:27Z</time>
      </trkpt>
      <trkpt lat="46.64188" lon="-1.86289">
        <ele>22</ele>
        <time>2019-02-21T15:11:29Z</time>
      </trkpt>
      <trkpt lat="46.64188" lon="-1.86284">
        <ele>22</ele>
        <time>2019-02-21T15:11:32Z</time>
      </trkpt>
      <trkpt lat="46.64188" lon="-1.86278">
        <ele>22</ele>
        <time>2019-02-21T15:11:34Z</time>
      </trkpt>
      <trkpt lat="46.64188" lon="-1.86275">
        <ele>22</ele>
        <time>2019-02-21T15:11:37Z</time>
      </trkpt>
      <trkpt lat="46.64187" lon="-1.86268">
        <ele>22</ele>
        <time>2019-02-21T15:11:40Z</time>
      </trkpt>
      <trkpt lat="46.64187" lon="-1.86264">
        <ele>22</ele>
        <time>2019-02-21T15:11:42Z</time>
      </trkpt>
      <trkpt lat="46.64187" lon="-1.86258">
        <ele>22</ele>
        <time>2019-02-21T15:11:45Z</time>
      </trkpt>
      <trkpt lat="46.64186" lon="-1.86251">
        <ele>22</ele>
        <time>2019-02-21T15:11:47Z</time>
      </trkpt>
      <trkpt lat="46.64186" lon="-1.86247">
        <ele>22</ele>
        <time>2019-02-21T15:11:50Z</time>
      </trkpt>
      <trkpt lat="46.64187" lon="-1.86241">
        <ele>22</ele>
        <time>2019-02-21T15:11:52Z</time>
      </trkpt>
      <trkpt lat="46.64187" lon="-1.86231">
        <ele>22</ele>
        <time>2019-02-21T15:11:58Z</time>
      </trkpt>
      <trkpt lat="46.64187" lon="-1.86227">
        <ele>22</ele>
        <time>2019-02-21T15:12:00Z</time>
      </trkpt>
      <trkpt lat="46.64188" lon="-1.8622">
        <ele>22</ele>
        <time>2019-02-21T15:12:03Z</time>
      </trkpt>
      <trkpt lat="46.64188" lon="-1.86216">
        <ele>22</ele>
        <time>2019-02-21T15:12:05Z</time>
      </trkpt>
      <trkpt lat="46.64188" lon="-1.86209">
        <ele>22</ele>
        <time>2019-02-21T15:12:08Z</time>
      </trkpt>
      <trkpt lat="46.64188" lon="-1.86205">
        <ele>22</ele>
        <time>2019-02-21T15:12:10Z</time>
      </trkpt>
      <trkpt lat="46.64189" lon="-1.86198">
        <ele>22</ele>
        <time>2019-02-21T15:12:13Z</time>
      </trkpt>
      <trkpt lat="46.6419" lon="-1.86192">
        <ele>22</ele>
        <time>2019-02-21T15:12:15Z</time>
      </trkpt>
      <trkpt lat="46.6419" lon="-1.86188">
        <ele>22</ele>
        <time>2019-02-21T15:12:18Z</time>
      </trkpt>
      <trkpt lat="46.64191" lon="-1.86183">
        <ele>22</ele>
        <time>2019-02-21T15:12:20Z</time>
      </trkpt>
      <trkpt lat="46.64191" lon="-1.86182">
        <ele>22</ele>
        <time>2019-02-21T15:12:23Z</time>
      </trkpt>
      <trkpt lat="46.64191" lon="-1.86181">
        <ele>22</ele>
        <time>2019-02-21T15:12:28Z</time>
      </trkpt>
      <trkpt lat="46.64191" lon="-1.86181">
        <ele>22</ele>
        <time>2019-02-21T15:12:31Z</time>
      </trkpt>
      <trkpt lat="46.64192" lon="-1.86181">
        <ele>22</ele>
        <time>2019-02-21T15:12:33Z</time>
      </trkpt>
      <trkpt lat="46.64192" lon="-1.8618">
        <ele>22</ele>
        <time>2019-02-21T15:12:36Z</time>
      </trkpt>
      <trkpt lat="46.64192" lon="-1.86177">
        <ele>22</ele>
        <time>2019-02-21T15:12:38Z</time>
      </trkpt>
      <trkpt lat="46.64193" lon="-1.86174">
        <ele>22</ele>
        <time>2019-02-21T15:12:41Z</time>
      </trkpt>
      <trkpt lat="46.64194" lon="-1.8617">
        <ele>22</ele>
        <time>2019-02-21T15:12:44Z</time>
      </trkpt>
      <trkpt lat="46.64195" lon="-1.86167">
        <ele>22</ele>
        <time>2019-02-21T15:12:46Z</time>
      </trkpt>
      <trkpt lat="46.64196" lon="-1.86162">
        <ele>22</ele>
        <time>2019-02-21T15:12:49Z</time>
      </trkpt>
      <trkpt lat="46.64196" lon="-1.86159">
        <ele>22</ele>
        <time>2019-02-21T15:12:51Z</time>
      </trkpt>
      <trkpt lat="46.64198" lon="-1.86154">
        <ele>22</ele>
        <time>2019-02-21T15:12:54Z</time>
      </trkpt>
      <trkpt lat="46.642" lon="-1.86145">
        <ele>22</ele>
        <time>2019-02-21T15:12:59Z</time>
      </trkpt>
      <trkpt lat="46.64201" lon="-1.8614">
        <ele>22</ele>
        <time>2019-02-21T15:13:02Z</time>
      </trkpt>
      <trkpt lat="46.64202" lon="-1.86136">
        <ele>22</ele>
        <time>2019-02-21T15:13:04Z</time>
      </trkpt>
      <trkpt lat="46.64203" lon="-1.8613">
        <ele>22</ele>
        <time>2019-02-21T15:13:07Z</time>
      </trkpt>
      <trkpt lat="46.64203" lon="-1.86124">
        <ele>22</ele>
        <time>2019-02-21T15:13:09Z</time>
      </trkpt>
      <trkpt lat="46.64204" lon="-1.8612">
        <ele>22</ele>
        <time>2019-02-21T15:13:12Z</time>
      </trkpt>
      <trkpt lat="46.64205" lon="-1.86114">
        <ele>22</ele>
        <time>2019-02-21T15:13:15Z</time>
      </trkpt>
      <trkpt lat="46.64206" lon="-1.8611">
        <ele>22</ele>
        <time>2019-02-21T15:13:17Z</time>
      </trkpt>
      <trkpt lat="46.64207" lon="-1.86104">
        <ele>22</ele>
        <time>2019-02-21T15:13:20Z</time>
      </trkpt>
      <trkpt lat="46.64207" lon="-1.861">
        <ele>22</ele>
        <time>2019-02-21T15:13:22Z</time>
      </trkpt>
      <trkpt lat="46.64208" lon="-1.86094">
        <ele>23</ele>
        <time>2019-02-21T15:13:25Z</time>
      </trkpt>
      <trkpt lat="46.64209" lon="-1.86084">
        <ele>23</ele>
        <time>2019-02-21T15:13:30Z</time>
      </trkpt>
      <trkpt lat="46.6421" lon="-1.86078">
        <ele>23</ele>
        <time>2019-02-21T15:13:32Z</time>
      </trkpt>
      <trkpt lat="46.64211" lon="-1.86074">
        <ele>23</ele>
        <time>2019-02-21T15:13:35Z</time>
      </trkpt>
      <trkpt lat="46.64211" lon="-1.86069">
        <ele>23</ele>
        <time>2019-02-21T15:13:37Z</time>
      </trkpt>
      <trkpt lat="46.64212" lon="-1.86065">
        <ele>23</ele>
        <time>2019-02-21T15:13:40Z</time>
      </trkpt>
      <trkpt lat="46.64212" lon="-1.86059">
        <ele>23</ele>
        <time>2019-02-21T15:13:42Z</time>
      </trkpt>
      <trkpt lat="46.64212" lon="-1.86055">
        <ele>23</ele>
        <time>2019-02-21T15:13:45Z</time>
      </trkpt>
      <trkpt lat="46.64213" lon="-1.86049">
        <ele>23</ele>
        <time>2019-02-21T15:13:48Z</time>
      </trkpt>
      <trkpt lat="46.64214" lon="-1.86046">
        <ele>23</ele>
        <time>2019-02-21T15:13:50Z</time>
      </trkpt>
      <trkpt lat="46.64214" lon="-1.86041">
        <ele>23</ele>
        <time>2019-02-21T15:13:53Z</time>
      </trkpt>
      <trkpt lat="46.64216" lon="-1.86032">
        <ele>23</ele>
        <time>2019-02-21T15:13:58Z</time>
      </trkpt>
      <trkpt lat="46.64216" lon="-1.86027">
        <ele>23</ele>
        <time>2019-02-21T15:14:01Z</time>
      </trkpt>
      <trkpt lat="46.64217" lon="-1.86023">
        <ele>23</ele>
        <time>2019-02-21T15:14:03Z</time>
      </trkpt>
      <trkpt lat="46.64218" lon="-1.86018">
        <ele>23</ele>
        <time>2019-02-21T15:14:06Z</time>
      </trkpt>
      <trkpt lat="46.64218" lon="-1.86014">
        <ele>23</ele>
        <time>2019-02-21T15:14:08Z</time>
      </trkpt>
      <trkpt lat="46.64219" lon="-1.8601">
        <ele>23</ele>
        <time>2019-02-21T15:14:11Z</time>
      </trkpt>
      <trkpt lat="46.6422" lon="-1.86007">
        <ele>23</ele>
        <time>2019-02-21T15:14:13Z</time>
      </trkpt>
      <trkpt lat="46.6422" lon="-1.86005">
        <ele>23</ele>
        <time>2019-02-21T15:14:16Z</time>
      </trkpt>
      <trkpt lat="46.6422" lon="-1.86004">
        <ele>23</ele>
        <time>2019-02-21T15:14:19Z</time>
      </trkpt>
      <trkpt lat="46.6422" lon="-1.86004">
        <ele>23</ele>
        <time>2019-02-21T15:14:21Z</time>
      </trkpt>
      <trkpt lat="46.6422" lon="-1.86">
        <ele>23</ele>
        <time>2019-02-21T15:14:24Z</time>
      </trkpt>
      <trkpt lat="46.64219" lon="-1.85999">
        <ele>23</ele>
        <time>2019-02-21T15:14:29Z</time>
      </trkpt>
      <trkpt lat="46.6422" lon="-1.85999">
        <ele>23</ele>
        <time>2019-02-21T15:14:31Z</time>
      </trkpt>
      <trkpt lat="46.6422" lon="-1.85998">
        <ele>23</ele>
        <time>2019-02-21T15:14:34Z</time>
      </trkpt>
      <trkpt lat="46.6422" lon="-1.85998">
        <ele>23</ele>
        <time>2019-02-21T15:14:36Z</time>
      </trkpt>
      <trkpt lat="46.6422" lon="-1.85997">
        <ele>23</ele>
        <time>2019-02-21T15:14:39Z</time>
      </trkpt>
      <trkpt lat="46.6422" lon="-1.85997">
        <ele>23</ele>
        <time>2019-02-21T15:14:41Z</time>
      </trkpt>
      <trkpt lat="46.6422" lon="-1.85997">
        <ele>23</ele>
        <time>2019-02-21T15:14:44Z</time>
      </trkpt>
      <trkpt lat="46.6422" lon="-1.85996">
        <ele>23</ele>
        <time>2019-02-21T15:14:46Z</time>
      </trkpt>
      <trkpt lat="46.6422" lon="-1.85996">
        <ele>23</ele>
        <time>2019-02-21T15:14:49Z</time>
      </trkpt>
      <trkpt lat="46.64221" lon="-1.85995">
        <ele>23</ele>
        <time>2019-02-21T15:14:51Z</time>
      </trkpt>
      <trkpt lat="46.6422" lon="-1.85993">
        <ele>23</ele>
        <time>2019-02-21T15:14:54Z</time>
      </trkpt>
      <trkpt lat="46.6422" lon="-1.85991">
        <ele>23</ele>
        <time>2019-02-21T15:14:59Z</time>
      </trkpt>
      <trkpt lat="46.64221" lon="-1.85986">
        <ele>24</ele>
        <time>2019-02-21T15:15:01Z</time>
      </trkpt>
      <trkpt lat="46.64222" lon="-1.85984">
        <ele>24</ele>
        <time>2019-02-21T15:15:04Z</time>
      </trkpt>
      <trkpt lat="46.64224" lon="-1.8598">
        <ele>24</ele>
        <time>2019-02-21T15:15:06Z</time>
      </trkpt>
      <trkpt lat="46.64225" lon="-1.85977">
        <ele>24</ele>
        <time>2019-02-21T15:15:09Z</time>
      </trkpt>
      <trkpt lat="46.64226" lon="-1.85972">
        <ele>24</ele>
        <time>2019-02-21T15:15:12Z</time>
      </trkpt>
      <trkpt lat="46.64227" lon="-1.85969">
        <ele>24</ele>
        <time>2019-02-21T15:15:14Z</time>
      </trkpt>
      <trkpt lat="46.64227" lon="-1.85963">
        <ele>24</ele>
        <time>2019-02-21T15:15:17Z</time>
      </trkpt>
      <trkpt lat="46.64228" lon="-1.8596">
        <ele>24</ele>
        <time>2019-02-21T15:15:19Z</time>
      </trkpt>
      <trkpt lat="46.64229" lon="-1.85955">
        <ele>24</ele>
        <time>2019-02-21T15:15:22Z</time>
      </trkpt>
      <trkpt lat="46.6423" lon="-1.85951">
        <ele>24</ele>
        <time>2019-02-21T15:15:24Z</time>
      </trkpt>
      <trkpt lat="46.64233" lon="-1.85944">
        <ele>24</ele>
        <time>2019-02-21T15:15:29Z</time>
      </trkpt>
      <trkpt lat="46.64234" lon="-1.85941">
        <ele>24</ele>
        <time>2019-02-21T15:15:32Z</time>
      </trkpt>
      <trkpt lat="46.64235" lon="-1.85939">
        <ele>24</ele>
        <time>2019-02-21T15:15:34Z</time>
      </trkpt>
      <trkpt lat="46.64235" lon="-1.85935">
        <ele>24</ele>
        <time>2019-02-21T15:15:37Z</time>
      </trkpt>
      <trkpt lat="46.64236" lon="-1.85932">
        <ele>23</ele>
        <time>2019-02-21T15:15:39Z</time>
      </trkpt>
      <trkpt lat="46.64236" lon="-1.85926">
        <ele>23</ele>
        <time>2019-02-21T15:15:42Z</time>
      </trkpt>
      <trkpt lat="46.64237" lon="-1.85922">
        <ele>23</ele>
        <time>2019-02-21T15:15:44Z</time>
      </trkpt>
      <trkpt lat="46.64238" lon="-1.85917">
        <ele>23</ele>
        <time>2019-02-21T15:15:47Z</time>
      </trkpt>
      <trkpt lat="46.64238" lon="-1.85913">
        <ele>23</ele>
        <time>2019-02-21T15:15:49Z</time>
      </trkpt>
      <trkpt lat="46.6424" lon="-1.85908">
        <ele>23</ele>
        <time>2019-02-21T15:15:52Z</time>
      </trkpt>
      <trkpt lat="46.6424" lon="-1.85904">
        <ele>23</ele>
        <time>2019-02-21T15:15:54Z</time>
      </trkpt>
      <trkpt lat="46.64241" lon="-1.85894">
        <ele>23</ele>
        <time>2019-02-21T15:15:59Z</time>
      </trkpt>
      <trkpt lat="46.64243" lon="-1.85888">
        <ele>23</ele>
        <time>2019-02-21T15:16:02Z</time>
      </trkpt>
      <trkpt lat="46.64243" lon="-1.85882">
        <ele>23</ele>
        <time>2019-02-21T15:16:04Z</time>
      </trkpt>
      <trkpt lat="46.64244" lon="-1.85878">
        <ele>23</ele>
        <time>2019-02-21T15:16:07Z</time>
      </trkpt>
      <trkpt lat="46.64244" lon="-1.85872">
        <ele>23</ele>
        <time>2019-02-21T15:16:09Z</time>
      </trkpt>
      <trkpt lat="46.64245" lon="-1.85869">
        <ele>23</ele>
        <time>2019-02-21T15:16:12Z</time>
      </trkpt>
      <trkpt lat="46.64246" lon="-1.85863">
        <ele>23</ele>
        <time>2019-02-21T15:16:14Z</time>
      </trkpt>
      <trkpt lat="46.64247" lon="-1.85861">
        <ele>23</ele>
        <time>2019-02-21T15:16:17Z</time>
      </trkpt>
      <trkpt lat="46.64247" lon="-1.85857">
        <ele>23</ele>
        <time>2019-02-21T15:16:19Z</time>
      </trkpt>
      <trkpt lat="46.64247" lon="-1.85852">
        <ele>23</ele>
        <time>2019-02-21T15:16:22Z</time>
      </trkpt>
      <trkpt lat="46.64248" lon="-1.85848">
        <ele>23</ele>
        <time>2019-02-21T15:16:25Z</time>
      </trkpt>
      <trkpt lat="46.64249" lon="-1.8584">
        <ele>24</ele>
        <time>2019-02-21T15:16:30Z</time>
      </trkpt>
      <trkpt lat="46.6425" lon="-1.85837">
        <ele>24</ele>
        <time>2019-02-21T15:16:32Z</time>
      </trkpt>
      <trkpt lat="46.64251" lon="-1.85832">
        <ele>24</ele>
        <time>2019-02-21T15:16:35Z</time>
      </trkpt>
      <trkpt lat="46.64252" lon="-1.85828">
        <ele>24</ele>
        <time>2019-02-21T15:16:37Z</time>
      </trkpt>
      <trkpt lat="46.64252" lon="-1.85824">
        <ele>24</ele>
        <time>2019-02-21T15:16:40Z</time>
      </trkpt>
      <trkpt lat="46.64253" lon="-1.85819">
        <ele>24</ele>
        <time>2019-02-21T15:16:42Z</time>
      </trkpt>
      <trkpt lat="46.64254" lon="-1.85815">
        <ele>24</ele>
        <time>2019-02-21T15:16:45Z</time>
      </trkpt>
      <trkpt lat="46.64254" lon="-1.85811">
        <ele>24</ele>
        <time>2019-02-21T15:16:47Z</time>
      </trkpt>
      <trkpt lat="46.64255" lon="-1.85808">
        <ele>24</ele>
        <time>2019-02-21T15:16:50Z</time>
      </trkpt>
      <trkpt lat="46.64255" lon="-1.85806">
        <ele>24</ele>
        <time>2019-02-21T15:16:53Z</time>
      </trkpt>
      <trkpt lat="46.64255" lon="-1.85803">
        <ele>24</ele>
        <time>2019-02-21T15:16:58Z</time>
      </trkpt>
      <trkpt lat="46.64255" lon="-1.858">
        <ele>24</ele>
        <time>2019-02-21T15:17:00Z</time>
      </trkpt>
      <trkpt lat="46.64256" lon="-1.85794">
        <ele>24</ele>
        <time>2019-02-21T15:17:03Z</time>
      </trkpt>
      <trkpt lat="46.64256" lon="-1.85788">
        <ele>24</ele>
        <time>2019-02-21T15:17:05Z</time>
      </trkpt>
      <trkpt lat="46.64257" lon="-1.85784">
        <ele>24</ele>
        <time>2019-02-21T15:17:08Z</time>
      </trkpt>
      <trkpt lat="46.64258" lon="-1.85778">
        <ele>24</ele>
        <time>2019-02-21T15:17:10Z</time>
      </trkpt>
      <trkpt lat="46.64258" lon="-1.85774">
        <ele>24</ele>
        <time>2019-02-21T15:17:13Z</time>
      </trkpt>
      <trkpt lat="46.64259" lon="-1.85769">
        <ele>24</ele>
        <time>2019-02-21T15:17:16Z</time>
      </trkpt>
      <trkpt lat="46.64259" lon="-1.85765">
        <ele>24</ele>
        <time>2019-02-21T15:17:18Z</time>
      </trkpt>
      <trkpt lat="46.6426" lon="-1.85759">
        <ele>24</ele>
        <time>2019-02-21T15:17:21Z</time>
      </trkpt>
      <trkpt lat="46.6426" lon="-1.85752">
        <ele>24</ele>
        <time>2019-02-21T15:17:23Z</time>
      </trkpt>
      <trkpt lat="46.6426" lon="-1.85742">
        <ele>24</ele>
        <time>2019-02-21T15:17:29Z</time>
      </trkpt>
      <trkpt lat="46.6426" lon="-1.85737">
        <ele>24</ele>
        <time>2019-02-21T15:17:31Z</time>
      </trkpt>
      <trkpt lat="46.64261" lon="-1.85732">
        <ele>24</ele>
        <time>2019-02-21T15:17:34Z</time>
      </trkpt>
      <trkpt lat="46.64262" lon="-1.85726">
        <ele>24</ele>
        <time>2019-02-21T15:17:36Z</time>
      </trkpt>
      <trkpt lat="46.64263" lon="-1.85722">
        <ele>24</ele>
        <time>2019-02-21T15:17:39Z</time>
      </trkpt>
      <trkpt lat="46.64263" lon="-1.85716">
        <ele>24</ele>
        <time>2019-02-21T15:17:41Z</time>
      </trkpt>
      <trkpt lat="46.64264" lon="-1.85712">
        <ele>24</ele>
        <time>2019-02-21T15:17:44Z</time>
      </trkpt>
      <trkpt lat="46.64264" lon="-1.85706">
        <ele>24</ele>
        <time>2019-02-21T15:17:47Z</time>
      </trkpt>
      <trkpt lat="46.64264" lon="-1.85704">
        <ele>24</ele>
        <time>2019-02-21T15:17:49Z</time>
      </trkpt>
      <trkpt lat="46.64265" lon="-1.85699">
        <ele>24</ele>
        <time>2019-02-21T15:17:52Z</time>
      </trkpt>
      <trkpt lat="46.64265" lon="-1.85696">
        <ele>24</ele>
        <time>2019-02-21T15:17:54Z</time>
      </trkpt>
      <trkpt lat="46.64267" lon="-1.85687">
        <ele>24</ele>
        <time>2019-02-21T15:17:59Z</time>
      </trkpt>
      <trkpt lat="46.64268" lon="-1.85683">
        <ele>24</ele>
        <time>2019-02-21T15:18:02Z</time>
      </trkpt>
      <trkpt lat="46.64269" lon="-1.85678">
        <ele>24</ele>
        <time>2019-02-21T15:18:04Z</time>
      </trkpt>
      <trkpt lat="46.64269" lon="-1.85674">
        <ele>24</ele>
        <time>2019-02-21T15:18:07Z</time>
      </trkpt>
      <trkpt lat="46.64269" lon="-1.85669">
        <ele>24</ele>
        <time>2019-02-21T15:18:09Z</time>
      </trkpt>
      <trkpt lat="46.64268" lon="-1.85666">
        <ele>24</ele>
        <time>2019-02-21T15:18:12Z</time>
      </trkpt>
      <trkpt lat="46.64269" lon="-1.85662">
        <ele>24</ele>
        <time>2019-02-21T15:18:15Z</time>
      </trkpt>
      <trkpt lat="46.64269" lon="-1.85659">
        <ele>24</ele>
        <time>2019-02-21T15:18:17Z</time>
      </trkpt>
      <trkpt lat="46.6427" lon="-1.85655">
        <ele>24</ele>
        <time>2019-02-21T15:18:20Z</time>
      </trkpt>
      <trkpt lat="46.64271" lon="-1.85651">
        <ele>24</ele>
        <time>2019-02-21T15:18:22Z</time>
      </trkpt>
      <trkpt lat="46.64272" lon="-1.85648">
        <ele>24</ele>
        <time>2019-02-21T15:18:25Z</time>
      </trkpt>
      <trkpt lat="46.64272" lon="-1.85638">
        <ele>24</ele>
        <time>2019-02-21T15:18:30Z</time>
      </trkpt>
      <trkpt lat="46.64272" lon="-1.85633">
        <ele>24</ele>
        <time>2019-02-21T15:18:32Z</time>
      </trkpt>
      <trkpt lat="46.64272" lon="-1.85629">
        <ele>24</ele>
        <time>2019-02-21T15:18:35Z</time>
      </trkpt>
      <trkpt lat="46.64271" lon="-1.85624">
        <ele>24</ele>
        <time>2019-02-21T15:18:37Z</time>
      </trkpt>
      <trkpt lat="46.64271" lon="-1.8562">
        <ele>24</ele>
        <time>2019-02-21T15:18:40Z</time>
      </trkpt>
      <trkpt lat="46.64272" lon="-1.85614">
        <ele>24</ele>
        <time>2019-02-21T15:18:42Z</time>
      </trkpt>
      <trkpt lat="46.6427" lon="-1.85609">
        <ele>24</ele>
        <time>2019-02-21T15:18:45Z</time>
      </trkpt>
      <trkpt lat="46.6427" lon="-1.85604">
        <ele>24</ele>
        <time>2019-02-21T15:18:47Z</time>
      </trkpt>
      <trkpt lat="46.6427" lon="-1.856">
        <ele>24</ele>
        <time>2019-02-21T15:18:50Z</time>
      </trkpt>
      <trkpt lat="46.64269" lon="-1.85594">
        <ele>24</ele>
        <time>2019-02-21T15:18:52Z</time>
      </trkpt>
      <trkpt lat="46.64269" lon="-1.8559">
        <ele>24</ele>
        <time>2019-02-21T15:18:55Z</time>
      </trkpt>
      <trkpt lat="46.64267" lon="-1.85579">
        <ele>24</ele>
        <time>2019-02-21T15:19:00Z</time>
      </trkpt>
      <trkpt lat="46.64265" lon="-1.85572">
        <ele>24</ele>
        <time>2019-02-21T15:19:03Z</time>
      </trkpt>
      <trkpt lat="46.64264" lon="-1.85567">
        <ele>24</ele>
        <time>2019-02-21T15:19:05Z</time>
      </trkpt>
      <trkpt lat="46.64263" lon="-1.85561">
        <ele>24</ele>
        <time>2019-02-21T15:19:08Z</time>
      </trkpt>
      <trkpt lat="46.64263" lon="-1.85558">
        <ele>24</ele>
        <time>2019-02-21T15:19:10Z</time>
      </trkpt>
      <trkpt lat="46.64262" lon="-1.85552">
        <ele>24</ele>
        <time>2019-02-21T15:19:13Z</time>
      </trkpt>
      <trkpt lat="46.64262" lon="-1.85547">
        <ele>24</ele>
        <time>2019-02-21T15:19:15Z</time>
      </trkpt>
      <trkpt lat="46.64261" lon="-1.85544">
        <ele>24</ele>
        <time>2019-02-21T15:19:18Z</time>
      </trkpt>
      <trkpt lat="46.64261" lon="-1.8554">
        <ele>24</ele>
        <time>2019-02-21T15:19:20Z</time>
      </trkpt>
      <trkpt lat="46.64262" lon="-1.85539">
        <ele>24</ele>
        <time>2019-02-21T15:19:23Z</time>
      </trkpt>
      <trkpt lat="46.64262" lon="-1.85537">
        <ele>24</ele>
        <time>2019-02-21T15:19:26Z</time>
      </trkpt>
      <trkpt lat="46.64261" lon="-1.85538">
        <ele>24</ele>
        <time>2019-02-21T15:19:31Z</time>
      </trkpt>
      <trkpt lat="46.64261" lon="-1.85534">
        <ele>24</ele>
        <time>2019-02-21T15:19:33Z</time>
      </trkpt>
      <trkpt lat="46.64261" lon="-1.85531">
        <ele>24</ele>
        <time>2019-02-21T15:19:36Z</time>
      </trkpt>
      <trkpt lat="46.64261" lon="-1.85528">
        <ele>24</ele>
        <time>2019-02-21T15:19:38Z</time>
      </trkpt>
      <trkpt lat="46.6426" lon="-1.85525">
        <ele>24</ele>
        <time>2019-02-21T15:19:41Z</time>
      </trkpt>
      <trkpt lat="46.64259" lon="-1.85519">
        <ele>24</ele>
        <time>2019-02-21T15:19:43Z</time>
      </trkpt>
      <trkpt lat="46.64259" lon="-1.85516">
        <ele>24</ele>
        <time>2019-02-21T15:19:46Z</time>
      </trkpt>
      <trkpt lat="46.64259" lon="-1.8551">
        <ele>24</ele>
        <time>2019-02-21T15:19:49Z</time>
      </trkpt>
      <trkpt lat="46.64258" lon="-1.85505">
        <ele>24</ele>
        <time>2019-02-21T15:19:51Z</time>
      </trkpt>
      <trkpt lat="46.64257" lon="-1.85499">
        <ele>24</ele>
        <time>2019-02-21T15:19:54Z</time>
      </trkpt>
      <trkpt lat="46.64255" lon="-1.8549">
        <ele>24</ele>
        <time>2019-02-21T15:19:59Z</time>
      </trkpt>
      <trkpt lat="46.64254" lon="-1.85485">
        <ele>24</ele>
        <time>2019-02-21T15:20:01Z</time>
      </trkpt>
      <trkpt lat="46.64253" lon="-1.85481">
        <ele>24</ele>
        <time>2019-02-21T15:20:04Z</time>
      </trkpt>
      <trkpt lat="46.6425" lon="-1.85474">
        <ele>24</ele>
        <time>2019-02-21T15:20:06Z</time>
      </trkpt>
      <trkpt lat="46.6425" lon="-1.8547">
        <ele>24</ele>
        <time>2019-02-21T15:20:09Z</time>
      </trkpt>
      <trkpt lat="46.64249" lon="-1.85464">
        <ele>24</ele>
        <time>2019-02-21T15:20:12Z</time>
      </trkpt>
      <trkpt lat="46.64247" lon="-1.85457">
        <ele>24</ele>
        <time>2019-02-21T15:20:14Z</time>
      </trkpt>
      <trkpt lat="46.64245" lon="-1.85452">
        <ele>24</ele>
        <time>2019-02-21T15:20:17Z</time>
      </trkpt>
      <trkpt lat="46.64245" lon="-1.85447">
        <ele>24</ele>
        <time>2019-02-21T15:20:20Z</time>
      </trkpt>
      <trkpt lat="46.64243" lon="-1.85441">
        <ele>24</ele>
        <time>2019-02-21T15:20:22Z</time>
      </trkpt>
      <trkpt lat="46.64243" lon="-1.85437">
        <ele>24</ele>
        <time>2019-02-21T15:20:25Z</time>
      </trkpt>
      <trkpt lat="46.6424" lon="-1.85427">
        <ele>23</ele>
        <time>2019-02-21T15:20:30Z</time>
      </trkpt>
      <trkpt lat="46.64237" lon="-1.8542">
        <ele>23</ele>
        <time>2019-02-21T15:20:33Z</time>
      </trkpt>
      <trkpt lat="46.64235" lon="-1.85414">
        <ele>23</ele>
        <time>2019-02-21T15:20:35Z</time>
      </trkpt>
      <trkpt lat="46.64234" lon="-1.8541">
        <ele>23</ele>
        <time>2019-02-21T15:20:38Z</time>
      </trkpt>
      <trkpt lat="46.64233" lon="-1.85404">
        <ele>23</ele>
        <time>2019-02-21T15:20:41Z</time>
      </trkpt>
      <trkpt lat="46.64232" lon="-1.854">
        <ele>23</ele>
        <time>2019-02-21T15:20:43Z</time>
      </trkpt>
      <trkpt lat="46.6423" lon="-1.85395">
        <ele>23</ele>
        <time>2019-02-21T15:20:46Z</time>
      </trkpt>
      <trkpt lat="46.64228" lon="-1.8539">
        <ele>23</ele>
        <time>2019-02-21T15:20:48Z</time>
      </trkpt>
      <trkpt lat="46.64227" lon="-1.85388">
        <ele>23</ele>
        <time>2019-02-21T15:20:51Z</time>
      </trkpt>
      <trkpt lat="46.64225" lon="-1.85384">
        <ele>23</ele>
        <time>2019-02-21T15:20:53Z</time>
      </trkpt>
      <trkpt lat="46.64223" lon="-1.85381">
        <ele>23</ele>
        <time>2019-02-21T15:20:56Z</time>
      </trkpt>
      <trkpt lat="46.64218" lon="-1.85374">
        <ele>23</ele>
        <time>2019-02-21T15:21:01Z</time>
      </trkpt>
      <trkpt lat="46.64216" lon="-1.85371">
        <ele>23</ele>
        <time>2019-02-21T15:21:04Z</time>
      </trkpt>
      <trkpt lat="46.64213" lon="-1.85366">
        <ele>22</ele>
        <time>2019-02-21T15:21:06Z</time>
      </trkpt>
      <trkpt lat="46.64211" lon="-1.85363">
        <ele>22</ele>
        <time>2019-02-21T15:21:09Z</time>
      </trkpt>
      <trkpt lat="46.64207" lon="-1.85359">
        <ele>22</ele>
        <time>2019-02-21T15:21:12Z</time>
      </trkpt>
      <trkpt lat="46.64203" lon="-1.85356">
        <ele>22</ele>
        <time>2019-02-21T15:21:14Z</time>
      </trkpt>
      <trkpt lat="46.64201" lon="-1.85354">
        <ele>22</ele>
        <time>2019-02-21T15:21:17Z</time>
      </trkpt>
      <trkpt lat="46.64197" lon="-1.85351">
        <ele>22</ele>
        <time>2019-02-21T15:21:19Z</time>
      </trkpt>
      <trkpt lat="46.64195" lon="-1.85348">
        <ele>22</ele>
        <time>2019-02-21T15:21:22Z</time>
      </trkpt>
      <trkpt lat="46.64191" lon="-1.85344">
        <ele>22</ele>
        <time>2019-02-21T15:21:25Z</time>
      </trkpt>
      <trkpt lat="46.64188" lon="-1.8534">
        <ele>22</ele>
        <time>2019-02-21T15:21:27Z</time>
      </trkpt>
      <trkpt lat="46.64183" lon="-1.85334">
        <ele>22</ele>
        <time>2019-02-21T15:21:33Z</time>
      </trkpt>
      <trkpt lat="46.64181" lon="-1.85329">
        <ele>22</ele>
        <time>2019-02-21T15:21:35Z</time>
      </trkpt>
      <trkpt lat="46.6418" lon="-1.85327">
        <ele>22</ele>
        <time>2019-02-21T15:21:38Z</time>
      </trkpt>
      <trkpt lat="46.64179" lon="-1.85321">
        <ele>23</ele>
        <time>2019-02-21T15:21:40Z</time>
      </trkpt>
      <trkpt lat="46.64179" lon="-1.85316">
        <ele>23</ele>
        <time>2019-02-21T15:21:43Z</time>
      </trkpt>
      <trkpt lat="46.64179" lon="-1.85313">
        <ele>23</ele>
        <time>2019-02-21T15:21:45Z</time>
      </trkpt>
      <trkpt lat="46.6418" lon="-1.85312">
        <ele>23</ele>
        <time>2019-02-21T15:21:48Z</time>
      </trkpt>
      <trkpt lat="46.6418" lon="-1.85308">
        <ele>23</ele>
        <time>2019-02-21T15:21:51Z</time>
      </trkpt>
      <trkpt lat="46.6418" lon="-1.85304">
        <ele>23</ele>
        <time>2019-02-21T15:21:53Z</time>
      </trkpt>
      <trkpt lat="46.6418" lon="-1.85299">
        <ele>23</ele>
        <time>2019-02-21T15:21:56Z</time>
      </trkpt>
      <trkpt lat="46.6418" lon="-1.85293">
        <ele>23</ele>
        <time>2019-02-21T15:21:58Z</time>
      </trkpt>
      <trkpt lat="46.6418" lon="-1.85282">
        <ele>23</ele>
        <time>2019-02-21T15:22:03Z</time>
      </trkpt>
      <trkpt lat="46.6418" lon="-1.85278">
        <ele>23</ele>
        <time>2019-02-21T15:22:06Z</time>
      </trkpt>
      <trkpt lat="46.64179" lon="-1.85274">
        <ele>23</ele>
        <time>2019-02-21T15:22:08Z</time>
      </trkpt>
      <trkpt lat="46.6418" lon="-1.8527">
        <ele>23</ele>
        <time>2019-02-21T15:22:11Z</time>
      </trkpt>
      <trkpt lat="46.6418" lon="-1.85263">
        <ele>23</ele>
        <time>2019-02-21T15:22:14Z</time>
      </trkpt>
      <trkpt lat="46.6418" lon="-1.85259">
        <ele>23</ele>
        <time>2019-02-21T15:22:16Z</time>
      </trkpt>
      <trkpt lat="46.6418" lon="-1.85254">
        <ele>23</ele>
        <time>2019-02-21T15:22:19Z</time>
      </trkpt>
      <trkpt lat="46.6418" lon="-1.85247">
        <ele>24</ele>
        <time>2019-02-21T15:22:21Z</time>
      </trkpt>
      <trkpt lat="46.6418" lon="-1.85243">
        <ele>24</ele>
        <time>2019-02-21T15:22:24Z</time>
      </trkpt>
      <trkpt lat="46.64181" lon="-1.85238">
        <ele>24</ele>
        <time>2019-02-21T15:22:26Z</time>
      </trkpt>
      <trkpt lat="46.64181" lon="-1.85234">
        <ele>24</ele>
        <time>2019-02-21T15:22:29Z</time>
      </trkpt>
      <trkpt lat="46.64182" lon="-1.85223">
        <ele>24</ele>
        <time>2019-02-21T15:22:34Z</time>
      </trkpt>
      <trkpt lat="46.64182" lon="-1.85217">
        <ele>24</ele>
        <time>2019-02-21T15:22:37Z</time>
      </trkpt>
      <trkpt lat="46.64182" lon="-1.85213">
        <ele>24</ele>
        <time>2019-02-21T15:22:39Z</time>
      </trkpt>
      <trkpt lat="46.64183" lon="-1.8521">
        <ele>24</ele>
        <time>2019-02-21T15:22:42Z</time>
      </trkpt>
      <trkpt lat="46.64184" lon="-1.85204">
        <ele>25</ele>
        <time>2019-02-21T15:22:44Z</time>
      </trkpt>
      <trkpt lat="46.64184" lon="-1.85201">
        <ele>24</ele>
        <time>2019-02-21T15:22:47Z</time>
      </trkpt>
      <trkpt lat="46.64185" lon="-1.85196">
        <ele>25</ele>
        <time>2019-02-21T15:22:49Z</time>
      </trkpt>
      <trkpt lat="46.64185" lon="-1.85193">
        <ele>25</ele>
        <time>2019-02-21T15:22:52Z</time>
      </trkpt>
      <trkpt lat="46.64186" lon="-1.85189">
        <ele>25</ele>
        <time>2019-02-21T15:22:54Z</time>
      </trkpt>
      <trkpt lat="46.64185" lon="-1.85187">
        <ele>25</ele>
        <time>2019-02-21T15:22:57Z</time>
      </trkpt>
      <trkpt lat="46.64184" lon="-1.85183">
        <ele>25</ele>
        <time>2019-02-21T15:23:02Z</time>
      </trkpt>
      <trkpt lat="46.64184" lon="-1.85183">
        <ele>25</ele>
        <time>2019-02-21T15:23:05Z</time>
      </trkpt>
      <trkpt lat="46.64184" lon="-1.85185">
        <ele>25</ele>
        <time>2019-02-21T15:23:07Z</time>
      </trkpt>
      <trkpt lat="46.64183" lon="-1.85187">
        <ele>25</ele>
        <time>2019-02-21T15:23:10Z</time>
      </trkpt>
      <trkpt lat="46.64184" lon="-1.85188">
        <ele>25</ele>
        <time>2019-02-21T15:23:13Z</time>
      </trkpt>
      <trkpt lat="46.64184" lon="-1.85189">
        <ele>25</ele>
        <time>2019-02-21T15:23:15Z</time>
      </trkpt>
      <trkpt lat="46.64185" lon="-1.85186">
        <ele>25</ele>
        <time>2019-02-21T15:23:18Z</time>
      </trkpt>
      <trkpt lat="46.64186" lon="-1.85185">
        <ele>25</ele>
        <time>2019-02-21T15:23:20Z</time>
      </trkpt>
      <trkpt lat="46.64186" lon="-1.85185">
        <ele>25</ele>
        <time>2019-02-21T15:23:23Z</time>
      </trkpt>
      <trkpt lat="46.64185" lon="-1.85184">
        <ele>25</ele>
        <time>2019-02-21T15:23:25Z</time>
      </trkpt>
      <trkpt lat="46.64184" lon="-1.85184">
        <ele>25</ele>
        <time>2019-02-21T15:23:28Z</time>
      </trkpt>
      <trkpt lat="46.64184" lon="-1.85184">
        <ele>25</ele>
        <time>2019-02-21T15:23:33Z</time>
      </trkpt>
      <trkpt lat="46.64184" lon="-1.85185">
        <ele>25</ele>
        <time>2019-02-21T15:23:36Z</time>
      </trkpt>
      <trkpt lat="46.64185" lon="-1.85187">
        <ele>25</ele>
        <time>2019-02-21T15:23:38Z</time>
      </trkpt>
      <trkpt lat="46.64185" lon="-1.85187">
        <ele>25</ele>
        <time>2019-02-21T15:23:41Z</time>
      </trkpt>
      <trkpt lat="46.64185" lon="-1.85188">
        <ele>25</ele>
        <time>2019-02-21T15:23:43Z</time>
      </trkpt>
      <trkpt lat="46.64185" lon="-1.85189">
        <ele>25</ele>
        <time>2019-02-21T15:23:46Z</time>
      </trkpt>
      <trkpt lat="46.64185" lon="-1.85188">
        <ele>25</ele>
        <time>2019-02-21T15:23:48Z</time>
      </trkpt>
      <trkpt lat="46.64185" lon="-1.85187">
        <ele>25</ele>
        <time>2019-02-21T15:23:51Z</time>
      </trkpt>
      <trkpt lat="46.64185" lon="-1.85187">
        <ele>25</ele>
        <time>2019-02-21T15:23:53Z</time>
      </trkpt>
      <trkpt lat="46.64184" lon="-1.85187">
        <ele>25</ele>
        <time>2019-02-21T15:23:56Z</time>
      </trkpt>
      <trkpt lat="46.64185" lon="-1.85187">
        <ele>25</ele>
        <time>2019-02-21T15:23:58Z</time>
      </trkpt>
      <trkpt lat="46.64186" lon="-1.85187">
        <ele>25</ele>
        <time>2019-02-21T15:24:03Z</time>
      </trkpt>
      <trkpt lat="46.64186" lon="-1.85187">
        <ele>25</ele>
        <time>2019-02-21T15:24:06Z</time>
      </trkpt>
      <trkpt lat="46.64187" lon="-1.85188">
        <ele>25</ele>
        <time>2019-02-21T15:24:09Z</time>
      </trkpt>
      <trkpt lat="46.64187" lon="-1.85188">
        <ele>25</ele>
        <time>2019-02-21T15:24:11Z</time>
      </trkpt>
      <trkpt lat="46.64187" lon="-1.85188">
        <ele>25</ele>
        <time>2019-02-21T15:24:14Z</time>
      </trkpt>
      <trkpt lat="46.64187" lon="-1.85188">
        <ele>25</ele>
        <time>2019-02-21T15:24:16Z</time>
      </trkpt>
      <trkpt lat="46.64187" lon="-1.85188">
        <ele>25</ele>
        <time>2019-02-21T15:24:19Z</time>
      </trkpt>
      <trkpt lat="46.64187" lon="-1.85188">
        <ele>25</ele>
        <time>2019-02-21T15:24:21Z</time>
      </trkpt>
      <trkpt lat="46.64187" lon="-1.85187">
        <ele>25</ele>
        <time>2019-02-21T15:24:24Z</time>
      </trkpt>
      <trkpt lat="46.64188" lon="-1.85187">
        <ele>25</ele>
        <time>2019-02-21T15:24:26Z</time>
      </trkpt>
      <trkpt lat="46.64188" lon="-1.85187">
        <ele>25</ele>
        <time>2019-02-21T15:24:29Z</time>
      </trkpt>
      <trkpt lat="46.64191" lon="-1.85187">
        <ele>25</ele>
        <time>2019-02-21T15:24:34Z</time>
      </trkpt>
      <trkpt lat="46.64194" lon="-1.85188">
        <ele>25</ele>
        <time>2019-02-21T15:24:37Z</time>
      </trkpt>
      <trkpt lat="46.64196" lon="-1.85188">
        <ele>25</ele>
        <time>2019-02-21T15:24:39Z</time>
      </trkpt>
      <trkpt lat="46.642" lon="-1.85186">
        <ele>25</ele>
        <time>2019-02-21T15:24:42Z</time>
      </trkpt>
      <trkpt lat="46.64203" lon="-1.85185">
        <ele>25</ele>
        <time>2019-02-21T15:24:44Z</time>
      </trkpt>
      <trkpt lat="46.64206" lon="-1.85184">
        <ele>25</ele>
        <time>2019-02-21T15:24:47Z</time>
      </trkpt>
      <trkpt lat="46.64209" lon="-1.85184">
        <ele>25</ele>
        <time>2019-02-21T15:24:49Z</time>
      </trkpt>
      <trkpt lat="46.64211" lon="-1.85183">
        <ele>25</ele>
        <time>2019-02-21T15:24:52Z</time>
      </trkpt>
      <trkpt lat="46.64214" lon="-1.85183">
        <ele>25</ele>
        <time>2019-02-21T15:24:55Z</time>
      </trkpt>
      <trkpt lat="46.64217" lon="-1.85183">
        <ele>25</ele>
        <time>2019-02-21T15:24:57Z</time>
      </trkpt>
      <trkpt lat="46.6422" lon="-1.85181">
        <ele>24</ele>
        <time>2019-02-21T15:25:00Z</time>
      </trkpt>
      <trkpt lat="46.64227" lon="-1.8518">
        <ele>24</ele>
        <time>2019-02-21T15:25:05Z</time>
      </trkpt>
      <trkpt lat="46.64231" lon="-1.85179">
        <ele>25</ele>
        <time>2019-02-21T15:25:07Z</time>
      </trkpt>
      <trkpt lat="46.64233" lon="-1.85179">
        <ele>25</ele>
        <time>2019-02-21T15:25:10Z</time>
      </trkpt>
      <trkpt lat="46.64236" lon="-1.85179">
        <ele>25</ele>
        <time>2019-02-21T15:25:12Z</time>
      </trkpt>
      <trkpt lat="46.64239" lon="-1.85178">
        <ele>24</ele>
        <time>2019-02-21T15:25:15Z</time>
      </trkpt>
      <trkpt lat="46.64243" lon="-1.85177">
        <ele>24</ele>
        <time>2019-02-21T15:25:17Z</time>
      </trkpt>
      <trkpt lat="46.64245" lon="-1.85177">
        <ele>24</ele>
        <time>2019-02-21T15:25:20Z</time>
      </trkpt>
      <trkpt lat="46.64249" lon="-1.85176">
        <ele>24</ele>
        <time>2019-02-21T15:25:22Z</time>
      </trkpt>
      <trkpt lat="46.64251" lon="-1.85176">
        <ele>24</ele>
        <time>2019-02-21T15:25:25Z</time>
      </trkpt>
      <trkpt lat="46.64256" lon="-1.85176">
        <ele>24</ele>
        <time>2019-02-21T15:25:27Z</time>
      </trkpt>
      <trkpt lat="46.64258" lon="-1.85176">
        <ele>24</ele>
        <time>2019-02-21T15:25:30Z</time>
      </trkpt>
      <trkpt lat="46.64265" lon="-1.85175">
        <ele>24</ele>
        <time>2019-02-21T15:25:35Z</time>
      </trkpt>
      <trkpt lat="46.6427" lon="-1.85175">
        <ele>24</ele>
        <time>2019-02-21T15:25:38Z</time>
      </trkpt>
      <trkpt lat="46.64272" lon="-1.85175">
        <ele>24</ele>
        <time>2019-02-21T15:25:40Z</time>
      </trkpt>
      <trkpt lat="46.64276" lon="-1.85174">
        <ele>24</ele>
        <time>2019-02-21T15:25:43Z</time>
      </trkpt>
      <trkpt lat="46.64279" lon="-1.85174">
        <ele>24</ele>
        <time>2019-02-21T15:25:45Z</time>
      </trkpt>
      <trkpt lat="46.64283" lon="-1.85174">
        <ele>24</ele>
        <time>2019-02-21T15:25:48Z</time>
      </trkpt>
      <trkpt lat="46.64288" lon="-1.85173">
        <ele>24</ele>
        <time>2019-02-21T15:25:50Z</time>
      </trkpt>
      <trkpt lat="46.6429" lon="-1.85173">
        <ele>24</ele>
        <time>2019-02-21T15:25:53Z</time>
      </trkpt>
      <trkpt lat="46.64294" lon="-1.85172">
        <ele>24</ele>
        <time>2019-02-21T15:25:55Z</time>
      </trkpt>
      <trkpt lat="46.64296" lon="-1.85171">
        <ele>24</ele>
        <time>2019-02-21T15:25:58Z</time>
      </trkpt>
      <trkpt lat="46.64299" lon="-1.8517">
        <ele>24</ele>
        <time>2019-02-21T15:26:01Z</time>
      </trkpt>
      <trkpt lat="46.64305" lon="-1.85167">
        <ele>24</ele>
        <time>2019-02-21T15:26:06Z</time>
      </trkpt>
      <trkpt lat="46.6431" lon="-1.85166">
        <ele>24</ele>
        <time>2019-02-21T15:26:08Z</time>
      </trkpt>
      <trkpt lat="46.64314" lon="-1.85164">
        <ele>24</ele>
        <time>2019-02-21T15:26:11Z</time>
      </trkpt>
      <trkpt lat="46.64317" lon="-1.85165">
        <ele>24</ele>
        <time>2019-02-21T15:26:14Z</time>
      </trkpt>
      <trkpt lat="46.6432" lon="-1.85164">
        <ele>24</ele>
        <time>2019-02-21T15:26:16Z</time>
      </trkpt>
      <trkpt lat="46.64324" lon="-1.85163">
        <ele>24</ele>
        <time>2019-02-21T15:26:19Z</time>
      </trkpt>
      <trkpt lat="46.64328" lon="-1.85161">
        <ele>24</ele>
        <time>2019-02-21T15:26:21Z</time>
      </trkpt>
      <trkpt lat="46.6433" lon="-1.8516">
        <ele>24</ele>
        <time>2019-02-21T15:26:24Z</time>
      </trkpt>
      <trkpt lat="46.64335" lon="-1.8516">
        <ele>23</ele>
        <time>2019-02-21T15:26:26Z</time>
      </trkpt>
      <trkpt lat="46.64337" lon="-1.85159">
        <ele>23</ele>
        <time>2019-02-21T15:26:29Z</time>
      </trkpt>
      <trkpt lat="46.64346" lon="-1.85156">
        <ele>23</ele>
        <time>2019-02-21T15:26:34Z</time>
      </trkpt>
      <trkpt lat="46.64348" lon="-1.85155">
        <ele>23</ele>
        <time>2019-02-21T15:26:37Z</time>
      </trkpt>
      <trkpt lat="46.64351" lon="-1.85154">
        <ele>23</ele>
        <time>2019-02-21T15:26:39Z</time>
      </trkpt>
      <trkpt lat="46.64354" lon="-1.85154">
        <ele>23</ele>
        <time>2019-02-21T15:26:42Z</time>
      </trkpt>
      <trkpt lat="46.64358" lon="-1.85153">
        <ele>23</ele>
        <time>2019-02-21T15:26:45Z</time>
      </trkpt>
      <trkpt lat="46.64361" lon="-1.85153">
        <ele>23</ele>
        <time>2019-02-21T15:26:47Z</time>
      </trkpt>
      <trkpt lat="46.64365" lon="-1.85152">
        <ele>23</ele>
        <time>2019-02-21T15:26:50Z</time>
      </trkpt>
      <trkpt lat="46.64368" lon="-1.85152">
        <ele>23</ele>
        <time>2019-02-21T15:26:52Z</time>
      </trkpt>
      <trkpt lat="46.64371" lon="-1.85151">
        <ele>23</ele>
        <time>2019-02-21T15:26:55Z</time>
      </trkpt>
      <trkpt lat="46.64375" lon="-1.8515">
        <ele>23</ele>
        <time>2019-02-21T15:26:57Z</time>
      </trkpt>
      <trkpt lat="46.64378" lon="-1.85149">
        <ele>23</ele>
        <time>2019-02-21T15:27:00Z</time>
      </trkpt>
      <trkpt lat="46.64385" lon="-1.85147">
        <ele>22</ele>
        <time>2019-02-21T15:27:05Z</time>
      </trkpt>
      <trkpt lat="46.64389" lon="-1.85146">
        <ele>22</ele>
        <time>2019-02-21T15:27:08Z</time>
      </trkpt>
      <trkpt lat="46.64393" lon="-1.85146">
        <ele>22</ele>
        <time>2019-02-21T15:27:10Z</time>
      </trkpt>
      <trkpt lat="46.64395" lon="-1.85146">
        <ele>22</ele>
        <time>2019-02-21T15:27:13Z</time>
      </trkpt>
      <trkpt lat="46.64399" lon="-1.85145">
        <ele>22</ele>
        <time>2019-02-21T15:27:15Z</time>
      </trkpt>
      <trkpt lat="46.64402" lon="-1.85145">
        <ele>22</ele>
        <time>2019-02-21T15:27:18Z</time>
      </trkpt>
      <trkpt lat="46.64407" lon="-1.85145">
        <ele>22</ele>
        <time>2019-02-21T15:27:21Z</time>
      </trkpt>
      <trkpt lat="46.6441" lon="-1.85145">
        <ele>22</ele>
        <time>2019-02-21T15:27:23Z</time>
      </trkpt>
      <trkpt lat="46.64413" lon="-1.85145">
        <ele>22</ele>
        <time>2019-02-21T15:27:26Z</time>
      </trkpt>
      <trkpt lat="46.64415" lon="-1.85145">
        <ele>22</ele>
        <time>2019-02-21T15:27:28Z</time>
      </trkpt>
      <trkpt lat="46.6442" lon="-1.85145">
        <ele>21</ele>
        <time>2019-02-21T15:27:31Z</time>
      </trkpt>
      <trkpt lat="46.64428" lon="-1.85144">
        <ele>21</ele>
        <time>2019-02-21T15:27:36Z</time>
      </trkpt>
      <trkpt lat="46.64432" lon="-1.85144">
        <ele>21</ele>
        <time>2019-02-21T15:27:38Z</time>
      </trkpt>
      <trkpt lat="46.64435" lon="-1.85144">
        <ele>21</ele>
        <time>2019-02-21T15:27:41Z</time>
      </trkpt>
      <trkpt lat="46.64439" lon="-1.85144">
        <ele>21</ele>
        <time>2019-02-21T15:27:44Z</time>
      </trkpt>
      <trkpt lat="46.64442" lon="-1.85144">
        <ele>21</ele>
        <time>2019-02-21T15:27:46Z</time>
      </trkpt>
      <trkpt lat="46.64446" lon="-1.85143">
        <ele>21</ele>
        <time>2019-02-21T15:27:49Z</time>
      </trkpt>
      <trkpt lat="46.6445" lon="-1.85143">
        <ele>21</ele>
        <time>2019-02-21T15:27:51Z</time>
      </trkpt>
      <trkpt lat="46.64453" lon="-1.85142">
        <ele>21</ele>
        <time>2019-02-21T15:27:54Z</time>
      </trkpt>
      <trkpt lat="46.64457" lon="-1.85142">
        <ele>21</ele>
        <time>2019-02-21T15:27:56Z</time>
      </trkpt>
      <trkpt lat="46.64459" lon="-1.85142">
        <ele>21</ele>
        <time>2019-02-21T15:27:59Z</time>
      </trkpt>
      <trkpt lat="46.64463" lon="-1.85143">
        <ele>21</ele>
        <time>2019-02-21T15:28:02Z</time>
      </trkpt>
      <trkpt lat="46.6447" lon="-1.85144">
        <ele>21</ele>
        <time>2019-02-21T15:28:07Z</time>
      </trkpt>
      <trkpt lat="46.64473" lon="-1.85144">
        <ele>20</ele>
        <time>2019-02-21T15:28:09Z</time>
      </trkpt>
      <trkpt lat="46.64477" lon="-1.85145">
        <ele>20</ele>
        <time>2019-02-21T15:28:12Z</time>
      </trkpt>
      <trkpt lat="46.6448" lon="-1.85145">
        <ele>20</ele>
        <time>2019-02-21T15:28:14Z</time>
      </trkpt>
      <trkpt lat="46.64484" lon="-1.85146">
        <ele>20</ele>
        <time>2019-02-21T15:28:17Z</time>
      </trkpt>
      <trkpt lat="46.64486" lon="-1.85147">
        <ele>20</ele>
        <time>2019-02-21T15:28:19Z</time>
      </trkpt>
      <trkpt lat="46.64491" lon="-1.85149">
        <ele>20</ele>
        <time>2019-02-21T15:28:22Z</time>
      </trkpt>
      <trkpt lat="46.64495" lon="-1.85151">
        <ele>20</ele>
        <time>2019-02-21T15:28:24Z</time>
      </trkpt>
      <trkpt lat="46.64498" lon="-1.85152">
        <ele>20</ele>
        <time>2019-02-21T15:28:27Z</time>
      </trkpt>
      <trkpt lat="46.64502" lon="-1.85155">
        <ele>20</ele>
        <time>2019-02-21T15:28:29Z</time>
      </trkpt>
      <trkpt lat="46.64505" lon="-1.85156">
        <ele>20</ele>
        <time>2019-02-21T15:28:32Z</time>
      </trkpt>
      <trkpt lat="46.64511" lon="-1.8516">
        <ele>20</ele>
        <time>2019-02-21T15:28:37Z</time>
      </trkpt>
      <trkpt lat="46.64514" lon="-1.85163">
        <ele>19</ele>
        <time>2019-02-21T15:28:40Z</time>
      </trkpt>
      <trkpt lat="46.64516" lon="-1.85163">
        <ele>19</ele>
        <time>2019-02-21T15:28:42Z</time>
      </trkpt>
      <trkpt lat="46.6452" lon="-1.85165">
        <ele>19</ele>
        <time>2019-02-21T15:28:45Z</time>
      </trkpt>
      <trkpt lat="46.64523" lon="-1.85166">
        <ele>19</ele>
        <time>2019-02-21T15:28:47Z</time>
      </trkpt>
      <trkpt lat="46.64525" lon="-1.85167">
        <ele>19</ele>
        <time>2019-02-21T15:28:50Z</time>
      </trkpt>
      <trkpt lat="46.64528" lon="-1.85168">
        <ele>19</ele>
        <time>2019-02-21T15:28:52Z</time>
      </trkpt>
      <trkpt lat="46.6453" lon="-1.85168">
        <ele>19</ele>
        <time>2019-02-21T15:28:55Z</time>
      </trkpt>
      <trkpt lat="46.64534" lon="-1.85171">
        <ele>19</ele>
        <time>2019-02-21T15:28:57Z</time>
      </trkpt>
      <trkpt lat="46.64537" lon="-1.85171">
        <ele>19</ele>
        <time>2019-02-21T15:29:00Z</time>
      </trkpt>
      <trkpt lat="46.64541" lon="-1.85173">
        <ele>19</ele>
        <time>2019-02-21T15:29:02Z</time>
      </trkpt>
      <trkpt lat="46.64548" lon="-1.85173">
        <ele>18</ele>
        <time>2019-02-21T15:29:07Z</time>
      </trkpt>
      <trkpt lat="46.6455" lon="-1.85173">
        <ele>18</ele>
        <time>2019-02-21T15:29:10Z</time>
      </trkpt>
      <trkpt lat="46.64554" lon="-1.8517">
        <ele>18</ele>
        <time>2019-02-21T15:29:12Z</time>
      </trkpt>
      <trkpt lat="46.64556" lon="-1.85167">
        <ele>18</ele>
        <time>2019-02-21T15:29:15Z</time>
      </trkpt>
      <trkpt lat="46.64559" lon="-1.85163">
        <ele>18</ele>
        <time>2019-02-21T15:29:17Z</time>
      </trkpt>
      <trkpt lat="46.64561" lon="-1.8516">
        <ele>18</ele>
        <time>2019-02-21T15:29:20Z</time>
      </trkpt>
      <trkpt lat="46.64563" lon="-1.85155">
        <ele>18</ele>
        <time>2019-02-21T15:29:22Z</time>
      </trkpt>
      <trkpt lat="46.64564" lon="-1.85152">
        <ele>18</ele>
        <time>2019-02-21T15:29:25Z</time>
      </trkpt>
      <trkpt lat="46.64568" lon="-1.85149">
        <ele>18</ele>
        <time>2019-02-21T15:29:27Z</time>
      </trkpt>
      <trkpt lat="46.6457" lon="-1.85146">
        <ele>18</ele>
        <time>2019-02-21T15:29:30Z</time>
      </trkpt>
      <trkpt lat="46.64575" lon="-1.85139">
        <ele>18</ele>
        <time>2019-02-21T15:29:35Z</time>
      </trkpt>
      <trkpt lat="46.64577" lon="-1.85137">
        <ele>18</ele>
        <time>2019-02-21T15:29:37Z</time>
      </trkpt>
      <trkpt lat="46.6458" lon="-1.85132">
        <ele>18</ele>
        <time>2019-02-21T15:29:40Z</time>
      </trkpt>
      <trkpt lat="46.64582" lon="-1.8513">
        <ele>18</ele>
        <time>2019-02-21T15:29:42Z</time>
      </trkpt>
      <trkpt lat="46.64585" lon="-1.85127">
        <ele>18</ele>
        <time>2019-02-21T15:29:45Z</time>
      </trkpt>
      <trkpt lat="46.64588" lon="-1.85124">
        <ele>18</ele>
        <time>2019-02-21T15:29:47Z</time>
      </trkpt>
      <trkpt lat="46.64591" lon="-1.85123">
        <ele>18</ele>
        <time>2019-02-21T15:29:50Z</time>
      </trkpt>
      <trkpt lat="46.64592" lon="-1.85121">
        <ele>18</ele>
        <time>2019-02-21T15:29:52Z</time>
      </trkpt>
      <trkpt lat="46.64593" lon="-1.85118">
        <ele>19</ele>
        <time>2019-02-21T15:29:55Z</time>
      </trkpt>
      <trkpt lat="46.64594" lon="-1.85118">
        <ele>19</ele>
        <time>2019-02-21T15:29:57Z</time>
      </trkpt>
      <trkpt lat="46.64594" lon="-1.85118">
        <ele>19</ele>
        <time>2019-02-21T15:30:00Z</time>
      </trkpt>
      <trkpt lat="46.64593" lon="-1.85117">
        <ele>19</ele>
        <time>2019-02-21T15:30:05Z</time>
      </trkpt>
      <trkpt lat="46.64593" lon="-1.85117">
        <ele>19</ele>
        <time>2019-02-21T15:30:07Z</time>
      </trkpt>
      <trkpt lat="46.64592" lon="-1.85118">
        <ele>19</ele>
        <time>2019-02-21T15:30:10Z</time>
      </trkpt>
      <trkpt lat="46.64592" lon="-1.85118">
        <ele>19</ele>
        <time>2019-02-21T15:30:12Z</time>
      </trkpt>
      <trkpt lat="46.64593" lon="-1.8512">
        <ele>18</ele>
        <time>2019-02-21T15:30:15Z</time>
      </trkpt>
      <trkpt lat="46.64593" lon="-1.85121">
        <ele>18</ele>
        <time>2019-02-21T15:30:17Z</time>
      </trkpt>
      <trkpt lat="46.64592" lon="-1.85119">
        <ele>19</ele>
        <time>2019-02-21T15:30:20Z</time>
      </trkpt>
      <trkpt lat="46.64591" lon="-1.85116">
        <ele>19</ele>
        <time>2019-02-21T15:30:22Z</time>
      </trkpt>
      <trkpt lat="46.64589" lon="-1.8511">
        <ele>19</ele>
        <time>2019-02-21T15:30:25Z</time>
      </trkpt>
      <trkpt lat="46.64588" lon="-1.85107">
        <ele>19</ele>
        <time>2019-02-21T15:30:27Z</time>
      </trkpt>
      <trkpt lat="46.64585" lon="-1.85103">
        <ele>19</ele>
        <time>2019-02-21T15:30:30Z</time>
      </trkpt>
      <trkpt lat="46.64583" lon="-1.85096">
        <ele>19</ele>
        <time>2019-02-21T15:30:35Z</time>
      </trkpt>
      <trkpt lat="46.6458" lon="-1.85092">
        <ele>19</ele>
        <time>2019-02-21T15:30:37Z</time>
      </trkpt>
      <trkpt lat="46.64579" lon="-1.85089">
        <ele>19</ele>
        <time>2019-02-21T15:30:40Z</time>
      </trkpt>
      <trkpt lat="46.64578" lon="-1.85084">
        <ele>19</ele>
        <time>2019-02-21T15:30:42Z</time>
      </trkpt>
      <trkpt lat="46.64577" lon="-1.85081">
        <ele>19</ele>
        <time>2019-02-21T15:30:45Z</time>
      </trkpt>
      <trkpt lat="46.64575" lon="-1.85076">
        <ele>19</ele>
        <time>2019-02-21T15:30:48Z</time>
      </trkpt>
      <trkpt lat="46.64574" lon="-1.85072">
        <ele>19</ele>
        <time>2019-02-21T15:30:50Z</time>
      </trkpt>
      <trkpt lat="46.64572" lon="-1.85068">
        <ele>19</ele>
        <time>2019-02-21T15:30:53Z</time>
      </trkpt>
      <trkpt lat="46.64571" lon="-1.85065">
        <ele>19</ele>
        <time>2019-02-21T15:30:55Z</time>
      </trkpt>
      <trkpt lat="46.6457" lon="-1.85061">
        <ele>19</ele>
        <time>2019-02-21T15:30:58Z</time>
      </trkpt>
      <trkpt lat="46.6457" lon="-1.8506">
        <ele>19</ele>
        <time>2019-02-21T15:31:00Z</time>
      </trkpt>
      <trkpt lat="46.64569" lon="-1.8506">
        <ele>19</ele>
        <time>2019-02-21T15:31:05Z</time>
      </trkpt>
      <trkpt lat="46.64568" lon="-1.85057">
        <ele>19</ele>
        <time>2019-02-21T15:31:08Z</time>
      </trkpt>
      <trkpt lat="46.64568" lon="-1.85055">
        <ele>19</ele>
        <time>2019-02-21T15:31:10Z</time>
      </trkpt>
      <trkpt lat="46.64567" lon="-1.85053">
        <ele>19</ele>
        <time>2019-02-21T15:31:13Z</time>
      </trkpt>
      <trkpt lat="46.64566" lon="-1.8505">
        <ele>19</ele>
        <time>2019-02-21T15:31:15Z</time>
      </trkpt>
      <trkpt lat="46.64565" lon="-1.85045">
        <ele>19</ele>
        <time>2019-02-21T15:31:18Z</time>
      </trkpt>
      <trkpt lat="46.64563" lon="-1.85041">
        <ele>20</ele>
        <time>2019-02-21T15:31:20Z</time>
      </trkpt>
      <trkpt lat="46.64562" lon="-1.85038">
        <ele>20</ele>
        <time>2019-02-21T15:31:23Z</time>
      </trkpt>
      <trkpt lat="46.6456" lon="-1.85033">
        <ele>20</ele>
        <time>2019-02-21T15:31:25Z</time>
      </trkpt>
      <trkpt lat="46.64559" lon="-1.8503">
        <ele>20</ele>
        <time>2019-02-21T15:31:28Z</time>
      </trkpt>
      <trkpt lat="46.64557" lon="-1.85025">
        <ele>20</ele>
        <time>2019-02-21T15:31:30Z</time>
      </trkpt>
      <trkpt lat="46.64555" lon="-1.85017">
        <ele>20</ele>
        <time>2019-02-21T15:31:36Z</time>
      </trkpt>
      <trkpt lat="46.64554" lon="-1.85013">
        <ele>20</ele>
        <time>2019-02-21T15:31:38Z</time>
      </trkpt>
      <trkpt lat="46.64552" lon="-1.85008">
        <ele>20</ele>
        <time>2019-02-21T15:31:41Z</time>
      </trkpt>
      <trkpt lat="46.64551" lon="-1.85004">
        <ele>20</ele>
        <time>2019-02-21T15:31:43Z</time>
      </trkpt>
      <trkpt lat="46.6455" lon="-1.84999">
        <ele>20</ele>
        <time>2019-02-21T15:31:46Z</time>
      </trkpt>
      <trkpt lat="46.64549" lon="-1.84996">
        <ele>20</ele>
        <time>2019-02-21T15:31:48Z</time>
      </trkpt>
      <trkpt lat="46.64548" lon="-1.84991">
        <ele>20</ele>
        <time>2019-02-21T15:31:51Z</time>
      </trkpt>
      <trkpt lat="46.64547" lon="-1.84988">
        <ele>20</ele>
        <time>2019-02-21T15:31:53Z</time>
      </trkpt>
      <trkpt lat="46.64547" lon="-1.84986">
        <ele>20</ele>
        <time>2019-02-21T15:31:56Z</time>
      </trkpt>
      <trkpt lat="46.64547" lon="-1.84983">
        <ele>20</ele>
        <time>2019-02-21T15:31:58Z</time>
      </trkpt>
      <trkpt lat="46.64546" lon="-1.8498">
        <ele>20</ele>
        <time>2019-02-21T15:32:01Z</time>
      </trkpt>
      <trkpt lat="46.64543" lon="-1.84973">
        <ele>21</ele>
        <time>2019-02-21T15:32:06Z</time>
      </trkpt>
      <trkpt lat="46.64542" lon="-1.84971">
        <ele>21</ele>
        <time>2019-02-21T15:32:08Z</time>
      </trkpt>
      <trkpt lat="46.64541" lon="-1.84967">
        <ele>21</ele>
        <time>2019-02-21T15:32:11Z</time>
      </trkpt>
      <trkpt lat="46.6454" lon="-1.84965">
        <ele>21</ele>
        <time>2019-02-21T15:32:13Z</time>
      </trkpt>
      <trkpt lat="46.64538" lon="-1.84961">
        <ele>21</ele>
        <time>2019-02-21T15:32:16Z</time>
      </trkpt>
      <trkpt lat="46.64536" lon="-1.84959">
        <ele>21</ele>
        <time>2019-02-21T15:32:18Z</time>
      </trkpt>
      <trkpt lat="46.64535" lon="-1.84953">
        <ele>21</ele>
        <time>2019-02-21T15:32:21Z</time>
      </trkpt>
      <trkpt lat="46.64534" lon="-1.84949">
        <ele>21</ele>
        <time>2019-02-21T15:32:23Z</time>
      </trkpt>
      <trkpt lat="46.64533" lon="-1.84947">
        <ele>21</ele>
        <time>2019-02-21T15:32:26Z</time>
      </trkpt>
      <trkpt lat="46.64531" lon="-1.84943">
        <ele>21</ele>
        <time>2019-02-21T15:32:28Z</time>
      </trkpt>
      <trkpt lat="46.64529" lon="-1.84937">
        <ele>21</ele>
        <time>2019-02-21T15:32:33Z</time>
      </trkpt>
      <trkpt lat="46.64527" lon="-1.84933">
        <ele>21</ele>
        <time>2019-02-21T15:32:36Z</time>
      </trkpt>
      <trkpt lat="46.64527" lon="-1.84929">
        <ele>21</ele>
        <time>2019-02-21T15:32:39Z</time>
      </trkpt>
      <trkpt lat="46.64526" lon="-1.84925">
        <ele>21</ele>
        <time>2019-02-21T15:32:41Z</time>
      </trkpt>
      <trkpt lat="46.64524" lon="-1.84918">
        <ele>21</ele>
        <time>2019-02-21T15:32:43Z</time>
      </trkpt>
      <trkpt lat="46.64523" lon="-1.84914">
        <ele>21</ele>
        <time>2019-02-21T15:32:46Z</time>
      </trkpt>
      <trkpt lat="46.64521" lon="-1.84909">
        <ele>21</ele>
        <time>2019-02-21T15:32:49Z</time>
      </trkpt>
      <trkpt lat="46.6452" lon="-1.84905">
        <ele>21</ele>
        <time>2019-02-21T15:32:51Z</time>
      </trkpt>
      <trkpt lat="46.64518" lon="-1.849">
        <ele>21</ele>
        <time>2019-02-21T15:32:54Z</time>
      </trkpt>
      <trkpt lat="46.64516" lon="-1.84896">
        <ele>22</ele>
        <time>2019-02-21T15:32:56Z</time>
      </trkpt>
      <trkpt lat="46.64514" lon="-1.8489">
        <ele>22</ele>
        <time>2019-02-21T15:32:59Z</time>
      </trkpt>
      <trkpt lat="46.64511" lon="-1.84881">
        <ele>22</ele>
        <time>2019-02-21T15:33:04Z</time>
      </trkpt>
      <trkpt lat="46.6451" lon="-1.84878">
        <ele>22</ele>
        <time>2019-02-21T15:33:06Z</time>
      </trkpt>
      <trkpt lat="46.64508" lon="-1.84871">
        <ele>22</ele>
        <time>2019-02-21T15:33:09Z</time>
      </trkpt>
      <trkpt lat="46.64506" lon="-1.84865">
        <ele>22</ele>
        <time>2019-02-21T15:33:11Z</time>
      </trkpt>
      <trkpt lat="46.64505" lon="-1.84862">
        <ele>22</ele>
        <time>2019-02-21T15:33:14Z</time>
      </trkpt>
      <trkpt lat="46.64503" lon="-1.84857">
        <ele>22</ele>
        <time>2019-02-21T15:33:16Z</time>
      </trkpt>
      <trkpt lat="46.64502" lon="-1.84854">
        <ele>22</ele>
        <time>2019-02-21T15:33:19Z</time>
      </trkpt>
      <trkpt lat="46.645" lon="-1.84848">
        <ele>22</ele>
        <time>2019-02-21T15:33:21Z</time>
      </trkpt>
      <trkpt lat="46.64499" lon="-1.84844">
        <ele>22</ele>
        <time>2019-02-21T15:33:24Z</time>
      </trkpt>
      <trkpt lat="46.64497" lon="-1.8484">
        <ele>22</ele>
        <time>2019-02-21T15:33:27Z</time>
      </trkpt>
      <trkpt lat="46.64496" lon="-1.84837">
        <ele>22</ele>
        <time>2019-02-21T15:33:29Z</time>
      </trkpt>
      <trkpt lat="46.64492" lon="-1.8483">
        <ele>23</ele>
        <time>2019-02-21T15:33:34Z</time>
      </trkpt>
      <trkpt lat="46.6449" lon="-1.84825">
        <ele>23</ele>
        <time>2019-02-21T15:33:37Z</time>
      </trkpt>
      <trkpt lat="46.64487" lon="-1.8482">
        <ele>23</ele>
        <time>2019-02-21T15:33:39Z</time>
      </trkpt>
      <trkpt lat="46.64486" lon="-1.84817">
        <ele>23</ele>
        <time>2019-02-21T15:33:42Z</time>
      </trkpt>
      <trkpt lat="46.64484" lon="-1.84813">
        <ele>23</ele>
        <time>2019-02-21T15:33:44Z</time>
      </trkpt>
      <trkpt lat="46.64482" lon="-1.8481">
        <ele>23</ele>
        <time>2019-02-21T15:33:47Z</time>
      </trkpt>
      <trkpt lat="46.64478" lon="-1.84806">
        <ele>23</ele>
        <time>2019-02-21T15:33:49Z</time>
      </trkpt>
      <trkpt lat="46.64477" lon="-1.84804">
        <ele>23</ele>
        <time>2019-02-21T15:33:52Z</time>
      </trkpt>
      <trkpt lat="46.64474" lon="-1.848">
        <ele>23</ele>
        <time>2019-02-21T15:33:54Z</time>
      </trkpt>
      <trkpt lat="46.64473" lon="-1.84797">
        <ele>23</ele>
        <time>2019-02-21T15:33:57Z</time>
      </trkpt>
      <trkpt lat="46.64471" lon="-1.84793">
        <ele>23</ele>
        <time>2019-02-21T15:33:59Z</time>
      </trkpt>
      <trkpt lat="46.64467" lon="-1.84786">
        <ele>23</ele>
        <time>2019-02-21T15:34:04Z</time>
      </trkpt>
      <trkpt lat="46.64466" lon="-1.84783">
        <ele>24</ele>
        <time>2019-02-21T15:34:07Z</time>
      </trkpt>
      <trkpt lat="46.64463" lon="-1.84779">
        <ele>24</ele>
        <time>2019-02-21T15:34:10Z</time>
      </trkpt>
      <trkpt lat="46.64462" lon="-1.84777">
        <ele>24</ele>
        <time>2019-02-21T15:34:12Z</time>
      </trkpt>
      <trkpt lat="46.6446" lon="-1.84773">
        <ele>24</ele>
        <time>2019-02-21T15:34:15Z</time>
      </trkpt>
      <trkpt lat="46.64457" lon="-1.84768">
        <ele>24</ele>
        <time>2019-02-21T15:34:17Z</time>
      </trkpt>
      <trkpt lat="46.64455" lon="-1.84765">
        <ele>24</ele>
        <time>2019-02-21T15:34:20Z</time>
      </trkpt>
      <trkpt lat="46.64453" lon="-1.8476">
        <ele>24</ele>
        <time>2019-02-21T15:34:22Z</time>
      </trkpt>
      <trkpt lat="46.64452" lon="-1.84758">
        <ele>24</ele>
        <time>2019-02-21T15:34:25Z</time>
      </trkpt>
      <trkpt lat="46.64449" lon="-1.84753">
        <ele>24</ele>
        <time>2019-02-21T15:34:27Z</time>
      </trkpt>
      <trkpt lat="46.64447" lon="-1.8475">
        <ele>24</ele>
        <time>2019-02-21T15:34:30Z</time>
      </trkpt>
      <trkpt lat="46.64444" lon="-1.84743">
        <ele>24</ele>
        <time>2019-02-21T15:34:35Z</time>
      </trkpt>
      <trkpt lat="46.64442" lon="-1.84738">
        <ele>24</ele>
        <time>2019-02-21T15:34:37Z</time>
      </trkpt>
      <trkpt lat="46.6444" lon="-1.84735">
        <ele>24</ele>
        <time>2019-02-21T15:34:40Z</time>
      </trkpt>
      <trkpt lat="46.64438" lon="-1.84729">
        <ele>24</ele>
        <time>2019-02-21T15:34:43Z</time>
      </trkpt>
      <trkpt lat="46.64437" lon="-1.84726">
        <ele>24</ele>
        <time>2019-02-21T15:34:45Z</time>
      </trkpt>
      <trkpt lat="46.64434" lon="-1.84722">
        <ele>24</ele>
        <time>2019-02-21T15:34:48Z</time>
      </trkpt>
      <trkpt lat="46.64432" lon="-1.84716">
        <ele>25</ele>
        <time>2019-02-21T15:34:50Z</time>
      </trkpt>
      <trkpt lat="46.6443" lon="-1.84712">
        <ele>25</ele>
        <time>2019-02-21T15:34:53Z</time>
      </trkpt>
      <trkpt lat="46.64428" lon="-1.84708">
        <ele>25</ele>
        <time>2019-02-21T15:34:55Z</time>
      </trkpt>
      <trkpt lat="46.64427" lon="-1.84705">
        <ele>25</ele>
        <time>2019-02-21T15:34:58Z</time>
      </trkpt>
      <trkpt lat="46.64424" lon="-1.84701">
        <ele>25</ele>
        <time>2019-02-21T15:35:01Z</time>
      </trkpt>
      <trkpt lat="46.6442" lon="-1.84693">
        <ele>25</ele>
        <time>2019-02-21T15:35:06Z</time>
      </trkpt>
      <trkpt lat="46.64419" lon="-1.84691">
        <ele>25</ele>
        <time>2019-02-21T15:35:08Z</time>
      </trkpt>
      <trkpt lat="46.64416" lon="-1.84685">
        <ele>25</ele>
        <time>2019-02-21T15:35:11Z</time>
      </trkpt>
      <trkpt lat="46.64415" lon="-1.84682">
        <ele>25</ele>
        <time>2019-02-21T15:35:13Z</time>
      </trkpt>
      <trkpt lat="46.64412" lon="-1.84677">
        <ele>25</ele>
        <time>2019-02-21T15:35:16Z</time>
      </trkpt>
      <trkpt lat="46.6441" lon="-1.84674">
        <ele>25</ele>
        <time>2019-02-21T15:35:18Z</time>
      </trkpt>
      <trkpt lat="46.64408" lon="-1.84669">
        <ele>25</ele>
        <time>2019-02-21T15:35:21Z</time>
      </trkpt>
      <trkpt lat="46.64407" lon="-1.84667">
        <ele>25</ele>
        <time>2019-02-21T15:35:23Z</time>
      </trkpt>
      <trkpt lat="46.64405" lon="-1.84663">
        <ele>25</ele>
        <time>2019-02-21T15:35:26Z</time>
      </trkpt>
      <trkpt lat="46.64404" lon="-1.8466">
        <ele>25</ele>
        <time>2019-02-21T15:35:28Z</time>
      </trkpt>
      <trkpt lat="46.64401" lon="-1.84654">
        <ele>25</ele>
        <time>2019-02-21T15:35:33Z</time>
      </trkpt>
      <trkpt lat="46.644" lon="-1.84649">
        <ele>25</ele>
        <time>2019-02-21T15:35:36Z</time>
      </trkpt>
      <trkpt lat="46.64398" lon="-1.84647">
        <ele>25</ele>
        <time>2019-02-21T15:35:38Z</time>
      </trkpt>
      <trkpt lat="46.64396" lon="-1.84643">
        <ele>25</ele>
        <time>2019-02-21T15:35:41Z</time>
      </trkpt>
      <trkpt lat="46.64395" lon="-1.84641">
        <ele>25</ele>
        <time>2019-02-21T15:35:43Z</time>
      </trkpt>
      <trkpt lat="46.64394" lon="-1.84636">
        <ele>25</ele>
        <time>2019-02-21T15:35:46Z</time>
      </trkpt>
      <trkpt lat="46.64393" lon="-1.84634">
        <ele>25</ele>
        <time>2019-02-21T15:35:48Z</time>
      </trkpt>
      <trkpt lat="46.64391" lon="-1.8463">
        <ele>25</ele>
        <time>2019-02-21T15:35:51Z</time>
      </trkpt>
      <trkpt lat="46.64389" lon="-1.84627">
        <ele>25</ele>
        <time>2019-02-21T15:35:53Z</time>
      </trkpt>
      <trkpt lat="46.64387" lon="-1.84624">
        <ele>25</ele>
        <time>2019-02-21T15:35:56Z</time>
      </trkpt>
      <trkpt lat="46.64385" lon="-1.84621">
        <ele>25</ele>
        <time>2019-02-21T15:35:58Z</time>
      </trkpt>
      <trkpt lat="46.64382" lon="-1.84613">
        <ele>26</ele>
        <time>2019-02-21T15:36:03Z</time>
      </trkpt>
      <trkpt lat="46.64379" lon="-1.84611">
        <ele>26</ele>
        <time>2019-02-21T15:36:06Z</time>
      </trkpt>
      <trkpt lat="46.64378" lon="-1.84609">
        <ele>26</ele>
        <time>2019-02-21T15:36:08Z</time>
      </trkpt>
      <trkpt lat="46.64375" lon="-1.84607">
        <ele>26</ele>
        <time>2019-02-21T15:36:11Z</time>
      </trkpt>
      <trkpt lat="46.64373" lon="-1.84605">
        <ele>26</ele>
        <time>2019-02-21T15:36:13Z</time>
      </trkpt>
      <trkpt lat="46.64371" lon="-1.84601">
        <ele>26</ele>
        <time>2019-02-21T15:36:16Z</time>
      </trkpt>
      <trkpt lat="46.6437" lon="-1.84598">
        <ele>26</ele>
        <time>2019-02-21T15:36:18Z</time>
      </trkpt>
      <trkpt lat="46.64368" lon="-1.84595">
        <ele>26</ele>
        <time>2019-02-21T15:36:20Z</time>
      </trkpt>
      <trkpt lat="46.64366" lon="-1.84592">
        <ele>26</ele>
        <time>2019-02-21T15:36:23Z</time>
      </trkpt>
      <trkpt lat="46.64365" lon="-1.84588">
        <ele>26</ele>
        <time>2019-02-21T15:36:25Z</time>
      </trkpt>
      <trkpt lat="46.64364" lon="-1.84585">
        <ele>26</ele>
        <time>2019-02-21T15:36:28Z</time>
      </trkpt>
      <trkpt lat="46.64361" lon="-1.84579">
        <ele>26</ele>
        <time>2019-02-21T15:36:33Z</time>
      </trkpt>
      <trkpt lat="46.64359" lon="-1.84575">
        <ele>26</ele>
        <time>2019-02-21T15:36:35Z</time>
      </trkpt>
      <trkpt lat="46.64358" lon="-1.84571">
        <ele>26</ele>
        <time>2019-02-21T15:36:38Z</time>
      </trkpt>
      <trkpt lat="46.64357" lon="-1.84567">
        <ele>26</ele>
        <time>2019-02-21T15:36:40Z</time>
      </trkpt>
      <trkpt lat="46.64356" lon="-1.84563">
        <ele>26</ele>
        <time>2019-02-21T15:36:43Z</time>
      </trkpt>
      <trkpt lat="46.64354" lon="-1.8456">
        <ele>26</ele>
        <time>2019-02-21T15:36:45Z</time>
      </trkpt>
      <trkpt lat="46.64352" lon="-1.84557">
        <ele>26</ele>
        <time>2019-02-21T15:36:48Z</time>
      </trkpt>
      <trkpt lat="46.64352" lon="-1.84554">
        <ele>26</ele>
        <time>2019-02-21T15:36:50Z</time>
      </trkpt>
      <trkpt lat="46.64352" lon="-1.84553">
        <ele>26</ele>
        <time>2019-02-21T15:36:53Z</time>
      </trkpt>
      <trkpt lat="46.64352" lon="-1.84553">
        <ele>26</ele>
        <time>2019-02-21T15:36:55Z</time>
      </trkpt>
      <trkpt lat="46.64352" lon="-1.84553">
        <ele>26</ele>
        <time>2019-02-21T15:36:58Z</time>
      </trkpt>
      <trkpt lat="46.64352" lon="-1.84552">
        <ele>26</ele>
        <time>2019-02-21T15:37:03Z</time>
      </trkpt>
      <trkpt lat="46.64352" lon="-1.84552">
        <ele>26</ele>
        <time>2019-02-21T15:37:06Z</time>
      </trkpt>
      <trkpt lat="46.64352" lon="-1.84552">
        <ele>26</ele>
        <time>2019-02-21T15:37:08Z</time>
      </trkpt>
      <trkpt lat="46.64352" lon="-1.84552">
        <ele>26</ele>
        <time>2019-02-21T15:37:11Z</time>
      </trkpt>
      <trkpt lat="46.64352" lon="-1.84552">
        <ele>26</ele>
        <time>2019-02-21T15:37:13Z</time>
      </trkpt>
      <trkpt lat="46.64352" lon="-1.84551">
        <ele>26</ele>
        <time>2019-02-21T15:37:16Z</time>
      </trkpt>
      <trkpt lat="46.64352" lon="-1.84551">
        <ele>26</ele>
        <time>2019-02-21T15:37:18Z</time>
      </trkpt>
      <trkpt lat="46.6435" lon="-1.84554">
        <ele>26</ele>
        <time>2019-02-21T15:37:21Z</time>
      </trkpt>
      <trkpt lat="46.64349" lon="-1.84556">
        <ele>26</ele>
        <time>2019-02-21T15:37:23Z</time>
      </trkpt>
      <trkpt lat="46.64346" lon="-1.84559">
        <ele>26</ele>
        <time>2019-02-21T15:37:26Z</time>
      </trkpt>
      <trkpt lat="46.64344" lon="-1.84561">
        <ele>26</ele>
        <time>2019-02-21T15:37:28Z</time>
      </trkpt>
      <trkpt lat="46.6434" lon="-1.84562">
        <ele>26</ele>
        <time>2019-02-21T15:37:33Z</time>
      </trkpt>
      <trkpt lat="46.64339" lon="-1.84563">
        <ele>26</ele>
        <time>2019-02-21T15:37:36Z</time>
      </trkpt>
      <trkpt lat="46.64339" lon="-1.84563">
        <ele>26</ele>
        <time>2019-02-21T15:37:38Z</time>
      </trkpt>
      <trkpt lat="46.64339" lon="-1.84563">
        <ele>26</ele>
        <time>2019-02-21T15:37:41Z</time>
      </trkpt>
      <trkpt lat="46.64339" lon="-1.84564">
        <ele>26</ele>
        <time>2019-02-21T15:37:44Z</time>
      </trkpt>
      <trkpt lat="46.64339" lon="-1.84564">
        <ele>26</ele>
        <time>2019-02-21T15:37:46Z</time>
      </trkpt>
      <trkpt lat="46.64338" lon="-1.84564">
        <ele>26</ele>
        <time>2019-02-21T15:37:49Z</time>
      </trkpt>
      <trkpt lat="46.64338" lon="-1.84564">
        <ele>26</ele>
        <time>2019-02-21T15:37:51Z</time>
      </trkpt>
      <trkpt lat="46.64338" lon="-1.84564">
        <ele>26</ele>
        <time>2019-02-21T15:37:54Z</time>
      </trkpt>
      <trkpt lat="46.64338" lon="-1.84564">
        <ele>26</ele>
        <time>2019-02-21T15:37:56Z</time>
      </trkpt>
      <trkpt lat="46.64338" lon="-1.84565">
        <ele>26</ele>
        <time>2019-02-21T15:37:59Z</time>
      </trkpt>
      <trkpt lat="46.64337" lon="-1.84566">
        <ele>26</ele>
        <time>2019-02-21T15:38:04Z</time>
      </trkpt>
      <trkpt lat="46.64337" lon="-1.84566">
        <ele>26</ele>
        <time>2019-02-21T15:38:06Z</time>
      </trkpt>
      <trkpt lat="46.64337" lon="-1.84566">
        <ele>26</ele>
        <time>2019-02-21T15:38:09Z</time>
      </trkpt>
      <trkpt lat="46.64337" lon="-1.84566">
        <ele>26</ele>
        <time>2019-02-21T15:38:11Z</time>
      </trkpt>
      <trkpt lat="46.64337" lon="-1.84567">
        <ele>26</ele>
        <time>2019-02-21T15:38:14Z</time>
      </trkpt>
      <trkpt lat="46.64337" lon="-1.84567">
        <ele>26</ele>
        <time>2019-02-21T15:38:16Z</time>
      </trkpt>
      <trkpt lat="46.64337" lon="-1.84563">
        <ele>26</ele>
        <time>2019-02-21T15:38:19Z</time>
      </trkpt>
      <trkpt lat="46.64336" lon="-1.8456">
        <ele>26</ele>
        <time>2019-02-21T15:38:21Z</time>
      </trkpt>
      <trkpt lat="46.64336" lon="-1.84554">
        <ele>26</ele>
        <time>2019-02-21T15:38:24Z</time>
      </trkpt>
      <trkpt lat="46.64336" lon="-1.8455">
        <ele>26</ele>
        <time>2019-02-21T15:38:26Z</time>
      </trkpt>
      <trkpt lat="46.64337" lon="-1.84544">
        <ele>26</ele>
        <time>2019-02-21T15:38:29Z</time>
      </trkpt>
      <trkpt lat="46.64339" lon="-1.84535">
        <ele>26</ele>
        <time>2019-02-21T15:38:34Z</time>
      </trkpt>
      <trkpt lat="46.64339" lon="-1.84531">
        <ele>26</ele>
        <time>2019-02-21T15:38:36Z</time>
      </trkpt>
      <trkpt lat="46.6434" lon="-1.84525">
        <ele>27</ele>
        <time>2019-02-21T15:38:39Z</time>
      </trkpt>
      <trkpt lat="46.6434" lon="-1.84519">
        <ele>27</ele>
        <time>2019-02-21T15:38:41Z</time>
      </trkpt>
      <trkpt lat="46.6434" lon="-1.84515">
        <ele>27</ele>
        <time>2019-02-21T15:38:44Z</time>
      </trkpt>
      <trkpt lat="46.64339" lon="-1.84509">
        <ele>27</ele>
        <time>2019-02-21T15:38:46Z</time>
      </trkpt>
      <trkpt lat="46.64339" lon="-1.84505">
        <ele>27</ele>
        <time>2019-02-21T15:38:49Z</time>
      </trkpt>
      <trkpt lat="46.64338" lon="-1.84499">
        <ele>27</ele>
        <time>2019-02-21T15:38:51Z</time>
      </trkpt>
      <trkpt lat="46.64338" lon="-1.84495">
        <ele>27</ele>
        <time>2019-02-21T15:38:54Z</time>
      </trkpt>
      <trkpt lat="46.64339" lon="-1.8449">
        <ele>27</ele>
        <time>2019-02-21T15:38:57Z</time>
      </trkpt>
      <trkpt lat="46.64341" lon="-1.84481">
        <ele>27</ele>
        <time>2019-02-21T15:39:02Z</time>
      </trkpt>
      <trkpt lat="46.64341" lon="-1.84477">
        <ele>27</ele>
        <time>2019-02-21T15:39:04Z</time>
      </trkpt>
      <trkpt lat="46.64342" lon="-1.84472">
        <ele>27</ele>
        <time>2019-02-21T15:39:07Z</time>
      </trkpt>
      <trkpt lat="46.64342" lon="-1.84468">
        <ele>27</ele>
        <time>2019-02-21T15:39:09Z</time>
      </trkpt>
      <trkpt lat="46.64342" lon="-1.84464">
        <ele>27</ele>
        <time>2019-02-21T15:39:12Z</time>
      </trkpt>
      <trkpt lat="46.64343" lon="-1.84463">
        <ele>27</ele>
        <time>2019-02-21T15:39:14Z</time>
      </trkpt>
      <trkpt lat="46.64344" lon="-1.84461">
        <ele>27</ele>
        <time>2019-02-21T15:39:17Z</time>
      </trkpt>
      <trkpt lat="46.64344" lon="-1.84458">
        <ele>27</ele>
        <time>2019-02-21T15:39:19Z</time>
      </trkpt>
      <trkpt lat="46.64346" lon="-1.84453">
        <ele>27</ele>
        <time>2019-02-21T15:39:22Z</time>
      </trkpt>
      <trkpt lat="46.64348" lon="-1.84451">
        <ele>27</ele>
        <time>2019-02-21T15:39:24Z</time>
      </trkpt>
      <trkpt lat="46.64349" lon="-1.8445">
        <ele>27</ele>
        <time>2019-02-21T15:39:27Z</time>
      </trkpt>
      <trkpt lat="46.64349" lon="-1.84449">
        <ele>27</ele>
        <time>2019-02-21T15:39:32Z</time>
      </trkpt>
      <trkpt lat="46.64349" lon="-1.84449">
        <ele>27</ele>
        <time>2019-02-21T15:39:34Z</time>
      </trkpt>
      <trkpt lat="46.64349" lon="-1.84449">
        <ele>27</ele>
        <time>2019-02-21T15:39:37Z</time>
      </trkpt>
      <trkpt lat="46.64349" lon="-1.84449">
        <ele>27</ele>
        <time>2019-02-21T15:39:39Z</time>
      </trkpt>
      <trkpt lat="46.6435" lon="-1.84446">
        <ele>27</ele>
        <time>2019-02-21T15:39:42Z</time>
      </trkpt>
      <trkpt lat="46.6435" lon="-1.84447">
        <ele>27</ele>
        <time>2019-02-21T15:39:44Z</time>
      </trkpt>
      <trkpt lat="46.6435" lon="-1.84444">
        <ele>27</ele>
        <time>2019-02-21T15:39:47Z</time>
      </trkpt>
      <trkpt lat="46.64351" lon="-1.84441">
        <ele>27</ele>
        <time>2019-02-21T15:39:49Z</time>
      </trkpt>
      <trkpt lat="46.64352" lon="-1.84435">
        <ele>27</ele>
        <time>2019-02-21T15:39:52Z</time>
      </trkpt>
      <trkpt lat="46.64353" lon="-1.84433">
        <ele>27</ele>
        <time>2019-02-21T15:39:54Z</time>
      </trkpt>
      <trkpt lat="46.64356" lon="-1.84428">
        <ele>27</ele>
        <time>2019-02-21T15:39:57Z</time>
      </trkpt>
      <trkpt lat="46.64358" lon="-1.84418">
        <ele>27</ele>
        <time>2019-02-21T15:40:02Z</time>
      </trkpt>
      <trkpt lat="46.64359" lon="-1.84413">
        <ele>27</ele>
        <time>2019-02-21T15:40:04Z</time>
      </trkpt>
      <trkpt lat="46.6436" lon="-1.84409">
        <ele>27</ele>
        <time>2019-02-21T15:40:07Z</time>
      </trkpt>
      <trkpt lat="46.64362" lon="-1.84404">
        <ele>27</ele>
        <time>2019-02-21T15:40:09Z</time>
      </trkpt>
      <trkpt lat="46.64363" lon="-1.844">
        <ele>27</ele>
        <time>2019-02-21T15:40:12Z</time>
      </trkpt>
      <trkpt lat="46.64364" lon="-1.84394">
        <ele>27</ele>
        <time>2019-02-21T15:40:14Z</time>
      </trkpt>
      <trkpt lat="46.64365" lon="-1.8439">
        <ele>27</ele>
        <time>2019-02-21T15:40:17Z</time>
      </trkpt>
      <trkpt lat="46.64366" lon="-1.84385">
        <ele>27</ele>
        <time>2019-02-21T15:40:19Z</time>
      </trkpt>
      <trkpt lat="46.64367" lon="-1.84381">
        <ele>27</ele>
        <time>2019-02-21T15:40:22Z</time>
      </trkpt>
      <trkpt lat="46.64368" lon="-1.84376">
        <ele>27</ele>
        <time>2019-02-21T15:40:24Z</time>
      </trkpt>
      <trkpt lat="46.64369" lon="-1.84373">
        <ele>27</ele>
        <time>2019-02-21T15:40:27Z</time>
      </trkpt>
      <trkpt lat="46.6437" lon="-1.84369">
        <ele>27</ele>
        <time>2019-02-21T15:40:32Z</time>
      </trkpt>
      <trkpt lat="46.6437" lon="-1.84366">
        <ele>27</ele>
        <time>2019-02-21T15:40:34Z</time>
      </trkpt>
      <trkpt lat="46.6437" lon="-1.84366">
        <ele>27</ele>
        <time>2019-02-21T15:40:37Z</time>
      </trkpt>
      <trkpt lat="46.6437" lon="-1.84365">
        <ele>27</ele>
        <time>2019-02-21T15:40:40Z</time>
      </trkpt>
      <trkpt lat="46.64371" lon="-1.84363">
        <ele>27</ele>
        <time>2019-02-21T15:40:42Z</time>
      </trkpt>
      <trkpt lat="46.6437" lon="-1.8436">
        <ele>27</ele>
        <time>2019-02-21T15:40:45Z</time>
      </trkpt>
      <trkpt lat="46.64369" lon="-1.84358">
        <ele>27</ele>
        <time>2019-02-21T15:40:47Z</time>
      </trkpt>
      <trkpt lat="46.64367" lon="-1.84356">
        <ele>27</ele>
        <time>2019-02-21T15:40:50Z</time>
      </trkpt>
      <trkpt lat="46.64366" lon="-1.84356">
        <ele>27</ele>
        <time>2019-02-21T15:40:52Z</time>
      </trkpt>
      <trkpt lat="46.64367" lon="-1.84354">
        <ele>27</ele>
        <time>2019-02-21T15:40:55Z</time>
      </trkpt>
      <trkpt lat="46.64368" lon="-1.84354">
        <ele>27</ele>
        <time>2019-02-21T15:40:57Z</time>
      </trkpt>
      <trkpt lat="46.64368" lon="-1.84355">
        <ele>27</ele>
        <time>2019-02-21T15:41:02Z</time>
      </trkpt>
      <trkpt lat="46.64368" lon="-1.84355">
        <ele>27</ele>
        <time>2019-02-21T15:41:05Z</time>
      </trkpt>
      <trkpt lat="46.64366" lon="-1.84356">
        <ele>27</ele>
        <time>2019-02-21T15:41:07Z</time>
      </trkpt>
      <trkpt lat="46.64364" lon="-1.84358">
        <ele>27</ele>
        <time>2019-02-21T15:41:10Z</time>
      </trkpt>
      <trkpt lat="46.6436" lon="-1.84358">
        <ele>27</ele>
        <time>2019-02-21T15:41:12Z</time>
      </trkpt>
      <trkpt lat="46.64358" lon="-1.84359">
        <ele>27</ele>
        <time>2019-02-21T15:41:15Z</time>
      </trkpt>
      <trkpt lat="46.64354" lon="-1.84358">
        <ele>27</ele>
        <time>2019-02-21T15:41:17Z</time>
      </trkpt>
      <trkpt lat="46.64351" lon="-1.84359">
        <ele>27</ele>
        <time>2019-02-21T15:41:20Z</time>
      </trkpt>
      <trkpt lat="46.64348" lon="-1.84359">
        <ele>27</ele>
        <time>2019-02-21T15:41:22Z</time>
      </trkpt>
      <trkpt lat="46.64345" lon="-1.84358">
        <ele>27</ele>
        <time>2019-02-21T15:41:25Z</time>
      </trkpt>
      <trkpt lat="46.64342" lon="-1.84358">
        <ele>28</ele>
        <time>2019-02-21T15:41:27Z</time>
      </trkpt>
      <trkpt lat="46.64336" lon="-1.84358">
        <ele>28</ele>
        <time>2019-02-21T15:41:32Z</time>
      </trkpt>
      <trkpt lat="46.64332" lon="-1.84358">
        <ele>28</ele>
        <time>2019-02-21T15:41:35Z</time>
      </trkpt>
      <trkpt lat="46.64329" lon="-1.84358">
        <ele>28</ele>
        <time>2019-02-21T15:41:37Z</time>
      </trkpt>
      <trkpt lat="46.64326" lon="-1.84358">
        <ele>28</ele>
        <time>2019-02-21T15:41:40Z</time>
      </trkpt>
      <trkpt lat="46.64323" lon="-1.84357">
        <ele>28</ele>
        <time>2019-02-21T15:41:42Z</time>
      </trkpt>
      <trkpt lat="46.64319" lon="-1.84357">
        <ele>28</ele>
        <time>2019-02-21T15:41:45Z</time>
      </trkpt>
      <trkpt lat="46.64317" lon="-1.84357">
        <ele>28</ele>
        <time>2019-02-21T15:41:47Z</time>
      </trkpt>
      <trkpt lat="46.64313" lon="-1.84355">
        <ele>28</ele>
        <time>2019-02-21T15:41:50Z</time>
      </trkpt>
      <trkpt lat="46.64311" lon="-1.84353">
        <ele>28</ele>
        <time>2019-02-21T15:41:52Z</time>
      </trkpt>
      <trkpt lat="46.64308" lon="-1.84349">
        <ele>28</ele>
        <time>2019-02-21T15:41:55Z</time>
      </trkpt>
      <trkpt lat="46.64303" lon="-1.84343">
        <ele>28</ele>
        <time>2019-02-21T15:42:00Z</time>
      </trkpt>
      <trkpt lat="46.64301" lon="-1.84339">
        <ele>28</ele>
        <time>2019-02-21T15:42:02Z</time>
      </trkpt>
      <trkpt lat="46.64299" lon="-1.84336">
        <ele>28</ele>
        <time>2019-02-21T15:42:05Z</time>
      </trkpt>
      <trkpt lat="46.64297" lon="-1.84332">
        <ele>28</ele>
        <time>2019-02-21T15:42:08Z</time>
      </trkpt>
      <trkpt lat="46.64295" lon="-1.8433">
        <ele>28</ele>
        <time>2019-02-21T15:42:10Z</time>
      </trkpt>
      <trkpt lat="46.64292" lon="-1.84326">
        <ele>28</ele>
        <time>2019-02-21T15:42:13Z</time>
      </trkpt>
      <trkpt lat="46.6429" lon="-1.84323">
        <ele>28</ele>
        <time>2019-02-21T15:42:15Z</time>
      </trkpt>
      <trkpt lat="46.64288" lon="-1.8432">
        <ele>28</ele>
        <time>2019-02-21T15:42:18Z</time>
      </trkpt>
      <trkpt lat="46.64287" lon="-1.84318">
        <ele>28</ele>
        <time>2019-02-21T15:42:20Z</time>
      </trkpt>
      <trkpt lat="46.64284" lon="-1.84314">
        <ele>28</ele>
        <time>2019-02-21T15:42:23Z</time>
      </trkpt>
      <trkpt lat="46.64281" lon="-1.84311">
        <ele>28</ele>
        <time>2019-02-21T15:42:25Z</time>
      </trkpt>
      <trkpt lat="46.64278" lon="-1.84305">
        <ele>29</ele>
        <time>2019-02-21T15:42:31Z</time>
      </trkpt>
      <trkpt lat="46.64276" lon="-1.84302">
        <ele>29</ele>
        <time>2019-02-21T15:42:33Z</time>
      </trkpt>
      <trkpt lat="46.64274" lon="-1.84298">
        <ele>29</ele>
        <time>2019-02-21T15:42:36Z</time>
      </trkpt>
      <trkpt lat="46.64272" lon="-1.84294">
        <ele>29</ele>
        <time>2019-02-21T15:42:38Z</time>
      </trkpt>
      <trkpt lat="46.6427" lon="-1.84291">
        <ele>29</ele>
        <time>2019-02-21T15:42:41Z</time>
      </trkpt>
      <trkpt lat="46.64268" lon="-1.84287">
        <ele>29</ele>
        <time>2019-02-21T15:42:43Z</time>
      </trkpt>
      <trkpt lat="46.64267" lon="-1.84285">
        <ele>29</ele>
        <time>2019-02-21T15:42:46Z</time>
      </trkpt>
      <trkpt lat="46.64264" lon="-1.84281">
        <ele>29</ele>
        <time>2019-02-21T15:42:49Z</time>
      </trkpt>
      <trkpt lat="46.64263" lon="-1.84278">
        <ele>29</ele>
        <time>2019-02-21T15:42:51Z</time>
      </trkpt>
      <trkpt lat="46.6426" lon="-1.84274">
        <ele>29</ele>
        <time>2019-02-21T15:42:54Z</time>
      </trkpt>
      <trkpt lat="46.64259" lon="-1.84271">
        <ele>29</ele>
        <time>2019-02-21T15:42:56Z</time>
      </trkpt>
      <trkpt lat="46.64256" lon="-1.84262">
        <ele>29</ele>
        <time>2019-02-21T15:43:01Z</time>
      </trkpt>
      <trkpt lat="46.64254" lon="-1.84257">
        <ele>29</ele>
        <time>2019-02-21T15:43:04Z</time>
      </trkpt>
      <trkpt lat="46.64253" lon="-1.84254">
        <ele>29</ele>
        <time>2019-02-21T15:43:06Z</time>
      </trkpt>
      <trkpt lat="46.64251" lon="-1.84249">
        <ele>29</ele>
        <time>2019-02-21T15:43:09Z</time>
      </trkpt>
      <trkpt lat="46.6425" lon="-1.84245">
        <ele>29</ele>
        <time>2019-02-21T15:43:11Z</time>
      </trkpt>
      <trkpt lat="46.64249" lon="-1.8424">
        <ele>30</ele>
        <time>2019-02-21T15:43:14Z</time>
      </trkpt>
      <trkpt lat="46.64248" lon="-1.84236">
        <ele>30</ele>
        <time>2019-02-21T15:43:16Z</time>
      </trkpt>
      <trkpt lat="46.64247" lon="-1.84232">
        <ele>30</ele>
        <time>2019-02-21T15:43:19Z</time>
      </trkpt>
      <trkpt lat="46.64246" lon="-1.84228">
        <ele>30</ele>
        <time>2019-02-21T15:43:21Z</time>
      </trkpt>
      <trkpt lat="46.64245" lon="-1.84224">
        <ele>30</ele>
        <time>2019-02-21T15:43:24Z</time>
      </trkpt>
      <trkpt lat="46.64245" lon="-1.8422">
        <ele>30</ele>
        <time>2019-02-21T15:43:26Z</time>
      </trkpt>
      <trkpt lat="46.64242" lon="-1.8421">
        <ele>30</ele>
        <time>2019-02-21T15:43:31Z</time>
      </trkpt>
      <trkpt lat="46.6424" lon="-1.84204">
        <ele>30</ele>
        <time>2019-02-21T15:43:34Z</time>
      </trkpt>
      <trkpt lat="46.64239" lon="-1.84201">
        <ele>30</ele>
        <time>2019-02-21T15:43:36Z</time>
      </trkpt>
      <trkpt lat="46.64238" lon="-1.84196">
        <ele>30</ele>
        <time>2019-02-21T15:43:39Z</time>
      </trkpt>
      <trkpt lat="46.64236" lon="-1.84192">
        <ele>30</ele>
        <time>2019-02-21T15:43:41Z</time>
      </trkpt>
      <trkpt lat="46.64235" lon="-1.84187">
        <ele>30</ele>
        <time>2019-02-21T15:43:44Z</time>
      </trkpt>
      <trkpt lat="46.64234" lon="-1.84184">
        <ele>30</ele>
        <time>2019-02-21T15:43:46Z</time>
      </trkpt>
      <trkpt lat="46.64232" lon="-1.84179">
        <ele>30</ele>
        <time>2019-02-21T15:43:49Z</time>
      </trkpt>
      <trkpt lat="46.6423" lon="-1.84174">
        <ele>30</ele>
        <time>2019-02-21T15:43:51Z</time>
      </trkpt>
      <trkpt lat="46.64229" lon="-1.84171">
        <ele>30</ele>
        <time>2019-02-21T15:43:54Z</time>
      </trkpt>
      <trkpt lat="46.64228" lon="-1.84166">
        <ele>30</ele>
        <time>2019-02-21T15:43:56Z</time>
      </trkpt>
      <trkpt lat="46.64225" lon="-1.84158">
        <ele>30</ele>
        <time>2019-02-21T15:44:02Z</time>
      </trkpt>
      <trkpt lat="46.64224" lon="-1.84155">
        <ele>30</ele>
        <time>2019-02-21T15:44:04Z</time>
      </trkpt>
      <trkpt lat="46.64223" lon="-1.84151">
        <ele>30</ele>
        <time>2019-02-21T15:44:07Z</time>
      </trkpt>
      <trkpt lat="46.64221" lon="-1.84148">
        <ele>30</ele>
        <time>2019-02-21T15:44:09Z</time>
      </trkpt>
      <trkpt lat="46.6422" lon="-1.84144">
        <ele>30</ele>
        <time>2019-02-21T15:44:12Z</time>
      </trkpt>
      <trkpt lat="46.64219" lon="-1.84141">
        <ele>30</ele>
        <time>2019-02-21T15:44:14Z</time>
      </trkpt>
      <trkpt lat="46.64218" lon="-1.84137">
        <ele>30</ele>
        <time>2019-02-21T15:44:17Z</time>
      </trkpt>
      <trkpt lat="46.64217" lon="-1.84133">
        <ele>30</ele>
        <time>2019-02-21T15:44:19Z</time>
      </trkpt>
      <trkpt lat="46.64215" lon="-1.84128">
        <ele>30</ele>
        <time>2019-02-21T15:44:22Z</time>
      </trkpt>
      <trkpt lat="46.64214" lon="-1.84124">
        <ele>30</ele>
        <time>2019-02-21T15:44:24Z</time>
      </trkpt>
      <trkpt lat="46.64213" lon="-1.84119">
        <ele>30</ele>
        <time>2019-02-21T15:44:27Z</time>
      </trkpt>
      <trkpt lat="46.64213" lon="-1.8411">
        <ele>30</ele>
        <time>2019-02-21T15:44:32Z</time>
      </trkpt>
      <trkpt lat="46.64212" lon="-1.84107">
        <ele>30</ele>
        <time>2019-02-21T15:44:34Z</time>
      </trkpt>
      <trkpt lat="46.64212" lon="-1.84103">
        <ele>30</ele>
        <time>2019-02-21T15:44:37Z</time>
      </trkpt>
      <trkpt lat="46.64211" lon="-1.84099">
        <ele>30</ele>
        <time>2019-02-21T15:44:39Z</time>
      </trkpt>
      <trkpt lat="46.64211" lon="-1.84094">
        <ele>30</ele>
        <time>2019-02-21T15:44:41Z</time>
      </trkpt>
      <trkpt lat="46.6421" lon="-1.84091">
        <ele>30</ele>
        <time>2019-02-21T15:44:44Z</time>
      </trkpt>
      <trkpt lat="46.64209" lon="-1.84086">
        <ele>30</ele>
        <time>2019-02-21T15:44:46Z</time>
      </trkpt>
      <trkpt lat="46.64209" lon="-1.84083">
        <ele>30</ele>
        <time>2019-02-21T15:44:49Z</time>
      </trkpt>
      <trkpt lat="46.64208" lon="-1.84079">
        <ele>30</ele>
        <time>2019-02-21T15:44:51Z</time>
      </trkpt>
      <trkpt lat="46.64207" lon="-1.84076">
        <ele>30</ele>
        <time>2019-02-21T15:44:54Z</time>
      </trkpt>
      <trkpt lat="46.64206" lon="-1.84068">
        <ele>30</ele>
        <time>2019-02-21T15:44:59Z</time>
      </trkpt>
      <trkpt lat="46.64205" lon="-1.84063">
        <ele>30</ele>
        <time>2019-02-21T15:45:01Z</time>
      </trkpt>
      <trkpt lat="46.64205" lon="-1.84059">
        <ele>30</ele>
        <time>2019-02-21T15:45:04Z</time>
      </trkpt>
      <trkpt lat="46.64204" lon="-1.84053">
        <ele>30</ele>
        <time>2019-02-21T15:45:06Z</time>
      </trkpt>
      <trkpt lat="46.64204" lon="-1.84049">
        <ele>30</ele>
        <time>2019-02-21T15:45:09Z</time>
      </trkpt>
      <trkpt lat="46.64203" lon="-1.84044">
        <ele>30</ele>
        <time>2019-02-21T15:45:11Z</time>
      </trkpt>
      <trkpt lat="46.64203" lon="-1.84041">
        <ele>30</ele>
        <time>2019-02-21T15:45:14Z</time>
      </trkpt>
      <trkpt lat="46.64203" lon="-1.84036">
        <ele>30</ele>
        <time>2019-02-21T15:45:17Z</time>
      </trkpt>
      <trkpt lat="46.64202" lon="-1.84033">
        <ele>30</ele>
        <time>2019-02-21T15:45:19Z</time>
      </trkpt>
      <trkpt lat="46.64202" lon="-1.8403">
        <ele>30</ele>
        <time>2019-02-21T15:45:22Z</time>
      </trkpt>
      <trkpt lat="46.64202" lon="-1.84027">
        <ele>30</ele>
        <time>2019-02-21T15:45:24Z</time>
      </trkpt>
      <trkpt lat="46.64202" lon="-1.84021">
        <ele>30</ele>
        <time>2019-02-21T15:45:29Z</time>
      </trkpt>
      <trkpt lat="46.64202" lon="-1.84016">
        <ele>30</ele>
        <time>2019-02-21T15:45:32Z</time>
      </trkpt>
      <trkpt lat="46.64201" lon="-1.84013">
        <ele>30</ele>
        <time>2019-02-21T15:45:34Z</time>
      </trkpt>
      <trkpt lat="46.64201" lon="-1.84008">
        <ele>31</ele>
        <time>2019-02-21T15:45:37Z</time>
      </trkpt>
      <trkpt lat="46.642" lon="-1.84005">
        <ele>31</ele>
        <time>2019-02-21T15:45:39Z</time>
      </trkpt>
      <trkpt lat="46.642" lon="-1.84001">
        <ele>31</ele>
        <time>2019-02-21T15:45:42Z</time>
      </trkpt>
      <trkpt lat="46.642" lon="-1.83998">
        <ele>31</ele>
        <time>2019-02-21T15:45:44Z</time>
      </trkpt>
      <trkpt lat="46.64199" lon="-1.83993">
        <ele>31</ele>
        <time>2019-02-21T15:45:47Z</time>
      </trkpt>
      <trkpt lat="46.64199" lon="-1.83988">
        <ele>31</ele>
        <time>2019-02-21T15:45:49Z</time>
      </trkpt>
      <trkpt lat="46.64199" lon="-1.83985">
        <ele>31</ele>
        <time>2019-02-21T15:45:52Z</time>
      </trkpt>
      <trkpt lat="46.64199" lon="-1.8398">
        <ele>31</ele>
        <time>2019-02-21T15:45:54Z</time>
      </trkpt>
      <trkpt lat="46.64199" lon="-1.83973">
        <ele>31</ele>
        <time>2019-02-21T15:45:59Z</time>
      </trkpt>
      <trkpt lat="46.64198" lon="-1.83969">
        <ele>31</ele>
        <time>2019-02-21T15:46:02Z</time>
      </trkpt>
      <trkpt lat="46.64199" lon="-1.83963">
        <ele>31</ele>
        <time>2019-02-21T15:46:05Z</time>
      </trkpt>
      <trkpt lat="46.64198" lon="-1.8396">
        <ele>31</ele>
        <time>2019-02-21T15:46:07Z</time>
      </trkpt>
      <trkpt lat="46.64198" lon="-1.83955">
        <ele>31</ele>
        <time>2019-02-21T15:46:10Z</time>
      </trkpt>
      <trkpt lat="46.64198" lon="-1.83949">
        <ele>31</ele>
        <time>2019-02-21T15:46:12Z</time>
      </trkpt>
      <trkpt lat="46.64198" lon="-1.83945">
        <ele>31</ele>
        <time>2019-02-21T15:46:15Z</time>
      </trkpt>
      <trkpt lat="46.64198" lon="-1.83941">
        <ele>31</ele>
        <time>2019-02-21T15:46:17Z</time>
      </trkpt>
      <trkpt lat="46.64198" lon="-1.83938">
        <ele>31</ele>
        <time>2019-02-21T15:46:20Z</time>
      </trkpt>
      <trkpt lat="46.64198" lon="-1.83933">
        <ele>31</ele>
        <time>2019-02-21T15:46:22Z</time>
      </trkpt>
      <trkpt lat="46.64198" lon="-1.8393">
        <ele>31</ele>
        <time>2019-02-21T15:46:25Z</time>
      </trkpt>
      <trkpt lat="46.64197" lon="-1.83921">
        <ele>31</ele>
        <time>2019-02-21T15:46:30Z</time>
      </trkpt>
      <trkpt lat="46.64197" lon="-1.83916">
        <ele>31</ele>
        <time>2019-02-21T15:46:33Z</time>
      </trkpt>
      <trkpt lat="46.64197" lon="-1.83913">
        <ele>31</ele>
        <time>2019-02-21T15:46:35Z</time>
      </trkpt>
      <trkpt lat="46.64197" lon="-1.83908">
        <ele>31</ele>
        <time>2019-02-21T15:46:38Z</time>
      </trkpt>
      <trkpt lat="46.64197" lon="-1.83905">
        <ele>31</ele>
        <time>2019-02-21T15:46:40Z</time>
      </trkpt>
      <trkpt lat="46.64196" lon="-1.839">
        <ele>31</ele>
        <time>2019-02-21T15:46:43Z</time>
      </trkpt>
      <trkpt lat="46.64196" lon="-1.83897">
        <ele>31</ele>
        <time>2019-02-21T15:46:45Z</time>
      </trkpt>
      <trkpt lat="46.64195" lon="-1.83892">
        <ele>31</ele>
        <time>2019-02-21T15:46:48Z</time>
      </trkpt>
      <trkpt lat="46.64195" lon="-1.83887">
        <ele>31</ele>
        <time>2019-02-21T15:46:50Z</time>
      </trkpt>
      <trkpt lat="46.64195" lon="-1.83885">
        <ele>31</ele>
        <time>2019-02-21T15:46:53Z</time>
      </trkpt>
      <trkpt lat="46.64194" lon="-1.8388">
        <ele>31</ele>
        <time>2019-02-21T15:46:55Z</time>
      </trkpt>
      <trkpt lat="46.64194" lon="-1.83869">
        <ele>31</ele>
        <time>2019-02-21T15:47:00Z</time>
      </trkpt>
      <trkpt lat="46.64193" lon="-1.83865">
        <ele>31</ele>
        <time>2019-02-21T15:47:03Z</time>
      </trkpt>
      <trkpt lat="46.64193" lon="-1.83861">
        <ele>31</ele>
        <time>2019-02-21T15:47:06Z</time>
      </trkpt>
      <trkpt lat="46.64193" lon="-1.83857">
        <ele>31</ele>
        <time>2019-02-21T15:47:08Z</time>
      </trkpt>
      <trkpt lat="46.64192" lon="-1.83854">
        <ele>31</ele>
        <time>2019-02-21T15:47:11Z</time>
      </trkpt>
      <trkpt lat="46.64192" lon="-1.83852">
        <ele>31</ele>
        <time>2019-02-21T15:47:13Z</time>
      </trkpt>
      <trkpt lat="46.64192" lon="-1.83848">
        <ele>31</ele>
        <time>2019-02-21T15:47:16Z</time>
      </trkpt>
      <trkpt lat="46.64193" lon="-1.83845">
        <ele>31</ele>
        <time>2019-02-21T15:47:18Z</time>
      </trkpt>
      <trkpt lat="46.64192" lon="-1.83841">
        <ele>31</ele>
        <time>2019-02-21T15:47:21Z</time>
      </trkpt>
      <trkpt lat="46.64193" lon="-1.83837">
        <ele>31</ele>
        <time>2019-02-21T15:47:23Z</time>
      </trkpt>
      <trkpt lat="46.64193" lon="-1.83833">
        <ele>31</ele>
        <time>2019-02-21T15:47:26Z</time>
      </trkpt>
      <trkpt lat="46.64192" lon="-1.83823">
        <ele>31</ele>
        <time>2019-02-21T15:47:31Z</time>
      </trkpt>
      <trkpt lat="46.64192" lon="-1.83818">
        <ele>31</ele>
        <time>2019-02-21T15:47:33Z</time>
      </trkpt>
      <trkpt lat="46.64192" lon="-1.83815">
        <ele>31</ele>
        <time>2019-02-21T15:47:36Z</time>
      </trkpt>
      <trkpt lat="46.64192" lon="-1.8381">
        <ele>31</ele>
        <time>2019-02-21T15:47:39Z</time>
      </trkpt>
      <trkpt lat="46.64191" lon="-1.83805">
        <ele>31</ele>
        <time>2019-02-21T15:47:41Z</time>
      </trkpt>
      <trkpt lat="46.64191" lon="-1.838">
        <ele>31</ele>
        <time>2019-02-21T15:47:44Z</time>
      </trkpt>
      <trkpt lat="46.6419" lon="-1.83797">
        <ele>31</ele>
        <time>2019-02-21T15:47:46Z</time>
      </trkpt>
      <trkpt lat="46.6419" lon="-1.83791">
        <ele>31</ele>
        <time>2019-02-21T15:47:49Z</time>
      </trkpt>
      <trkpt lat="46.64189" lon="-1.83787">
        <ele>31</ele>
        <time>2019-02-21T15:47:51Z</time>
      </trkpt>
      <trkpt lat="46.64188" lon="-1.83781">
        <ele>31</ele>
        <time>2019-02-21T15:47:54Z</time>
      </trkpt>
      <trkpt lat="46.64187" lon="-1.8377">
        <ele>31</ele>
        <time>2019-02-21T15:47:59Z</time>
      </trkpt>
      <trkpt lat="46.64187" lon="-1.83765">
        <ele>31</ele>
        <time>2019-02-21T15:48:01Z</time>
      </trkpt>
      <trkpt lat="46.64186" lon="-1.8376">
        <ele>31</ele>
        <time>2019-02-21T15:48:04Z</time>
      </trkpt>
      <trkpt lat="46.64186" lon="-1.83755">
        <ele>31</ele>
        <time>2019-02-21T15:48:06Z</time>
      </trkpt>
      <trkpt lat="46.64186" lon="-1.83752">
        <ele>31</ele>
        <time>2019-02-21T15:48:09Z</time>
      </trkpt>
      <trkpt lat="46.64185" lon="-1.83747">
        <ele>31</ele>
        <time>2019-02-21T15:48:11Z</time>
      </trkpt>
      <trkpt lat="46.64185" lon="-1.83743">
        <ele>31</ele>
        <time>2019-02-21T15:48:14Z</time>
      </trkpt>
      <trkpt lat="46.64185" lon="-1.83738">
        <ele>31</ele>
        <time>2019-02-21T15:48:16Z</time>
      </trkpt>
      <trkpt lat="46.64185" lon="-1.83737">
        <ele>31</ele>
        <time>2019-02-21T15:48:19Z</time>
      </trkpt>
      <trkpt lat="46.64184" lon="-1.83736">
        <ele>31</ele>
        <time>2019-02-21T15:48:21Z</time>
      </trkpt>
      <trkpt lat="46.64182" lon="-1.83734">
        <ele>31</ele>
        <time>2019-02-21T15:48:24Z</time>
      </trkpt>
      <trkpt lat="46.64182" lon="-1.8373">
        <ele>31</ele>
        <time>2019-02-21T15:48:29Z</time>
      </trkpt>
      <trkpt lat="46.64182" lon="-1.83729">
        <ele>31</ele>
        <time>2019-02-21T15:48:31Z</time>
      </trkpt>
      <trkpt lat="46.64182" lon="-1.83729">
        <ele>31</ele>
        <time>2019-02-21T15:48:34Z</time>
      </trkpt>
      <trkpt lat="46.64182" lon="-1.83731">
        <ele>31</ele>
        <time>2019-02-21T15:48:36Z</time>
      </trkpt>
      <trkpt lat="46.64182" lon="-1.83734">
        <ele>31</ele>
        <time>2019-02-21T15:48:39Z</time>
      </trkpt>
      <trkpt lat="46.64182" lon="-1.83737">
        <ele>31</ele>
        <time>2019-02-21T15:48:41Z</time>
      </trkpt>
      <trkpt lat="46.64183" lon="-1.83737">
        <ele>31</ele>
        <time>2019-02-21T15:48:44Z</time>
      </trkpt>
      <trkpt lat="46.64183" lon="-1.83737">
        <ele>31</ele>
        <time>2019-02-21T15:48:46Z</time>
      </trkpt>
      <trkpt lat="46.64184" lon="-1.83737">
        <ele>31</ele>
        <time>2019-02-21T15:48:49Z</time>
      </trkpt>
      <trkpt lat="46.64183" lon="-1.83734">
        <ele>31</ele>
        <time>2019-02-21T15:48:51Z</time>
      </trkpt>
      <trkpt lat="46.64184" lon="-1.83731">
        <ele>31</ele>
        <time>2019-02-21T15:48:54Z</time>
      </trkpt>
      <trkpt lat="46.64184" lon="-1.83729">
        <ele>31</ele>
        <time>2019-02-21T15:48:59Z</time>
      </trkpt>
      <trkpt lat="46.64184" lon="-1.83725">
        <ele>31</ele>
        <time>2019-02-21T15:49:02Z</time>
      </trkpt>
      <trkpt lat="46.64184" lon="-1.83722">
        <ele>31</ele>
        <time>2019-02-21T15:49:04Z</time>
      </trkpt>
      <trkpt lat="46.64183" lon="-1.83718">
        <ele>30</ele>
        <time>2019-02-21T15:49:07Z</time>
      </trkpt>
      <trkpt lat="46.64183" lon="-1.83715">
        <ele>30</ele>
        <time>2019-02-21T15:49:09Z</time>
      </trkpt>
      <trkpt lat="46.64182" lon="-1.83711">
        <ele>30</ele>
        <time>2019-02-21T15:49:12Z</time>
      </trkpt>
      <trkpt lat="46.64182" lon="-1.83709">
        <ele>30</ele>
        <time>2019-02-21T15:49:14Z</time>
      </trkpt>
      <trkpt lat="46.64181" lon="-1.83704">
        <ele>30</ele>
        <time>2019-02-21T15:49:17Z</time>
      </trkpt>
      <trkpt lat="46.6418" lon="-1.83701">
        <ele>30</ele>
        <time>2019-02-21T15:49:19Z</time>
      </trkpt>
      <trkpt lat="46.6418" lon="-1.83697">
        <ele>30</ele>
        <time>2019-02-21T15:49:22Z</time>
      </trkpt>
      <trkpt lat="46.6418" lon="-1.83695">
        <ele>30</ele>
        <time>2019-02-21T15:49:24Z</time>
      </trkpt>
      <trkpt lat="46.64178" lon="-1.83687">
        <ele>30</ele>
        <time>2019-02-21T15:49:29Z</time>
      </trkpt>
      <trkpt lat="46.64178" lon="-1.83682">
        <ele>30</ele>
        <time>2019-02-21T15:49:32Z</time>
      </trkpt>
      <trkpt lat="46.64178" lon="-1.8368">
        <ele>30</ele>
        <time>2019-02-21T15:49:34Z</time>
      </trkpt>
      <trkpt lat="46.64178" lon="-1.83678">
        <ele>30</ele>
        <time>2019-02-21T15:49:37Z</time>
      </trkpt>
      <trkpt lat="46.64176" lon="-1.83675">
        <ele>30</ele>
        <time>2019-02-21T15:49:39Z</time>
      </trkpt>
      <trkpt lat="46.64176" lon="-1.83669">
        <ele>30</ele>
        <time>2019-02-21T15:49:42Z</time>
      </trkpt>
      <trkpt lat="46.64175" lon="-1.83666">
        <ele>30</ele>
        <time>2019-02-21T15:49:44Z</time>
      </trkpt>
      <trkpt lat="46.64175" lon="-1.83661">
        <ele>30</ele>
        <time>2019-02-21T15:49:47Z</time>
      </trkpt>
      <trkpt lat="46.64174" lon="-1.83658">
        <ele>30</ele>
        <time>2019-02-21T15:49:49Z</time>
      </trkpt>
      <trkpt lat="46.64173" lon="-1.83652">
        <ele>30</ele>
        <time>2019-02-21T15:49:52Z</time>
      </trkpt>
      <trkpt lat="46.64173" lon="-1.83648">
        <ele>30</ele>
        <time>2019-02-21T15:49:54Z</time>
      </trkpt>
      <trkpt lat="46.64172" lon="-1.8364">
        <ele>30</ele>
        <time>2019-02-21T15:49:59Z</time>
      </trkpt>
      <trkpt lat="46.64171" lon="-1.83634">
        <ele>30</ele>
        <time>2019-02-21T15:50:02Z</time>
      </trkpt>
      <trkpt lat="46.64171" lon="-1.83631">
        <ele>30</ele>
        <time>2019-02-21T15:50:04Z</time>
      </trkpt>
      <trkpt lat="46.64171" lon="-1.83625">
        <ele>30</ele>
        <time>2019-02-21T15:50:06Z</time>
      </trkpt>
      <trkpt lat="46.6417" lon="-1.8362">
        <ele>30</ele>
        <time>2019-02-21T15:50:09Z</time>
      </trkpt>
      <trkpt lat="46.6417" lon="-1.83614">
        <ele>30</ele>
        <time>2019-02-21T15:50:12Z</time>
      </trkpt>
      <trkpt lat="46.6417" lon="-1.8361">
        <ele>30</ele>
        <time>2019-02-21T15:50:14Z</time>
      </trkpt>
      <trkpt lat="46.64169" lon="-1.83604">
        <ele>30</ele>
        <time>2019-02-21T15:50:16Z</time>
      </trkpt>
      <trkpt lat="46.64169" lon="-1.836">
        <ele>30</ele>
        <time>2019-02-21T15:50:19Z</time>
      </trkpt>
      <trkpt lat="46.64169" lon="-1.83594">
        <ele>30</ele>
        <time>2019-02-21T15:50:21Z</time>
      </trkpt>
      <trkpt lat="46.64169" lon="-1.8359">
        <ele>30</ele>
        <time>2019-02-21T15:50:24Z</time>
      </trkpt>
      <trkpt lat="46.64169" lon="-1.8358">
        <ele>30</ele>
        <time>2019-02-21T15:50:29Z</time>
      </trkpt>
      <trkpt lat="46.64169" lon="-1.83574">
        <ele>30</ele>
        <time>2019-02-21T15:50:31Z</time>
      </trkpt>
      <trkpt lat="46.64169" lon="-1.8357">
        <ele>30</ele>
        <time>2019-02-21T15:50:34Z</time>
      </trkpt>
      <trkpt lat="46.64169" lon="-1.83565">
        <ele>30</ele>
        <time>2019-02-21T15:50:37Z</time>
      </trkpt>
      <trkpt lat="46.64169" lon="-1.83561">
        <ele>30</ele>
        <time>2019-02-21T15:50:39Z</time>
      </trkpt>
      <trkpt lat="46.64169" lon="-1.83555">
        <ele>30</ele>
        <time>2019-02-21T15:50:42Z</time>
      </trkpt>
      <trkpt lat="46.64169" lon="-1.83551">
        <ele>30</ele>
        <time>2019-02-21T15:50:44Z</time>
      </trkpt>
      <trkpt lat="46.64169" lon="-1.83545">
        <ele>30</ele>
        <time>2019-02-21T15:50:47Z</time>
      </trkpt>
      <trkpt lat="46.64169" lon="-1.83541">
        <ele>30</ele>
        <time>2019-02-21T15:50:49Z</time>
      </trkpt>
      <trkpt lat="46.64169" lon="-1.83535">
        <ele>31</ele>
        <time>2019-02-21T15:50:52Z</time>
      </trkpt>
      <trkpt lat="46.64169" lon="-1.83531">
        <ele>31</ele>
        <time>2019-02-21T15:50:54Z</time>
      </trkpt>
      <trkpt lat="46.64169" lon="-1.83522">
        <ele>31</ele>
        <time>2019-02-21T15:50:59Z</time>
      </trkpt>
      <trkpt lat="46.64169" lon="-1.83516">
        <ele>31</ele>
        <time>2019-02-21T15:51:02Z</time>
      </trkpt>
      <trkpt lat="46.64169" lon="-1.8351">
        <ele>31</ele>
        <time>2019-02-21T15:51:04Z</time>
      </trkpt>
      <trkpt lat="46.64169" lon="-1.83506">
        <ele>31</ele>
        <time>2019-02-21T15:51:07Z</time>
      </trkpt>
      <trkpt lat="46.64169" lon="-1.83501">
        <ele>31</ele>
        <time>2019-02-21T15:51:10Z</time>
      </trkpt>
      <trkpt lat="46.64169" lon="-1.83497">
        <ele>31</ele>
        <time>2019-02-21T15:51:12Z</time>
      </trkpt>
      <trkpt lat="46.64169" lon="-1.83493">
        <ele>31</ele>
        <time>2019-02-21T15:51:15Z</time>
      </trkpt>
      <trkpt lat="46.64169" lon="-1.8349">
        <ele>31</ele>
        <time>2019-02-21T15:51:17Z</time>
      </trkpt>
      <trkpt lat="46.6417" lon="-1.83488">
        <ele>31</ele>
        <time>2019-02-21T15:51:20Z</time>
      </trkpt>
      <trkpt lat="46.64169" lon="-1.83486">
        <ele>31</ele>
        <time>2019-02-21T15:51:22Z</time>
      </trkpt>
      <trkpt lat="46.6417" lon="-1.83485">
        <ele>31</ele>
        <time>2019-02-21T15:51:27Z</time>
      </trkpt>
      <trkpt lat="46.6417" lon="-1.83484">
        <ele>31</ele>
        <time>2019-02-21T15:51:30Z</time>
      </trkpt>
      <trkpt lat="46.64171" lon="-1.83485">
        <ele>31</ele>
        <time>2019-02-21T15:51:32Z</time>
      </trkpt>
      <trkpt lat="46.6417" lon="-1.83485">
        <ele>31</ele>
        <time>2019-02-21T15:51:35Z</time>
      </trkpt>
      <trkpt lat="46.6417" lon="-1.83486">
        <ele>31</ele>
        <time>2019-02-21T15:51:38Z</time>
      </trkpt>
      <trkpt lat="46.6417" lon="-1.83486">
        <ele>31</ele>
        <time>2019-02-21T15:51:40Z</time>
      </trkpt>
      <trkpt lat="46.64169" lon="-1.83486">
        <ele>31</ele>
        <time>2019-02-21T15:51:43Z</time>
      </trkpt>
      <trkpt lat="46.64169" lon="-1.83487">
        <ele>31</ele>
        <time>2019-02-21T15:51:45Z</time>
      </trkpt>
      <trkpt lat="46.64169" lon="-1.83487">
        <ele>31</ele>
        <time>2019-02-21T15:51:48Z</time>
      </trkpt>
      <trkpt lat="46.64168" lon="-1.83488">
        <ele>31</ele>
        <time>2019-02-21T15:51:50Z</time>
      </trkpt>
      <trkpt lat="46.64168" lon="-1.83488">
        <ele>31</ele>
        <time>2019-02-21T15:51:53Z</time>
      </trkpt>
      <trkpt lat="46.64168" lon="-1.83488">
        <ele>31</ele>
        <time>2019-02-21T15:51:58Z</time>
      </trkpt>
      <trkpt lat="46.64168" lon="-1.83488">
        <ele>31</ele>
        <time>2019-02-21T15:52:01Z</time>
      </trkpt>
      <trkpt lat="46.64168" lon="-1.83488">
        <ele>31</ele>
        <time>2019-02-21T15:52:03Z</time>
      </trkpt>
      <trkpt lat="46.64168" lon="-1.83488">
        <ele>31</ele>
        <time>2019-02-21T15:52:06Z</time>
      </trkpt>
      <trkpt lat="46.64168" lon="-1.83488">
        <ele>31</ele>
        <time>2019-02-21T15:52:08Z</time>
      </trkpt>
      <trkpt lat="46.64168" lon="-1.83488">
        <ele>31</ele>
        <time>2019-02-21T15:52:11Z</time>
      </trkpt>
      <trkpt lat="46.64168" lon="-1.83489">
        <ele>31</ele>
        <time>2019-02-21T15:52:13Z</time>
      </trkpt>
      <trkpt lat="46.64168" lon="-1.83489">
        <ele>31</ele>
        <time>2019-02-21T15:52:16Z</time>
      </trkpt>
      <trkpt lat="46.64168" lon="-1.83489">
        <ele>31</ele>
        <time>2019-02-21T15:52:18Z</time>
      </trkpt>
      <trkpt lat="46.64168" lon="-1.83488">
        <ele>31</ele>
        <time>2019-02-21T15:52:21Z</time>
      </trkpt>
      <trkpt lat="46.64167" lon="-1.83488">
        <ele>31</ele>
        <time>2019-02-21T15:52:23Z</time>
      </trkpt>
      <trkpt lat="46.64168" lon="-1.83488">
        <ele>31</ele>
        <time>2019-02-21T15:52:28Z</time>
      </trkpt>
      <trkpt lat="46.64168" lon="-1.83487">
        <ele>31</ele>
        <time>2019-02-21T15:52:31Z</time>
      </trkpt>
      <trkpt lat="46.64168" lon="-1.83487">
        <ele>31</ele>
        <time>2019-02-21T15:52:33Z</time>
      </trkpt>
      <trkpt lat="46.64168" lon="-1.83487">
        <ele>31</ele>
        <time>2019-02-21T15:52:36Z</time>
      </trkpt>
      <trkpt lat="46.64168" lon="-1.83487">
        <ele>31</ele>
        <time>2019-02-21T15:52:39Z</time>
      </trkpt>
      <trkpt lat="46.64167" lon="-1.83489">
        <ele>31</ele>
        <time>2019-02-21T15:52:41Z</time>
      </trkpt>
      <trkpt lat="46.64166" lon="-1.8349">
        <ele>31</ele>
        <time>2019-02-21T15:52:44Z</time>
      </trkpt>
      <trkpt lat="46.64166" lon="-1.83491">
        <ele>31</ele>
        <time>2019-02-21T15:52:46Z</time>
      </trkpt>
      <trkpt lat="46.64166" lon="-1.83492">
        <ele>31</ele>
        <time>2019-02-21T15:52:49Z</time>
      </trkpt>
      <trkpt lat="46.64166" lon="-1.83492">
        <ele>31</ele>
        <time>2019-02-21T15:52:51Z</time>
      </trkpt>
      <trkpt lat="46.64166" lon="-1.83492">
        <ele>31</ele>
        <time>2019-02-21T15:52:54Z</time>
      </trkpt>
      <trkpt lat="46.64166" lon="-1.83492">
        <ele>31</ele>
        <time>2019-02-21T15:52:59Z</time>
      </trkpt>
      <trkpt lat="46.64166" lon="-1.83492">
        <ele>31</ele>
        <time>2019-02-21T15:53:01Z</time>
      </trkpt>
      <trkpt lat="46.64166" lon="-1.83492">
        <ele>31</ele>
        <time>2019-02-21T15:53:04Z</time>
      </trkpt>
      <trkpt lat="46.64166" lon="-1.83491">
        <ele>31</ele>
        <time>2019-02-21T15:53:07Z</time>
      </trkpt>
      <trkpt lat="46.64166" lon="-1.83491">
        <ele>31</ele>
        <time>2019-02-21T15:53:09Z</time>
      </trkpt>
      <trkpt lat="46.64166" lon="-1.83492">
        <ele>31</ele>
        <time>2019-02-21T15:53:12Z</time>
      </trkpt>
      <trkpt lat="46.64166" lon="-1.83493">
        <ele>31</ele>
        <time>2019-02-21T15:53:14Z</time>
      </trkpt>
      <trkpt lat="46.64164" lon="-1.83498">
        <ele>31</ele>
        <time>2019-02-21T15:53:17Z</time>
      </trkpt>
      <trkpt lat="46.64162" lon="-1.83502">
        <ele>31</ele>
        <time>2019-02-21T15:53:19Z</time>
      </trkpt>
      <trkpt lat="46.64161" lon="-1.83504">
        <ele>31</ele>
        <time>2019-02-21T15:53:22Z</time>
      </trkpt>
      <trkpt lat="46.6416" lon="-1.83506">
        <ele>31</ele>
        <time>2019-02-21T15:53:25Z</time>
      </trkpt>
      <trkpt lat="46.64156" lon="-1.83513">
        <ele>31</ele>
        <time>2019-02-21T15:53:30Z</time>
      </trkpt>
      <trkpt lat="46.64155" lon="-1.83517">
        <ele>31</ele>
        <time>2019-02-21T15:53:32Z</time>
      </trkpt>
      <trkpt lat="46.64153" lon="-1.83519">
        <ele>31</ele>
        <time>2019-02-21T15:53:35Z</time>
      </trkpt>
      <trkpt lat="46.64151" lon="-1.83523">
        <ele>31</ele>
        <time>2019-02-21T15:53:37Z</time>
      </trkpt>
      <trkpt lat="46.6415" lon="-1.83526">
        <ele>31</ele>
        <time>2019-02-21T15:53:40Z</time>
      </trkpt>
      <trkpt lat="46.64147" lon="-1.8353">
        <ele>31</ele>
        <time>2019-02-21T15:53:43Z</time>
      </trkpt>
      <trkpt lat="46.64146" lon="-1.83533">
        <ele>30</ele>
        <time>2019-02-21T15:53:45Z</time>
      </trkpt>
      <trkpt lat="46.64143" lon="-1.83537">
        <ele>30</ele>
        <time>2019-02-21T15:53:48Z</time>
      </trkpt>
      <trkpt lat="46.64142" lon="-1.8354">
        <ele>30</ele>
        <time>2019-02-21T15:53:50Z</time>
      </trkpt>
      <trkpt lat="46.64139" lon="-1.83545">
        <ele>30</ele>
        <time>2019-02-21T15:53:53Z</time>
      </trkpt>
      <trkpt lat="46.64136" lon="-1.8355">
        <ele>30</ele>
        <time>2019-02-21T15:53:55Z</time>
      </trkpt>
      <trkpt lat="46.64131" lon="-1.83557">
        <ele>30</ele>
        <time>2019-02-21T15:54:00Z</time>
      </trkpt>
      <trkpt lat="46.6413" lon="-1.8356">
        <ele>30</ele>
        <time>2019-02-21T15:54:03Z</time>
      </trkpt>
      <trkpt lat="46.64129" lon="-1.83563">
        <ele>30</ele>
        <time>2019-02-21T15:54:06Z</time>
      </trkpt>
      <trkpt lat="46.64127" lon="-1.83566">
        <ele>30</ele>
        <time>2019-02-21T15:54:08Z</time>
      </trkpt>
      <trkpt lat="46.64124" lon="-1.8357">
        <ele>30</ele>
        <time>2019-02-21T15:54:11Z</time>
      </trkpt>
      <trkpt lat="46.64122" lon="-1.83573">
        <ele>30</ele>
        <time>2019-02-21T15:54:13Z</time>
      </trkpt>
      <trkpt lat="46.64119" lon="-1.83577">
        <ele>30</ele>
        <time>2019-02-21T15:54:16Z</time>
      </trkpt>
      <trkpt lat="46.64118" lon="-1.8358">
        <ele>30</ele>
        <time>2019-02-21T15:54:18Z</time>
      </trkpt>
      <trkpt lat="46.64115" lon="-1.83585">
        <ele>30</ele>
        <time>2019-02-21T15:54:21Z</time>
      </trkpt>
      <trkpt lat="46.64112" lon="-1.83588">
        <ele>30</ele>
        <time>2019-02-21T15:54:23Z</time>
      </trkpt>
      <trkpt lat="46.64107" lon="-1.83592">
        <ele>30</ele>
        <time>2019-02-21T15:54:28Z</time>
      </trkpt>
      <trkpt lat="46.64106" lon="-1.83593">
        <ele>30</ele>
        <time>2019-02-21T15:54:31Z</time>
      </trkpt>
      <trkpt lat="46.64106" lon="-1.83597">
        <ele>30</ele>
        <time>2019-02-21T15:54:33Z</time>
      </trkpt>
      <trkpt lat="46.64104" lon="-1.83601">
        <ele>30</ele>
        <time>2019-02-21T15:54:36Z</time>
      </trkpt>
      <trkpt lat="46.64102" lon="-1.83605">
        <ele>30</ele>
        <time>2019-02-21T15:54:39Z</time>
      </trkpt>
      <trkpt lat="46.64101" lon="-1.83609">
        <ele>30</ele>
        <time>2019-02-21T15:54:41Z</time>
      </trkpt>
      <trkpt lat="46.64099" lon="-1.83615">
        <ele>30</ele>
        <time>2019-02-21T15:54:44Z</time>
      </trkpt>
      <trkpt lat="46.64097" lon="-1.83618">
        <ele>30</ele>
        <time>2019-02-21T15:54:46Z</time>
      </trkpt>
      <trkpt lat="46.64095" lon="-1.83623">
        <ele>30</ele>
        <time>2019-02-21T15:54:49Z</time>
      </trkpt>
      <trkpt lat="46.64094" lon="-1.83627">
        <ele>30</ele>
        <time>2019-02-21T15:54:51Z</time>
      </trkpt>
      <trkpt lat="46.64091" lon="-1.83632">
        <ele>30</ele>
        <time>2019-02-21T15:54:54Z</time>
      </trkpt>
      <trkpt lat="46.64088" lon="-1.8364">
        <ele>30</ele>
        <time>2019-02-21T15:54:59Z</time>
      </trkpt>
      <trkpt lat="46.64086" lon="-1.83646">
        <ele>30</ele>
        <time>2019-02-21T15:55:01Z</time>
      </trkpt>
      <trkpt lat="46.64084" lon="-1.83649">
        <ele>30</ele>
        <time>2019-02-21T15:55:04Z</time>
      </trkpt>
      <trkpt lat="46.64081" lon="-1.83654">
        <ele>30</ele>
        <time>2019-02-21T15:55:06Z</time>
      </trkpt>
      <trkpt lat="46.64079" lon="-1.83657">
        <ele>30</ele>
        <time>2019-02-21T15:55:09Z</time>
      </trkpt>
      <trkpt lat="46.64077" lon="-1.83662">
        <ele>30</ele>
        <time>2019-02-21T15:55:11Z</time>
      </trkpt>
      <trkpt lat="46.64076" lon="-1.83665">
        <ele>30</ele>
        <time>2019-02-21T15:55:14Z</time>
      </trkpt>
      <trkpt lat="46.64075" lon="-1.83671">
        <ele>30</ele>
        <time>2019-02-21T15:55:16Z</time>
      </trkpt>
      <trkpt lat="46.64074" lon="-1.83674">
        <ele>30</ele>
        <time>2019-02-21T15:55:19Z</time>
      </trkpt>
      <trkpt lat="46.64072" lon="-1.83679">
        <ele>30</ele>
        <time>2019-02-21T15:55:21Z</time>
      </trkpt>
      <trkpt lat="46.64071" lon="-1.83682">
        <ele>30</ele>
        <time>2019-02-21T15:55:24Z</time>
      </trkpt>
      <trkpt lat="46.64068" lon="-1.83691">
        <ele>30</ele>
        <time>2019-02-21T15:55:29Z</time>
      </trkpt>
      <trkpt lat="46.64066" lon="-1.83695">
        <ele>30</ele>
        <time>2019-02-21T15:55:32Z</time>
      </trkpt>
      <trkpt lat="46.64065" lon="-1.83699">
        <ele>30</ele>
        <time>2019-02-21T15:55:34Z</time>
      </trkpt>
      <trkpt lat="46.64063" lon="-1.83704">
        <ele>30</ele>
        <time>2019-02-21T15:55:37Z</time>
      </trkpt>
      <trkpt lat="46.64062" lon="-1.83708">
        <ele>30</ele>
        <time>2019-02-21T15:55:39Z</time>
      </trkpt>
      <trkpt lat="46.6406" lon="-1.83712">
        <ele>30</ele>
        <time>2019-02-21T15:55:42Z</time>
      </trkpt>
      <trkpt lat="46.64059" lon="-1.83716">
        <ele>30</ele>
        <time>2019-02-21T15:55:44Z</time>
      </trkpt>
      <trkpt lat="46.64058" lon="-1.8372">
        <ele>30</ele>
        <time>2019-02-21T15:55:47Z</time>
      </trkpt>
      <trkpt lat="46.64056" lon="-1.83724">
        <ele>30</ele>
        <time>2019-02-21T15:55:49Z</time>
      </trkpt>
      <trkpt lat="46.64054" lon="-1.83728">
        <ele>30</ele>
        <time>2019-02-21T15:55:52Z</time>
      </trkpt>
      <trkpt lat="46.64052" lon="-1.83731">
        <ele>30</ele>
        <time>2019-02-21T15:55:54Z</time>
      </trkpt>
      <trkpt lat="46.64048" lon="-1.83739">
        <ele>30</ele>
        <time>2019-02-21T15:55:59Z</time>
      </trkpt>
      <trkpt lat="46.64046" lon="-1.83744">
        <ele>30</ele>
        <time>2019-02-21T15:56:02Z</time>
      </trkpt>
      <trkpt lat="46.64043" lon="-1.8375">
        <ele>29</ele>
        <time>2019-02-21T15:56:04Z</time>
      </trkpt>
      <trkpt lat="46.64042" lon="-1.83753">
        <ele>29</ele>
        <time>2019-02-21T15:56:07Z</time>
      </trkpt>
      <trkpt lat="46.64039" lon="-1.83757">
        <ele>29</ele>
        <time>2019-02-21T15:56:09Z</time>
      </trkpt>
      <trkpt lat="46.64037" lon="-1.83761">
        <ele>29</ele>
        <time>2019-02-21T15:56:12Z</time>
      </trkpt>
      <trkpt lat="46.64035" lon="-1.83766">
        <ele>29</ele>
        <time>2019-02-21T15:56:14Z</time>
      </trkpt>
      <trkpt lat="46.64034" lon="-1.83769">
        <ele>29</ele>
        <time>2019-02-21T15:56:17Z</time>
      </trkpt>
      <trkpt lat="46.64032" lon="-1.83774">
        <ele>29</ele>
        <time>2019-02-21T15:56:19Z</time>
      </trkpt>
      <trkpt lat="46.6403" lon="-1.83777">
        <ele>29</ele>
        <time>2019-02-21T15:56:22Z</time>
      </trkpt>
      <trkpt lat="46.64028" lon="-1.83781">
        <ele>29</ele>
        <time>2019-02-21T15:56:24Z</time>
      </trkpt>
      <trkpt lat="46.64025" lon="-1.83788">
        <ele>29</ele>
        <time>2019-02-21T15:56:29Z</time>
      </trkpt>
      <trkpt lat="46.64023" lon="-1.83792">
        <ele>29</ele>
        <time>2019-02-21T15:56:32Z</time>
      </trkpt>
      <trkpt lat="46.6402" lon="-1.83797">
        <ele>29</ele>
        <time>2019-02-21T15:56:35Z</time>
      </trkpt>
      <trkpt lat="46.64019" lon="-1.83801">
        <ele>29</ele>
        <time>2019-02-21T15:56:37Z</time>
      </trkpt>
      <trkpt lat="46.64017" lon="-1.83807">
        <ele>29</ele>
        <time>2019-02-21T15:56:40Z</time>
      </trkpt>
      <trkpt lat="46.64015" lon="-1.8381">
        <ele>29</ele>
        <time>2019-02-21T15:56:42Z</time>
      </trkpt>
      <trkpt lat="46.64013" lon="-1.83816">
        <ele>29</ele>
        <time>2019-02-21T15:56:45Z</time>
      </trkpt>
      <trkpt lat="46.64012" lon="-1.8382">
        <ele>29</ele>
        <time>2019-02-21T15:56:47Z</time>
      </trkpt>
      <trkpt lat="46.6401" lon="-1.83826">
        <ele>29</ele>
        <time>2019-02-21T15:56:50Z</time>
      </trkpt>
      <trkpt lat="46.64008" lon="-1.83832">
        <ele>29</ele>
        <time>2019-02-21T15:56:52Z</time>
      </trkpt>
      <trkpt lat="46.64007" lon="-1.83836">
        <ele>29</ele>
        <time>2019-02-21T15:56:55Z</time>
      </trkpt>
      <trkpt lat="46.64004" lon="-1.83845">
        <ele>29</ele>
        <time>2019-02-21T15:57:00Z</time>
      </trkpt>
      <trkpt lat="46.64002" lon="-1.83851">
        <ele>29</ele>
        <time>2019-02-21T15:57:02Z</time>
      </trkpt>
      <trkpt lat="46.64" lon="-1.83855">
        <ele>29</ele>
        <time>2019-02-21T15:57:05Z</time>
      </trkpt>
      <trkpt lat="46.63998" lon="-1.8386">
        <ele>29</ele>
        <time>2019-02-21T15:57:07Z</time>
      </trkpt>
      <trkpt lat="46.63997" lon="-1.83864">
        <ele>29</ele>
        <time>2019-02-21T15:57:10Z</time>
      </trkpt>
      <trkpt lat="46.63994" lon="-1.83868">
        <ele>29</ele>
        <time>2019-02-21T15:57:12Z</time>
      </trkpt>
      <trkpt lat="46.63993" lon="-1.83872">
        <ele>29</ele>
        <time>2019-02-21T15:57:15Z</time>
      </trkpt>
      <trkpt lat="46.6399" lon="-1.83877">
        <ele>29</ele>
        <time>2019-02-21T15:57:17Z</time>
      </trkpt>
      <trkpt lat="46.63989" lon="-1.8388">
        <ele>29</ele>
        <time>2019-02-21T15:57:20Z</time>
      </trkpt>
      <trkpt lat="46.63986" lon="-1.83886">
        <ele>29</ele>
        <time>2019-02-21T15:57:22Z</time>
      </trkpt>
      <trkpt lat="46.63984" lon="-1.83894">
        <ele>29</ele>
        <time>2019-02-21T15:57:28Z</time>
      </trkpt>
      <trkpt lat="46.63983" lon="-1.83898">
        <ele>29</ele>
        <time>2019-02-21T15:57:30Z</time>
      </trkpt>
      <trkpt lat="46.6398" lon="-1.83904">
        <ele>29</ele>
        <time>2019-02-21T15:57:33Z</time>
      </trkpt>
      <trkpt lat="46.63979" lon="-1.83907">
        <ele>29</ele>
        <time>2019-02-21T15:57:35Z</time>
      </trkpt>
      <trkpt lat="46.63977" lon="-1.83912">
        <ele>29</ele>
        <time>2019-02-21T15:57:38Z</time>
      </trkpt>
      <trkpt lat="46.63976" lon="-1.83915">
        <ele>29</ele>
        <time>2019-02-21T15:57:40Z</time>
      </trkpt>
      <trkpt lat="46.63974" lon="-1.83918">
        <ele>29</ele>
        <time>2019-02-21T15:57:43Z</time>
      </trkpt>
      <trkpt lat="46.63973" lon="-1.83921">
        <ele>29</ele>
        <time>2019-02-21T15:57:45Z</time>
      </trkpt>
      <trkpt lat="46.63972" lon="-1.83925">
        <ele>29</ele>
        <time>2019-02-21T15:57:48Z</time>
      </trkpt>
      <trkpt lat="46.6397" lon="-1.83927">
        <ele>29</ele>
        <time>2019-02-21T15:57:50Z</time>
      </trkpt>
      <trkpt lat="46.63969" lon="-1.83931">
        <ele>29</ele>
        <time>2019-02-21T15:57:53Z</time>
      </trkpt>
      <trkpt lat="46.63966" lon="-1.83935">
        <ele>29</ele>
        <time>2019-02-21T15:57:58Z</time>
      </trkpt>
      <trkpt lat="46.63965" lon="-1.8394">
        <ele>29</ele>
        <time>2019-02-21T15:58:00Z</time>
      </trkpt>
      <trkpt lat="46.63963" lon="-1.83943">
        <ele>29</ele>
        <time>2019-02-21T15:58:03Z</time>
      </trkpt>
      <trkpt lat="46.63962" lon="-1.83947">
        <ele>28</ele>
        <time>2019-02-21T15:58:05Z</time>
      </trkpt>
      <trkpt lat="46.63961" lon="-1.8395">
        <ele>28</ele>
        <time>2019-02-21T15:58:08Z</time>
      </trkpt>
      <trkpt lat="46.63959" lon="-1.83955">
        <ele>28</ele>
        <time>2019-02-21T15:58:11Z</time>
      </trkpt>
      <trkpt lat="46.63958" lon="-1.83958">
        <ele>28</ele>
        <time>2019-02-21T15:58:13Z</time>
      </trkpt>
      <trkpt lat="46.63957" lon="-1.83962">
        <ele>28</ele>
        <time>2019-02-21T15:58:16Z</time>
      </trkpt>
      <trkpt lat="46.63956" lon="-1.83965">
        <ele>28</ele>
        <time>2019-02-21T15:58:18Z</time>
      </trkpt>
      <trkpt lat="46.63956" lon="-1.83971">
        <ele>28</ele>
        <time>2019-02-21T15:58:21Z</time>
      </trkpt>
      <trkpt lat="46.63955" lon="-1.83977">
        <ele>28</ele>
        <time>2019-02-21T15:58:23Z</time>
      </trkpt>
      <trkpt lat="46.63955" lon="-1.83988">
        <ele>27</ele>
        <time>2019-02-21T15:58:28Z</time>
      </trkpt>
      <trkpt lat="46.63955" lon="-1.83993">
        <ele>27</ele>
        <time>2019-02-21T15:58:31Z</time>
      </trkpt>
      <trkpt lat="46.63955" lon="-1.83999">
        <ele>27</ele>
        <time>2019-02-21T15:58:33Z</time>
      </trkpt>
      <trkpt lat="46.63955" lon="-1.84002">
        <ele>27</ele>
        <time>2019-02-21T15:58:36Z</time>
      </trkpt>
      <trkpt lat="46.63956" lon="-1.84007">
        <ele>27</ele>
        <time>2019-02-21T15:58:39Z</time>
      </trkpt>
      <trkpt lat="46.63956" lon="-1.84011">
        <ele>27</ele>
        <time>2019-02-21T15:58:41Z</time>
      </trkpt>
      <trkpt lat="46.63956" lon="-1.84017">
        <ele>27</ele>
        <time>2019-02-21T15:58:44Z</time>
      </trkpt>
      <trkpt lat="46.63956" lon="-1.84021">
        <ele>27</ele>
        <time>2019-02-21T15:58:46Z</time>
      </trkpt>
      <trkpt lat="46.63956" lon="-1.84027">
        <ele>27</ele>
        <time>2019-02-21T15:58:49Z</time>
      </trkpt>
      <trkpt lat="46.63956" lon="-1.84033">
        <ele>27</ele>
        <time>2019-02-21T15:58:51Z</time>
      </trkpt>
      <trkpt lat="46.63956" lon="-1.84037">
        <ele>27</ele>
        <time>2019-02-21T15:58:54Z</time>
      </trkpt>
      <trkpt lat="46.63955" lon="-1.84048">
        <ele>27</ele>
        <time>2019-02-21T15:58:59Z</time>
      </trkpt>
      <trkpt lat="46.63955" lon="-1.84055">
        <ele>27</ele>
        <time>2019-02-21T15:59:01Z</time>
      </trkpt>
      <trkpt lat="46.63955" lon="-1.84059">
        <ele>27</ele>
        <time>2019-02-21T15:59:04Z</time>
      </trkpt>
      <trkpt lat="46.63954" lon="-1.84065">
        <ele>27</ele>
        <time>2019-02-21T15:59:06Z</time>
      </trkpt>
      <trkpt lat="46.63954" lon="-1.84069">
        <ele>27</ele>
        <time>2019-02-21T15:59:09Z</time>
      </trkpt>
      <trkpt lat="46.63953" lon="-1.84075">
        <ele>27</ele>
        <time>2019-02-21T15:59:12Z</time>
      </trkpt>
      <trkpt lat="46.63952" lon="-1.84078">
        <ele>27</ele>
        <time>2019-02-21T15:59:14Z</time>
      </trkpt>
      <trkpt lat="46.63951" lon="-1.84084">
        <ele>27</ele>
        <time>2019-02-21T15:59:17Z</time>
      </trkpt>
      <trkpt lat="46.6395" lon="-1.84087">
        <ele>27</ele>
        <time>2019-02-21T15:59:19Z</time>
      </trkpt>
      <trkpt lat="46.63949" lon="-1.84093">
        <ele>27</ele>
        <time>2019-02-21T15:59:21Z</time>
      </trkpt>
      <trkpt lat="46.63948" lon="-1.84097">
        <ele>27</ele>
        <time>2019-02-21T15:59:24Z</time>
      </trkpt>
      <trkpt lat="46.63947" lon="-1.84106">
        <ele>27</ele>
        <time>2019-02-21T15:59:29Z</time>
      </trkpt>
      <trkpt lat="46.63946" lon="-1.84109">
        <ele>27</ele>
        <time>2019-02-21T15:59:31Z</time>
      </trkpt>
      <trkpt lat="46.63945" lon="-1.84115">
        <ele>27</ele>
        <time>2019-02-21T15:59:34Z</time>
      </trkpt>
      <trkpt lat="46.63945" lon="-1.84119">
        <ele>27</ele>
        <time>2019-02-21T15:59:36Z</time>
      </trkpt>
      <trkpt lat="46.63944" lon="-1.84124">
        <ele>27</ele>
        <time>2019-02-21T15:59:39Z</time>
      </trkpt>
      <trkpt lat="46.63943" lon="-1.84128">
        <ele>27</ele>
        <time>2019-02-21T15:59:41Z</time>
      </trkpt>
      <trkpt lat="46.63943" lon="-1.84134">
        <ele>27</ele>
        <time>2019-02-21T15:59:44Z</time>
      </trkpt>
      <trkpt lat="46.63942" lon="-1.84138">
        <ele>27</ele>
        <time>2019-02-21T15:59:46Z</time>
      </trkpt>
      <trkpt lat="46.63941" lon="-1.84144">
        <ele>27</ele>
        <time>2019-02-21T15:59:49Z</time>
      </trkpt>
      <trkpt lat="46.63941" lon="-1.84148">
        <ele>27</ele>
        <time>2019-02-21T15:59:51Z</time>
      </trkpt>
      <trkpt lat="46.6394" lon="-1.84152">
        <ele>27</ele>
        <time>2019-02-21T15:59:54Z</time>
      </trkpt>
      <trkpt lat="46.6394" lon="-1.84153">
        <ele>27</ele>
        <time>2019-02-21T15:59:59Z</time>
      </trkpt>
      <trkpt lat="46.6394" lon="-1.84153">
        <ele>27</ele>
        <time>2019-02-21T16:00:01Z</time>
      </trkpt>
      <trkpt lat="46.6394" lon="-1.84154">
        <ele>27</ele>
        <time>2019-02-21T16:00:04Z</time>
      </trkpt>
      <trkpt lat="46.6394" lon="-1.84154">
        <ele>27</ele>
        <time>2019-02-21T16:00:06Z</time>
      </trkpt>
      <trkpt lat="46.6394" lon="-1.84154">
        <ele>27</ele>
        <time>2019-02-21T16:00:09Z</time>
      </trkpt>
      <trkpt lat="46.6394" lon="-1.84154">
        <ele>27</ele>
        <time>2019-02-21T16:00:11Z</time>
      </trkpt>
      <trkpt lat="46.6394" lon="-1.84154">
        <ele>27</ele>
        <time>2019-02-21T16:00:14Z</time>
      </trkpt>
      <trkpt lat="46.6394" lon="-1.84154">
        <ele>27</ele>
        <time>2019-02-21T16:00:16Z</time>
      </trkpt>
      <trkpt lat="46.6394" lon="-1.84154">
        <ele>27</ele>
        <time>2019-02-21T16:00:19Z</time>
      </trkpt>
      <trkpt lat="46.6394" lon="-1.84153">
        <ele>27</ele>
        <time>2019-02-21T16:00:21Z</time>
      </trkpt>
      <trkpt lat="46.63941" lon="-1.84153">
        <ele>27</ele>
        <time>2019-02-21T16:00:26Z</time>
      </trkpt>
      <trkpt lat="46.6394" lon="-1.84154">
        <ele>27</ele>
        <time>2019-02-21T16:00:29Z</time>
      </trkpt>
      <trkpt lat="46.6394" lon="-1.84154">
        <ele>27</ele>
        <time>2019-02-21T16:00:31Z</time>
      </trkpt>
      <trkpt lat="46.6394" lon="-1.84153">
        <ele>27</ele>
        <time>2019-02-21T16:00:34Z</time>
      </trkpt>
      <trkpt lat="46.6394" lon="-1.84153">
        <ele>27</ele>
        <time>2019-02-21T16:00:36Z</time>
      </trkpt>
      <trkpt lat="46.6394" lon="-1.84152">
        <ele>27</ele>
        <time>2019-02-21T16:00:39Z</time>
      </trkpt>
      <trkpt lat="46.6394" lon="-1.84152">
        <ele>27</ele>
        <time>2019-02-21T16:00:41Z</time>
      </trkpt>
      <trkpt lat="46.6394" lon="-1.84153">
        <ele>27</ele>
        <time>2019-02-21T16:00:44Z</time>
      </trkpt>
      <trkpt lat="46.6394" lon="-1.84153">
        <ele>27</ele>
        <time>2019-02-21T16:00:46Z</time>
      </trkpt>
      <trkpt lat="46.6394" lon="-1.84152">
        <ele>27</ele>
        <time>2019-02-21T16:00:49Z</time>
      </trkpt>
      <trkpt lat="46.6394" lon="-1.84152">
        <ele>27</ele>
        <time>2019-02-21T16:00:51Z</time>
      </trkpt>
      <trkpt lat="46.63939" lon="-1.84152">
        <ele>27</ele>
        <time>2019-02-21T16:00:56Z</time>
      </trkpt>
      <trkpt lat="46.63939" lon="-1.84152">
        <ele>27</ele>
        <time>2019-02-21T16:00:59Z</time>
      </trkpt>
      <trkpt lat="46.6394" lon="-1.84152">
        <ele>27</ele>
        <time>2019-02-21T16:01:01Z</time>
      </trkpt>
      <trkpt lat="46.6394" lon="-1.84153">
        <ele>27</ele>
        <time>2019-02-21T16:01:04Z</time>
      </trkpt>
      <trkpt lat="46.63939" lon="-1.84153">
        <ele>27</ele>
        <time>2019-02-21T16:01:06Z</time>
      </trkpt>
      <trkpt lat="46.63939" lon="-1.84153">
        <ele>27</ele>
        <time>2019-02-21T16:01:09Z</time>
      </trkpt>
      <trkpt lat="46.63939" lon="-1.84153">
        <ele>27</ele>
        <time>2019-02-21T16:01:12Z</time>
      </trkpt>
      <trkpt lat="46.6394" lon="-1.84153">
        <ele>27</ele>
        <time>2019-02-21T16:01:14Z</time>
      </trkpt>
      <trkpt lat="46.6394" lon="-1.84153">
        <ele>27</ele>
        <time>2019-02-21T16:01:17Z</time>
      </trkpt>
      <trkpt lat="46.63939" lon="-1.84153">
        <ele>27</ele>
        <time>2019-02-21T16:01:19Z</time>
      </trkpt>
      <trkpt lat="46.6394" lon="-1.84153">
        <ele>27</ele>
        <time>2019-02-21T16:01:22Z</time>
      </trkpt>
      <trkpt lat="46.6394" lon="-1.84153">
        <ele>27</ele>
        <time>2019-02-21T16:01:27Z</time>
      </trkpt>
      <trkpt lat="46.6394" lon="-1.84153">
        <ele>27</ele>
        <time>2019-02-21T16:01:29Z</time>
      </trkpt>
      <trkpt lat="46.6394" lon="-1.84153">
        <ele>27</ele>
        <time>2019-02-21T16:01:32Z</time>
      </trkpt>
      <trkpt lat="46.6394" lon="-1.84153">
        <ele>27</ele>
        <time>2019-02-21T16:01:34Z</time>
      </trkpt>
      <trkpt lat="46.6394" lon="-1.84152">
        <ele>27</ele>
        <time>2019-02-21T16:01:37Z</time>
      </trkpt>
      <trkpt lat="46.6394" lon="-1.84153">
        <ele>27</ele>
        <time>2019-02-21T16:01:39Z</time>
      </trkpt>
      <trkpt lat="46.6394" lon="-1.84152">
        <ele>27</ele>
        <time>2019-02-21T16:01:42Z</time>
      </trkpt>
      <trkpt lat="46.6394" lon="-1.84152">
        <ele>27</ele>
        <time>2019-02-21T16:01:44Z</time>
      </trkpt>
      <trkpt lat="46.6394" lon="-1.84152">
        <ele>27</ele>
        <time>2019-02-21T16:01:47Z</time>
      </trkpt>
      <trkpt lat="46.6394" lon="-1.84152">
        <ele>27</ele>
        <time>2019-02-21T16:01:49Z</time>
      </trkpt>
      <trkpt lat="46.6394" lon="-1.84151">
        <ele>27</ele>
        <time>2019-02-21T16:01:52Z</time>
      </trkpt>
      <trkpt lat="46.6394" lon="-1.84151">
        <ele>27</ele>
        <time>2019-02-21T16:01:57Z</time>
      </trkpt>
      <trkpt lat="46.6394" lon="-1.84151">
        <ele>27</ele>
        <time>2019-02-21T16:01:59Z</time>
      </trkpt>
      <trkpt lat="46.6394" lon="-1.84151">
        <ele>27</ele>
        <time>2019-02-21T16:02:02Z</time>
      </trkpt>
      <trkpt lat="46.6394" lon="-1.84151">
        <ele>27</ele>
        <time>2019-02-21T16:02:04Z</time>
      </trkpt>
      <trkpt lat="46.63941" lon="-1.84151">
        <ele>27</ele>
        <time>2019-02-21T16:02:07Z</time>
      </trkpt>
      <trkpt lat="46.63941" lon="-1.84151">
        <ele>27</ele>
        <time>2019-02-21T16:02:09Z</time>
      </trkpt>
      <trkpt lat="46.63941" lon="-1.84151">
        <ele>27</ele>
        <time>2019-02-21T16:02:12Z</time>
      </trkpt>
      <trkpt lat="46.63941" lon="-1.84151">
        <ele>27</ele>
        <time>2019-02-21T16:02:14Z</time>
      </trkpt>
      <trkpt lat="46.63941" lon="-1.84151">
        <ele>27</ele>
        <time>2019-02-21T16:02:17Z</time>
      </trkpt>
      <trkpt lat="46.63941" lon="-1.84151">
        <ele>27</ele>
        <time>2019-02-21T16:02:19Z</time>
      </trkpt>
      <trkpt lat="46.63941" lon="-1.84151">
        <ele>27</ele>
        <time>2019-02-21T16:02:22Z</time>
      </trkpt>
      <trkpt lat="46.6394" lon="-1.84151">
        <ele>27</ele>
        <time>2019-02-21T16:02:27Z</time>
      </trkpt>
      <trkpt lat="46.63941" lon="-1.84151">
        <ele>27</ele>
        <time>2019-02-21T16:02:29Z</time>
      </trkpt>
      <trkpt lat="46.63941" lon="-1.84151">
        <ele>27</ele>
        <time>2019-02-21T16:02:32Z</time>
      </trkpt>
      <trkpt lat="46.63941" lon="-1.84151">
        <ele>27</ele>
        <time>2019-02-21T16:02:34Z</time>
      </trkpt>
      <trkpt lat="46.63941" lon="-1.84151">
        <ele>27</ele>
        <time>2019-02-21T16:02:37Z</time>
      </trkpt>
      <trkpt lat="46.63941" lon="-1.84151">
        <ele>27</ele>
        <time>2019-02-21T16:02:39Z</time>
      </trkpt>
      <trkpt lat="46.63941" lon="-1.84151">
        <ele>27</ele>
        <time>2019-02-21T16:02:42Z</time>
      </trkpt>
      <trkpt lat="46.63941" lon="-1.84151">
        <ele>27</ele>
        <time>2019-02-21T16:02:45Z</time>
      </trkpt>
      <trkpt lat="46.63941" lon="-1.84151">
        <ele>27</ele>
        <time>2019-02-21T16:02:47Z</time>
      </trkpt>
      <trkpt lat="46.63941" lon="-1.84151">
        <ele>27</ele>
        <time>2019-02-21T16:02:49Z</time>
      </trkpt>
      <trkpt lat="46.63941" lon="-1.84151">
        <ele>27</ele>
        <time>2019-02-21T16:02:52Z</time>
      </trkpt>
      <trkpt lat="46.63941" lon="-1.84152">
        <ele>27</ele>
        <time>2019-02-21T16:02:57Z</time>
      </trkpt>
      <trkpt lat="46.63941" lon="-1.84152">
        <ele>27</ele>
        <time>2019-02-21T16:02:59Z</time>
      </trkpt>
      <trkpt lat="46.63941" lon="-1.84151">
        <ele>27</ele>
        <time>2019-02-21T16:03:02Z</time>
      </trkpt>
      <trkpt lat="46.6394" lon="-1.84151">
        <ele>27</ele>
        <time>2019-02-21T16:03:04Z</time>
      </trkpt>
      <trkpt lat="46.6394" lon="-1.84151">
        <ele>27</ele>
        <time>2019-02-21T16:03:07Z</time>
      </trkpt>
      <trkpt lat="46.63939" lon="-1.8415">
        <ele>27</ele>
        <time>2019-02-21T16:03:09Z</time>
      </trkpt>
      <trkpt lat="46.63939" lon="-1.84151">
        <ele>27</ele>
        <time>2019-02-21T16:03:12Z</time>
      </trkpt>
      <trkpt lat="46.63939" lon="-1.8415">
        <ele>27</ele>
        <time>2019-02-21T16:03:14Z</time>
      </trkpt>
      <trkpt lat="46.63939" lon="-1.84151">
        <ele>27</ele>
        <time>2019-02-21T16:03:17Z</time>
      </trkpt>
      <trkpt lat="46.63938" lon="-1.84151">
        <ele>27</ele>
        <time>2019-02-21T16:03:19Z</time>
      </trkpt>
      <trkpt lat="46.63938" lon="-1.84151">
        <ele>27</ele>
        <time>2019-02-21T16:03:22Z</time>
      </trkpt>
      <trkpt lat="46.63937" lon="-1.84151">
        <ele>27</ele>
        <time>2019-02-21T16:03:27Z</time>
      </trkpt>
      <trkpt lat="46.63937" lon="-1.84151">
        <ele>27</ele>
        <time>2019-02-21T16:03:30Z</time>
      </trkpt>
      <trkpt lat="46.63937" lon="-1.84151">
        <ele>27</ele>
        <time>2019-02-21T16:03:32Z</time>
      </trkpt>
      <trkpt lat="46.63936" lon="-1.84152">
        <ele>27</ele>
        <time>2019-02-21T16:03:35Z</time>
      </trkpt>
      <trkpt lat="46.63935" lon="-1.84153">
        <ele>27</ele>
        <time>2019-02-21T16:03:37Z</time>
      </trkpt>
      <trkpt lat="46.63935" lon="-1.84153">
        <ele>27</ele>
        <time>2019-02-21T16:03:40Z</time>
      </trkpt>
      <trkpt lat="46.63935" lon="-1.84154">
        <ele>27</ele>
        <time>2019-02-21T16:03:42Z</time>
      </trkpt>
      <trkpt lat="46.63935" lon="-1.84153">
        <ele>27</ele>
        <time>2019-02-21T16:03:45Z</time>
      </trkpt>
      <trkpt lat="46.63936" lon="-1.84154">
        <ele>27</ele>
        <time>2019-02-21T16:03:47Z</time>
      </trkpt>
      <trkpt lat="46.63936" lon="-1.84154">
        <ele>27</ele>
        <time>2019-02-21T16:03:50Z</time>
      </trkpt>
      <trkpt lat="46.63936" lon="-1.84154">
        <ele>27</ele>
        <time>2019-02-21T16:03:55Z</time>
      </trkpt>
      <trkpt lat="46.63936" lon="-1.84154">
        <ele>27</ele>
        <time>2019-02-21T16:03:57Z</time>
      </trkpt>
      <trkpt lat="46.63935" lon="-1.84154">
        <ele>27</ele>
        <time>2019-02-21T16:04:00Z</time>
      </trkpt>
      <trkpt lat="46.63936" lon="-1.84154">
        <ele>27</ele>
        <time>2019-02-21T16:04:02Z</time>
      </trkpt>
      <trkpt lat="46.63936" lon="-1.84155">
        <ele>27</ele>
        <time>2019-02-21T16:04:05Z</time>
      </trkpt>
      <trkpt lat="46.63936" lon="-1.84157">
        <ele>27</ele>
        <time>2019-02-21T16:04:07Z</time>
      </trkpt>
      <trkpt lat="46.63936" lon="-1.84157">
        <ele>27</ele>
        <time>2019-02-21T16:04:10Z</time>
      </trkpt>
      <trkpt lat="46.63937" lon="-1.84157">
        <ele>27</ele>
        <time>2019-02-21T16:04:12Z</time>
      </trkpt>
      <trkpt lat="46.63937" lon="-1.84157">
        <ele>27</ele>
        <time>2019-02-21T16:04:15Z</time>
      </trkpt>
      <trkpt lat="46.63937" lon="-1.84157">
        <ele>27</ele>
        <time>2019-02-21T16:04:17Z</time>
      </trkpt>
      <trkpt lat="46.63937" lon="-1.84157">
        <ele>27</ele>
        <time>2019-02-21T16:04:19Z</time>
      </trkpt>
      <trkpt lat="46.63937" lon="-1.84159">
        <ele>27</ele>
        <time>2019-02-21T16:04:24Z</time>
      </trkpt>
      <trkpt lat="46.63938" lon="-1.84159">
        <ele>27</ele>
        <time>2019-02-21T16:04:27Z</time>
      </trkpt>
      <trkpt lat="46.63938" lon="-1.84159">
        <ele>27</ele>
        <time>2019-02-21T16:04:29Z</time>
      </trkpt>
      <trkpt lat="46.63938" lon="-1.84159">
        <ele>27</ele>
        <time>2019-02-21T16:04:32Z</time>
      </trkpt>
      <trkpt lat="46.63937" lon="-1.84159">
        <ele>27</ele>
        <time>2019-02-21T16:04:34Z</time>
      </trkpt>
      <trkpt lat="46.63938" lon="-1.84159">
        <ele>27</ele>
        <time>2019-02-21T16:04:37Z</time>
      </trkpt>
      <trkpt lat="46.63939" lon="-1.84157">
        <ele>27</ele>
        <time>2019-02-21T16:04:40Z</time>
      </trkpt>
      <trkpt lat="46.6394" lon="-1.84157">
        <ele>27</ele>
        <time>2019-02-21T16:04:42Z</time>
      </trkpt>
      <trkpt lat="46.63939" lon="-1.84157">
        <ele>27</ele>
        <time>2019-02-21T16:04:45Z</time>
      </trkpt>
      <trkpt lat="46.63939" lon="-1.84158">
        <ele>27</ele>
        <time>2019-02-21T16:04:47Z</time>
      </trkpt>
      <trkpt lat="46.63939" lon="-1.84158">
        <ele>27</ele>
        <time>2019-02-21T16:04:50Z</time>
      </trkpt>
      <trkpt lat="46.6394" lon="-1.84159">
        <ele>27</ele>
        <time>2019-02-21T16:04:55Z</time>
      </trkpt>
      <trkpt lat="46.6394" lon="-1.84159">
        <ele>27</ele>
        <time>2019-02-21T16:04:57Z</time>
      </trkpt>
      <trkpt lat="46.6394" lon="-1.84158">
        <ele>27</ele>
        <time>2019-02-21T16:05:00Z</time>
      </trkpt>
      <trkpt lat="46.6394" lon="-1.84157">
        <ele>27</ele>
        <time>2019-02-21T16:05:02Z</time>
      </trkpt>
      <trkpt lat="46.6394" lon="-1.84157">
        <ele>27</ele>
        <time>2019-02-21T16:05:05Z</time>
      </trkpt>
      <trkpt lat="46.6394" lon="-1.84156">
        <ele>27</ele>
        <time>2019-02-21T16:05:07Z</time>
      </trkpt>
      <trkpt lat="46.6394" lon="-1.84156">
        <ele>27</ele>
        <time>2019-02-21T16:05:10Z</time>
      </trkpt>
      <trkpt lat="46.63941" lon="-1.84155">
        <ele>27</ele>
        <time>2019-02-21T16:05:12Z</time>
      </trkpt>
      <trkpt lat="46.6394" lon="-1.84155">
        <ele>27</ele>
        <time>2019-02-21T16:05:15Z</time>
      </trkpt>
      <trkpt lat="46.63941" lon="-1.84156">
        <ele>27</ele>
        <time>2019-02-21T16:05:18Z</time>
      </trkpt>
      <trkpt lat="46.63941" lon="-1.84157">
        <ele>27</ele>
        <time>2019-02-21T16:05:20Z</time>
      </trkpt>
      <trkpt lat="46.63941" lon="-1.84156">
        <ele>27</ele>
        <time>2019-02-21T16:05:25Z</time>
      </trkpt>
      <trkpt lat="46.6394" lon="-1.84156">
        <ele>27</ele>
        <time>2019-02-21T16:05:28Z</time>
      </trkpt>
      <trkpt lat="46.6394" lon="-1.84156">
        <ele>27</ele>
        <time>2019-02-21T16:05:30Z</time>
      </trkpt>
      <trkpt lat="46.6394" lon="-1.84155">
        <ele>27</ele>
        <time>2019-02-21T16:05:33Z</time>
      </trkpt>
      <trkpt lat="46.63939" lon="-1.84156">
        <ele>27</ele>
        <time>2019-02-21T16:05:35Z</time>
      </trkpt>
      <trkpt lat="46.6394" lon="-1.84156">
        <ele>27</ele>
        <time>2019-02-21T16:05:38Z</time>
      </trkpt>
      <trkpt lat="46.63939" lon="-1.84156">
        <ele>27</ele>
        <time>2019-02-21T16:05:40Z</time>
      </trkpt>
      <trkpt lat="46.63938" lon="-1.84155">
        <ele>27</ele>
        <time>2019-02-21T16:05:43Z</time>
      </trkpt>
      <trkpt lat="46.63938" lon="-1.84154">
        <ele>27</ele>
        <time>2019-02-21T16:05:45Z</time>
      </trkpt>
      <trkpt lat="46.63938" lon="-1.84153">
        <ele>27</ele>
        <time>2019-02-21T16:05:48Z</time>
      </trkpt>
      <trkpt lat="46.63937" lon="-1.84152">
        <ele>27</ele>
        <time>2019-02-21T16:05:50Z</time>
      </trkpt>
      <trkpt lat="46.63938" lon="-1.84151">
        <ele>27</ele>
        <time>2019-02-21T16:05:56Z</time>
      </trkpt>
      <trkpt lat="46.63938" lon="-1.84151">
        <ele>27</ele>
        <time>2019-02-21T16:05:58Z</time>
      </trkpt>
      <trkpt lat="46.63938" lon="-1.8415">
        <ele>27</ele>
        <time>2019-02-21T16:06:01Z</time>
      </trkpt>
      <trkpt lat="46.63938" lon="-1.8415">
        <ele>27</ele>
        <time>2019-02-21T16:06:03Z</time>
      </trkpt>
      <trkpt lat="46.63939" lon="-1.84153">
        <ele>27</ele>
        <time>2019-02-21T16:06:06Z</time>
      </trkpt>
      <trkpt lat="46.63939" lon="-1.84154">
        <ele>27</ele>
        <time>2019-02-21T16:06:08Z</time>
      </trkpt>
      <trkpt lat="46.6394" lon="-1.84154">
        <ele>27</ele>
        <time>2019-02-21T16:06:11Z</time>
      </trkpt>
      <trkpt lat="46.63939" lon="-1.84154">
        <ele>27</ele>
        <time>2019-02-21T16:06:13Z</time>
      </trkpt>
      <trkpt lat="46.63938" lon="-1.84152">
        <ele>27</ele>
        <time>2019-02-21T16:06:16Z</time>
      </trkpt>
      <trkpt lat="46.63937" lon="-1.84149">
        <ele>27</ele>
        <time>2019-02-21T16:06:19Z</time>
      </trkpt>
      <trkpt lat="46.63938" lon="-1.84149">
        <ele>27</ele>
        <time>2019-02-21T16:06:21Z</time>
      </trkpt>
      <trkpt lat="46.63938" lon="-1.84148">
        <ele>27</ele>
        <time>2019-02-21T16:06:26Z</time>
      </trkpt>
      <trkpt lat="46.63938" lon="-1.84148">
        <ele>27</ele>
        <time>2019-02-21T16:06:29Z</time>
      </trkpt>
      <trkpt lat="46.63937" lon="-1.84149">
        <ele>27</ele>
        <time>2019-02-21T16:06:31Z</time>
      </trkpt>
      <trkpt lat="46.63937" lon="-1.84149">
        <ele>27</ele>
        <time>2019-02-21T16:06:34Z</time>
      </trkpt>
      <trkpt lat="46.63937" lon="-1.8415">
        <ele>27</ele>
        <time>2019-02-21T16:06:36Z</time>
      </trkpt>
      <trkpt lat="46.63938" lon="-1.8415">
        <ele>27</ele>
        <time>2019-02-21T16:06:39Z</time>
      </trkpt>
      <trkpt lat="46.63937" lon="-1.84148">
        <ele>27</ele>
        <time>2019-02-21T16:06:41Z</time>
      </trkpt>
      <trkpt lat="46.63937" lon="-1.84149">
        <ele>27</ele>
        <time>2019-02-21T16:06:44Z</time>
      </trkpt>
      <trkpt lat="46.63937" lon="-1.8415">
        <ele>27</ele>
        <time>2019-02-21T16:06:47Z</time>
      </trkpt>
      <trkpt lat="46.63936" lon="-1.84151">
        <ele>27</ele>
        <time>2019-02-21T16:06:49Z</time>
      </trkpt>
      <trkpt lat="46.63936" lon="-1.84151">
        <ele>27</ele>
        <time>2019-02-21T16:06:54Z</time>
      </trkpt>
      <trkpt lat="46.63937" lon="-1.84152">
        <ele>27</ele>
        <time>2019-02-21T16:06:57Z</time>
      </trkpt>
      <trkpt lat="46.63937" lon="-1.84153">
        <ele>27</ele>
        <time>2019-02-21T16:06:59Z</time>
      </trkpt>
      <trkpt lat="46.63936" lon="-1.84154">
        <ele>27</ele>
        <time>2019-02-21T16:07:02Z</time>
      </trkpt>
      <trkpt lat="46.63936" lon="-1.84154">
        <ele>27</ele>
        <time>2019-02-21T16:07:05Z</time>
      </trkpt>
      <trkpt lat="46.63937" lon="-1.84155">
        <ele>27</ele>
        <time>2019-02-21T16:07:07Z</time>
      </trkpt>
      <trkpt lat="46.63936" lon="-1.84157">
        <ele>27</ele>
        <time>2019-02-21T16:07:10Z</time>
      </trkpt>
      <trkpt lat="46.63936" lon="-1.84157">
        <ele>27</ele>
        <time>2019-02-21T16:07:12Z</time>
      </trkpt>
      <trkpt lat="46.63936" lon="-1.84156">
        <ele>27</ele>
        <time>2019-02-21T16:07:15Z</time>
      </trkpt>
      <trkpt lat="46.63935" lon="-1.84156">
        <ele>27</ele>
        <time>2019-02-21T16:07:17Z</time>
      </trkpt>
      <trkpt lat="46.63935" lon="-1.84156">
        <ele>27</ele>
        <time>2019-02-21T16:07:20Z</time>
      </trkpt>
      <trkpt lat="46.63937" lon="-1.8416">
        <ele>27</ele>
        <time>2019-02-21T16:07:25Z</time>
      </trkpt>
      <trkpt lat="46.63939" lon="-1.8416">
        <ele>27</ele>
        <time>2019-02-21T16:07:28Z</time>
      </trkpt>
      <trkpt lat="46.63939" lon="-1.84159">
        <ele>27</ele>
        <time>2019-02-21T16:07:30Z</time>
      </trkpt>
      <trkpt lat="46.63939" lon="-1.84158">
        <ele>27</ele>
        <time>2019-02-21T16:07:33Z</time>
      </trkpt>
      <trkpt lat="46.63939" lon="-1.84158">
        <ele>27</ele>
        <time>2019-02-21T16:07:35Z</time>
      </trkpt>
      <trkpt lat="46.6394" lon="-1.84157">
        <ele>27</ele>
        <time>2019-02-21T16:07:38Z</time>
      </trkpt>
      <trkpt lat="46.6394" lon="-1.84158">
        <ele>27</ele>
        <time>2019-02-21T16:07:40Z</time>
      </trkpt>
      <trkpt lat="46.6394" lon="-1.84157">
        <ele>27</ele>
        <time>2019-02-21T16:07:43Z</time>
      </trkpt>
      <trkpt lat="46.63941" lon="-1.84156">
        <ele>27</ele>
        <time>2019-02-21T16:07:46Z</time>
      </trkpt>
      <trkpt lat="46.63942" lon="-1.84156">
        <ele>27</ele>
        <time>2019-02-21T16:07:48Z</time>
      </trkpt>
      <trkpt lat="46.63941" lon="-1.84157">
        <ele>27</ele>
        <time>2019-02-21T16:07:51Z</time>
      </trkpt>
      <trkpt lat="46.63941" lon="-1.84157">
        <ele>27</ele>
        <time>2019-02-21T16:07:56Z</time>
      </trkpt>
      <trkpt lat="46.63941" lon="-1.84157">
        <ele>27</ele>
        <time>2019-02-21T16:07:58Z</time>
      </trkpt>
      <trkpt lat="46.63941" lon="-1.84157">
        <ele>27</ele>
        <time>2019-02-21T16:08:01Z</time>
      </trkpt>
      <trkpt lat="46.63941" lon="-1.84157">
        <ele>27</ele>
        <time>2019-02-21T16:08:04Z</time>
      </trkpt>
      <trkpt lat="46.63941" lon="-1.84157">
        <ele>27</ele>
        <time>2019-02-21T16:08:06Z</time>
      </trkpt>
      <trkpt lat="46.6394" lon="-1.84157">
        <ele>27</ele>
        <time>2019-02-21T16:08:09Z</time>
      </trkpt>
      <trkpt lat="46.63941" lon="-1.84157">
        <ele>27</ele>
        <time>2019-02-21T16:08:11Z</time>
      </trkpt>
      <trkpt lat="46.63941" lon="-1.84156">
        <ele>27</ele>
        <time>2019-02-21T16:08:14Z</time>
      </trkpt>
      <trkpt lat="46.63941" lon="-1.84156">
        <ele>27</ele>
        <time>2019-02-21T16:08:16Z</time>
      </trkpt>
      <trkpt lat="46.63941" lon="-1.84156">
        <ele>27</ele>
        <time>2019-02-21T16:08:19Z</time>
      </trkpt>
      <trkpt lat="46.63941" lon="-1.84155">
        <ele>27</ele>
        <time>2019-02-21T16:08:21Z</time>
      </trkpt>
      <trkpt lat="46.6394" lon="-1.84154">
        <ele>27</ele>
        <time>2019-02-21T16:08:27Z</time>
      </trkpt>
      <trkpt lat="46.6394" lon="-1.84154">
        <ele>27</ele>
        <time>2019-02-21T16:08:29Z</time>
      </trkpt>
      <trkpt lat="46.63939" lon="-1.84155">
        <ele>27</ele>
        <time>2019-02-21T16:08:32Z</time>
      </trkpt>
      <trkpt lat="46.6394" lon="-1.84154">
        <ele>27</ele>
        <time>2019-02-21T16:08:34Z</time>
      </trkpt>
      <trkpt lat="46.63939" lon="-1.84153">
        <ele>27</ele>
        <time>2019-02-21T16:08:37Z</time>
      </trkpt>
      <trkpt lat="46.6394" lon="-1.84153">
        <ele>27</ele>
        <time>2019-02-21T16:08:40Z</time>
      </trkpt>
      <trkpt lat="46.6394" lon="-1.84153">
        <ele>27</ele>
        <time>2019-02-21T16:08:42Z</time>
      </trkpt>
      <trkpt lat="46.6394" lon="-1.84154">
        <ele>27</ele>
        <time>2019-02-21T16:08:45Z</time>
      </trkpt>
      <trkpt lat="46.63939" lon="-1.84153">
        <ele>27</ele>
        <time>2019-02-21T16:08:47Z</time>
      </trkpt>
      <trkpt lat="46.63939" lon="-1.84153">
        <ele>27</ele>
        <time>2019-02-21T16:08:50Z</time>
      </trkpt>
      <trkpt lat="46.63939" lon="-1.84153">
        <ele>27</ele>
        <time>2019-02-21T16:08:52Z</time>
      </trkpt>
      <trkpt lat="46.63939" lon="-1.84153">
        <ele>27</ele>
        <time>2019-02-21T16:08:57Z</time>
      </trkpt>
      <trkpt lat="46.63939" lon="-1.84153">
        <ele>27</ele>
        <time>2019-02-21T16:09:00Z</time>
      </trkpt>
      <trkpt lat="46.63939" lon="-1.84152">
        <ele>27</ele>
        <time>2019-02-21T16:09:02Z</time>
      </trkpt>
      <trkpt lat="46.63939" lon="-1.84152">
        <ele>27</ele>
        <time>2019-02-21T16:09:05Z</time>
      </trkpt>
      <trkpt lat="46.63939" lon="-1.84153">
        <ele>27</ele>
        <time>2019-02-21T16:09:07Z</time>
      </trkpt>
      <trkpt lat="46.63939" lon="-1.84153">
        <ele>27</ele>
        <time>2019-02-21T16:09:10Z</time>
      </trkpt>
      <trkpt lat="46.63939" lon="-1.84153">
        <ele>27</ele>
        <time>2019-02-21T16:09:12Z</time>
      </trkpt>
      <trkpt lat="46.63939" lon="-1.84153">
        <ele>27</ele>
        <time>2019-02-21T16:09:15Z</time>
      </trkpt>
      <trkpt lat="46.63939" lon="-1.84153">
        <ele>27</ele>
        <time>2019-02-21T16:09:18Z</time>
      </trkpt>
      <trkpt lat="46.63939" lon="-1.84153">
        <ele>27</ele>
        <time>2019-02-21T16:09:20Z</time>
      </trkpt>
      <trkpt lat="46.6394" lon="-1.84153">
        <ele>27</ele>
        <time>2019-02-21T16:09:23Z</time>
      </trkpt>
      <trkpt lat="46.6394" lon="-1.84152">
        <ele>27</ele>
        <time>2019-02-21T16:09:28Z</time>
      </trkpt>
      <trkpt lat="46.6394" lon="-1.84152">
        <ele>27</ele>
        <time>2019-02-21T16:09:30Z</time>
      </trkpt>
      <trkpt lat="46.6394" lon="-1.84152">
        <ele>27</ele>
        <time>2019-02-21T16:09:33Z</time>
      </trkpt>
      <trkpt lat="46.6394" lon="-1.84152">
        <ele>27</ele>
        <time>2019-02-21T16:09:36Z</time>
      </trkpt>
      <trkpt lat="46.6394" lon="-1.84152">
        <ele>27</ele>
        <time>2019-02-21T16:09:38Z</time>
      </trkpt>
      <trkpt lat="46.6394" lon="-1.84152">
        <ele>27</ele>
        <time>2019-02-21T16:09:41Z</time>
      </trkpt>
      <trkpt lat="46.6394" lon="-1.84152">
        <ele>27</ele>
        <time>2019-02-21T16:09:43Z</time>
      </trkpt>
      <trkpt lat="46.6394" lon="-1.84153">
        <ele>27</ele>
        <time>2019-02-21T16:09:46Z</time>
      </trkpt>
      <trkpt lat="46.6394" lon="-1.84153">
        <ele>27</ele>
        <time>2019-02-21T16:09:48Z</time>
      </trkpt>
      <trkpt lat="46.6394" lon="-1.84152">
        <ele>27</ele>
        <time>2019-02-21T16:09:51Z</time>
      </trkpt>
      <trkpt lat="46.6394" lon="-1.84153">
        <ele>27</ele>
        <time>2019-02-21T16:09:56Z</time>
      </trkpt>
      <trkpt lat="46.6394" lon="-1.84153">
        <ele>27</ele>
        <time>2019-02-21T16:09:59Z</time>
      </trkpt>
      <trkpt lat="46.63941" lon="-1.84153">
        <ele>27</ele>
        <time>2019-02-21T16:10:01Z</time>
      </trkpt>
      <trkpt lat="46.63941" lon="-1.84154">
        <ele>27</ele>
        <time>2019-02-21T16:10:04Z</time>
      </trkpt>
      <trkpt lat="46.63941" lon="-1.84154">
        <ele>27</ele>
        <time>2019-02-21T16:10:06Z</time>
      </trkpt>
      <trkpt lat="46.63941" lon="-1.84154">
        <ele>27</ele>
        <time>2019-02-21T16:10:09Z</time>
      </trkpt>
      <trkpt lat="46.6394" lon="-1.84154">
        <ele>27</ele>
        <time>2019-02-21T16:10:11Z</time>
      </trkpt>
      <trkpt lat="46.6394" lon="-1.84154">
        <ele>27</ele>
        <time>2019-02-21T16:10:14Z</time>
      </trkpt>
      <trkpt lat="46.6394" lon="-1.84154">
        <ele>27</ele>
        <time>2019-02-21T16:10:16Z</time>
      </trkpt>
      <trkpt lat="46.6394" lon="-1.84155">
        <ele>27</ele>
        <time>2019-02-21T16:10:19Z</time>
      </trkpt>
      <trkpt lat="46.63939" lon="-1.84155">
        <ele>27</ele>
        <time>2019-02-21T16:10:22Z</time>
      </trkpt>
      <trkpt lat="46.63939" lon="-1.84156">
        <ele>27</ele>
        <time>2019-02-21T16:10:27Z</time>
      </trkpt>
      <trkpt lat="46.63939" lon="-1.84155">
        <ele>27</ele>
        <time>2019-02-21T16:10:29Z</time>
      </trkpt>
      <trkpt lat="46.6394" lon="-1.84154">
        <ele>27</ele>
        <time>2019-02-21T16:10:32Z</time>
      </trkpt>
      <trkpt lat="46.63939" lon="-1.84153">
        <ele>27</ele>
        <time>2019-02-21T16:10:34Z</time>
      </trkpt>
      <trkpt lat="46.63939" lon="-1.84152">
        <ele>27</ele>
        <time>2019-02-21T16:10:37Z</time>
      </trkpt>
      <trkpt lat="46.63939" lon="-1.84152">
        <ele>27</ele>
        <time>2019-02-21T16:10:39Z</time>
      </trkpt>
      <trkpt lat="46.63939" lon="-1.84152">
        <ele>27</ele>
        <time>2019-02-21T16:10:42Z</time>
      </trkpt>
      <trkpt lat="46.63939" lon="-1.84152">
        <ele>27</ele>
        <time>2019-02-21T16:10:44Z</time>
      </trkpt>
      <trkpt lat="46.63939" lon="-1.84152">
        <ele>27</ele>
        <time>2019-02-21T16:10:47Z</time>
      </trkpt>
      <trkpt lat="46.63938" lon="-1.84151">
        <ele>27</ele>
        <time>2019-02-21T16:10:50Z</time>
      </trkpt>
      <trkpt lat="46.63938" lon="-1.8415">
        <ele>27</ele>
        <time>2019-02-21T16:10:52Z</time>
      </trkpt>
      <trkpt lat="46.63938" lon="-1.84151">
        <ele>27</ele>
        <time>2019-02-21T16:10:57Z</time>
      </trkpt>
      <trkpt lat="46.63938" lon="-1.84151">
        <ele>27</ele>
        <time>2019-02-21T16:11:00Z</time>
      </trkpt>
      <trkpt lat="46.63938" lon="-1.84151">
        <ele>27</ele>
        <time>2019-02-21T16:11:02Z</time>
      </trkpt>
      <trkpt lat="46.63939" lon="-1.84151">
        <ele>27</ele>
        <time>2019-02-21T16:11:05Z</time>
      </trkpt>
      <trkpt lat="46.63939" lon="-1.84152">
        <ele>27</ele>
        <time>2019-02-21T16:11:07Z</time>
      </trkpt>
      <trkpt lat="46.63939" lon="-1.84152">
        <ele>27</ele>
        <time>2019-02-21T16:11:10Z</time>
      </trkpt>
      <trkpt lat="46.63938" lon="-1.84152">
        <ele>27</ele>
        <time>2019-02-21T16:11:12Z</time>
      </trkpt>
      <trkpt lat="46.63938" lon="-1.84154">
        <ele>27</ele>
        <time>2019-02-21T16:11:15Z</time>
      </trkpt>
      <trkpt lat="46.63939" lon="-1.84156">
        <ele>27</ele>
        <time>2019-02-21T16:11:18Z</time>
      </trkpt>
      <trkpt lat="46.63938" lon="-1.84158">
        <ele>27</ele>
        <time>2019-02-21T16:11:20Z</time>
      </trkpt>
      <trkpt lat="46.63936" lon="-1.84157">
        <ele>27</ele>
        <time>2019-02-21T16:11:23Z</time>
      </trkpt>
      <trkpt lat="46.63931" lon="-1.84155">
        <ele>27</ele>
        <time>2019-02-21T16:11:28Z</time>
      </trkpt>
      <trkpt lat="46.63927" lon="-1.84154">
        <ele>27</ele>
        <time>2019-02-21T16:11:30Z</time>
      </trkpt>
      <trkpt lat="46.63925" lon="-1.84153">
        <ele>27</ele>
        <time>2019-02-21T16:11:33Z</time>
      </trkpt>
      <trkpt lat="46.63921" lon="-1.84152">
        <ele>27</ele>
        <time>2019-02-21T16:11:36Z</time>
      </trkpt>
      <trkpt lat="46.63919" lon="-1.84151">
        <ele>27</ele>
        <time>2019-02-21T16:11:38Z</time>
      </trkpt>
      <trkpt lat="46.63915" lon="-1.84149">
        <ele>27</ele>
        <time>2019-02-21T16:11:41Z</time>
      </trkpt>
      <trkpt lat="46.63912" lon="-1.84148">
        <ele>27</ele>
        <time>2019-02-21T16:11:43Z</time>
      </trkpt>
      <trkpt lat="46.63911" lon="-1.84146">
        <ele>27</ele>
        <time>2019-02-21T16:11:46Z</time>
      </trkpt>
      <trkpt lat="46.63907" lon="-1.84145">
        <ele>27</ele>
        <time>2019-02-21T16:11:48Z</time>
      </trkpt>
      <trkpt lat="46.63905" lon="-1.84143">
        <ele>26</ele>
        <time>2019-02-21T16:11:51Z</time>
      </trkpt>
      <trkpt lat="46.63901" lon="-1.84141">
        <ele>26</ele>
        <time>2019-02-21T16:11:54Z</time>
      </trkpt>
      <trkpt lat="46.63895" lon="-1.84137">
        <ele>26</ele>
        <time>2019-02-21T16:11:59Z</time>
      </trkpt>
      <trkpt lat="46.63892" lon="-1.84135">
        <ele>26</ele>
        <time>2019-02-21T16:12:01Z</time>
      </trkpt>
      <trkpt lat="46.63889" lon="-1.84133">
        <ele>26</ele>
        <time>2019-02-21T16:12:04Z</time>
      </trkpt>
      <trkpt lat="46.63885" lon="-1.84129">
        <ele>26</ele>
        <time>2019-02-21T16:12:07Z</time>
      </trkpt>
      <trkpt lat="46.63883" lon="-1.84127">
        <ele>26</ele>
        <time>2019-02-21T16:12:09Z</time>
      </trkpt>
      <trkpt lat="46.63879" lon="-1.84124">
        <ele>26</ele>
        <time>2019-02-21T16:12:12Z</time>
      </trkpt>
      <trkpt lat="46.63877" lon="-1.84121">
        <ele>26</ele>
        <time>2019-02-21T16:12:14Z</time>
      </trkpt>
      <trkpt lat="46.63874" lon="-1.84117">
        <ele>26</ele>
        <time>2019-02-21T16:12:17Z</time>
      </trkpt>
      <trkpt lat="46.63871" lon="-1.84113">
        <ele>26</ele>
        <time>2019-02-21T16:12:19Z</time>
      </trkpt>
      <trkpt lat="46.63869" lon="-1.84111">
        <ele>26</ele>
        <time>2019-02-21T16:12:22Z</time>
      </trkpt>
      <trkpt lat="46.63867" lon="-1.84107">
        <ele>26</ele>
        <time>2019-02-21T16:12:25Z</time>
      </trkpt>
      <trkpt lat="46.63863" lon="-1.84101">
        <ele>26</ele>
        <time>2019-02-21T16:12:30Z</time>
      </trkpt>
      <trkpt lat="46.63861" lon="-1.84098">
        <ele>26</ele>
        <time>2019-02-21T16:12:32Z</time>
      </trkpt>
      <trkpt lat="46.63859" lon="-1.84093">
        <ele>26</ele>
        <time>2019-02-21T16:12:35Z</time>
      </trkpt>
      <trkpt lat="46.63856" lon="-1.84089">
        <ele>26</ele>
        <time>2019-02-21T16:12:37Z</time>
      </trkpt>
      <trkpt lat="46.63855" lon="-1.84085">
        <ele>26</ele>
        <time>2019-02-21T16:12:40Z</time>
      </trkpt>
      <trkpt lat="46.63853" lon="-1.84081">
        <ele>26</ele>
        <time>2019-02-21T16:12:43Z</time>
      </trkpt>
      <trkpt lat="46.63851" lon="-1.84078">
        <ele>26</ele>
        <time>2019-02-21T16:12:45Z</time>
      </trkpt>
      <trkpt lat="46.63849" lon="-1.84073">
        <ele>26</ele>
        <time>2019-02-21T16:12:48Z</time>
      </trkpt>
      <trkpt lat="46.63846" lon="-1.8407">
        <ele>26</ele>
        <time>2019-02-21T16:12:50Z</time>
      </trkpt>
      <trkpt lat="46.63844" lon="-1.84067">
        <ele>26</ele>
        <time>2019-02-21T16:12:53Z</time>
      </trkpt>
      <trkpt lat="46.63839" lon="-1.84059">
        <ele>26</ele>
        <time>2019-02-21T16:12:58Z</time>
      </trkpt>
      <trkpt lat="46.63836" lon="-1.84055">
        <ele>26</ele>
        <time>2019-02-21T16:13:01Z</time>
      </trkpt>
      <trkpt lat="46.63833" lon="-1.84052">
        <ele>26</ele>
        <time>2019-02-21T16:13:03Z</time>
      </trkpt>
      <trkpt lat="46.6383" lon="-1.84047">
        <ele>26</ele>
        <time>2019-02-21T16:13:06Z</time>
      </trkpt>
      <trkpt lat="46.63826" lon="-1.84043">
        <ele>27</ele>
        <time>2019-02-21T16:13:08Z</time>
      </trkpt>
      <trkpt lat="46.63823" lon="-1.84041">
        <ele>27</ele>
        <time>2019-02-21T16:13:11Z</time>
      </trkpt>
      <trkpt lat="46.6382" lon="-1.84037">
        <ele>27</ele>
        <time>2019-02-21T16:13:14Z</time>
      </trkpt>
      <trkpt lat="46.63818" lon="-1.84034">
        <ele>27</ele>
        <time>2019-02-21T16:13:16Z</time>
      </trkpt>
      <trkpt lat="46.63815" lon="-1.84029">
        <ele>27</ele>
        <time>2019-02-21T16:13:19Z</time>
      </trkpt>
      <trkpt lat="46.63812" lon="-1.84026">
        <ele>27</ele>
        <time>2019-02-21T16:13:21Z</time>
      </trkpt>
      <trkpt lat="46.63809" lon="-1.84022">
        <ele>27</ele>
        <time>2019-02-21T16:13:24Z</time>
      </trkpt>
      <trkpt lat="46.63805" lon="-1.84014">
        <ele>27</ele>
        <time>2019-02-21T16:13:29Z</time>
      </trkpt>
      <trkpt lat="46.63803" lon="-1.84009">
        <ele>27</ele>
        <time>2019-02-21T16:13:32Z</time>
      </trkpt>
      <trkpt lat="46.63801" lon="-1.84007">
        <ele>27</ele>
        <time>2019-02-21T16:13:34Z</time>
      </trkpt>
      <trkpt lat="46.63798" lon="-1.84002">
        <ele>27</ele>
        <time>2019-02-21T16:13:37Z</time>
      </trkpt>
      <trkpt lat="46.63796" lon="-1.83998">
        <ele>27</ele>
        <time>2019-02-21T16:13:39Z</time>
      </trkpt>
      <trkpt lat="46.63794" lon="-1.83995">
        <ele>27</ele>
        <time>2019-02-21T16:13:42Z</time>
      </trkpt>
      <trkpt lat="46.63791" lon="-1.83991">
        <ele>27</ele>
        <time>2019-02-21T16:13:44Z</time>
      </trkpt>
      <trkpt lat="46.63789" lon="-1.83988">
        <ele>27</ele>
        <time>2019-02-21T16:13:47Z</time>
      </trkpt>
      <trkpt lat="46.63786" lon="-1.83984">
        <ele>27</ele>
        <time>2019-02-21T16:13:50Z</time>
      </trkpt>
      <trkpt lat="46.63784" lon="-1.8398">
        <ele>27</ele>
        <time>2019-02-21T16:13:52Z</time>
      </trkpt>
      <trkpt lat="46.63782" lon="-1.83976">
        <ele>27</ele>
        <time>2019-02-21T16:13:55Z</time>
      </trkpt>
      <trkpt lat="46.63778" lon="-1.83968">
        <ele>27</ele>
        <time>2019-02-21T16:14:00Z</time>
      </trkpt>
      <trkpt lat="46.63776" lon="-1.83965">
        <ele>27</ele>
        <time>2019-02-21T16:14:02Z</time>
      </trkpt>
      <trkpt lat="46.63774" lon="-1.83961">
        <ele>27</ele>
        <time>2019-02-21T16:14:05Z</time>
      </trkpt>
      <trkpt lat="46.63771" lon="-1.83956">
        <ele>27</ele>
        <time>2019-02-21T16:14:07Z</time>
      </trkpt>
      <trkpt lat="46.63769" lon="-1.83953">
        <ele>27</ele>
        <time>2019-02-21T16:14:10Z</time>
      </trkpt>
      <trkpt lat="46.63766" lon="-1.83949">
        <ele>27</ele>
        <time>2019-02-21T16:14:12Z</time>
      </trkpt>
      <trkpt lat="46.63765" lon="-1.83946">
        <ele>27</ele>
        <time>2019-02-21T16:14:15Z</time>
      </trkpt>
      <trkpt lat="46.63762" lon="-1.83941">
        <ele>27</ele>
        <time>2019-02-21T16:14:17Z</time>
      </trkpt>
      <trkpt lat="46.63761" lon="-1.83938">
        <ele>27</ele>
        <time>2019-02-21T16:14:20Z</time>
      </trkpt>
      <trkpt lat="46.63758" lon="-1.83933">
        <ele>27</ele>
        <time>2019-02-21T16:14:23Z</time>
      </trkpt>
      <trkpt lat="46.63756" lon="-1.8393">
        <ele>27</ele>
        <time>2019-02-21T16:14:25Z</time>
      </trkpt>
      <trkpt lat="46.63753" lon="-1.83923">
        <ele>27</ele>
        <time>2019-02-21T16:14:30Z</time>
      </trkpt>
      <trkpt lat="46.6375" lon="-1.83919">
        <ele>27</ele>
        <time>2019-02-21T16:14:33Z</time>
      </trkpt>
      <trkpt lat="46.63748" lon="-1.83916">
        <ele>27</ele>
        <time>2019-02-21T16:14:35Z</time>
      </trkpt>
      <trkpt lat="46.63746" lon="-1.83912">
        <ele>27</ele>
        <time>2019-02-21T16:14:38Z</time>
      </trkpt>
      <trkpt lat="46.63743" lon="-1.83909">
        <ele>27</ele>
        <time>2019-02-21T16:14:40Z</time>
      </trkpt>
      <trkpt lat="46.63741" lon="-1.83905">
        <ele>27</ele>
        <time>2019-02-21T16:14:43Z</time>
      </trkpt>
      <trkpt lat="46.63738" lon="-1.83902">
        <ele>27</ele>
        <time>2019-02-21T16:14:45Z</time>
      </trkpt>
      <trkpt lat="46.63735" lon="-1.83898">
        <ele>27</ele>
        <time>2019-02-21T16:14:48Z</time>
      </trkpt>
      <trkpt lat="46.63733" lon="-1.83895">
        <ele>27</ele>
        <time>2019-02-21T16:14:50Z</time>
      </trkpt>
      <trkpt lat="46.6373" lon="-1.8389">
        <ele>27</ele>
        <time>2019-02-21T16:14:53Z</time>
      </trkpt>
      <trkpt lat="46.63728" lon="-1.83886">
        <ele>27</ele>
        <time>2019-02-21T16:14:55Z</time>
      </trkpt>
      <trkpt lat="46.63723" lon="-1.83879">
        <ele>27</ele>
        <time>2019-02-21T16:15:01Z</time>
      </trkpt>
      <trkpt lat="46.63721" lon="-1.83876">
        <ele>27</ele>
        <time>2019-02-21T16:15:03Z</time>
      </trkpt>
      <trkpt lat="46.63718" lon="-1.83872">
        <ele>27</ele>
        <time>2019-02-21T16:15:06Z</time>
      </trkpt>
      <trkpt lat="46.63715" lon="-1.83868">
        <ele>27</ele>
        <time>2019-02-21T16:15:08Z</time>
      </trkpt>
      <trkpt lat="46.63713" lon="-1.83865">
        <ele>27</ele>
        <time>2019-02-21T16:15:11Z</time>
      </trkpt>
      <trkpt lat="46.6371" lon="-1.83861">
        <ele>27</ele>
        <time>2019-02-21T16:15:13Z</time>
      </trkpt>
      <trkpt lat="46.63709" lon="-1.83858">
        <ele>27</ele>
        <time>2019-02-21T16:15:16Z</time>
      </trkpt>
      <trkpt lat="46.63706" lon="-1.83854">
        <ele>27</ele>
        <time>2019-02-21T16:15:19Z</time>
      </trkpt>
      <trkpt lat="46.63703" lon="-1.83851">
        <ele>27</ele>
        <time>2019-02-21T16:15:21Z</time>
      </trkpt>
      <trkpt lat="46.63701" lon="-1.83847">
        <ele>27</ele>
        <time>2019-02-21T16:15:24Z</time>
      </trkpt>
      <trkpt lat="46.63698" lon="-1.83844">
        <ele>27</ele>
        <time>2019-02-21T16:15:26Z</time>
      </trkpt>
      <trkpt lat="46.63693" lon="-1.83837">
        <ele>27</ele>
        <time>2019-02-21T16:15:32Z</time>
      </trkpt>
      <trkpt lat="46.63691" lon="-1.83834">
        <ele>27</ele>
        <time>2019-02-21T16:15:34Z</time>
      </trkpt>
      <trkpt lat="46.63688" lon="-1.8383">
        <ele>26</ele>
        <time>2019-02-21T16:15:37Z</time>
      </trkpt>
      <trkpt lat="46.63686" lon="-1.83827">
        <ele>26</ele>
        <time>2019-02-21T16:15:39Z</time>
      </trkpt>
      <trkpt lat="46.63683" lon="-1.83823">
        <ele>26</ele>
        <time>2019-02-21T16:15:42Z</time>
      </trkpt>
      <trkpt lat="46.63679" lon="-1.83819">
        <ele>26</ele>
        <time>2019-02-21T16:15:44Z</time>
      </trkpt>
      <trkpt lat="46.63677" lon="-1.83816">
        <ele>26</ele>
        <time>2019-02-21T16:15:47Z</time>
      </trkpt>
      <trkpt lat="46.63674" lon="-1.83813">
        <ele>26</ele>
        <time>2019-02-21T16:15:49Z</time>
      </trkpt>
      <trkpt lat="46.63672" lon="-1.8381">
        <ele>26</ele>
        <time>2019-02-21T16:15:52Z</time>
      </trkpt>
      <trkpt lat="46.63669" lon="-1.83806">
        <ele>26</ele>
        <time>2019-02-21T16:15:55Z</time>
      </trkpt>
      <trkpt lat="46.63667" lon="-1.83803">
        <ele>26</ele>
        <time>2019-02-21T16:15:57Z</time>
      </trkpt>
      <trkpt lat="46.63662" lon="-1.83796">
        <ele>26</ele>
        <time>2019-02-21T16:16:02Z</time>
      </trkpt>
      <trkpt lat="46.63659" lon="-1.83793">
        <ele>26</ele>
        <time>2019-02-21T16:16:05Z</time>
      </trkpt>
      <trkpt lat="46.63657" lon="-1.8379">
        <ele>26</ele>
        <time>2019-02-21T16:16:07Z</time>
      </trkpt>
      <trkpt lat="46.63654" lon="-1.83786">
        <ele>26</ele>
        <time>2019-02-21T16:16:10Z</time>
      </trkpt>
      <trkpt lat="46.63653" lon="-1.83784">
        <ele>25</ele>
        <time>2019-02-21T16:16:12Z</time>
      </trkpt>
      <trkpt lat="46.6365" lon="-1.8378">
        <ele>26</ele>
        <time>2019-02-21T16:16:15Z</time>
      </trkpt>
      <trkpt lat="46.63647" lon="-1.83777">
        <ele>25</ele>
        <time>2019-02-21T16:16:17Z</time>
      </trkpt>
      <trkpt lat="46.63645" lon="-1.83775">
        <ele>25</ele>
        <time>2019-02-21T16:16:20Z</time>
      </trkpt>
      <trkpt lat="46.63641" lon="-1.83771">
        <ele>25</ele>
        <time>2019-02-21T16:16:23Z</time>
      </trkpt>
      <trkpt lat="46.6364" lon="-1.83769">
        <ele>25</ele>
        <time>2019-02-21T16:16:25Z</time>
      </trkpt>
      <trkpt lat="46.63634" lon="-1.83764">
        <ele>25</ele>
        <time>2019-02-21T16:16:30Z</time>
      </trkpt>
      <trkpt lat="46.63631" lon="-1.83761">
        <ele>25</ele>
        <time>2019-02-21T16:16:33Z</time>
      </trkpt>
      <trkpt lat="46.63627" lon="-1.8376">
        <ele>25</ele>
        <time>2019-02-21T16:16:35Z</time>
      </trkpt>
      <trkpt lat="46.63625" lon="-1.83762">
        <ele>25</ele>
        <time>2019-02-21T16:16:38Z</time>
      </trkpt>
      <trkpt lat="46.63623" lon="-1.83766">
        <ele>25</ele>
        <time>2019-02-21T16:16:41Z</time>
      </trkpt>
      <trkpt lat="46.63623" lon="-1.83769">
        <ele>25</ele>
        <time>2019-02-21T16:16:43Z</time>
      </trkpt>
      <trkpt lat="46.63622" lon="-1.8377">
        <ele>25</ele>
        <time>2019-02-21T16:16:46Z</time>
      </trkpt>
      <trkpt lat="46.63622" lon="-1.83772">
        <ele>25</ele>
        <time>2019-02-21T16:16:48Z</time>
      </trkpt>
      <trkpt lat="46.63622" lon="-1.83775">
        <ele>25</ele>
        <time>2019-02-21T16:16:51Z</time>
      </trkpt>
      <trkpt lat="46.63621" lon="-1.83778">
        <ele>25</ele>
        <time>2019-02-21T16:16:53Z</time>
      </trkpt>
      <trkpt lat="46.6362" lon="-1.8378">
        <ele>25</ele>
        <time>2019-02-21T16:16:56Z</time>
      </trkpt>
      <trkpt lat="46.6362" lon="-1.83785">
        <ele>25</ele>
        <time>2019-02-21T16:17:01Z</time>
      </trkpt>
      <trkpt lat="46.6362" lon="-1.83785">
        <ele>25</ele>
        <time>2019-02-21T16:17:04Z</time>
      </trkpt>
      <trkpt lat="46.6362" lon="-1.83786">
        <ele>25</ele>
        <time>2019-02-21T16:17:06Z</time>
      </trkpt>
      <trkpt lat="46.63618" lon="-1.83787">
        <ele>25</ele>
        <time>2019-02-21T16:17:09Z</time>
      </trkpt>
      <trkpt lat="46.63617" lon="-1.83788">
        <ele>25</ele>
        <time>2019-02-21T16:17:11Z</time>
      </trkpt>
      <trkpt lat="46.63616" lon="-1.8379">
        <ele>25</ele>
        <time>2019-02-21T16:17:14Z</time>
      </trkpt>
      <trkpt lat="46.63615" lon="-1.8379">
        <ele>25</ele>
        <time>2019-02-21T16:17:17Z</time>
      </trkpt>
      <trkpt lat="46.63615" lon="-1.8379">
        <ele>25</ele>
        <time>2019-02-21T16:17:19Z</time>
      </trkpt>
      <trkpt lat="46.63614" lon="-1.83791">
        <ele>25</ele>
        <time>2019-02-21T16:17:22Z</time>
      </trkpt>
      <trkpt lat="46.63614" lon="-1.83792">
        <ele>25</ele>
        <time>2019-02-21T16:17:24Z</time>
      </trkpt>
      <trkpt lat="46.63614" lon="-1.83793">
        <ele>25</ele>
        <time>2019-02-21T16:17:27Z</time>
      </trkpt>
      <trkpt lat="46.63612" lon="-1.83791">
        <ele>25</ele>
        <time>2019-02-21T16:17:32Z</time>
      </trkpt>
      <trkpt lat="46.63612" lon="-1.83791">
        <ele>25</ele>
        <time>2019-02-21T16:17:34Z</time>
      </trkpt>
      <trkpt lat="46.63612" lon="-1.83791">
        <ele>25</ele>
        <time>2019-02-21T16:17:37Z</time>
      </trkpt>
      <trkpt lat="46.63611" lon="-1.83791">
        <ele>25</ele>
        <time>2019-02-21T16:17:39Z</time>
      </trkpt>
      <trkpt lat="46.63611" lon="-1.83791">
        <ele>25</ele>
        <time>2019-02-21T16:17:42Z</time>
      </trkpt>
      <trkpt lat="46.63611" lon="-1.83791">
        <ele>25</ele>
        <time>2019-02-21T16:17:45Z</time>
      </trkpt>
      <trkpt lat="46.6361" lon="-1.83794">
        <ele>25</ele>
        <time>2019-02-21T16:17:47Z</time>
      </trkpt>
      <trkpt lat="46.63608" lon="-1.83799">
        <ele>25</ele>
        <time>2019-02-21T16:17:50Z</time>
      </trkpt>
      <trkpt lat="46.63607" lon="-1.83803">
        <ele>25</ele>
        <time>2019-02-21T16:17:52Z</time>
      </trkpt>
      <trkpt lat="46.63606" lon="-1.83809">
        <ele>25</ele>
        <time>2019-02-21T16:17:55Z</time>
      </trkpt>
      <trkpt lat="46.63605" lon="-1.83812">
        <ele>25</ele>
        <time>2019-02-21T16:17:57Z</time>
      </trkpt>
      <trkpt lat="46.63603" lon="-1.83822">
        <ele>25</ele>
        <time>2019-02-21T16:18:02Z</time>
      </trkpt>
      <trkpt lat="46.63601" lon="-1.83827">
        <ele>25</ele>
        <time>2019-02-21T16:18:05Z</time>
      </trkpt>
      <trkpt lat="46.63599" lon="-1.83831">
        <ele>25</ele>
        <time>2019-02-21T16:18:07Z</time>
      </trkpt>
      <trkpt lat="46.63597" lon="-1.83837">
        <ele>25</ele>
        <time>2019-02-21T16:18:10Z</time>
      </trkpt>
      <trkpt lat="46.63596" lon="-1.83842">
        <ele>25</ele>
        <time>2019-02-21T16:18:12Z</time>
      </trkpt>
      <trkpt lat="46.63595" lon="-1.83847">
        <ele>25</ele>
        <time>2019-02-21T16:18:15Z</time>
      </trkpt>
      <trkpt lat="46.63593" lon="-1.83852">
        <ele>25</ele>
        <time>2019-02-21T16:18:17Z</time>
      </trkpt>
      <trkpt lat="46.63592" lon="-1.83856">
        <ele>25</ele>
        <time>2019-02-21T16:18:20Z</time>
      </trkpt>
      <trkpt lat="46.6359" lon="-1.83862">
        <ele>25</ele>
        <time>2019-02-21T16:18:23Z</time>
      </trkpt>
      <trkpt lat="46.63589" lon="-1.83866">
        <ele>25</ele>
        <time>2019-02-21T16:18:25Z</time>
      </trkpt>
      <trkpt lat="46.63587" lon="-1.83872">
        <ele>25</ele>
        <time>2019-02-21T16:18:28Z</time>
      </trkpt>
      <trkpt lat="46.63583" lon="-1.8388">
        <ele>25</ele>
        <time>2019-02-21T16:18:33Z</time>
      </trkpt>
      <trkpt lat="46.63582" lon="-1.83885">
        <ele>25</ele>
        <time>2019-02-21T16:18:35Z</time>
      </trkpt>
      <trkpt lat="46.6358" lon="-1.83888">
        <ele>25</ele>
        <time>2019-02-21T16:18:38Z</time>
      </trkpt>
      <trkpt lat="46.63578" lon="-1.83893">
        <ele>25</ele>
        <time>2019-02-21T16:18:40Z</time>
      </trkpt>
      <trkpt lat="46.63577" lon="-1.83896">
        <ele>25</ele>
        <time>2019-02-21T16:18:43Z</time>
      </trkpt>
      <trkpt lat="46.63576" lon="-1.83901">
        <ele>24</ele>
        <time>2019-02-21T16:18:46Z</time>
      </trkpt>
      <trkpt lat="46.63576" lon="-1.83903">
        <ele>24</ele>
        <time>2019-02-21T16:18:48Z</time>
      </trkpt>
      <trkpt lat="46.63576" lon="-1.83903">
        <ele>24</ele>
        <time>2019-02-21T16:18:51Z</time>
      </trkpt>
      <trkpt lat="46.63575" lon="-1.83903">
        <ele>24</ele>
        <time>2019-02-21T16:18:53Z</time>
      </trkpt>
      <trkpt lat="46.63575" lon="-1.83903">
        <ele>24</ele>
        <time>2019-02-21T16:18:56Z</time>
      </trkpt>
      <trkpt lat="46.63575" lon="-1.83903">
        <ele>24</ele>
        <time>2019-02-21T16:18:58Z</time>
      </trkpt>
      <trkpt lat="46.63575" lon="-1.83904">
        <ele>24</ele>
        <time>2019-02-21T16:19:04Z</time>
      </trkpt>
      <trkpt lat="46.63575" lon="-1.83904">
        <ele>24</ele>
        <time>2019-02-21T16:19:06Z</time>
      </trkpt>
      <trkpt lat="46.63574" lon="-1.83905">
        <ele>24</ele>
        <time>2019-02-21T16:19:09Z</time>
      </trkpt>
      <trkpt lat="46.63574" lon="-1.83905">
        <ele>24</ele>
        <time>2019-02-21T16:19:11Z</time>
      </trkpt>
      <trkpt lat="46.63574" lon="-1.83905">
        <ele>24</ele>
        <time>2019-02-21T16:19:14Z</time>
      </trkpt>
      <trkpt lat="46.63574" lon="-1.83906">
        <ele>24</ele>
        <time>2019-02-21T16:19:16Z</time>
      </trkpt>
      <trkpt lat="46.63574" lon="-1.83906">
        <ele>24</ele>
        <time>2019-02-21T16:19:19Z</time>
      </trkpt>
      <trkpt lat="46.63576" lon="-1.83909">
        <ele>24</ele>
        <time>2019-02-21T16:19:21Z</time>
      </trkpt>
      <trkpt lat="46.63576" lon="-1.83912">
        <ele>24</ele>
        <time>2019-02-21T16:19:24Z</time>
      </trkpt>
      <trkpt lat="46.63577" lon="-1.83917">
        <ele>24</ele>
        <time>2019-02-21T16:19:26Z</time>
      </trkpt>
      <trkpt lat="46.63578" lon="-1.83924">
        <ele>24</ele>
        <time>2019-02-21T16:19:32Z</time>
      </trkpt>
      <trkpt lat="46.63578" lon="-1.83926">
        <ele>24</ele>
        <time>2019-02-21T16:19:34Z</time>
      </trkpt>
      <trkpt lat="46.63578" lon="-1.83927">
        <ele>24</ele>
        <time>2019-02-21T16:19:37Z</time>
      </trkpt>
      <trkpt lat="46.63578" lon="-1.83927">
        <ele>24</ele>
        <time>2019-02-21T16:19:39Z</time>
      </trkpt>
      <trkpt lat="46.63579" lon="-1.83929">
        <ele>24</ele>
        <time>2019-02-21T16:19:42Z</time>
      </trkpt>
      <trkpt lat="46.6358" lon="-1.83932">
        <ele>24</ele>
        <time>2019-02-21T16:19:44Z</time>
      </trkpt>
      <trkpt lat="46.63581" lon="-1.83935">
        <ele>24</ele>
        <time>2019-02-21T16:19:47Z</time>
      </trkpt>
      <trkpt lat="46.63583" lon="-1.83939">
        <ele>24</ele>
        <time>2019-02-21T16:19:50Z</time>
      </trkpt>
      <trkpt lat="46.63584" lon="-1.83943">
        <ele>24</ele>
        <time>2019-02-21T16:19:52Z</time>
      </trkpt>
      <trkpt lat="46.63584" lon="-1.83947">
        <ele>24</ele>
        <time>2019-02-21T16:19:55Z</time>
      </trkpt>
      <trkpt lat="46.63585" lon="-1.83949">
        <ele>24</ele>
        <time>2019-02-21T16:19:57Z</time>
      </trkpt>
      <trkpt lat="46.63587" lon="-1.83956">
        <ele>24</ele>
        <time>2019-02-21T16:20:03Z</time>
      </trkpt>
      <trkpt lat="46.63588" lon="-1.83959">
        <ele>24</ele>
        <time>2019-02-21T16:20:05Z</time>
      </trkpt>
      <trkpt lat="46.63589" lon="-1.83964">
        <ele>24</ele>
        <time>2019-02-21T16:20:08Z</time>
      </trkpt>
      <trkpt lat="46.6359" lon="-1.83969">
        <ele>24</ele>
        <time>2019-02-21T16:20:10Z</time>
      </trkpt>
      <trkpt lat="46.63591" lon="-1.83973">
        <ele>24</ele>
        <time>2019-02-21T16:20:13Z</time>
      </trkpt>
      <trkpt lat="46.63593" lon="-1.83978">
        <ele>24</ele>
        <time>2019-02-21T16:20:16Z</time>
      </trkpt>
      <trkpt lat="46.63594" lon="-1.83984">
        <ele>24</ele>
        <time>2019-02-21T16:20:18Z</time>
      </trkpt>
      <trkpt lat="46.63595" lon="-1.83988">
        <ele>24</ele>
        <time>2019-02-21T16:20:21Z</time>
      </trkpt>
      <trkpt lat="46.63596" lon="-1.83993">
        <ele>24</ele>
        <time>2019-02-21T16:20:24Z</time>
      </trkpt>
      <trkpt lat="46.63596" lon="-1.83997">
        <ele>24</ele>
        <time>2019-02-21T16:20:26Z</time>
      </trkpt>
      <trkpt lat="46.63598" lon="-1.84001">
        <ele>24</ele>
        <time>2019-02-21T16:20:29Z</time>
      </trkpt>
      <trkpt lat="46.636" lon="-1.8401">
        <ele>24</ele>
        <time>2019-02-21T16:20:34Z</time>
      </trkpt>
      <trkpt lat="46.63601" lon="-1.84015">
        <ele>24</ele>
        <time>2019-02-21T16:20:37Z</time>
      </trkpt>
      <trkpt lat="46.63601" lon="-1.84019">
        <ele>24</ele>
        <time>2019-02-21T16:20:39Z</time>
      </trkpt>
      <trkpt lat="46.63601" lon="-1.84024">
        <ele>24</ele>
        <time>2019-02-21T16:20:42Z</time>
      </trkpt>
      <trkpt lat="46.63601" lon="-1.84026">
        <ele>24</ele>
        <time>2019-02-21T16:20:44Z</time>
      </trkpt>
      <trkpt lat="46.63601" lon="-1.84031">
        <ele>24</ele>
        <time>2019-02-21T16:20:47Z</time>
      </trkpt>
      <trkpt lat="46.63602" lon="-1.84037">
        <ele>24</ele>
        <time>2019-02-21T16:20:49Z</time>
      </trkpt>
      <trkpt lat="46.63602" lon="-1.8404">
        <ele>24</ele>
        <time>2019-02-21T16:20:52Z</time>
      </trkpt>
      <trkpt lat="46.63602" lon="-1.84046">
        <ele>24</ele>
        <time>2019-02-21T16:20:55Z</time>
      </trkpt>
      <trkpt lat="46.63602" lon="-1.84052">
        <ele>24</ele>
        <time>2019-02-21T16:20:57Z</time>
      </trkpt>
      <trkpt lat="46.63602" lon="-1.84056">
        <ele>24</ele>
        <time>2019-02-21T16:21:00Z</time>
      </trkpt>
      <trkpt lat="46.63603" lon="-1.84065">
        <ele>24</ele>
        <time>2019-02-21T16:21:05Z</time>
      </trkpt>
      <trkpt lat="46.63602" lon="-1.84069">
        <ele>24</ele>
        <time>2019-02-21T16:21:08Z</time>
      </trkpt>
      <trkpt lat="46.63602" lon="-1.84071">
        <ele>24</ele>
        <time>2019-02-21T16:21:10Z</time>
      </trkpt>
      <trkpt lat="46.63601" lon="-1.84072">
        <ele>24</ele>
        <time>2019-02-21T16:21:13Z</time>
      </trkpt>
      <trkpt lat="46.63601" lon="-1.84073">
        <ele>24</ele>
        <time>2019-02-21T16:21:15Z</time>
      </trkpt>
      <trkpt lat="46.63601" lon="-1.84073">
        <ele>24</ele>
        <time>2019-02-21T16:21:18Z</time>
      </trkpt>
      <trkpt lat="46.63601" lon="-1.84073">
        <ele>24</ele>
        <time>2019-02-21T16:21:20Z</time>
      </trkpt>
      <trkpt lat="46.63601" lon="-1.84074">
        <ele>24</ele>
        <time>2019-02-21T16:21:23Z</time>
      </trkpt>
      <trkpt lat="46.63601" lon="-1.84078">
        <ele>24</ele>
        <time>2019-02-21T16:21:26Z</time>
      </trkpt>
      <trkpt lat="46.636" lon="-1.84082">
        <ele>24</ele>
        <time>2019-02-21T16:21:28Z</time>
      </trkpt>
      <trkpt lat="46.636" lon="-1.84089">
        <ele>24</ele>
        <time>2019-02-21T16:21:31Z</time>
      </trkpt>
      <trkpt lat="46.636" lon="-1.84098">
        <ele>24</ele>
        <time>2019-02-21T16:21:36Z</time>
      </trkpt>
      <trkpt lat="46.636" lon="-1.84104">
        <ele>24</ele>
        <time>2019-02-21T16:21:38Z</time>
      </trkpt>
      <trkpt lat="46.636" lon="-1.84107">
        <ele>24</ele>
        <time>2019-02-21T16:21:41Z</time>
      </trkpt>
      <trkpt lat="46.63601" lon="-1.84112">
        <ele>24</ele>
        <time>2019-02-21T16:21:43Z</time>
      </trkpt>
      <trkpt lat="46.63601" lon="-1.84116">
        <ele>24</ele>
        <time>2019-02-21T16:21:46Z</time>
      </trkpt>
      <trkpt lat="46.63601" lon="-1.8412">
        <ele>24</ele>
        <time>2019-02-21T16:21:49Z</time>
      </trkpt>
      <trkpt lat="46.636" lon="-1.84122">
        <ele>24</ele>
        <time>2019-02-21T16:21:51Z</time>
      </trkpt>
      <trkpt lat="46.636" lon="-1.84122">
        <ele>24</ele>
        <time>2019-02-21T16:21:54Z</time>
      </trkpt>
      <trkpt lat="46.63599" lon="-1.84122">
        <ele>24</ele>
        <time>2019-02-21T16:21:56Z</time>
      </trkpt>
      <trkpt lat="46.63599" lon="-1.84123">
        <ele>24</ele>
        <time>2019-02-21T16:21:59Z</time>
      </trkpt>
      <trkpt lat="46.636" lon="-1.84127">
        <ele>24</ele>
        <time>2019-02-21T16:22:02Z</time>
      </trkpt>
      <trkpt lat="46.636" lon="-1.84136">
        <ele>24</ele>
        <time>2019-02-21T16:22:07Z</time>
      </trkpt>
      <trkpt lat="46.636" lon="-1.84141">
        <ele>24</ele>
        <time>2019-02-21T16:22:09Z</time>
      </trkpt>
      <trkpt lat="46.636" lon="-1.84147">
        <ele>24</ele>
        <time>2019-02-21T16:22:12Z</time>
      </trkpt>
      <trkpt lat="46.63601" lon="-1.84153">
        <ele>24</ele>
        <time>2019-02-21T16:22:14Z</time>
      </trkpt>
      <trkpt lat="46.63601" lon="-1.84158">
        <ele>24</ele>
        <time>2019-02-21T16:22:17Z</time>
      </trkpt>
      <trkpt lat="46.63601" lon="-1.84164">
        <ele>24</ele>
        <time>2019-02-21T16:22:20Z</time>
      </trkpt>
      <trkpt lat="46.636" lon="-1.84166">
        <ele>24</ele>
        <time>2019-02-21T16:22:22Z</time>
      </trkpt>
      <trkpt lat="46.63601" lon="-1.8417">
        <ele>24</ele>
        <time>2019-02-21T16:22:25Z</time>
      </trkpt>
      <trkpt lat="46.63602" lon="-1.84176">
        <ele>24</ele>
        <time>2019-02-21T16:22:27Z</time>
      </trkpt>
      <trkpt lat="46.63602" lon="-1.84179">
        <ele>24</ele>
        <time>2019-02-21T16:22:30Z</time>
      </trkpt>
      <trkpt lat="46.63602" lon="-1.8419">
        <ele>24</ele>
        <time>2019-02-21T16:22:35Z</time>
      </trkpt>
      <trkpt lat="46.63602" lon="-1.84196">
        <ele>24</ele>
        <time>2019-02-21T16:22:38Z</time>
      </trkpt>
      <trkpt lat="46.63602" lon="-1.84201">
        <ele>24</ele>
        <time>2019-02-21T16:22:40Z</time>
      </trkpt>
      <trkpt lat="46.63601" lon="-1.84204">
        <ele>24</ele>
        <time>2019-02-21T16:22:43Z</time>
      </trkpt>
      <trkpt lat="46.63602" lon="-1.84208">
        <ele>24</ele>
        <time>2019-02-21T16:22:46Z</time>
      </trkpt>
      <trkpt lat="46.63602" lon="-1.84213">
        <ele>24</ele>
        <time>2019-02-21T16:22:48Z</time>
      </trkpt>
      <trkpt lat="46.63602" lon="-1.84219">
        <ele>25</ele>
        <time>2019-02-21T16:22:51Z</time>
      </trkpt>
      <trkpt lat="46.63602" lon="-1.84225">
        <ele>25</ele>
        <time>2019-02-21T16:22:53Z</time>
      </trkpt>
      <trkpt lat="46.63602" lon="-1.84228">
        <ele>25</ele>
        <time>2019-02-21T16:22:56Z</time>
      </trkpt>
      <trkpt lat="46.63601" lon="-1.84234">
        <ele>25</ele>
        <time>2019-02-21T16:22:59Z</time>
      </trkpt>
      <trkpt lat="46.63601" lon="-1.84237">
        <ele>25</ele>
        <time>2019-02-21T16:23:01Z</time>
      </trkpt>
      <trkpt lat="46.63601" lon="-1.84247">
        <ele>25</ele>
        <time>2019-02-21T16:23:06Z</time>
      </trkpt>
      <trkpt lat="46.63602" lon="-1.84251">
        <ele>25</ele>
        <time>2019-02-21T16:23:09Z</time>
      </trkpt>
      <trkpt lat="46.63602" lon="-1.84257">
        <ele>25</ele>
        <time>2019-02-21T16:23:11Z</time>
      </trkpt>
      <trkpt lat="46.63601" lon="-1.84261">
        <ele>25</ele>
        <time>2019-02-21T16:23:14Z</time>
      </trkpt>
      <trkpt lat="46.636" lon="-1.84267">
        <ele>25</ele>
        <time>2019-02-21T16:23:17Z</time>
      </trkpt>
      <trkpt lat="46.636" lon="-1.84271">
        <ele>25</ele>
        <time>2019-02-21T16:23:19Z</time>
      </trkpt>
      <trkpt lat="46.63599" lon="-1.84278">
        <ele>25</ele>
        <time>2019-02-21T16:23:22Z</time>
      </trkpt>
      <trkpt lat="46.63599" lon="-1.84282">
        <ele>25</ele>
        <time>2019-02-21T16:23:24Z</time>
      </trkpt>
      <trkpt lat="46.63598" lon="-1.84284">
        <ele>25</ele>
        <time>2019-02-21T16:23:27Z</time>
      </trkpt>
      <trkpt lat="46.63597" lon="-1.84285">
        <ele>25</ele>
        <time>2019-02-21T16:23:29Z</time>
      </trkpt>
      <trkpt lat="46.63598" lon="-1.84287">
        <ele>25</ele>
        <time>2019-02-21T16:23:32Z</time>
      </trkpt>
      <trkpt lat="46.63598" lon="-1.84298">
        <ele>25</ele>
        <time>2019-02-21T16:23:37Z</time>
      </trkpt>
      <trkpt lat="46.63598" lon="-1.84303">
        <ele>25</ele>
        <time>2019-02-21T16:23:40Z</time>
      </trkpt>
      <trkpt lat="46.63597" lon="-1.8431">
        <ele>25</ele>
        <time>2019-02-21T16:23:42Z</time>
      </trkpt>
      <trkpt lat="46.63596" lon="-1.84314">
        <ele>26</ele>
        <time>2019-02-21T16:23:45Z</time>
      </trkpt>
      <trkpt lat="46.63596" lon="-1.84321">
        <ele>26</ele>
        <time>2019-02-21T16:23:48Z</time>
      </trkpt>
      <trkpt lat="46.63596" lon="-1.84325">
        <ele>26</ele>
        <time>2019-02-21T16:23:50Z</time>
      </trkpt>
      <trkpt lat="46.63596" lon="-1.84332">
        <ele>26</ele>
        <time>2019-02-21T16:23:53Z</time>
      </trkpt>
      <trkpt lat="46.63597" lon="-1.84339">
        <ele>26</ele>
        <time>2019-02-21T16:23:55Z</time>
      </trkpt>
      <trkpt lat="46.63597" lon="-1.84343">
        <ele>26</ele>
        <time>2019-02-21T16:23:58Z</time>
      </trkpt>
      <trkpt lat="46.63596" lon="-1.8435">
        <ele>26</ele>
        <time>2019-02-21T16:24:00Z</time>
      </trkpt>
      <trkpt lat="46.63597" lon="-1.84355">
        <ele>26</ele>
        <time>2019-02-21T16:24:03Z</time>
      </trkpt>
      <trkpt lat="46.63596" lon="-1.84366">
        <ele>26</ele>
        <time>2019-02-21T16:24:08Z</time>
      </trkpt>
      <trkpt lat="46.63595" lon="-1.84372">
        <ele>26</ele>
        <time>2019-02-21T16:24:11Z</time>
      </trkpt>
      <trkpt lat="46.63595" lon="-1.84377">
        <ele>26</ele>
        <time>2019-02-21T16:24:13Z</time>
      </trkpt>
      <trkpt lat="46.63594" lon="-1.84383">
        <ele>26</ele>
        <time>2019-02-21T16:24:16Z</time>
      </trkpt>
      <trkpt lat="46.63594" lon="-1.84388">
        <ele>26</ele>
        <time>2019-02-21T16:24:18Z</time>
      </trkpt>
      <trkpt lat="46.63594" lon="-1.84395">
        <ele>26</ele>
        <time>2019-02-21T16:24:21Z</time>
      </trkpt>
      <trkpt lat="46.63593" lon="-1.84399">
        <ele>26</ele>
        <time>2019-02-21T16:24:23Z</time>
      </trkpt>
      <trkpt lat="46.63593" lon="-1.84406">
        <ele>26</ele>
        <time>2019-02-21T16:24:26Z</time>
      </trkpt>
      <trkpt lat="46.63593" lon="-1.84411">
        <ele>26</ele>
        <time>2019-02-21T16:24:28Z</time>
      </trkpt>
      <trkpt lat="46.63592" lon="-1.84413">
        <ele>26</ele>
        <time>2019-02-21T16:24:31Z</time>
      </trkpt>
      <trkpt lat="46.63592" lon="-1.84416">
        <ele>26</ele>
        <time>2019-02-21T16:24:33Z</time>
      </trkpt>
      <trkpt lat="46.63591" lon="-1.84424">
        <ele>26</ele>
        <time>2019-02-21T16:24:39Z</time>
      </trkpt>
      <trkpt lat="46.63591" lon="-1.84427">
        <ele>26</ele>
        <time>2019-02-21T16:24:41Z</time>
      </trkpt>
      <trkpt lat="46.63591" lon="-1.84431">
        <ele>26</ele>
        <time>2019-02-21T16:24:44Z</time>
      </trkpt>
      <trkpt lat="46.63589" lon="-1.84434">
        <ele>26</ele>
        <time>2019-02-21T16:24:46Z</time>
      </trkpt>
      <trkpt lat="46.63588" lon="-1.84441">
        <ele>26</ele>
        <time>2019-02-21T16:24:49Z</time>
      </trkpt>
      <trkpt lat="46.63587" lon="-1.84446">
        <ele>26</ele>
        <time>2019-02-21T16:24:51Z</time>
      </trkpt>
      <trkpt lat="46.63586" lon="-1.84452">
        <ele>26</ele>
        <time>2019-02-21T16:24:54Z</time>
      </trkpt>
      <trkpt lat="46.63585" lon="-1.84459">
        <ele>26</ele>
        <time>2019-02-21T16:24:56Z</time>
      </trkpt>
      <trkpt lat="46.63585" lon="-1.84463">
        <ele>26</ele>
        <time>2019-02-21T16:24:59Z</time>
      </trkpt>
      <trkpt lat="46.63585" lon="-1.8447">
        <ele>26</ele>
        <time>2019-02-21T16:25:01Z</time>
      </trkpt>
      <trkpt lat="46.63585" lon="-1.84475">
        <ele>26</ele>
        <time>2019-02-21T16:25:04Z</time>
      </trkpt>
      <trkpt lat="46.63585" lon="-1.84485">
        <ele>26</ele>
        <time>2019-02-21T16:25:09Z</time>
      </trkpt>
      <trkpt lat="46.63585" lon="-1.84491">
        <ele>26</ele>
        <time>2019-02-21T16:25:12Z</time>
      </trkpt>
      <trkpt lat="46.63586" lon="-1.84495">
        <ele>26</ele>
        <time>2019-02-21T16:25:14Z</time>
      </trkpt>
      <trkpt lat="46.63587" lon="-1.845">
        <ele>26</ele>
        <time>2019-02-21T16:25:17Z</time>
      </trkpt>
      <trkpt lat="46.63587" lon="-1.84501">
        <ele>26</ele>
        <time>2019-02-21T16:25:19Z</time>
      </trkpt>
      <trkpt lat="46.63589" lon="-1.84503">
        <ele>26</ele>
        <time>2019-02-21T16:25:22Z</time>
      </trkpt>
      <trkpt lat="46.63591" lon="-1.84505">
        <ele>26</ele>
        <time>2019-02-21T16:25:24Z</time>
      </trkpt>
      <trkpt lat="46.63593" lon="-1.84508">
        <ele>26</ele>
        <time>2019-02-21T16:25:27Z</time>
      </trkpt>
      <trkpt lat="46.63595" lon="-1.84511">
        <ele>26</ele>
        <time>2019-02-21T16:25:29Z</time>
      </trkpt>
      <trkpt lat="46.63597" lon="-1.84513">
        <ele>26</ele>
        <time>2019-02-21T16:25:32Z</time>
      </trkpt>
      <trkpt lat="46.636" lon="-1.84519">
        <ele>26</ele>
        <time>2019-02-21T16:25:37Z</time>
      </trkpt>
      <trkpt lat="46.63601" lon="-1.84525">
        <ele>26</ele>
        <time>2019-02-21T16:25:40Z</time>
      </trkpt>
      <trkpt lat="46.63602" lon="-1.84529">
        <ele>26</ele>
        <time>2019-02-21T16:25:42Z</time>
      </trkpt>
      <trkpt lat="46.63603" lon="-1.84535">
        <ele>26</ele>
        <time>2019-02-21T16:25:45Z</time>
      </trkpt>
      <trkpt lat="46.63605" lon="-1.8454">
        <ele>26</ele>
        <time>2019-02-21T16:25:47Z</time>
      </trkpt>
      <trkpt lat="46.63605" lon="-1.84543">
        <ele>26</ele>
        <time>2019-02-21T16:25:50Z</time>
      </trkpt>
      <trkpt lat="46.63606" lon="-1.84548">
        <ele>26</ele>
        <time>2019-02-21T16:25:53Z</time>
      </trkpt>
      <trkpt lat="46.63607" lon="-1.84551">
        <ele>26</ele>
        <time>2019-02-21T16:25:55Z</time>
      </trkpt>
      <trkpt lat="46.63608" lon="-1.84556">
        <ele>27</ele>
        <time>2019-02-21T16:25:58Z</time>
      </trkpt>
      <trkpt lat="46.63609" lon="-1.84558">
        <ele>27</ele>
        <time>2019-02-21T16:26:00Z</time>
      </trkpt>
      <trkpt lat="46.63611" lon="-1.8456">
        <ele>27</ele>
        <time>2019-02-21T16:26:03Z</time>
      </trkpt>
      <trkpt lat="46.63613" lon="-1.84569">
        <ele>26</ele>
        <time>2019-02-21T16:26:08Z</time>
      </trkpt>
      <trkpt lat="46.63614" lon="-1.84573">
        <ele>27</ele>
        <time>2019-02-21T16:26:10Z</time>
      </trkpt>
      <trkpt lat="46.63615" lon="-1.84579">
        <ele>27</ele>
        <time>2019-02-21T16:26:13Z</time>
      </trkpt>
      <trkpt lat="46.63615" lon="-1.84583">
        <ele>27</ele>
        <time>2019-02-21T16:26:15Z</time>
      </trkpt>
      <trkpt lat="46.63616" lon="-1.84589">
        <ele>27</ele>
        <time>2019-02-21T16:26:18Z</time>
      </trkpt>
      <trkpt lat="46.63617" lon="-1.84593">
        <ele>27</ele>
        <time>2019-02-21T16:26:20Z</time>
      </trkpt>
      <trkpt lat="46.63618" lon="-1.846">
        <ele>27</ele>
        <time>2019-02-21T16:26:23Z</time>
      </trkpt>
      <trkpt lat="46.63619" lon="-1.84606">
        <ele>27</ele>
        <time>2019-02-21T16:26:25Z</time>
      </trkpt>
      <trkpt lat="46.6362" lon="-1.84611">
        <ele>27</ele>
        <time>2019-02-21T16:26:28Z</time>
      </trkpt>
      <trkpt lat="46.6362" lon="-1.84618">
        <ele>27</ele>
        <time>2019-02-21T16:26:30Z</time>
      </trkpt>
      <trkpt lat="46.63621" lon="-1.84622">
        <ele>27</ele>
        <time>2019-02-21T16:26:33Z</time>
      </trkpt>
      <trkpt lat="46.63622" lon="-1.8463">
        <ele>27</ele>
        <time>2019-02-21T16:26:38Z</time>
      </trkpt>
      <trkpt lat="46.63622" lon="-1.84632">
        <ele>27</ele>
        <time>2019-02-21T16:26:41Z</time>
      </trkpt>
      <trkpt lat="46.63623" lon="-1.84633">
        <ele>27</ele>
        <time>2019-02-21T16:26:43Z</time>
      </trkpt>
      <trkpt lat="46.63621" lon="-1.84633">
        <ele>27</ele>
        <time>2019-02-21T16:26:46Z</time>
      </trkpt>
      <trkpt lat="46.63621" lon="-1.84634">
        <ele>27</ele>
        <time>2019-02-21T16:26:48Z</time>
      </trkpt>
      <trkpt lat="46.63619" lon="-1.84634">
        <ele>27</ele>
        <time>2019-02-21T16:26:51Z</time>
      </trkpt>
      <trkpt lat="46.63619" lon="-1.84635">
        <ele>27</ele>
        <time>2019-02-21T16:26:53Z</time>
      </trkpt>
      <trkpt lat="46.6362" lon="-1.84635">
        <ele>27</ele>
        <time>2019-02-21T16:26:56Z</time>
      </trkpt>
      <trkpt lat="46.6362" lon="-1.84635">
        <ele>27</ele>
        <time>2019-02-21T16:26:58Z</time>
      </trkpt>
      <trkpt lat="46.63621" lon="-1.84637">
        <ele>27</ele>
        <time>2019-02-21T16:27:01Z</time>
      </trkpt>
      <trkpt lat="46.63622" lon="-1.84639">
        <ele>27</ele>
        <time>2019-02-21T16:27:03Z</time>
      </trkpt>
      <trkpt lat="46.63623" lon="-1.8464">
        <ele>27</ele>
        <time>2019-02-21T16:27:09Z</time>
      </trkpt>
      <trkpt lat="46.63623" lon="-1.8464">
        <ele>27</ele>
        <time>2019-02-21T16:27:11Z</time>
      </trkpt>
      <trkpt lat="46.63622" lon="-1.84641">
        <ele>27</ele>
        <time>2019-02-21T16:27:14Z</time>
      </trkpt>
      <trkpt lat="46.63623" lon="-1.84642">
        <ele>27</ele>
        <time>2019-02-21T16:27:16Z</time>
      </trkpt>
      <trkpt lat="46.63622" lon="-1.84643">
        <ele>27</ele>
        <time>2019-02-21T16:27:19Z</time>
      </trkpt>
      <trkpt lat="46.63622" lon="-1.84644">
        <ele>27</ele>
        <time>2019-02-21T16:27:21Z</time>
      </trkpt>
      <trkpt lat="46.63621" lon="-1.84644">
        <ele>27</ele>
        <time>2019-02-21T16:27:24Z</time>
      </trkpt>
      <trkpt lat="46.63621" lon="-1.84644">
        <ele>27</ele>
        <time>2019-02-21T16:27:26Z</time>
      </trkpt>
      <trkpt lat="46.63621" lon="-1.84645">
        <ele>27</ele>
        <time>2019-02-21T16:27:29Z</time>
      </trkpt>
      <trkpt lat="46.63621" lon="-1.84645">
        <ele>27</ele>
        <time>2019-02-21T16:27:31Z</time>
      </trkpt>
      <trkpt lat="46.6362" lon="-1.84645">
        <ele>27</ele>
        <time>2019-02-21T16:27:34Z</time>
      </trkpt>
      <trkpt lat="46.63617" lon="-1.84647">
        <ele>27</ele>
        <time>2019-02-21T16:27:39Z</time>
      </trkpt>
      <trkpt lat="46.63616" lon="-1.84648">
        <ele>27</ele>
        <time>2019-02-21T16:27:41Z</time>
      </trkpt>
      <trkpt lat="46.63616" lon="-1.84648">
        <ele>27</ele>
        <time>2019-02-21T16:27:44Z</time>
      </trkpt>
      <trkpt lat="46.63615" lon="-1.84648">
        <ele>27</ele>
        <time>2019-02-21T16:27:46Z</time>
      </trkpt>
      <trkpt lat="46.63614" lon="-1.84648">
        <ele>27</ele>
        <time>2019-02-21T16:27:49Z</time>
      </trkpt>
      <trkpt lat="46.63612" lon="-1.84649">
        <ele>27</ele>
        <time>2019-02-21T16:27:51Z</time>
      </trkpt>
      <trkpt lat="46.63608" lon="-1.84651">
        <ele>28</ele>
        <time>2019-02-21T16:27:54Z</time>
      </trkpt>
      <trkpt lat="46.63605" lon="-1.84651">
        <ele>28</ele>
        <time>2019-02-21T16:27:56Z</time>
      </trkpt>
      <trkpt lat="46.63601" lon="-1.84652">
        <ele>28</ele>
        <time>2019-02-21T16:27:59Z</time>
      </trkpt>
      <trkpt lat="46.63598" lon="-1.84653">
        <ele>28</ele>
        <time>2019-02-21T16:28:01Z</time>
      </trkpt>
      <trkpt lat="46.63594" lon="-1.84654">
        <ele>28</ele>
        <time>2019-02-21T16:28:04Z</time>
      </trkpt>
      <trkpt lat="46.63587" lon="-1.84655">
        <ele>28</ele>
        <time>2019-02-21T16:28:09Z</time>
      </trkpt>
      <trkpt lat="46.63583" lon="-1.84655">
        <ele>28</ele>
        <time>2019-02-21T16:28:11Z</time>
      </trkpt>
      <trkpt lat="46.6358" lon="-1.84655">
        <ele>28</ele>
        <time>2019-02-21T16:28:14Z</time>
      </trkpt>
      <trkpt lat="46.63576" lon="-1.84656">
        <ele>28</ele>
        <time>2019-02-21T16:28:16Z</time>
      </trkpt>
      <trkpt lat="46.63573" lon="-1.84657">
        <ele>28</ele>
        <time>2019-02-21T16:28:19Z</time>
      </trkpt>
      <trkpt lat="46.63569" lon="-1.84658">
        <ele>28</ele>
        <time>2019-02-21T16:28:21Z</time>
      </trkpt>
      <trkpt lat="46.63566" lon="-1.84658">
        <ele>28</ele>
        <time>2019-02-21T16:28:24Z</time>
      </trkpt>
      <trkpt lat="46.63562" lon="-1.84658">
        <ele>28</ele>
        <time>2019-02-21T16:28:26Z</time>
      </trkpt>
      <trkpt lat="46.63559" lon="-1.84658">
        <ele>28</ele>
        <time>2019-02-21T16:28:29Z</time>
      </trkpt>
      <trkpt lat="46.63555" lon="-1.84659">
        <ele>28</ele>
        <time>2019-02-21T16:28:31Z</time>
      </trkpt>
      <trkpt lat="46.63552" lon="-1.84659">
        <ele>28</ele>
        <time>2019-02-21T16:28:34Z</time>
      </trkpt>
      <trkpt lat="46.63545" lon="-1.84659">
        <ele>27</ele>
        <time>2019-02-21T16:28:39Z</time>
      </trkpt>
      <trkpt lat="46.6354" lon="-1.84659">
        <ele>27</ele>
        <time>2019-02-21T16:28:42Z</time>
      </trkpt>
      <trkpt lat="46.63537" lon="-1.8466">
        <ele>27</ele>
        <time>2019-02-21T16:28:44Z</time>
      </trkpt>
      <trkpt lat="46.63533" lon="-1.8466">
        <ele>27</ele>
        <time>2019-02-21T16:28:47Z</time>
      </trkpt>
      <trkpt lat="46.6353" lon="-1.84661">
        <ele>27</ele>
        <time>2019-02-21T16:28:49Z</time>
      </trkpt>
      <trkpt lat="46.63526" lon="-1.84662">
        <ele>27</ele>
        <time>2019-02-21T16:28:52Z</time>
      </trkpt>
      <trkpt lat="46.63522" lon="-1.84664">
        <ele>27</ele>
        <time>2019-02-21T16:28:54Z</time>
      </trkpt>
      <trkpt lat="46.63518" lon="-1.84665">
        <ele>27</ele>
        <time>2019-02-21T16:28:57Z</time>
      </trkpt>
      <trkpt lat="46.63515" lon="-1.84666">
        <ele>27</ele>
        <time>2019-02-21T16:28:59Z</time>
      </trkpt>
      <trkpt lat="46.63511" lon="-1.84667">
        <ele>27</ele>
        <time>2019-02-21T16:29:02Z</time>
      </trkpt>
      <trkpt lat="46.63504" lon="-1.84668">
        <ele>27</ele>
        <time>2019-02-21T16:29:07Z</time>
      </trkpt>
      <trkpt lat="46.635" lon="-1.8467">
        <ele>27</ele>
        <time>2019-02-21T16:29:09Z</time>
      </trkpt>
      <trkpt lat="46.63498" lon="-1.8467">
        <ele>27</ele>
        <time>2019-02-21T16:29:12Z</time>
      </trkpt>
      <trkpt lat="46.63494" lon="-1.84671">
        <ele>26</ele>
        <time>2019-02-21T16:29:15Z</time>
      </trkpt>
      <trkpt lat="46.63491" lon="-1.84672">
        <ele>26</ele>
        <time>2019-02-21T16:29:17Z</time>
      </trkpt>
      <trkpt lat="46.63487" lon="-1.84673">
        <ele>26</ele>
        <time>2019-02-21T16:29:20Z</time>
      </trkpt>
      <trkpt lat="46.63484" lon="-1.84674">
        <ele>26</ele>
        <time>2019-02-21T16:29:22Z</time>
      </trkpt>
      <trkpt lat="46.6348" lon="-1.84675">
        <ele>26</ele>
        <time>2019-02-21T16:29:25Z</time>
      </trkpt>
      <trkpt lat="46.63477" lon="-1.84676">
        <ele>26</ele>
        <time>2019-02-21T16:29:27Z</time>
      </trkpt>
      <trkpt lat="46.63473" lon="-1.84677">
        <ele>26</ele>
        <time>2019-02-21T16:29:30Z</time>
      </trkpt>
      <trkpt lat="46.63468" lon="-1.84679">
        <ele>26</ele>
        <time>2019-02-21T16:29:32Z</time>
      </trkpt>
      <trkpt lat="46.63461" lon="-1.84681">
        <ele>26</ele>
        <time>2019-02-21T16:29:37Z</time>
      </trkpt>
      <trkpt lat="46.63458" lon="-1.84682">
        <ele>26</ele>
        <time>2019-02-21T16:29:40Z</time>
      </trkpt>
      <trkpt lat="46.63454" lon="-1.84684">
        <ele>26</ele>
        <time>2019-02-21T16:29:42Z</time>
      </trkpt>
      <trkpt lat="46.63451" lon="-1.84685">
        <ele>25</ele>
        <time>2019-02-21T16:29:45Z</time>
      </trkpt>
      <trkpt lat="46.63447" lon="-1.84686">
        <ele>25</ele>
        <time>2019-02-21T16:29:47Z</time>
      </trkpt>
      <trkpt lat="46.63444" lon="-1.84686">
        <ele>25</ele>
        <time>2019-02-21T16:29:50Z</time>
      </trkpt>
      <trkpt lat="46.6344" lon="-1.84687">
        <ele>25</ele>
        <time>2019-02-21T16:29:52Z</time>
      </trkpt>
      <trkpt lat="46.63437" lon="-1.84688">
        <ele>25</ele>
        <time>2019-02-21T16:29:55Z</time>
      </trkpt>
      <trkpt lat="46.63433" lon="-1.84689">
        <ele>25</ele>
        <time>2019-02-21T16:29:57Z</time>
      </trkpt>
      <trkpt lat="46.6343" lon="-1.84691">
        <ele>25</ele>
        <time>2019-02-21T16:30:00Z</time>
      </trkpt>
      <trkpt lat="46.63427" lon="-1.84691">
        <ele>25</ele>
        <time>2019-02-21T16:30:02Z</time>
      </trkpt>
      <trkpt lat="46.63421" lon="-1.84694">
        <ele>25</ele>
        <time>2019-02-21T16:30:07Z</time>
      </trkpt>
      <trkpt lat="46.63417" lon="-1.84695">
        <ele>24</ele>
        <time>2019-02-21T16:30:10Z</time>
      </trkpt>
      <trkpt lat="46.63414" lon="-1.84696">
        <ele>24</ele>
        <time>2019-02-21T16:30:12Z</time>
      </trkpt>
      <trkpt lat="46.63411" lon="-1.84697">
        <ele>24</ele>
        <time>2019-02-21T16:30:15Z</time>
      </trkpt>
      <trkpt lat="46.63408" lon="-1.84698">
        <ele>24</ele>
        <time>2019-02-21T16:30:17Z</time>
      </trkpt>
      <trkpt lat="46.63404" lon="-1.847">
        <ele>24</ele>
        <time>2019-02-21T16:30:20Z</time>
      </trkpt>
      <trkpt lat="46.63402" lon="-1.84702">
        <ele>24</ele>
        <time>2019-02-21T16:30:22Z</time>
      </trkpt>
      <trkpt lat="46.63398" lon="-1.84703">
        <ele>24</ele>
        <time>2019-02-21T16:30:24Z</time>
      </trkpt>
      <trkpt lat="46.63396" lon="-1.84703">
        <ele>24</ele>
        <time>2019-02-21T16:30:27Z</time>
      </trkpt>
      <trkpt lat="46.63391" lon="-1.84705">
        <ele>23</ele>
        <time>2019-02-21T16:30:29Z</time>
      </trkpt>
      <trkpt lat="46.63388" lon="-1.84705">
        <ele>23</ele>
        <time>2019-02-21T16:30:32Z</time>
      </trkpt>
      <trkpt lat="46.63382" lon="-1.84706">
        <ele>23</ele>
        <time>2019-02-21T16:30:37Z</time>
      </trkpt>
      <trkpt lat="46.63379" lon="-1.84706">
        <ele>23</ele>
        <time>2019-02-21T16:30:39Z</time>
      </trkpt>
      <trkpt lat="46.63377" lon="-1.84706">
        <ele>23</ele>
        <time>2019-02-21T16:30:42Z</time>
      </trkpt>
      <trkpt lat="46.63376" lon="-1.84707">
        <ele>23</ele>
        <time>2019-02-21T16:30:45Z</time>
      </trkpt>
      <trkpt lat="46.63376" lon="-1.84706">
        <ele>23</ele>
        <time>2019-02-21T16:30:47Z</time>
      </trkpt>
      <trkpt lat="46.63374" lon="-1.84705">
        <ele>23</ele>
        <time>2019-02-21T16:30:50Z</time>
      </trkpt>
      <trkpt lat="46.63372" lon="-1.84705">
        <ele>23</ele>
        <time>2019-02-21T16:30:52Z</time>
      </trkpt>
      <trkpt lat="46.63369" lon="-1.84704">
        <ele>22</ele>
        <time>2019-02-21T16:30:55Z</time>
      </trkpt>
      <trkpt lat="46.63367" lon="-1.84704">
        <ele>22</ele>
        <time>2019-02-21T16:30:57Z</time>
      </trkpt>
      <trkpt lat="46.63363" lon="-1.84706">
        <ele>22</ele>
        <time>2019-02-21T16:31:00Z</time>
      </trkpt>
      <trkpt lat="46.6336" lon="-1.84707">
        <ele>22</ele>
        <time>2019-02-21T16:31:02Z</time>
      </trkpt>
      <trkpt lat="46.63352" lon="-1.84709">
        <ele>22</ele>
        <time>2019-02-21T16:31:07Z</time>
      </trkpt>
      <trkpt lat="46.63349" lon="-1.84709">
        <ele>22</ele>
        <time>2019-02-21T16:31:10Z</time>
      </trkpt>
      <trkpt lat="46.63347" lon="-1.8471">
        <ele>21</ele>
        <time>2019-02-21T16:31:12Z</time>
      </trkpt>
      <trkpt lat="46.63343" lon="-1.8471">
        <ele>21</ele>
        <time>2019-02-21T16:31:15Z</time>
      </trkpt>
      <trkpt lat="46.6334" lon="-1.84711">
        <ele>21</ele>
        <time>2019-02-21T16:31:17Z</time>
      </trkpt>
      <trkpt lat="46.63334" lon="-1.84712">
        <ele>21</ele>
        <time>2019-02-21T16:31:20Z</time>
      </trkpt>
      <trkpt lat="46.63332" lon="-1.84712">
        <ele>21</ele>
        <time>2019-02-21T16:31:22Z</time>
      </trkpt>
      <trkpt lat="46.63327" lon="-1.84714">
        <ele>21</ele>
        <time>2019-02-21T16:31:25Z</time>
      </trkpt>
      <trkpt lat="46.63324" lon="-1.84715">
        <ele>21</ele>
        <time>2019-02-21T16:31:27Z</time>
      </trkpt>
      <trkpt lat="46.63321" lon="-1.84716">
        <ele>20</ele>
        <time>2019-02-21T16:31:30Z</time>
      </trkpt>
      <trkpt lat="46.63318" lon="-1.84717">
        <ele>20</ele>
        <time>2019-02-21T16:31:32Z</time>
      </trkpt>
      <trkpt lat="46.63312" lon="-1.84719">
        <ele>20</ele>
        <time>2019-02-21T16:31:37Z</time>
      </trkpt>
      <trkpt lat="46.63308" lon="-1.8472">
        <ele>20</ele>
        <time>2019-02-21T16:31:40Z</time>
      </trkpt>
      <trkpt lat="46.63305" lon="-1.8472">
        <ele>20</ele>
        <time>2019-02-21T16:31:42Z</time>
      </trkpt>
      <trkpt lat="46.63302" lon="-1.84721">
        <ele>20</ele>
        <time>2019-02-21T16:31:45Z</time>
      </trkpt>
      <trkpt lat="46.63299" lon="-1.84722">
        <ele>20</ele>
        <time>2019-02-21T16:31:47Z</time>
      </trkpt>
      <trkpt lat="46.63295" lon="-1.84722">
        <ele>20</ele>
        <time>2019-02-21T16:31:50Z</time>
      </trkpt>
      <trkpt lat="46.63292" lon="-1.84722">
        <ele>20</ele>
        <time>2019-02-21T16:31:52Z</time>
      </trkpt>
      <trkpt lat="46.63288" lon="-1.84724">
        <ele>20</ele>
        <time>2019-02-21T16:31:55Z</time>
      </trkpt>
      <trkpt lat="46.63285" lon="-1.84725">
        <ele>20</ele>
        <time>2019-02-21T16:31:57Z</time>
      </trkpt>
      <trkpt lat="46.63282" lon="-1.84726">
        <ele>20</ele>
        <time>2019-02-21T16:32:00Z</time>
      </trkpt>
      <trkpt lat="46.63275" lon="-1.84727">
        <ele>19</ele>
        <time>2019-02-21T16:32:05Z</time>
      </trkpt>
      <trkpt lat="46.63273" lon="-1.84729">
        <ele>19</ele>
        <time>2019-02-21T16:32:07Z</time>
      </trkpt>
      <trkpt lat="46.63269" lon="-1.84729">
        <ele>19</ele>
        <time>2019-02-21T16:32:10Z</time>
      </trkpt>
      <trkpt lat="46.63267" lon="-1.84729">
        <ele>19</ele>
        <time>2019-02-21T16:32:12Z</time>
      </trkpt>
      <trkpt lat="46.63263" lon="-1.84729">
        <ele>19</ele>
        <time>2019-02-21T16:32:15Z</time>
      </trkpt>
      <trkpt lat="46.6326" lon="-1.8473">
        <ele>19</ele>
        <time>2019-02-21T16:32:17Z</time>
      </trkpt>
      <trkpt lat="46.63257" lon="-1.84729">
        <ele>19</ele>
        <time>2019-02-21T16:32:20Z</time>
      </trkpt>
      <trkpt lat="46.63255" lon="-1.84729">
        <ele>19</ele>
        <time>2019-02-21T16:32:22Z</time>
      </trkpt>
      <trkpt lat="46.63251" lon="-1.8473">
        <ele>19</ele>
        <time>2019-02-21T16:32:25Z</time>
      </trkpt>
      <trkpt lat="46.63247" lon="-1.84731">
        <ele>19</ele>
        <time>2019-02-21T16:32:27Z</time>
      </trkpt>
      <trkpt lat="46.63244" lon="-1.84731">
        <ele>19</ele>
        <time>2019-02-21T16:32:30Z</time>
      </trkpt>
      <trkpt lat="46.63238" lon="-1.84731">
        <ele>18</ele>
        <time>2019-02-21T16:32:35Z</time>
      </trkpt>
      <trkpt lat="46.63234" lon="-1.84732">
        <ele>18</ele>
        <time>2019-02-21T16:32:38Z</time>
      </trkpt>
      <trkpt lat="46.63231" lon="-1.84733">
        <ele>18</ele>
        <time>2019-02-21T16:32:40Z</time>
      </trkpt>
      <trkpt lat="46.63227" lon="-1.84734">
        <ele>18</ele>
        <time>2019-02-21T16:32:43Z</time>
      </trkpt>
      <trkpt lat="46.63223" lon="-1.84735">
        <ele>18</ele>
        <time>2019-02-21T16:32:45Z</time>
      </trkpt>
      <trkpt lat="46.6322" lon="-1.84735">
        <ele>18</ele>
        <time>2019-02-21T16:32:48Z</time>
      </trkpt>
      <trkpt lat="46.63218" lon="-1.84735">
        <ele>18</ele>
        <time>2019-02-21T16:32:50Z</time>
      </trkpt>
      <trkpt lat="46.63217" lon="-1.84735">
        <ele>18</ele>
        <time>2019-02-21T16:32:53Z</time>
      </trkpt>
      <trkpt lat="46.63217" lon="-1.84735">
        <ele>18</ele>
        <time>2019-02-21T16:32:55Z</time>
      </trkpt>
      <trkpt lat="46.63217" lon="-1.84736">
        <ele>18</ele>
        <time>2019-02-21T16:32:58Z</time>
      </trkpt>
      <trkpt lat="46.63215" lon="-1.84736">
        <ele>18</ele>
        <time>2019-02-21T16:33:00Z</time>
      </trkpt>
      <trkpt lat="46.63211" lon="-1.84736">
        <ele>18</ele>
        <time>2019-02-21T16:33:05Z</time>
      </trkpt>
      <trkpt lat="46.63211" lon="-1.84737">
        <ele>18</ele>
        <time>2019-02-21T16:33:08Z</time>
      </trkpt>
      <trkpt lat="46.63209" lon="-1.84737">
        <ele>18</ele>
        <time>2019-02-21T16:33:10Z</time>
      </trkpt>
      <trkpt lat="46.63206" lon="-1.84739">
        <ele>18</ele>
        <time>2019-02-21T16:33:13Z</time>
      </trkpt>
      <trkpt lat="46.63202" lon="-1.8474">
        <ele>18</ele>
        <time>2019-02-21T16:33:15Z</time>
      </trkpt>
      <trkpt lat="46.632" lon="-1.8474">
        <ele>18</ele>
        <time>2019-02-21T16:33:18Z</time>
      </trkpt>
      <trkpt lat="46.63196" lon="-1.8474">
        <ele>18</ele>
        <time>2019-02-21T16:33:21Z</time>
      </trkpt>
      <trkpt lat="46.63194" lon="-1.8474">
        <ele>18</ele>
        <time>2019-02-21T16:33:23Z</time>
      </trkpt>
      <trkpt lat="46.63193" lon="-1.84741">
        <ele>18</ele>
        <time>2019-02-21T16:33:26Z</time>
      </trkpt>
      <trkpt lat="46.63191" lon="-1.84742">
        <ele>18</ele>
        <time>2019-02-21T16:33:28Z</time>
      </trkpt>
      <trkpt lat="46.63191" lon="-1.84741">
        <ele>18</ele>
        <time>2019-02-21T16:33:31Z</time>
      </trkpt>
      <trkpt lat="46.63191" lon="-1.84741">
        <ele>18</ele>
        <time>2019-02-21T16:33:36Z</time>
      </trkpt>
      <trkpt lat="46.63191" lon="-1.84741">
        <ele>18</ele>
        <time>2019-02-21T16:33:39Z</time>
      </trkpt>
      <trkpt lat="46.63191" lon="-1.84741">
        <ele>18</ele>
        <time>2019-02-21T16:33:41Z</time>
      </trkpt>
      <trkpt lat="46.63191" lon="-1.84741">
        <ele>18</ele>
        <time>2019-02-21T16:33:44Z</time>
      </trkpt>
      <trkpt lat="46.63191" lon="-1.84741">
        <ele>18</ele>
        <time>2019-02-21T16:33:46Z</time>
      </trkpt>
      <trkpt lat="46.63189" lon="-1.84739">
        <ele>18</ele>
        <time>2019-02-21T16:33:49Z</time>
      </trkpt>
      <trkpt lat="46.63187" lon="-1.84739">
        <ele>18</ele>
        <time>2019-02-21T16:33:51Z</time>
      </trkpt>
      <trkpt lat="46.63183" lon="-1.84739">
        <ele>18</ele>
        <time>2019-02-21T16:33:54Z</time>
      </trkpt>
      <trkpt lat="46.6318" lon="-1.84739">
        <ele>18</ele>
        <time>2019-02-21T16:33:56Z</time>
      </trkpt>
      <trkpt lat="46.63177" lon="-1.84737">
        <ele>18</ele>
        <time>2019-02-21T16:33:59Z</time>
      </trkpt>
      <trkpt lat="46.63175" lon="-1.84737">
        <ele>18</ele>
        <time>2019-02-21T16:34:01Z</time>
      </trkpt>
      <trkpt lat="46.6317" lon="-1.84737">
        <ele>18</ele>
        <time>2019-02-21T16:34:06Z</time>
      </trkpt>
      <trkpt lat="46.63167" lon="-1.84737">
        <ele>18</ele>
        <time>2019-02-21T16:34:09Z</time>
      </trkpt>
      <trkpt lat="46.63164" lon="-1.84737">
        <ele>18</ele>
        <time>2019-02-21T16:34:11Z</time>
      </trkpt>
      <trkpt lat="46.6316" lon="-1.84738">
        <ele>18</ele>
        <time>2019-02-21T16:34:14Z</time>
      </trkpt>
      <trkpt lat="46.63158" lon="-1.84738">
        <ele>18</ele>
        <time>2019-02-21T16:34:16Z</time>
      </trkpt>
      <trkpt lat="46.63155" lon="-1.84738">
        <ele>18</ele>
        <time>2019-02-21T16:34:19Z</time>
      </trkpt>
      <trkpt lat="46.63152" lon="-1.84739">
        <ele>18</ele>
        <time>2019-02-21T16:34:21Z</time>
      </trkpt>
      <trkpt lat="46.63148" lon="-1.84739">
        <ele>18</ele>
        <time>2019-02-21T16:34:24Z</time>
      </trkpt>
      <trkpt lat="46.63144" lon="-1.84739">
        <ele>18</ele>
        <time>2019-02-21T16:34:26Z</time>
      </trkpt>
      <trkpt lat="46.63142" lon="-1.84739">
        <ele>18</ele>
        <time>2019-02-21T16:34:29Z</time>
      </trkpt>
      <trkpt lat="46.63139" lon="-1.84739">
        <ele>18</ele>
        <time>2019-02-21T16:34:31Z</time>
      </trkpt>
      <trkpt lat="46.63133" lon="-1.84738">
        <ele>18</ele>
        <time>2019-02-21T16:34:37Z</time>
      </trkpt>
      <trkpt lat="46.63131" lon="-1.84738">
        <ele>18</ele>
        <time>2019-02-21T16:34:39Z</time>
      </trkpt>
      <trkpt lat="46.63128" lon="-1.84738">
        <ele>18</ele>
        <time>2019-02-21T16:34:42Z</time>
      </trkpt>
      <trkpt lat="46.63124" lon="-1.84738">
        <ele>18</ele>
        <time>2019-02-21T16:34:44Z</time>
      </trkpt>
      <trkpt lat="46.63122" lon="-1.84737">
        <ele>18</ele>
        <time>2019-02-21T16:34:47Z</time>
      </trkpt>
      <trkpt lat="46.63118" lon="-1.84737">
        <ele>18</ele>
        <time>2019-02-21T16:34:49Z</time>
      </trkpt>
      <trkpt lat="46.63116" lon="-1.84736">
        <ele>18</ele>
        <time>2019-02-21T16:34:52Z</time>
      </trkpt>
      <trkpt lat="46.63113" lon="-1.84736">
        <ele>18</ele>
        <time>2019-02-21T16:34:55Z</time>
      </trkpt>
      <trkpt lat="46.63111" lon="-1.84737">
        <ele>19</ele>
        <time>2019-02-21T16:34:57Z</time>
      </trkpt>
      <trkpt lat="46.63107" lon="-1.84737">
        <ele>19</ele>
        <time>2019-02-21T16:35:00Z</time>
      </trkpt>
      <trkpt lat="46.63101" lon="-1.84737">
        <ele>19</ele>
        <time>2019-02-21T16:35:05Z</time>
      </trkpt>
      <trkpt lat="46.63099" lon="-1.84738">
        <ele>19</ele>
        <time>2019-02-21T16:35:07Z</time>
      </trkpt>
      <trkpt lat="46.63095" lon="-1.84739">
        <ele>19</ele>
        <time>2019-02-21T16:35:10Z</time>
      </trkpt>
      <trkpt lat="46.63092" lon="-1.84739">
        <ele>19</ele>
        <time>2019-02-21T16:35:12Z</time>
      </trkpt>
      <trkpt lat="46.63088" lon="-1.84738">
        <ele>19</ele>
        <time>2019-02-21T16:35:15Z</time>
      </trkpt>
      <trkpt lat="46.63086" lon="-1.84739">
        <ele>19</ele>
        <time>2019-02-21T16:35:17Z</time>
      </trkpt>
      <trkpt lat="46.63081" lon="-1.84741">
        <ele>19</ele>
        <time>2019-02-21T16:35:20Z</time>
      </trkpt>
      <trkpt lat="46.63078" lon="-1.84741">
        <ele>19</ele>
        <time>2019-02-21T16:35:22Z</time>
      </trkpt>
      <trkpt lat="46.63074" lon="-1.84742">
        <ele>19</ele>
        <time>2019-02-21T16:35:25Z</time>
      </trkpt>
      <trkpt lat="46.63071" lon="-1.84742">
        <ele>19</ele>
        <time>2019-02-21T16:35:27Z</time>
      </trkpt>
      <trkpt lat="46.63068" lon="-1.84741">
        <ele>19</ele>
        <time>2019-02-21T16:35:30Z</time>
      </trkpt>
      <trkpt lat="46.63062" lon="-1.8474">
        <ele>19</ele>
        <time>2019-02-21T16:35:35Z</time>
      </trkpt>
      <trkpt lat="46.6306" lon="-1.8474">
        <ele>19</ele>
        <time>2019-02-21T16:35:37Z</time>
      </trkpt>
      <trkpt lat="46.63059" lon="-1.84741">
        <ele>19</ele>
        <time>2019-02-21T16:35:40Z</time>
      </trkpt>
      <trkpt lat="46.63059" lon="-1.84741">
        <ele>19</ele>
        <time>2019-02-21T16:35:43Z</time>
      </trkpt>
      <trkpt lat="46.63059" lon="-1.84741">
        <ele>19</ele>
        <time>2019-02-21T16:35:45Z</time>
      </trkpt>
      <trkpt lat="46.63059" lon="-1.84741">
        <ele>19</ele>
        <time>2019-02-21T16:35:48Z</time>
      </trkpt>
      <trkpt lat="46.63058" lon="-1.8474">
        <ele>19</ele>
        <time>2019-02-21T16:35:50Z</time>
      </trkpt>
      <trkpt lat="46.63058" lon="-1.84739">
        <ele>19</ele>
        <time>2019-02-21T16:35:53Z</time>
      </trkpt>
      <trkpt lat="46.63057" lon="-1.8474">
        <ele>19</ele>
        <time>2019-02-21T16:35:55Z</time>
      </trkpt>
      <trkpt lat="46.63057" lon="-1.84742">
        <ele>19</ele>
        <time>2019-02-21T16:35:58Z</time>
      </trkpt>
      <trkpt lat="46.63058" lon="-1.84742">
        <ele>19</ele>
        <time>2019-02-21T16:36:00Z</time>
      </trkpt>
      <trkpt lat="46.63058" lon="-1.8475">
        <ele>19</ele>
        <time>2019-02-21T16:36:05Z</time>
      </trkpt>
      <trkpt lat="46.63058" lon="-1.84754">
        <ele>19</ele>
        <time>2019-02-21T16:36:08Z</time>
      </trkpt>
      <trkpt lat="46.63058" lon="-1.84758">
        <ele>19</ele>
        <time>2019-02-21T16:36:10Z</time>
      </trkpt>
      <trkpt lat="46.63058" lon="-1.84764">
        <ele>20</ele>
        <time>2019-02-21T16:36:13Z</time>
      </trkpt>
      <trkpt lat="46.63059" lon="-1.84767">
        <ele>20</ele>
        <time>2019-02-21T16:36:15Z</time>
      </trkpt>
      <trkpt lat="46.63058" lon="-1.84773">
        <ele>20</ele>
        <time>2019-02-21T16:36:18Z</time>
      </trkpt>
      <trkpt lat="46.63058" lon="-1.84777">
        <ele>20</ele>
        <time>2019-02-21T16:36:20Z</time>
      </trkpt>
      <trkpt lat="46.63058" lon="-1.84783">
        <ele>20</ele>
        <time>2019-02-21T16:36:23Z</time>
      </trkpt>
      <trkpt lat="46.63057" lon="-1.84787">
        <ele>20</ele>
        <time>2019-02-21T16:36:25Z</time>
      </trkpt>
      <trkpt lat="46.63056" lon="-1.84793">
        <ele>20</ele>
        <time>2019-02-21T16:36:28Z</time>
      </trkpt>
      <trkpt lat="46.63056" lon="-1.84797">
        <ele>20</ele>
        <time>2019-02-21T16:36:30Z</time>
      </trkpt>
      <trkpt lat="46.63055" lon="-1.84807">
        <ele>20</ele>
        <time>2019-02-21T16:36:35Z</time>
      </trkpt>
      <trkpt lat="46.63054" lon="-1.84813">
        <ele>20</ele>
        <time>2019-02-21T16:36:38Z</time>
      </trkpt>
      <trkpt lat="46.63053" lon="-1.8482">
        <ele>20</ele>
        <time>2019-02-21T16:36:40Z</time>
      </trkpt>
      <trkpt lat="46.63053" lon="-1.84823">
        <ele>20</ele>
        <time>2019-02-21T16:36:43Z</time>
      </trkpt>
      <trkpt lat="46.63052" lon="-1.84829">
        <ele>20</ele>
        <time>2019-02-21T16:36:45Z</time>
      </trkpt>
      <trkpt lat="46.63052" lon="-1.84833">
        <ele>20</ele>
        <time>2019-02-21T16:36:48Z</time>
      </trkpt>
      <trkpt lat="46.63051" lon="-1.84838">
        <ele>20</ele>
        <time>2019-02-21T16:36:50Z</time>
      </trkpt>
      <trkpt lat="46.63051" lon="-1.84841">
        <ele>20</ele>
        <time>2019-02-21T16:36:53Z</time>
      </trkpt>
      <trkpt lat="46.6305" lon="-1.84847">
        <ele>20</ele>
        <time>2019-02-21T16:36:56Z</time>
      </trkpt>
      <trkpt lat="46.6305" lon="-1.84851">
        <ele>20</ele>
        <time>2019-02-21T16:36:58Z</time>
      </trkpt>
      <trkpt lat="46.63049" lon="-1.84857">
        <ele>20</ele>
        <time>2019-02-21T16:37:00Z</time>
      </trkpt>
      <trkpt lat="46.63047" lon="-1.84864">
        <ele>20</ele>
        <time>2019-02-21T16:37:06Z</time>
      </trkpt>
      <trkpt lat="46.63047" lon="-1.84867">
        <ele>20</ele>
        <time>2019-02-21T16:37:08Z</time>
      </trkpt>
      <trkpt lat="46.63047" lon="-1.84869">
        <ele>20</ele>
        <time>2019-02-21T16:37:11Z</time>
      </trkpt>
      <trkpt lat="46.63046" lon="-1.84872">
        <ele>20</ele>
        <time>2019-02-21T16:37:13Z</time>
      </trkpt>
      <trkpt lat="46.63045" lon="-1.84877">
        <ele>20</ele>
        <time>2019-02-21T16:37:16Z</time>
      </trkpt>
      <trkpt lat="46.63044" lon="-1.84879">
        <ele>20</ele>
        <time>2019-02-21T16:37:18Z</time>
      </trkpt>
      <trkpt lat="46.63044" lon="-1.84882">
        <ele>20</ele>
        <time>2019-02-21T16:37:21Z</time>
      </trkpt>
      <trkpt lat="46.63044" lon="-1.84884">
        <ele>20</ele>
        <time>2019-02-21T16:37:23Z</time>
      </trkpt>
      <trkpt lat="46.63043" lon="-1.84888">
        <ele>20</ele>
        <time>2019-02-21T16:37:26Z</time>
      </trkpt>
      <trkpt lat="46.63043" lon="-1.84892">
        <ele>20</ele>
        <time>2019-02-21T16:37:28Z</time>
      </trkpt>
      <trkpt lat="46.63042" lon="-1.84897">
        <ele>20</ele>
        <time>2019-02-21T16:37:31Z</time>
      </trkpt>
      <trkpt lat="46.6304" lon="-1.84907">
        <ele>20</ele>
        <time>2019-02-21T16:37:36Z</time>
      </trkpt>
      <trkpt lat="46.6304" lon="-1.8491">
        <ele>20</ele>
        <time>2019-02-21T16:37:38Z</time>
      </trkpt>
      <trkpt lat="46.63039" lon="-1.84916">
        <ele>20</ele>
        <time>2019-02-21T16:37:41Z</time>
      </trkpt>
      <trkpt lat="46.63038" lon="-1.8492">
        <ele>20</ele>
        <time>2019-02-21T16:37:43Z</time>
      </trkpt>
      <trkpt lat="46.63036" lon="-1.84928">
        <ele>20</ele>
        <time>2019-02-21T16:37:46Z</time>
      </trkpt>
      <trkpt lat="46.63034" lon="-1.84933">
        <ele>19</ele>
        <time>2019-02-21T16:37:48Z</time>
      </trkpt>
      <trkpt lat="46.63032" lon="-1.84938">
        <ele>19</ele>
        <time>2019-02-21T16:37:50Z</time>
      </trkpt>
      <trkpt lat="46.63031" lon="-1.84943">
        <ele>19</ele>
        <time>2019-02-21T16:37:53Z</time>
      </trkpt>
      <trkpt lat="46.6303" lon="-1.84947">
        <ele>19</ele>
        <time>2019-02-21T16:37:55Z</time>
      </trkpt>
      <trkpt lat="46.63028" lon="-1.84953">
        <ele>19</ele>
        <time>2019-02-21T16:37:58Z</time>
      </trkpt>
      <trkpt lat="46.63025" lon="-1.84963">
        <ele>19</ele>
        <time>2019-02-21T16:38:03Z</time>
      </trkpt>
      <trkpt lat="46.63024" lon="-1.84969">
        <ele>19</ele>
        <time>2019-02-21T16:38:05Z</time>
      </trkpt>
      <trkpt lat="46.63023" lon="-1.84972">
        <ele>19</ele>
        <time>2019-02-21T16:38:08Z</time>
      </trkpt>
      <trkpt lat="46.63021" lon="-1.84973">
        <ele>19</ele>
        <time>2019-02-21T16:38:10Z</time>
      </trkpt>
      <trkpt lat="46.6302" lon="-1.84975">
        <ele>19</ele>
        <time>2019-02-21T16:38:13Z</time>
      </trkpt>
      <trkpt lat="46.63018" lon="-1.84974">
        <ele>19</ele>
        <time>2019-02-21T16:38:15Z</time>
      </trkpt>
      <trkpt lat="46.63018" lon="-1.84971">
        <ele>19</ele>
        <time>2019-02-21T16:38:18Z</time>
      </trkpt>
      <trkpt lat="46.63019" lon="-1.8497">
        <ele>19</ele>
        <time>2019-02-21T16:38:20Z</time>
      </trkpt>
      <trkpt lat="46.63019" lon="-1.8497">
        <ele>19</ele>
        <time>2019-02-21T16:38:23Z</time>
      </trkpt>
      <trkpt lat="46.63019" lon="-1.8497">
        <ele>19</ele>
        <time>2019-02-21T16:38:25Z</time>
      </trkpt>
      <trkpt lat="46.63019" lon="-1.8497">
        <ele>19</ele>
        <time>2019-02-21T16:38:28Z</time>
      </trkpt>
      <trkpt lat="46.63019" lon="-1.8497">
        <ele>19</ele>
        <time>2019-02-21T16:38:33Z</time>
      </trkpt>
      <trkpt lat="46.63019" lon="-1.8497">
        <ele>19</ele>
        <time>2019-02-21T16:38:35Z</time>
      </trkpt>
      <trkpt lat="46.63019" lon="-1.8497">
        <ele>19</ele>
        <time>2019-02-21T16:38:38Z</time>
      </trkpt>
      <trkpt lat="46.63018" lon="-1.84972">
        <ele>19</ele>
        <time>2019-02-21T16:38:40Z</time>
      </trkpt>
      <trkpt lat="46.63016" lon="-1.84976">
        <ele>19</ele>
        <time>2019-02-21T16:38:43Z</time>
      </trkpt>
      <trkpt lat="46.63014" lon="-1.84977">
        <ele>19</ele>
        <time>2019-02-21T16:38:45Z</time>
      </trkpt>
      <trkpt lat="46.63014" lon="-1.84977">
        <ele>19</ele>
        <time>2019-02-21T16:38:48Z</time>
      </trkpt>
      <trkpt lat="46.63012" lon="-1.84978">
        <ele>19</ele>
        <time>2019-02-21T16:38:50Z</time>
      </trkpt>
      <trkpt lat="46.63011" lon="-1.84981">
        <ele>19</ele>
        <time>2019-02-21T16:38:52Z</time>
      </trkpt>
      <trkpt lat="46.63009" lon="-1.84984">
        <ele>19</ele>
        <time>2019-02-21T16:38:55Z</time>
      </trkpt>
      <trkpt lat="46.63007" lon="-1.84988">
        <ele>19</ele>
        <time>2019-02-21T16:38:57Z</time>
      </trkpt>
      <trkpt lat="46.63003" lon="-1.84994">
        <ele>19</ele>
        <time>2019-02-21T16:39:02Z</time>
      </trkpt>
      <trkpt lat="46.63" lon="-1.84999">
        <ele>19</ele>
        <time>2019-02-21T16:39:05Z</time>
      </trkpt>
      <trkpt lat="46.62998" lon="-1.85002">
        <ele>19</ele>
        <time>2019-02-21T16:39:07Z</time>
      </trkpt>
      <trkpt lat="46.62996" lon="-1.85007">
        <ele>19</ele>
        <time>2019-02-21T16:39:10Z</time>
      </trkpt>
      <trkpt lat="46.62995" lon="-1.8501">
        <ele>19</ele>
        <time>2019-02-21T16:39:12Z</time>
      </trkpt>
      <trkpt lat="46.62993" lon="-1.85015">
        <ele>19</ele>
        <time>2019-02-21T16:39:15Z</time>
      </trkpt>
      <trkpt lat="46.62993" lon="-1.85019">
        <ele>19</ele>
        <time>2019-02-21T16:39:17Z</time>
      </trkpt>
      <trkpt lat="46.62991" lon="-1.85025">
        <ele>19</ele>
        <time>2019-02-21T16:39:20Z</time>
      </trkpt>
      <trkpt lat="46.6299" lon="-1.85029">
        <ele>19</ele>
        <time>2019-02-21T16:39:22Z</time>
      </trkpt>
      <trkpt lat="46.62988" lon="-1.85034">
        <ele>19</ele>
        <time>2019-02-21T16:39:24Z</time>
      </trkpt>
      <trkpt lat="46.62987" lon="-1.85038">
        <ele>19</ele>
        <time>2019-02-21T16:39:27Z</time>
      </trkpt>
      <trkpt lat="46.62983" lon="-1.85046">
        <ele>19</ele>
        <time>2019-02-21T16:39:32Z</time>
      </trkpt>
      <trkpt lat="46.62981" lon="-1.85049">
        <ele>19</ele>
        <time>2019-02-21T16:39:34Z</time>
      </trkpt>
      <trkpt lat="46.62978" lon="-1.85053">
        <ele>19</ele>
        <time>2019-02-21T16:39:37Z</time>
      </trkpt>
      <trkpt lat="46.62976" lon="-1.85055">
        <ele>19</ele>
        <time>2019-02-21T16:39:39Z</time>
      </trkpt>
      <trkpt lat="46.62972" lon="-1.85058">
        <ele>19</ele>
        <time>2019-02-21T16:39:42Z</time>
      </trkpt>
      <trkpt lat="46.6297" lon="-1.85061">
        <ele>19</ele>
        <time>2019-02-21T16:39:44Z</time>
      </trkpt>
      <trkpt lat="46.62968" lon="-1.85064">
        <ele>19</ele>
        <time>2019-02-21T16:39:47Z</time>
      </trkpt>
      <trkpt lat="46.62966" lon="-1.85065">
        <ele>19</ele>
        <time>2019-02-21T16:39:49Z</time>
      </trkpt>
      <trkpt lat="46.62963" lon="-1.85068">
        <ele>19</ele>
        <time>2019-02-21T16:39:52Z</time>
      </trkpt>
      <trkpt lat="46.62962" lon="-1.8507">
        <ele>19</ele>
        <time>2019-02-21T16:39:54Z</time>
      </trkpt>
      <trkpt lat="46.62959" lon="-1.85074">
        <ele>19</ele>
        <time>2019-02-21T16:39:57Z</time>
      </trkpt>
      <trkpt lat="46.62952" lon="-1.8508">
        <ele>19</ele>
        <time>2019-02-21T16:40:01Z</time>
      </trkpt>
      <trkpt lat="46.62949" lon="-1.85082">
        <ele>19</ele>
        <time>2019-02-21T16:40:04Z</time>
      </trkpt>
      <trkpt lat="46.62946" lon="-1.85083">
        <ele>19</ele>
        <time>2019-02-21T16:40:06Z</time>
      </trkpt>
      <trkpt lat="46.62943" lon="-1.85085">
        <ele>19</ele>
        <time>2019-02-21T16:40:09Z</time>
      </trkpt>
      <trkpt lat="46.6294" lon="-1.85087">
        <ele>19</ele>
        <time>2019-02-21T16:40:11Z</time>
      </trkpt>
      <trkpt lat="46.62935" lon="-1.85089">
        <ele>19</ele>
        <time>2019-02-21T16:40:14Z</time>
      </trkpt>
      <trkpt lat="46.62933" lon="-1.85091">
        <ele>19</ele>
        <time>2019-02-21T16:40:16Z</time>
      </trkpt>
      <trkpt lat="46.62929" lon="-1.85095">
        <ele>19</ele>
        <time>2019-02-21T16:40:19Z</time>
      </trkpt>
      <trkpt lat="46.62926" lon="-1.85095">
        <ele>19</ele>
        <time>2019-02-21T16:40:21Z</time>
      </trkpt>
      <trkpt lat="46.62923" lon="-1.85096">
        <ele>19</ele>
        <time>2019-02-21T16:40:24Z</time>
      </trkpt>
      <trkpt lat="46.6292" lon="-1.85097">
        <ele>19</ele>
        <time>2019-02-21T16:40:26Z</time>
      </trkpt>
      <trkpt lat="46.62913" lon="-1.85098">
        <ele>19</ele>
        <time>2019-02-21T16:40:31Z</time>
      </trkpt>
      <trkpt lat="46.62909" lon="-1.851">
        <ele>19</ele>
        <time>2019-02-21T16:40:33Z</time>
      </trkpt>
      <trkpt lat="46.62906" lon="-1.85101">
        <ele>19</ele>
        <time>2019-02-21T16:40:36Z</time>
      </trkpt>
      <trkpt lat="46.62902" lon="-1.85102">
        <ele>19</ele>
        <time>2019-02-21T16:40:38Z</time>
      </trkpt>
      <trkpt lat="46.62899" lon="-1.85104">
        <ele>19</ele>
        <time>2019-02-21T16:40:41Z</time>
      </trkpt>
      <trkpt lat="46.62897" lon="-1.85105">
        <ele>19</ele>
        <time>2019-02-21T16:40:43Z</time>
      </trkpt>
      <trkpt lat="46.62893" lon="-1.85105">
        <ele>19</ele>
        <time>2019-02-21T16:40:46Z</time>
      </trkpt>
      <trkpt lat="46.62891" lon="-1.85106">
        <ele>19</ele>
        <time>2019-02-21T16:40:48Z</time>
      </trkpt>
      <trkpt lat="46.62886" lon="-1.85106">
        <ele>19</ele>
        <time>2019-02-21T16:40:51Z</time>
      </trkpt>
      <trkpt lat="46.62885" lon="-1.85106">
        <ele>19</ele>
        <time>2019-02-21T16:40:53Z</time>
      </trkpt>
      <trkpt lat="46.62881" lon="-1.85107">
        <ele>19</ele>
        <time>2019-02-21T16:40:56Z</time>
      </trkpt>
      <trkpt lat="46.62875" lon="-1.8511">
        <ele>18</ele>
        <time>2019-02-21T16:41:01Z</time>
      </trkpt>
      <trkpt lat="46.62873" lon="-1.85111">
        <ele>18</ele>
        <time>2019-02-21T16:41:03Z</time>
      </trkpt>
      <trkpt lat="46.6287" lon="-1.85111">
        <ele>18</ele>
        <time>2019-02-21T16:41:06Z</time>
      </trkpt>
      <trkpt lat="46.62868" lon="-1.85111">
        <ele>18</ele>
        <time>2019-02-21T16:41:08Z</time>
      </trkpt>
      <trkpt lat="46.62865" lon="-1.85111">
        <ele>18</ele>
        <time>2019-02-21T16:41:11Z</time>
      </trkpt>
      <trkpt lat="46.62862" lon="-1.85112">
        <ele>18</ele>
        <time>2019-02-21T16:41:13Z</time>
      </trkpt>
      <trkpt lat="46.62858" lon="-1.85114">
        <ele>18</ele>
        <time>2019-02-21T16:41:16Z</time>
      </trkpt>
      <trkpt lat="46.62855" lon="-1.85115">
        <ele>18</ele>
        <time>2019-02-21T16:41:18Z</time>
      </trkpt>
      <trkpt lat="46.62851" lon="-1.85116">
        <ele>17</ele>
        <time>2019-02-21T16:41:21Z</time>
      </trkpt>
      <trkpt lat="46.62848" lon="-1.85117">
        <ele>17</ele>
        <time>2019-02-21T16:41:23Z</time>
      </trkpt>
      <trkpt lat="46.62841" lon="-1.8512">
        <ele>17</ele>
        <time>2019-02-21T16:41:28Z</time>
      </trkpt>
      <trkpt lat="46.62837" lon="-1.85122">
        <ele>17</ele>
        <time>2019-02-21T16:41:30Z</time>
      </trkpt>
      <trkpt lat="46.62835" lon="-1.85123">
        <ele>17</ele>
        <time>2019-02-21T16:41:33Z</time>
      </trkpt>
      <trkpt lat="46.62832" lon="-1.85124">
        <ele>17</ele>
        <time>2019-02-21T16:41:35Z</time>
      </trkpt>
      <trkpt lat="46.62829" lon="-1.85125">
        <ele>17</ele>
        <time>2019-02-21T16:41:38Z</time>
      </trkpt>
      <trkpt lat="46.62825" lon="-1.85126">
        <ele>17</ele>
        <time>2019-02-21T16:41:40Z</time>
      </trkpt>
      <trkpt lat="46.62822" lon="-1.85127">
        <ele>17</ele>
        <time>2019-02-21T16:41:43Z</time>
      </trkpt>
      <trkpt lat="46.62819" lon="-1.85128">
        <ele>16</ele>
        <time>2019-02-21T16:41:45Z</time>
      </trkpt>
      <trkpt lat="46.62817" lon="-1.85128">
        <ele>16</ele>
        <time>2019-02-21T16:41:48Z</time>
      </trkpt>
      <trkpt lat="46.62813" lon="-1.8513">
        <ele>16</ele>
        <time>2019-02-21T16:41:50Z</time>
      </trkpt>
      <trkpt lat="46.6281" lon="-1.85132">
        <ele>16</ele>
        <time>2019-02-21T16:41:53Z</time>
      </trkpt>
      <trkpt lat="46.62805" lon="-1.85135">
        <ele>16</ele>
        <time>2019-02-21T16:41:58Z</time>
      </trkpt>
      <trkpt lat="46.62802" lon="-1.85137">
        <ele>16</ele>
        <time>2019-02-21T16:42:00Z</time>
      </trkpt>
      <trkpt lat="46.628" lon="-1.85137">
        <ele>16</ele>
        <time>2019-02-21T16:42:03Z</time>
      </trkpt>
      <trkpt lat="46.62797" lon="-1.85136">
        <ele>16</ele>
        <time>2019-02-21T16:42:05Z</time>
      </trkpt>
      <trkpt lat="46.62796" lon="-1.85136">
        <ele>16</ele>
        <time>2019-02-21T16:42:08Z</time>
      </trkpt>
      <trkpt lat="46.62794" lon="-1.85135">
        <ele>16</ele>
        <time>2019-02-21T16:42:10Z</time>
      </trkpt>
      <trkpt lat="46.62793" lon="-1.85136">
        <ele>16</ele>
        <time>2019-02-21T16:42:13Z</time>
      </trkpt>
      <trkpt lat="46.6279" lon="-1.85139">
        <ele>15</ele>
        <time>2019-02-21T16:42:15Z</time>
      </trkpt>
      <trkpt lat="46.62789" lon="-1.85141">
        <ele>15</ele>
        <time>2019-02-21T16:42:18Z</time>
      </trkpt>
      <trkpt lat="46.62789" lon="-1.85142">
        <ele>15</ele>
        <time>2019-02-21T16:42:20Z</time>
      </trkpt>
      <trkpt lat="46.62791" lon="-1.85143">
        <ele>15</ele>
        <time>2019-02-21T16:42:23Z</time>
      </trkpt>
      <trkpt lat="46.62791" lon="-1.85143">
        <ele>15</ele>
        <time>2019-02-21T16:42:28Z</time>
      </trkpt>
      <trkpt lat="46.62791" lon="-1.85143">
        <ele>15</ele>
        <time>2019-02-21T16:42:30Z</time>
      </trkpt>
      <trkpt lat="46.62791" lon="-1.85143">
        <ele>15</ele>
        <time>2019-02-21T16:42:33Z</time>
      </trkpt>
      <trkpt lat="46.6279" lon="-1.85144">
        <ele>15</ele>
        <time>2019-02-21T16:42:35Z</time>
      </trkpt>
      <trkpt lat="46.62788" lon="-1.85149">
        <ele>15</ele>
        <time>2019-02-21T16:42:38Z</time>
      </trkpt>
      <trkpt lat="46.62788" lon="-1.85153">
        <ele>15</ele>
        <time>2019-02-21T16:42:40Z</time>
      </trkpt>
      <trkpt lat="46.62787" lon="-1.85157">
        <ele>15</ele>
        <time>2019-02-21T16:42:43Z</time>
      </trkpt>
      <trkpt lat="46.62786" lon="-1.85161">
        <ele>15</ele>
        <time>2019-02-21T16:42:45Z</time>
      </trkpt>
      <trkpt lat="46.62785" lon="-1.85166">
        <ele>15</ele>
        <time>2019-02-21T16:42:48Z</time>
      </trkpt>
      <trkpt lat="46.62785" lon="-1.8517">
        <ele>15</ele>
        <time>2019-02-21T16:42:50Z</time>
      </trkpt>
      <trkpt lat="46.62784" lon="-1.85175">
        <ele>15</ele>
        <time>2019-02-21T16:42:53Z</time>
      </trkpt>
      <trkpt lat="46.62781" lon="-1.85185">
        <ele>15</ele>
        <time>2019-02-21T16:42:58Z</time>
      </trkpt>
      <trkpt lat="46.62781" lon="-1.85187">
        <ele>15</ele>
        <time>2019-02-21T16:43:00Z</time>
      </trkpt>
      <trkpt lat="46.62781" lon="-1.85192">
        <ele>15</ele>
        <time>2019-02-21T16:43:03Z</time>
      </trkpt>
      <trkpt lat="46.6278" lon="-1.85195">
        <ele>15</ele>
        <time>2019-02-21T16:43:05Z</time>
      </trkpt>
      <trkpt lat="46.62781" lon="-1.85201">
        <ele>15</ele>
        <time>2019-02-21T16:43:08Z</time>
      </trkpt>
      <trkpt lat="46.6278" lon="-1.85204">
        <ele>15</ele>
        <time>2019-02-21T16:43:10Z</time>
      </trkpt>
      <trkpt lat="46.62779" lon="-1.8521">
        <ele>15</ele>
        <time>2019-02-21T16:43:12Z</time>
      </trkpt>
      <trkpt lat="46.62779" lon="-1.85214">
        <ele>15</ele>
        <time>2019-02-21T16:43:15Z</time>
      </trkpt>
      <trkpt lat="46.62779" lon="-1.85219">
        <ele>15</ele>
        <time>2019-02-21T16:43:18Z</time>
      </trkpt>
      <trkpt lat="46.62778" lon="-1.85223">
        <ele>15</ele>
        <time>2019-02-21T16:43:20Z</time>
      </trkpt>
      <trkpt lat="46.62778" lon="-1.85229">
        <ele>15</ele>
        <time>2019-02-21T16:43:23Z</time>
      </trkpt>
      <trkpt lat="46.62778" lon="-1.85238">
        <ele>15</ele>
        <time>2019-02-21T16:43:28Z</time>
      </trkpt>
      <trkpt lat="46.62778" lon="-1.85242">
        <ele>15</ele>
        <time>2019-02-21T16:43:30Z</time>
      </trkpt>
      <trkpt lat="46.62778" lon="-1.85247">
        <ele>15</ele>
        <time>2019-02-21T16:43:33Z</time>
      </trkpt>
      <trkpt lat="46.62778" lon="-1.85251">
        <ele>15</ele>
        <time>2019-02-21T16:43:35Z</time>
      </trkpt>
      <trkpt lat="46.62777" lon="-1.85257">
        <ele>15</ele>
        <time>2019-02-21T16:43:38Z</time>
      </trkpt>
      <trkpt lat="46.62777" lon="-1.8526">
        <ele>15</ele>
        <time>2019-02-21T16:43:40Z</time>
      </trkpt>
      <trkpt lat="46.62776" lon="-1.85265">
        <ele>15</ele>
        <time>2019-02-21T16:43:43Z</time>
      </trkpt>
      <trkpt lat="46.62776" lon="-1.85268">
        <ele>15</ele>
        <time>2019-02-21T16:43:45Z</time>
      </trkpt>
      <trkpt lat="46.62775" lon="-1.85273">
        <ele>15</ele>
        <time>2019-02-21T16:43:48Z</time>
      </trkpt>
      <trkpt lat="46.62775" lon="-1.85277">
        <ele>15</ele>
        <time>2019-02-21T16:43:50Z</time>
      </trkpt>
      <trkpt lat="46.62774" lon="-1.85282">
        <ele>15</ele>
        <time>2019-02-21T16:43:53Z</time>
      </trkpt>
      <trkpt lat="46.62774" lon="-1.85291">
        <ele>15</ele>
        <time>2019-02-21T16:43:58Z</time>
      </trkpt>
      <trkpt lat="46.62773" lon="-1.85295">
        <ele>15</ele>
        <time>2019-02-21T16:44:00Z</time>
      </trkpt>
      <trkpt lat="46.6277" lon="-1.85298">
        <ele>15</ele>
        <time>2019-02-21T16:44:03Z</time>
      </trkpt>
      <trkpt lat="46.62768" lon="-1.85302">
        <ele>15</ele>
        <time>2019-02-21T16:44:05Z</time>
      </trkpt>
      <trkpt lat="46.62767" lon="-1.85306">
        <ele>15</ele>
        <time>2019-02-21T16:44:08Z</time>
      </trkpt>
      <trkpt lat="46.62766" lon="-1.85312">
        <ele>15</ele>
        <time>2019-02-21T16:44:10Z</time>
      </trkpt>
      <trkpt lat="46.62765" lon="-1.85316">
        <ele>15</ele>
        <time>2019-02-21T16:44:13Z</time>
      </trkpt>
      <trkpt lat="46.62765" lon="-1.85322">
        <ele>15</ele>
        <time>2019-02-21T16:44:15Z</time>
      </trkpt>
      <trkpt lat="46.62765" lon="-1.85326">
        <ele>15</ele>
        <time>2019-02-21T16:44:18Z</time>
      </trkpt>
      <trkpt lat="46.62764" lon="-1.85331">
        <ele>15</ele>
        <time>2019-02-21T16:44:20Z</time>
      </trkpt>
      <trkpt lat="46.62761" lon="-1.85341">
        <ele>15</ele>
        <time>2019-02-21T16:44:26Z</time>
      </trkpt>
      <trkpt lat="46.62761" lon="-1.85344">
        <ele>15</ele>
        <time>2019-02-21T16:44:28Z</time>
      </trkpt>
      <trkpt lat="46.62761" lon="-1.85349">
        <ele>15</ele>
        <time>2019-02-21T16:44:31Z</time>
      </trkpt>
      <trkpt lat="46.62761" lon="-1.85353">
        <ele>15</ele>
        <time>2019-02-21T16:44:33Z</time>
      </trkpt>
      <trkpt lat="46.6276" lon="-1.85358">
        <ele>15</ele>
        <time>2019-02-21T16:44:36Z</time>
      </trkpt>
      <trkpt lat="46.62759" lon="-1.8536">
        <ele>15</ele>
        <time>2019-02-21T16:44:38Z</time>
      </trkpt>
      <trkpt lat="46.62757" lon="-1.85364">
        <ele>15</ele>
        <time>2019-02-21T16:44:41Z</time>
      </trkpt>
      <trkpt lat="46.62755" lon="-1.85366">
        <ele>15</ele>
        <time>2019-02-21T16:44:43Z</time>
      </trkpt>
      <trkpt lat="46.62752" lon="-1.85368">
        <ele>15</ele>
        <time>2019-02-21T16:44:46Z</time>
      </trkpt>
      <trkpt lat="46.6275" lon="-1.85368">
        <ele>15</ele>
        <time>2019-02-21T16:44:48Z</time>
      </trkpt>
      <trkpt lat="46.62747" lon="-1.85369">
        <ele>15</ele>
        <time>2019-02-21T16:44:51Z</time>
      </trkpt>
      <trkpt lat="46.62747" lon="-1.85373">
        <ele>15</ele>
        <time>2019-02-21T16:44:56Z</time>
      </trkpt>
      <trkpt lat="46.62747" lon="-1.85374">
        <ele>15</ele>
        <time>2019-02-21T16:44:58Z</time>
      </trkpt>
      <trkpt lat="46.6275" lon="-1.85373">
        <ele>15</ele>
        <time>2019-02-21T16:45:01Z</time>
      </trkpt>
      <trkpt lat="46.62751" lon="-1.85374">
        <ele>15</ele>
        <time>2019-02-21T16:45:03Z</time>
      </trkpt>
      <trkpt lat="46.6275" lon="-1.85374">
        <ele>15</ele>
        <time>2019-02-21T16:45:06Z</time>
      </trkpt>
      <trkpt lat="46.62749" lon="-1.85373">
        <ele>15</ele>
        <time>2019-02-21T16:45:08Z</time>
      </trkpt>
      <trkpt lat="46.62749" lon="-1.85374">
        <ele>15</ele>
        <time>2019-02-21T16:45:11Z</time>
      </trkpt>
      <trkpt lat="46.62749" lon="-1.85375">
        <ele>15</ele>
        <time>2019-02-21T16:45:13Z</time>
      </trkpt>
      <trkpt lat="46.62749" lon="-1.85376">
        <ele>15</ele>
        <time>2019-02-21T16:45:16Z</time>
      </trkpt>
      <trkpt lat="46.62748" lon="-1.85377">
        <ele>15</ele>
        <time>2019-02-21T16:45:18Z</time>
      </trkpt>
      <trkpt lat="46.62746" lon="-1.85378">
        <ele>15</ele>
        <time>2019-02-21T16:45:21Z</time>
      </trkpt>
      <trkpt lat="46.62744" lon="-1.8538">
        <ele>14</ele>
        <time>2019-02-21T16:45:26Z</time>
      </trkpt>
      <trkpt lat="46.6274" lon="-1.8538">
        <ele>14</ele>
        <time>2019-02-21T16:45:29Z</time>
      </trkpt>
      <trkpt lat="46.62738" lon="-1.85381">
        <ele>14</ele>
        <time>2019-02-21T16:45:31Z</time>
      </trkpt>
      <trkpt lat="46.62733" lon="-1.85383">
        <ele>14</ele>
        <time>2019-02-21T16:45:34Z</time>
      </trkpt>
      <trkpt lat="46.6273" lon="-1.85383">
        <ele>14</ele>
        <time>2019-02-21T16:45:36Z</time>
      </trkpt>
      <trkpt lat="46.62726" lon="-1.85385">
        <ele>14</ele>
        <time>2019-02-21T16:45:39Z</time>
      </trkpt>
      <trkpt lat="46.62723" lon="-1.85386">
        <ele>14</ele>
        <time>2019-02-21T16:45:41Z</time>
      </trkpt>
      <trkpt lat="46.62719" lon="-1.85388">
        <ele>14</ele>
        <time>2019-02-21T16:45:44Z</time>
      </trkpt>
      <trkpt lat="46.62716" lon="-1.8539">
        <ele>14</ele>
        <time>2019-02-21T16:45:46Z</time>
      </trkpt>
      <trkpt lat="46.62713" lon="-1.8539">
        <ele>14</ele>
        <time>2019-02-21T16:45:49Z</time>
      </trkpt>
      <trkpt lat="46.6271" lon="-1.85391">
        <ele>13</ele>
        <time>2019-02-21T16:45:51Z</time>
      </trkpt>
      <trkpt lat="46.62704" lon="-1.85393">
        <ele>13</ele>
        <time>2019-02-21T16:45:57Z</time>
      </trkpt>
      <trkpt lat="46.62701" lon="-1.85394">
        <ele>13</ele>
        <time>2019-02-21T16:45:59Z</time>
      </trkpt>
      <trkpt lat="46.62697" lon="-1.85395">
        <ele>13</ele>
        <time>2019-02-21T16:46:02Z</time>
      </trkpt>
      <trkpt lat="46.62694" lon="-1.85396">
        <ele>13</ele>
        <time>2019-02-21T16:46:04Z</time>
      </trkpt>
      <trkpt lat="46.62689" lon="-1.85396">
        <ele>13</ele>
        <time>2019-02-21T16:46:07Z</time>
      </trkpt>
      <trkpt lat="46.62685" lon="-1.85396">
        <ele>13</ele>
        <time>2019-02-21T16:46:09Z</time>
      </trkpt>
      <trkpt lat="46.62682" lon="-1.85396">
        <ele>13</ele>
        <time>2019-02-21T16:46:12Z</time>
      </trkpt>
      <trkpt lat="46.62678" lon="-1.85397">
        <ele>13</ele>
        <time>2019-02-21T16:46:15Z</time>
      </trkpt>
      <trkpt lat="46.62674" lon="-1.85397">
        <ele>13</ele>
        <time>2019-02-21T16:46:17Z</time>
      </trkpt>
      <trkpt lat="46.62669" lon="-1.85397">
        <ele>13</ele>
        <time>2019-02-21T16:46:20Z</time>
      </trkpt>
      <trkpt lat="46.62667" lon="-1.85397">
        <ele>13</ele>
        <time>2019-02-21T16:46:22Z</time>
      </trkpt>
      <trkpt lat="46.6266" lon="-1.85396">
        <ele>12</ele>
        <time>2019-02-21T16:46:27Z</time>
      </trkpt>
      <trkpt lat="46.62655" lon="-1.85395">
        <ele>12</ele>
        <time>2019-02-21T16:46:30Z</time>
      </trkpt>
      <trkpt lat="46.6265" lon="-1.85394">
        <ele>12</ele>
        <time>2019-02-21T16:46:32Z</time>
      </trkpt>
      <trkpt lat="46.62647" lon="-1.85393">
        <ele>12</ele>
        <time>2019-02-21T16:46:35Z</time>
      </trkpt>
      <trkpt lat="46.62644" lon="-1.85392">
        <ele>12</ele>
        <time>2019-02-21T16:46:37Z</time>
      </trkpt>
      <trkpt lat="46.62641" lon="-1.85391">
        <ele>12</ele>
        <time>2019-02-21T16:46:40Z</time>
      </trkpt>
      <trkpt lat="46.62637" lon="-1.8539">
        <ele>12</ele>
        <time>2019-02-21T16:46:43Z</time>
      </trkpt>
      <trkpt lat="46.62634" lon="-1.85389">
        <ele>12</ele>
        <time>2019-02-21T16:46:45Z</time>
      </trkpt>
      <trkpt lat="46.62629" lon="-1.85388">
        <ele>12</ele>
        <time>2019-02-21T16:46:48Z</time>
      </trkpt>
      <trkpt lat="46.62624" lon="-1.85386">
        <ele>12</ele>
        <time>2019-02-21T16:46:50Z</time>
      </trkpt>
      <trkpt lat="46.62622" lon="-1.85386">
        <ele>12</ele>
        <time>2019-02-21T16:46:53Z</time>
      </trkpt>
      <trkpt lat="46.62615" lon="-1.85385">
        <ele>13</ele>
        <time>2019-02-21T16:46:58Z</time>
      </trkpt>
      <trkpt lat="46.6261" lon="-1.85385">
        <ele>13</ele>
        <time>2019-02-21T16:47:01Z</time>
      </trkpt>
      <trkpt lat="46.62606" lon="-1.85384">
        <ele>13</ele>
        <time>2019-02-21T16:47:03Z</time>
      </trkpt>
      <trkpt lat="46.62603" lon="-1.85384">
        <ele>13</ele>
        <time>2019-02-21T16:47:06Z</time>
      </trkpt>
      <trkpt lat="46.62599" lon="-1.85384">
        <ele>13</ele>
        <time>2019-02-21T16:47:09Z</time>
      </trkpt>
      <trkpt lat="46.62596" lon="-1.85383">
        <ele>13</ele>
        <time>2019-02-21T16:47:11Z</time>
      </trkpt>
      <trkpt lat="46.62591" lon="-1.85382">
        <ele>13</ele>
        <time>2019-02-21T16:47:14Z</time>
      </trkpt>
      <trkpt lat="46.62589" lon="-1.85382">
        <ele>13</ele>
        <time>2019-02-21T16:47:16Z</time>
      </trkpt>
      <trkpt lat="46.62586" lon="-1.8538">
        <ele>13</ele>
        <time>2019-02-21T16:47:19Z</time>
      </trkpt>
      <trkpt lat="46.62583" lon="-1.85379">
        <ele>13</ele>
        <time>2019-02-21T16:47:21Z</time>
      </trkpt>
      <trkpt lat="46.62578" lon="-1.85376">
        <ele>13</ele>
        <time>2019-02-21T16:47:26Z</time>
      </trkpt>
      <trkpt lat="46.62576" lon="-1.85374">
        <ele>13</ele>
        <time>2019-02-21T16:47:29Z</time>
      </trkpt>
      <trkpt lat="46.62572" lon="-1.85373">
        <ele>13</ele>
        <time>2019-02-21T16:47:32Z</time>
      </trkpt>
      <trkpt lat="46.6257" lon="-1.85373">
        <ele>13</ele>
        <time>2019-02-21T16:47:34Z</time>
      </trkpt>
      <trkpt lat="46.62566" lon="-1.85375">
        <ele>13</ele>
        <time>2019-02-21T16:47:37Z</time>
      </trkpt>
      <trkpt lat="46.62564" lon="-1.85376">
        <ele>13</ele>
        <time>2019-02-21T16:47:39Z</time>
      </trkpt>
      <trkpt lat="46.6256" lon="-1.85376">
        <ele>14</ele>
        <time>2019-02-21T16:47:42Z</time>
      </trkpt>
      <trkpt lat="46.62558" lon="-1.85376">
        <ele>14</ele>
        <time>2019-02-21T16:47:44Z</time>
      </trkpt>
      <trkpt lat="46.62557" lon="-1.85376">
        <ele>14</ele>
        <time>2019-02-21T16:47:47Z</time>
      </trkpt>
      <trkpt lat="46.62557" lon="-1.85376">
        <ele>14</ele>
        <time>2019-02-21T16:47:49Z</time>
      </trkpt>
      <trkpt lat="46.62555" lon="-1.85374">
        <ele>14</ele>
        <time>2019-02-21T16:47:52Z</time>
      </trkpt>
      <trkpt lat="46.62552" lon="-1.85372">
        <ele>14</ele>
        <time>2019-02-21T16:47:57Z</time>
      </trkpt>
      <trkpt lat="46.62551" lon="-1.85372">
        <ele>14</ele>
        <time>2019-02-21T16:47:59Z</time>
      </trkpt>
      <trkpt lat="46.62551" lon="-1.85372">
        <ele>14</ele>
        <time>2019-02-21T16:48:02Z</time>
      </trkpt>
      <trkpt lat="46.62553" lon="-1.85372">
        <ele>14</ele>
        <time>2019-02-21T16:48:04Z</time>
      </trkpt>
      <trkpt lat="46.62553" lon="-1.85372">
        <ele>14</ele>
        <time>2019-02-21T16:48:07Z</time>
      </trkpt>
      <trkpt lat="46.62553" lon="-1.85372">
        <ele>14</ele>
        <time>2019-02-21T16:48:09Z</time>
      </trkpt>
      <trkpt lat="46.62553" lon="-1.85372">
        <ele>14</ele>
        <time>2019-02-21T16:48:12Z</time>
      </trkpt>
      <trkpt lat="46.62552" lon="-1.85371">
        <ele>14</ele>
        <time>2019-02-21T16:48:14Z</time>
      </trkpt>
      <trkpt lat="46.6255" lon="-1.85371">
        <ele>14</ele>
        <time>2019-02-21T16:48:17Z</time>
      </trkpt>
      <trkpt lat="46.62547" lon="-1.85369">
        <ele>14</ele>
        <time>2019-02-21T16:48:20Z</time>
      </trkpt>
      <trkpt lat="46.62545" lon="-1.85366">
        <ele>14</ele>
        <time>2019-02-21T16:48:22Z</time>
      </trkpt>
      <trkpt lat="46.62541" lon="-1.85363">
        <ele>14</ele>
        <time>2019-02-21T16:48:27Z</time>
      </trkpt>
      <trkpt lat="46.62537" lon="-1.85364">
        <ele>14</ele>
        <time>2019-02-21T16:48:30Z</time>
      </trkpt>
      <trkpt lat="46.62536" lon="-1.85365">
        <ele>14</ele>
        <time>2019-02-21T16:48:32Z</time>
      </trkpt>
      <trkpt lat="46.62534" lon="-1.85367">
        <ele>14</ele>
        <time>2019-02-21T16:48:35Z</time>
      </trkpt>
      <trkpt lat="46.62533" lon="-1.8537">
        <ele>14</ele>
        <time>2019-02-21T16:48:37Z</time>
      </trkpt>
      <trkpt lat="46.62531" lon="-1.85374">
        <ele>14</ele>
        <time>2019-02-21T16:48:40Z</time>
      </trkpt>
      <trkpt lat="46.6253" lon="-1.85379">
        <ele>14</ele>
        <time>2019-02-21T16:48:42Z</time>
      </trkpt>
      <trkpt lat="46.6253" lon="-1.85382">
        <ele>14</ele>
        <time>2019-02-21T16:48:45Z</time>
      </trkpt>
      <trkpt lat="46.62529" lon="-1.85388">
        <ele>14</ele>
        <time>2019-02-21T16:48:48Z</time>
      </trkpt>
      <trkpt lat="46.62529" lon="-1.85392">
        <ele>14</ele>
        <time>2019-02-21T16:48:50Z</time>
      </trkpt>
      <trkpt lat="46.6253" lon="-1.85397">
        <ele>14</ele>
        <time>2019-02-21T16:48:53Z</time>
      </trkpt>
      <trkpt lat="46.62529" lon="-1.85407">
        <ele>14</ele>
        <time>2019-02-21T16:48:58Z</time>
      </trkpt>
      <trkpt lat="46.6253" lon="-1.85413">
        <ele>14</ele>
        <time>2019-02-21T16:49:00Z</time>
      </trkpt>
      <trkpt lat="46.6253" lon="-1.85416">
        <ele>14</ele>
        <time>2019-02-21T16:49:03Z</time>
      </trkpt>
      <trkpt lat="46.62532" lon="-1.85421">
        <ele>14</ele>
        <time>2019-02-21T16:49:06Z</time>
      </trkpt>
      <trkpt lat="46.62532" lon="-1.85423">
        <ele>14</ele>
        <time>2019-02-21T16:49:08Z</time>
      </trkpt>
      <trkpt lat="46.62533" lon="-1.85428">
        <ele>13</ele>
        <time>2019-02-21T16:49:11Z</time>
      </trkpt>
      <trkpt lat="46.62535" lon="-1.85432">
        <ele>13</ele>
        <time>2019-02-21T16:49:13Z</time>
      </trkpt>
      <trkpt lat="46.62537" lon="-1.85434">
        <ele>13</ele>
        <time>2019-02-21T16:49:16Z</time>
      </trkpt>
      <trkpt lat="46.6254" lon="-1.85438">
        <ele>13</ele>
        <time>2019-02-21T16:49:19Z</time>
      </trkpt>
      <trkpt lat="46.62541" lon="-1.85439">
        <ele>13</ele>
        <time>2019-02-21T16:49:21Z</time>
      </trkpt>
      <trkpt lat="46.62541" lon="-1.85441">
        <ele>13</ele>
        <time>2019-02-21T16:49:24Z</time>
      </trkpt>
      <trkpt lat="46.62539" lon="-1.85443">
        <ele>13</ele>
        <time>2019-02-21T16:49:29Z</time>
      </trkpt>
      <trkpt lat="46.62537" lon="-1.85442">
        <ele>13</ele>
        <time>2019-02-21T16:49:31Z</time>
      </trkpt>
      <trkpt lat="46.62537" lon="-1.85442">
        <ele>13</ele>
        <time>2019-02-21T16:49:34Z</time>
      </trkpt>
      <trkpt lat="46.62534" lon="-1.85445">
        <ele>13</ele>
        <time>2019-02-21T16:49:37Z</time>
      </trkpt>
      <trkpt lat="46.62532" lon="-1.85445">
        <ele>13</ele>
        <time>2019-02-21T16:49:39Z</time>
      </trkpt>
      <trkpt lat="46.62529" lon="-1.85447">
        <ele>13</ele>
        <time>2019-02-21T16:49:42Z</time>
      </trkpt>
      <trkpt lat="46.62528" lon="-1.85453">
        <ele>13</ele>
        <time>2019-02-21T16:49:44Z</time>
      </trkpt>
      <trkpt lat="46.62528" lon="-1.85457">
        <ele>13</ele>
        <time>2019-02-21T16:49:47Z</time>
      </trkpt>
      <trkpt lat="46.62528" lon="-1.85461">
        <ele>13</ele>
        <time>2019-02-21T16:49:49Z</time>
      </trkpt>
      <trkpt lat="46.62528" lon="-1.85464">
        <ele>13</ele>
        <time>2019-02-21T16:49:52Z</time>
      </trkpt>
      <trkpt lat="46.62528" lon="-1.85469">
        <ele>13</ele>
        <time>2019-02-21T16:49:55Z</time>
      </trkpt>
      <trkpt lat="46.62528" lon="-1.85478">
        <ele>13</ele>
        <time>2019-02-21T16:50:00Z</time>
      </trkpt>
      <trkpt lat="46.62528" lon="-1.85482">
        <ele>13</ele>
        <time>2019-02-21T16:50:02Z</time>
      </trkpt>
      <trkpt lat="46.62528" lon="-1.85489">
        <ele>13</ele>
        <time>2019-02-21T16:50:05Z</time>
      </trkpt>
      <trkpt lat="46.62528" lon="-1.85495">
        <ele>13</ele>
        <time>2019-02-21T16:50:07Z</time>
      </trkpt>
      <trkpt lat="46.62528" lon="-1.85499">
        <ele>13</ele>
        <time>2019-02-21T16:50:10Z</time>
      </trkpt>
      <trkpt lat="46.62528" lon="-1.85503">
        <ele>13</ele>
        <time>2019-02-21T16:50:12Z</time>
      </trkpt>
      <trkpt lat="46.62528" lon="-1.8551">
        <ele>13</ele>
        <time>2019-02-21T16:50:15Z</time>
      </trkpt>
      <trkpt lat="46.62528" lon="-1.85514">
        <ele>13</ele>
        <time>2019-02-21T16:50:17Z</time>
      </trkpt>
      <trkpt lat="46.62528" lon="-1.8552">
        <ele>13</ele>
        <time>2019-02-21T16:50:20Z</time>
      </trkpt>
      <trkpt lat="46.62528" lon="-1.85524">
        <ele>13</ele>
        <time>2019-02-21T16:50:22Z</time>
      </trkpt>
      <trkpt lat="46.62528" lon="-1.85536">
        <ele>13</ele>
        <time>2019-02-21T16:50:27Z</time>
      </trkpt>
      <trkpt lat="46.62528" lon="-1.8554">
        <ele>13</ele>
        <time>2019-02-21T16:50:30Z</time>
      </trkpt>
      <trkpt lat="46.62528" lon="-1.85546">
        <ele>13</ele>
        <time>2019-02-21T16:50:32Z</time>
      </trkpt>
      <trkpt lat="46.62528" lon="-1.8555">
        <ele>12</ele>
        <time>2019-02-21T16:50:35Z</time>
      </trkpt>
      <trkpt lat="46.62527" lon="-1.85556">
        <ele>13</ele>
        <time>2019-02-21T16:50:37Z</time>
      </trkpt>
      <trkpt lat="46.62527" lon="-1.8556">
        <ele>12</ele>
        <time>2019-02-21T16:50:40Z</time>
      </trkpt>
      <trkpt lat="46.62527" lon="-1.85566">
        <ele>12</ele>
        <time>2019-02-21T16:50:42Z</time>
      </trkpt>
      <trkpt lat="46.62527" lon="-1.85569">
        <ele>12</ele>
        <time>2019-02-21T16:50:45Z</time>
      </trkpt>
      <trkpt lat="46.62526" lon="-1.85575">
        <ele>12</ele>
        <time>2019-02-21T16:50:48Z</time>
      </trkpt>
      <trkpt lat="46.62526" lon="-1.8558">
        <ele>12</ele>
        <time>2019-02-21T16:50:50Z</time>
      </trkpt>
      <trkpt lat="46.62526" lon="-1.85586">
        <ele>12</ele>
        <time>2019-02-21T16:50:53Z</time>
      </trkpt>
      <trkpt lat="46.62525" lon="-1.85596">
        <ele>12</ele>
        <time>2019-02-21T16:50:58Z</time>
      </trkpt>
      <trkpt lat="46.62525" lon="-1.856">
        <ele>12</ele>
        <time>2019-02-21T16:51:00Z</time>
      </trkpt>
      <trkpt lat="46.62525" lon="-1.85606">
        <ele>12</ele>
        <time>2019-02-21T16:51:03Z</time>
      </trkpt>
      <trkpt lat="46.62525" lon="-1.85612">
        <ele>12</ele>
        <time>2019-02-21T16:51:05Z</time>
      </trkpt>
      <trkpt lat="46.62524" lon="-1.85616">
        <ele>12</ele>
        <time>2019-02-21T16:51:08Z</time>
      </trkpt>
      <trkpt lat="46.62524" lon="-1.85622">
        <ele>12</ele>
        <time>2019-02-21T16:51:11Z</time>
      </trkpt>
      <trkpt lat="46.62524" lon="-1.85624">
        <ele>12</ele>
        <time>2019-02-21T16:51:13Z</time>
      </trkpt>
      <trkpt lat="46.62526" lon="-1.85629">
        <ele>12</ele>
        <time>2019-02-21T16:51:16Z</time>
      </trkpt>
      <trkpt lat="46.62526" lon="-1.85634">
        <ele>12</ele>
        <time>2019-02-21T16:51:18Z</time>
      </trkpt>
      <trkpt lat="46.62526" lon="-1.85638">
        <ele>12</ele>
        <time>2019-02-21T16:51:21Z</time>
      </trkpt>
      <trkpt lat="46.62526" lon="-1.85644">
        <ele>12</ele>
        <time>2019-02-21T16:51:24Z</time>
      </trkpt>
      <trkpt lat="46.62526" lon="-1.85654">
        <ele>12</ele>
        <time>2019-02-21T16:51:29Z</time>
      </trkpt>
      <trkpt lat="46.62527" lon="-1.8566">
        <ele>12</ele>
        <time>2019-02-21T16:51:31Z</time>
      </trkpt>
      <trkpt lat="46.62526" lon="-1.85664">
        <ele>12</ele>
        <time>2019-02-21T16:51:34Z</time>
      </trkpt>
      <trkpt lat="46.62526" lon="-1.85668">
        <ele>12</ele>
        <time>2019-02-21T16:51:37Z</time>
      </trkpt>
      <trkpt lat="46.62526" lon="-1.85671">
        <ele>12</ele>
        <time>2019-02-21T16:51:39Z</time>
      </trkpt>
      <trkpt lat="46.62526" lon="-1.85674">
        <ele>12</ele>
        <time>2019-02-21T16:51:42Z</time>
      </trkpt>
      <trkpt lat="46.62526" lon="-1.85674">
        <ele>12</ele>
        <time>2019-02-21T16:51:44Z</time>
      </trkpt>
      <trkpt lat="46.62526" lon="-1.85675">
        <ele>12</ele>
        <time>2019-02-21T16:51:47Z</time>
      </trkpt>
      <trkpt lat="46.62526" lon="-1.85677">
        <ele>12</ele>
        <time>2019-02-21T16:51:49Z</time>
      </trkpt>
      <trkpt lat="46.62526" lon="-1.85677">
        <ele>12</ele>
        <time>2019-02-21T16:51:52Z</time>
      </trkpt>
      <trkpt lat="46.62525" lon="-1.85678">
        <ele>12</ele>
        <time>2019-02-21T16:51:54Z</time>
      </trkpt>
      <trkpt lat="46.62525" lon="-1.85681">
        <ele>12</ele>
        <time>2019-02-21T16:52:00Z</time>
      </trkpt>
      <trkpt lat="46.62525" lon="-1.85681">
        <ele>12</ele>
        <time>2019-02-21T16:52:02Z</time>
      </trkpt>
      <trkpt lat="46.62524" lon="-1.85683">
        <ele>12</ele>
        <time>2019-02-21T16:52:05Z</time>
      </trkpt>
      <trkpt lat="46.62522" lon="-1.85687">
        <ele>12</ele>
        <time>2019-02-21T16:52:07Z</time>
      </trkpt>
      <trkpt lat="46.6252" lon="-1.8569">
        <ele>12</ele>
        <time>2019-02-21T16:52:10Z</time>
      </trkpt>
      <trkpt lat="46.62518" lon="-1.85694">
        <ele>12</ele>
        <time>2019-02-21T16:52:12Z</time>
      </trkpt>
      <trkpt lat="46.62517" lon="-1.85698">
        <ele>12</ele>
        <time>2019-02-21T16:52:15Z</time>
      </trkpt>
      <trkpt lat="46.62516" lon="-1.85703">
        <ele>12</ele>
        <time>2019-02-21T16:52:18Z</time>
      </trkpt>
      <trkpt lat="46.62515" lon="-1.85706">
        <ele>12</ele>
        <time>2019-02-21T16:52:20Z</time>
      </trkpt>
      <trkpt lat="46.62512" lon="-1.85711">
        <ele>12</ele>
        <time>2019-02-21T16:52:23Z</time>
      </trkpt>
      <trkpt lat="46.62512" lon="-1.85711">
        <ele>12</ele>
        <time>2019-02-21T16:52:25Z</time>
      </trkpt>
      <trkpt lat="46.62511" lon="-1.85712">
        <ele>12</ele>
        <time>2019-02-21T16:52:31Z</time>
      </trkpt>
      <trkpt lat="46.6251" lon="-1.85712">
        <ele>12</ele>
        <time>2019-02-21T16:52:33Z</time>
      </trkpt>
      <trkpt lat="46.6251" lon="-1.85711">
        <ele>12</ele>
        <time>2019-02-21T16:52:36Z</time>
      </trkpt>
      <trkpt lat="46.6251" lon="-1.85711">
        <ele>12</ele>
        <time>2019-02-21T16:52:38Z</time>
      </trkpt>
      <trkpt lat="46.62509" lon="-1.85711">
        <ele>12</ele>
        <time>2019-02-21T16:52:41Z</time>
      </trkpt>
      <trkpt lat="46.62508" lon="-1.85711">
        <ele>12</ele>
        <time>2019-02-21T16:52:44Z</time>
      </trkpt>
      <trkpt lat="46.62506" lon="-1.85713">
        <ele>12</ele>
        <time>2019-02-21T16:52:46Z</time>
      </trkpt>
      <trkpt lat="46.62504" lon="-1.85717">
        <ele>12</ele>
        <time>2019-02-21T16:52:49Z</time>
      </trkpt>
      <trkpt lat="46.62501" lon="-1.8572">
        <ele>12</ele>
        <time>2019-02-21T16:52:51Z</time>
      </trkpt>
      <trkpt lat="46.62499" lon="-1.85722">
        <ele>12</ele>
        <time>2019-02-21T16:52:54Z</time>
      </trkpt>
      <trkpt lat="46.62497" lon="-1.85725">
        <ele>12</ele>
        <time>2019-02-21T16:52:57Z</time>
      </trkpt>
      <trkpt lat="46.62492" lon="-1.85729">
        <ele>12</ele>
        <time>2019-02-21T16:53:02Z</time>
      </trkpt>
      <trkpt lat="46.62489" lon="-1.85732">
        <ele>12</ele>
        <time>2019-02-21T16:53:04Z</time>
      </trkpt>
      <trkpt lat="46.62486" lon="-1.85735">
        <ele>12</ele>
        <time>2019-02-21T16:53:07Z</time>
      </trkpt>
      <trkpt lat="46.62482" lon="-1.85739">
        <ele>12</ele>
        <time>2019-02-21T16:53:09Z</time>
      </trkpt>
      <trkpt lat="46.6248" lon="-1.85742">
        <ele>12</ele>
        <time>2019-02-21T16:53:12Z</time>
      </trkpt>
      <trkpt lat="46.62475" lon="-1.85745">
        <ele>12</ele>
        <time>2019-02-21T16:53:14Z</time>
      </trkpt>
      <trkpt lat="46.62473" lon="-1.85747">
        <ele>12</ele>
        <time>2019-02-21T16:53:17Z</time>
      </trkpt>
      <trkpt lat="46.62468" lon="-1.85749">
        <ele>11</ele>
        <time>2019-02-21T16:53:20Z</time>
      </trkpt>
      <trkpt lat="46.62465" lon="-1.85751">
        <ele>11</ele>
        <time>2019-02-21T16:53:22Z</time>
      </trkpt>
      <trkpt lat="46.62461" lon="-1.85753">
        <ele>11</ele>
        <time>2019-02-21T16:53:25Z</time>
      </trkpt>
      <trkpt lat="46.62457" lon="-1.85754">
        <ele>11</ele>
        <time>2019-02-21T16:53:27Z</time>
      </trkpt>
      <trkpt lat="46.6245" lon="-1.85756">
        <ele>11</ele>
        <time>2019-02-21T16:53:33Z</time>
      </trkpt>
      <trkpt lat="46.62447" lon="-1.85757">
        <ele>11</ele>
        <time>2019-02-21T16:53:35Z</time>
      </trkpt>
      <trkpt lat="46.62443" lon="-1.85759">
        <ele>11</ele>
        <time>2019-02-21T16:53:38Z</time>
      </trkpt>
      <trkpt lat="46.62439" lon="-1.8576">
        <ele>11</ele>
        <time>2019-02-21T16:53:40Z</time>
      </trkpt>
      <trkpt lat="46.62436" lon="-1.85761">
        <ele>11</ele>
        <time>2019-02-21T16:53:43Z</time>
      </trkpt>
      <trkpt lat="46.62432" lon="-1.85763">
        <ele>11</ele>
        <time>2019-02-21T16:53:45Z</time>
      </trkpt>
      <trkpt lat="46.62429" lon="-1.85763">
        <ele>11</ele>
        <time>2019-02-21T16:53:48Z</time>
      </trkpt>
      <trkpt lat="46.62425" lon="-1.85764">
        <ele>11</ele>
        <time>2019-02-21T16:53:51Z</time>
      </trkpt>
      <trkpt lat="46.62422" lon="-1.85765">
        <ele>11</ele>
        <time>2019-02-21T16:53:53Z</time>
      </trkpt>
      <trkpt lat="46.62417" lon="-1.85766">
        <ele>11</ele>
        <time>2019-02-21T16:53:56Z</time>
      </trkpt>
      <trkpt lat="46.62409" lon="-1.85768">
        <ele>11</ele>
        <time>2019-02-21T16:54:01Z</time>
      </trkpt>
      <trkpt lat="46.62405" lon="-1.8577">
        <ele>11</ele>
        <time>2019-02-21T16:54:03Z</time>
      </trkpt>
      <trkpt lat="46.62402" lon="-1.8577">
        <ele>11</ele>
        <time>2019-02-21T16:54:06Z</time>
      </trkpt>
      <trkpt lat="46.62398" lon="-1.85771">
        <ele>11</ele>
        <time>2019-02-21T16:54:09Z</time>
      </trkpt>
      <trkpt lat="46.62395" lon="-1.85772">
        <ele>11</ele>
        <time>2019-02-21T16:54:11Z</time>
      </trkpt>
      <trkpt lat="46.62391" lon="-1.85772">
        <ele>11</ele>
        <time>2019-02-21T16:54:14Z</time>
      </trkpt>
      <trkpt lat="46.62387" lon="-1.85772">
        <ele>11</ele>
        <time>2019-02-21T16:54:16Z</time>
      </trkpt>
      <trkpt lat="46.62383" lon="-1.85771">
        <ele>11</ele>
        <time>2019-02-21T16:54:19Z</time>
      </trkpt>
      <trkpt lat="46.62378" lon="-1.85771">
        <ele>11</ele>
        <time>2019-02-21T16:54:21Z</time>
      </trkpt>
      <trkpt lat="46.62375" lon="-1.85771">
        <ele>11</ele>
        <time>2019-02-21T16:54:24Z</time>
      </trkpt>
      <trkpt lat="46.6237" lon="-1.8577">
        <ele>11</ele>
        <time>2019-02-21T16:54:26Z</time>
      </trkpt>
      <trkpt lat="46.62362" lon="-1.85768">
        <ele>11</ele>
        <time>2019-02-21T16:54:31Z</time>
      </trkpt>
      <trkpt lat="46.6236" lon="-1.85767">
        <ele>11</ele>
        <time>2019-02-21T16:54:34Z</time>
      </trkpt>
      <trkpt lat="46.62355" lon="-1.85767">
        <ele>10</ele>
        <time>2019-02-21T16:54:37Z</time>
      </trkpt>
      <trkpt lat="46.62352" lon="-1.85766">
        <ele>10</ele>
        <time>2019-02-21T16:54:39Z</time>
      </trkpt>
      <trkpt lat="46.62347" lon="-1.85765">
        <ele>10</ele>
        <time>2019-02-21T16:54:42Z</time>
      </trkpt>
      <trkpt lat="46.62344" lon="-1.85764">
        <ele>10</ele>
        <time>2019-02-21T16:54:44Z</time>
      </trkpt>
      <trkpt lat="46.62341" lon="-1.85761">
        <ele>11</ele>
        <time>2019-02-21T16:54:47Z</time>
      </trkpt>
      <trkpt lat="46.6234" lon="-1.8576">
        <ele>11</ele>
        <time>2019-02-21T16:54:49Z</time>
      </trkpt>
      <trkpt lat="46.6234" lon="-1.85759">
        <ele>11</ele>
        <time>2019-02-21T16:54:52Z</time>
      </trkpt>
      <trkpt lat="46.62339" lon="-1.85757">
        <ele>11</ele>
        <time>2019-02-21T16:54:54Z</time>
      </trkpt>
      <trkpt lat="46.62338" lon="-1.85754">
        <ele>11</ele>
        <time>2019-02-21T16:54:57Z</time>
      </trkpt>
      <trkpt lat="46.62338" lon="-1.85746">
        <ele>11</ele>
        <time>2019-02-21T16:55:02Z</time>
      </trkpt>
      <trkpt lat="46.62338" lon="-1.8574">
        <ele>11</ele>
        <time>2019-02-21T16:55:05Z</time>
      </trkpt>
      <trkpt lat="46.62338" lon="-1.85737">
        <ele>11</ele>
        <time>2019-02-21T16:55:07Z</time>
      </trkpt>
      <trkpt lat="46.62339" lon="-1.85731">
        <ele>11</ele>
        <time>2019-02-21T16:55:10Z</time>
      </trkpt>
      <trkpt lat="46.6234" lon="-1.85725">
        <ele>11</ele>
        <time>2019-02-21T16:55:12Z</time>
      </trkpt>
      <trkpt lat="46.6234" lon="-1.8572">
        <ele>11</ele>
        <time>2019-02-21T16:55:15Z</time>
      </trkpt>
      <trkpt lat="46.6234" lon="-1.85715">
        <ele>11</ele>
        <time>2019-02-21T16:55:17Z</time>
      </trkpt>
      <trkpt lat="46.6234" lon="-1.85712">
        <ele>12</ele>
        <time>2019-02-21T16:55:20Z</time>
      </trkpt>
      <trkpt lat="46.6234" lon="-1.85706">
        <ele>12</ele>
        <time>2019-02-21T16:55:23Z</time>
      </trkpt>
      <trkpt lat="46.6234" lon="-1.85703">
        <ele>12</ele>
        <time>2019-02-21T16:55:25Z</time>
      </trkpt>
      <trkpt lat="46.62342" lon="-1.85699">
        <ele>12</ele>
        <time>2019-02-21T16:55:28Z</time>
      </trkpt>
      <trkpt lat="46.62342" lon="-1.85698">
        <ele>12</ele>
        <time>2019-02-21T16:55:33Z</time>
      </trkpt>
      <trkpt lat="46.62342" lon="-1.85697">
        <ele>12</ele>
        <time>2019-02-21T16:55:35Z</time>
      </trkpt>
      <trkpt lat="46.62342" lon="-1.85696">
        <ele>12</ele>
        <time>2019-02-21T16:55:38Z</time>
      </trkpt>
      <trkpt lat="46.62342" lon="-1.85696">
        <ele>12</ele>
        <time>2019-02-21T16:55:41Z</time>
      </trkpt>
      <trkpt lat="46.62342" lon="-1.85695">
        <ele>12</ele>
        <time>2019-02-21T16:55:43Z</time>
      </trkpt>
      <trkpt lat="46.62342" lon="-1.85695">
        <ele>12</ele>
        <time>2019-02-21T16:55:46Z</time>
      </trkpt>
      <trkpt lat="46.62342" lon="-1.85695">
        <ele>12</ele>
        <time>2019-02-21T16:55:48Z</time>
      </trkpt>
      <trkpt lat="46.62342" lon="-1.85697">
        <ele>12</ele>
        <time>2019-02-21T16:55:51Z</time>
      </trkpt>
      <trkpt lat="46.62341" lon="-1.85701">
        <ele>12</ele>
        <time>2019-02-21T16:55:53Z</time>
      </trkpt>
      <trkpt lat="46.6234" lon="-1.85705">
        <ele>12</ele>
        <time>2019-02-21T16:55:56Z</time>
      </trkpt>
      <trkpt lat="46.6234" lon="-1.85708">
        <ele>12</ele>
        <time>2019-02-21T16:55:58Z</time>
      </trkpt>
      <trkpt lat="46.62341" lon="-1.85716">
        <ele>11</ele>
        <time>2019-02-21T16:56:03Z</time>
      </trkpt>
      <trkpt lat="46.6234" lon="-1.85723">
        <ele>11</ele>
        <time>2019-02-21T16:56:06Z</time>
      </trkpt>
      <trkpt lat="46.62341" lon="-1.85728">
        <ele>11</ele>
        <time>2019-02-21T16:56:08Z</time>
      </trkpt>
      <trkpt lat="46.62341" lon="-1.85732">
        <ele>11</ele>
        <time>2019-02-21T16:56:11Z</time>
      </trkpt>
      <trkpt lat="46.62341" lon="-1.85738">
        <ele>11</ele>
        <time>2019-02-21T16:56:14Z</time>
      </trkpt>
      <trkpt lat="46.62342" lon="-1.85742">
        <ele>11</ele>
        <time>2019-02-21T16:56:16Z</time>
      </trkpt>
      <trkpt lat="46.62342" lon="-1.85747">
        <ele>11</ele>
        <time>2019-02-21T16:56:19Z</time>
      </trkpt>
      <trkpt lat="46.6234" lon="-1.8575">
        <ele>11</ele>
        <time>2019-02-21T16:56:21Z</time>
      </trkpt>
      <trkpt lat="46.62337" lon="-1.85752">
        <ele>11</ele>
        <time>2019-02-21T16:56:24Z</time>
      </trkpt>
      <trkpt lat="46.62334" lon="-1.85752">
        <ele>11</ele>
        <time>2019-02-21T16:56:26Z</time>
      </trkpt>
      <trkpt lat="46.62331" lon="-1.85753">
        <ele>11</ele>
        <time>2019-02-21T16:56:29Z</time>
      </trkpt>
      <trkpt lat="46.62324" lon="-1.85755">
        <ele>10</ele>
        <time>2019-02-21T16:56:34Z</time>
      </trkpt>
      <trkpt lat="46.62322" lon="-1.85756">
        <ele>10</ele>
        <time>2019-02-21T16:56:36Z</time>
      </trkpt>
      <trkpt lat="46.62318" lon="-1.85758">
        <ele>10</ele>
        <time>2019-02-21T16:56:39Z</time>
      </trkpt>
      <trkpt lat="46.62314" lon="-1.8576">
        <ele>10</ele>
        <time>2019-02-21T16:56:41Z</time>
      </trkpt>
      <trkpt lat="46.62313" lon="-1.85761">
        <ele>10</ele>
        <time>2019-02-21T16:56:44Z</time>
      </trkpt>
      <trkpt lat="46.62309" lon="-1.85764">
        <ele>10</ele>
        <time>2019-02-21T16:56:46Z</time>
      </trkpt>
      <trkpt lat="46.62307" lon="-1.85767">
        <ele>10</ele>
        <time>2019-02-21T16:56:49Z</time>
      </trkpt>
      <trkpt lat="46.62304" lon="-1.85771">
        <ele>10</ele>
        <time>2019-02-21T16:56:52Z</time>
      </trkpt>
      <trkpt lat="46.62304" lon="-1.85773">
        <ele>10</ele>
        <time>2019-02-21T16:56:54Z</time>
      </trkpt>
      <trkpt lat="46.62303" lon="-1.85779">
        <ele>10</ele>
        <time>2019-02-21T16:56:57Z</time>
      </trkpt>
      <trkpt lat="46.62302" lon="-1.85788">
        <ele>10</ele>
        <time>2019-02-21T16:57:02Z</time>
      </trkpt>
      <trkpt lat="46.623" lon="-1.85793">
        <ele>10</ele>
        <time>2019-02-21T16:57:04Z</time>
      </trkpt>
      <trkpt lat="46.623" lon="-1.85797">
        <ele>10</ele>
        <time>2019-02-21T16:57:07Z</time>
      </trkpt>
      <trkpt lat="46.62298" lon="-1.858">
        <ele>9</ele>
        <time>2019-02-21T16:57:10Z</time>
      </trkpt>
      <trkpt lat="46.62297" lon="-1.85801">
        <ele>9</ele>
        <time>2019-02-21T16:57:12Z</time>
      </trkpt>
      <trkpt lat="46.62295" lon="-1.85802">
        <ele>9</ele>
        <time>2019-02-21T16:57:15Z</time>
      </trkpt>
      <trkpt lat="46.62293" lon="-1.858">
        <ele>9</ele>
        <time>2019-02-21T16:57:17Z</time>
      </trkpt>
      <trkpt lat="46.62293" lon="-1.85797">
        <ele>9</ele>
        <time>2019-02-21T16:57:20Z</time>
      </trkpt>
      <trkpt lat="46.62293" lon="-1.85796">
        <ele>9</ele>
        <time>2019-02-21T16:57:22Z</time>
      </trkpt>
      <trkpt lat="46.62293" lon="-1.85796">
        <ele>9</ele>
        <time>2019-02-21T16:57:25Z</time>
      </trkpt>
      <trkpt lat="46.62293" lon="-1.85798">
        <ele>9</ele>
        <time>2019-02-21T16:57:27Z</time>
      </trkpt>
      <trkpt lat="46.62291" lon="-1.85805">
        <ele>9</ele>
        <time>2019-02-21T16:57:32Z</time>
      </trkpt>
      <trkpt lat="46.62291" lon="-1.85807">
        <ele>9</ele>
        <time>2019-02-21T16:57:35Z</time>
      </trkpt>
      <trkpt lat="46.62293" lon="-1.85811">
        <ele>9</ele>
        <time>2019-02-21T16:57:38Z</time>
      </trkpt>
      <trkpt lat="46.62293" lon="-1.85814">
        <ele>9</ele>
        <time>2019-02-21T16:57:40Z</time>
      </trkpt>
      <trkpt lat="46.62294" lon="-1.85817">
        <ele>9</ele>
        <time>2019-02-21T16:57:43Z</time>
      </trkpt>
      <trkpt lat="46.62295" lon="-1.8582">
        <ele>9</ele>
        <time>2019-02-21T16:57:45Z</time>
      </trkpt>
      <trkpt lat="46.62294" lon="-1.85824">
        <ele>9</ele>
        <time>2019-02-21T16:57:48Z</time>
      </trkpt>
      <trkpt lat="46.62293" lon="-1.85826">
        <ele>9</ele>
        <time>2019-02-21T16:57:50Z</time>
      </trkpt>
      <trkpt lat="46.62291" lon="-1.85827">
        <ele>9</ele>
        <time>2019-02-21T16:57:53Z</time>
      </trkpt>
      <trkpt lat="46.62288" lon="-1.85829">
        <ele>9</ele>
        <time>2019-02-21T16:57:55Z</time>
      </trkpt>
      <trkpt lat="46.62286" lon="-1.8583">
        <ele>9</ele>
        <time>2019-02-21T16:57:58Z</time>
      </trkpt>
      <trkpt lat="46.62281" lon="-1.85833">
        <ele>9</ele>
        <time>2019-02-21T16:58:03Z</time>
      </trkpt>
      <trkpt lat="46.62278" lon="-1.85835">
        <ele>9</ele>
        <time>2019-02-21T16:58:05Z</time>
      </trkpt>
      <trkpt lat="46.62276" lon="-1.85837">
        <ele>9</ele>
        <time>2019-02-21T16:58:08Z</time>
      </trkpt>
      <trkpt lat="46.62271" lon="-1.8584">
        <ele>9</ele>
        <time>2019-02-21T16:58:10Z</time>
      </trkpt>
      <trkpt lat="46.62269" lon="-1.85841">
        <ele>9</ele>
        <time>2019-02-21T16:58:13Z</time>
      </trkpt>
      <trkpt lat="46.62265" lon="-1.85843">
        <ele>9</ele>
        <time>2019-02-21T16:58:16Z</time>
      </trkpt>
      <trkpt lat="46.62263" lon="-1.85844">
        <ele>9</ele>
        <time>2019-02-21T16:58:18Z</time>
      </trkpt>
      <trkpt lat="46.62259" lon="-1.85845">
        <ele>9</ele>
        <time>2019-02-21T16:58:21Z</time>
      </trkpt>
      <trkpt lat="46.62257" lon="-1.85847">
        <ele>9</ele>
        <time>2019-02-21T16:58:23Z</time>
      </trkpt>
      <trkpt lat="46.62253" lon="-1.85848">
        <ele>9</ele>
        <time>2019-02-21T16:58:26Z</time>
      </trkpt>
      <trkpt lat="46.6225" lon="-1.85848">
        <ele>9</ele>
        <time>2019-02-21T16:58:28Z</time>
      </trkpt>
      <trkpt lat="46.62241" lon="-1.85851">
        <ele>9</ele>
        <time>2019-02-21T16:58:33Z</time>
      </trkpt>
      <trkpt lat="46.62238" lon="-1.85851">
        <ele>9</ele>
        <time>2019-02-21T16:58:36Z</time>
      </trkpt>
      <trkpt lat="46.62234" lon="-1.85852">
        <ele>9</ele>
        <time>2019-02-21T16:58:38Z</time>
      </trkpt>
      <trkpt lat="46.62232" lon="-1.85852">
        <ele>9</ele>
        <time>2019-02-21T16:58:41Z</time>
      </trkpt>
      <trkpt lat="46.62227" lon="-1.85854">
        <ele>9</ele>
        <time>2019-02-21T16:58:43Z</time>
      </trkpt>
      <trkpt lat="46.62224" lon="-1.85854">
        <ele>9</ele>
        <time>2019-02-21T16:58:46Z</time>
      </trkpt>
      <trkpt lat="46.6222" lon="-1.85854">
        <ele>8</ele>
        <time>2019-02-21T16:58:48Z</time>
      </trkpt>
      <trkpt lat="46.62218" lon="-1.85854">
        <ele>8</ele>
        <time>2019-02-21T16:58:51Z</time>
      </trkpt>
      <trkpt lat="46.62214" lon="-1.85854">
        <ele>8</ele>
        <time>2019-02-21T16:58:54Z</time>
      </trkpt>
      <trkpt lat="46.62211" lon="-1.85856">
        <ele>8</ele>
        <time>2019-02-21T16:58:56Z</time>
      </trkpt>
      <trkpt lat="46.62206" lon="-1.85858">
        <ele>8</ele>
        <time>2019-02-21T16:58:59Z</time>
      </trkpt>
      <trkpt lat="46.62199" lon="-1.8586">
        <ele>8</ele>
        <time>2019-02-21T16:59:04Z</time>
      </trkpt>
      <trkpt lat="46.62194" lon="-1.85862">
        <ele>8</ele>
        <time>2019-02-21T16:59:07Z</time>
      </trkpt>
      <trkpt lat="46.62192" lon="-1.85864">
        <ele>8</ele>
        <time>2019-02-21T16:59:09Z</time>
      </trkpt>
      <trkpt lat="46.62188" lon="-1.85865">
        <ele>8</ele>
        <time>2019-02-21T16:59:12Z</time>
      </trkpt>
      <trkpt lat="46.62186" lon="-1.85866">
        <ele>8</ele>
        <time>2019-02-21T16:59:14Z</time>
      </trkpt>
      <trkpt lat="46.62182" lon="-1.85868">
        <ele>7</ele>
        <time>2019-02-21T16:59:17Z</time>
      </trkpt>
      <trkpt lat="46.62178" lon="-1.85869">
        <ele>7</ele>
        <time>2019-02-21T16:59:19Z</time>
      </trkpt>
      <trkpt lat="46.62175" lon="-1.8587">
        <ele>7</ele>
        <time>2019-02-21T16:59:22Z</time>
      </trkpt>
      <trkpt lat="46.62171" lon="-1.85872">
        <ele>7</ele>
        <time>2019-02-21T16:59:24Z</time>
      </trkpt>
      <trkpt lat="46.62168" lon="-1.85873">
        <ele>7</ele>
        <time>2019-02-21T16:59:27Z</time>
      </trkpt>
      <trkpt lat="46.62164" lon="-1.85875">
        <ele>7</ele>
        <time>2019-02-21T16:59:30Z</time>
      </trkpt>
      <trkpt lat="46.62158" lon="-1.85879">
        <ele>7</ele>
        <time>2019-02-21T16:59:35Z</time>
      </trkpt>
      <trkpt lat="46.62156" lon="-1.85881">
        <ele>7</ele>
        <time>2019-02-21T16:59:37Z</time>
      </trkpt>
      <trkpt lat="46.62154" lon="-1.85884">
        <ele>7</ele>
        <time>2019-02-21T16:59:40Z</time>
      </trkpt>
      <trkpt lat="46.6215" lon="-1.85887">
        <ele>7</ele>
        <time>2019-02-21T16:59:42Z</time>
      </trkpt>
      <trkpt lat="46.62148" lon="-1.8589">
        <ele>7</ele>
        <time>2019-02-21T16:59:45Z</time>
      </trkpt>
      <trkpt lat="46.62145" lon="-1.85893">
        <ele>7</ele>
        <time>2019-02-21T16:59:47Z</time>
      </trkpt>
      <trkpt lat="46.62144" lon="-1.85895">
        <ele>7</ele>
        <time>2019-02-21T16:59:50Z</time>
      </trkpt>
      <trkpt lat="46.62141" lon="-1.85898">
        <ele>7</ele>
        <time>2019-02-21T16:59:53Z</time>
      </trkpt>
      <trkpt lat="46.62138" lon="-1.85901">
        <ele>7</ele>
        <time>2019-02-21T16:59:55Z</time>
      </trkpt>
      <trkpt lat="46.62136" lon="-1.85903">
        <ele>7</ele>
        <time>2019-02-21T16:59:58Z</time>
      </trkpt>
      <trkpt lat="46.6213" lon="-1.85908">
        <ele>7</ele>
        <time>2019-02-21T17:00:03Z</time>
      </trkpt>
      <trkpt lat="46.62128" lon="-1.85911">
        <ele>7</ele>
        <time>2019-02-21T17:00:06Z</time>
      </trkpt>
      <trkpt lat="46.62127" lon="-1.85915">
        <ele>7</ele>
        <time>2019-02-21T17:00:08Z</time>
      </trkpt>
      <trkpt lat="46.62126" lon="-1.85918">
        <ele>7</ele>
        <time>2019-02-21T17:00:11Z</time>
      </trkpt>
      <trkpt lat="46.62123" lon="-1.85921">
        <ele>7</ele>
        <time>2019-02-21T17:00:13Z</time>
      </trkpt>
      <trkpt lat="46.62121" lon="-1.85923">
        <ele>7</ele>
        <time>2019-02-21T17:00:16Z</time>
      </trkpt>
      <trkpt lat="46.62119" lon="-1.85926">
        <ele>7</ele>
        <time>2019-02-21T17:00:19Z</time>
      </trkpt>
      <trkpt lat="46.62117" lon="-1.85928">
        <ele>7</ele>
        <time>2019-02-21T17:00:21Z</time>
      </trkpt>
      <trkpt lat="46.62115" lon="-1.85931">
        <ele>7</ele>
        <time>2019-02-21T17:00:24Z</time>
      </trkpt>
      <trkpt lat="46.62113" lon="-1.85933">
        <ele>7</ele>
        <time>2019-02-21T17:00:26Z</time>
      </trkpt>
      <trkpt lat="46.6211" lon="-1.85937">
        <ele>7</ele>
        <time>2019-02-21T17:00:29Z</time>
      </trkpt>
      <trkpt lat="46.62106" lon="-1.85945">
        <ele>7</ele>
        <time>2019-02-21T17:00:34Z</time>
      </trkpt>
      <trkpt lat="46.62104" lon="-1.85949">
        <ele>7</ele>
        <time>2019-02-21T17:00:36Z</time>
      </trkpt>
      <trkpt lat="46.62102" lon="-1.85953">
        <ele>7</ele>
        <time>2019-02-21T17:00:39Z</time>
      </trkpt>
      <trkpt lat="46.621" lon="-1.85956">
        <ele>7</ele>
        <time>2019-02-21T17:00:41Z</time>
      </trkpt>
      <trkpt lat="46.62097" lon="-1.8596">
        <ele>7</ele>
        <time>2019-02-21T17:00:44Z</time>
      </trkpt>
      <trkpt lat="46.62095" lon="-1.85963">
        <ele>7</ele>
        <time>2019-02-21T17:00:46Z</time>
      </trkpt>
      <trkpt lat="46.62092" lon="-1.85967">
        <ele>7</ele>
        <time>2019-02-21T17:00:49Z</time>
      </trkpt>
      <trkpt lat="46.62089" lon="-1.85972">
        <ele>7</ele>
        <time>2019-02-21T17:00:51Z</time>
      </trkpt>
      <trkpt lat="46.62088" lon="-1.85975">
        <ele>7</ele>
        <time>2019-02-21T17:00:54Z</time>
      </trkpt>
      <trkpt lat="46.62085" lon="-1.85979">
        <ele>8</ele>
        <time>2019-02-21T17:00:56Z</time>
      </trkpt>
      <trkpt lat="46.62083" lon="-1.85981">
        <ele>8</ele>
        <time>2019-02-21T17:00:59Z</time>
      </trkpt>
      <trkpt lat="46.62078" lon="-1.8599">
        <ele>8</ele>
        <time>2019-02-21T17:01:04Z</time>
      </trkpt>
      <trkpt lat="46.62076" lon="-1.85993">
        <ele>8</ele>
        <time>2019-02-21T17:01:07Z</time>
      </trkpt>
      <trkpt lat="46.62073" lon="-1.85997">
        <ele>8</ele>
        <time>2019-02-21T17:01:09Z</time>
      </trkpt>
      <trkpt lat="46.62071" lon="-1.85999">
        <ele>8</ele>
        <time>2019-02-21T17:01:12Z</time>
      </trkpt>
      <trkpt lat="46.62069" lon="-1.86004">
        <ele>8</ele>
        <time>2019-02-21T17:01:15Z</time>
      </trkpt>
      <trkpt lat="46.62067" lon="-1.86007">
        <ele>8</ele>
        <time>2019-02-21T17:01:17Z</time>
      </trkpt>
      <trkpt lat="46.62065" lon="-1.8601">
        <ele>8</ele>
        <time>2019-02-21T17:01:20Z</time>
      </trkpt>
      <trkpt lat="46.62062" lon="-1.86014">
        <ele>8</ele>
        <time>2019-02-21T17:01:22Z</time>
      </trkpt>
      <trkpt lat="46.62059" lon="-1.86016">
        <ele>8</ele>
        <time>2019-02-21T17:01:25Z</time>
      </trkpt>
      <trkpt lat="46.62057" lon="-1.8602">
        <ele>8</ele>
        <time>2019-02-21T17:01:27Z</time>
      </trkpt>
      <trkpt lat="46.62055" lon="-1.86022">
        <ele>8</ele>
        <time>2019-02-21T17:01:30Z</time>
      </trkpt>
      <trkpt lat="46.6205" lon="-1.86029">
        <ele>8</ele>
        <time>2019-02-21T17:01:35Z</time>
      </trkpt>
      <trkpt lat="46.62048" lon="-1.86033">
        <ele>8</ele>
        <time>2019-02-21T17:01:38Z</time>
      </trkpt>
      <trkpt lat="46.62044" lon="-1.86036">
        <ele>8</ele>
        <time>2019-02-21T17:01:40Z</time>
      </trkpt>
      <trkpt lat="46.62042" lon="-1.86038">
        <ele>8</ele>
        <time>2019-02-21T17:01:43Z</time>
      </trkpt>
      <trkpt lat="46.62039" lon="-1.86041">
        <ele>8</ele>
        <time>2019-02-21T17:01:45Z</time>
      </trkpt>
      <trkpt lat="46.62037" lon="-1.86043">
        <ele>8</ele>
        <time>2019-02-21T17:01:48Z</time>
      </trkpt>
      <trkpt lat="46.62034" lon="-1.86045">
        <ele>8</ele>
        <time>2019-02-21T17:01:51Z</time>
      </trkpt>
      <trkpt lat="46.62032" lon="-1.86047">
        <ele>7</ele>
        <time>2019-02-21T17:01:53Z</time>
      </trkpt>
      <trkpt lat="46.62028" lon="-1.86049">
        <ele>7</ele>
        <time>2019-02-21T17:01:56Z</time>
      </trkpt>
      <trkpt lat="46.62025" lon="-1.86051">
        <ele>7</ele>
        <time>2019-02-21T17:01:58Z</time>
      </trkpt>
      <trkpt lat="46.62022" lon="-1.86053">
        <ele>7</ele>
        <time>2019-02-21T17:02:01Z</time>
      </trkpt>
      <trkpt lat="46.62016" lon="-1.86054">
        <ele>7</ele>
        <time>2019-02-21T17:02:06Z</time>
      </trkpt>
      <trkpt lat="46.62012" lon="-1.86055">
        <ele>7</ele>
        <time>2019-02-21T17:02:09Z</time>
      </trkpt>
      <trkpt lat="46.62009" lon="-1.86056">
        <ele>7</ele>
        <time>2019-02-21T17:02:11Z</time>
      </trkpt>
      <trkpt lat="46.62005" lon="-1.86056">
        <ele>7</ele>
        <time>2019-02-21T17:02:14Z</time>
      </trkpt>
      <trkpt lat="46.62001" lon="-1.86057">
        <ele>7</ele>
        <time>2019-02-21T17:02:16Z</time>
      </trkpt>
      <trkpt lat="46.61998" lon="-1.86058">
        <ele>7</ele>
        <time>2019-02-21T17:02:19Z</time>
      </trkpt>
      <trkpt lat="46.61994" lon="-1.86057">
        <ele>7</ele>
        <time>2019-02-21T17:02:22Z</time>
      </trkpt>
      <trkpt lat="46.61991" lon="-1.86056">
        <ele>7</ele>
        <time>2019-02-21T17:02:24Z</time>
      </trkpt>
      <trkpt lat="46.61987" lon="-1.86055">
        <ele>7</ele>
        <time>2019-02-21T17:02:27Z</time>
      </trkpt>
      <trkpt lat="46.61984" lon="-1.86055">
        <ele>7</ele>
        <time>2019-02-21T17:02:29Z</time>
      </trkpt>
      <trkpt lat="46.61981" lon="-1.86054">
        <ele>7</ele>
        <time>2019-02-21T17:02:32Z</time>
      </trkpt>
      <trkpt lat="46.61975" lon="-1.86052">
        <ele>7</ele>
        <time>2019-02-21T17:02:37Z</time>
      </trkpt>
      <trkpt lat="46.61971" lon="-1.86051">
        <ele>7</ele>
        <time>2019-02-21T17:02:39Z</time>
      </trkpt>
      <trkpt lat="46.61968" lon="-1.86051">
        <ele>7</ele>
        <time>2019-02-21T17:02:42Z</time>
      </trkpt>
      <trkpt lat="46.61964" lon="-1.8605">
        <ele>7</ele>
        <time>2019-02-21T17:02:44Z</time>
      </trkpt>
      <trkpt lat="46.61961" lon="-1.8605">
        <ele>7</ele>
        <time>2019-02-21T17:02:47Z</time>
      </trkpt>
      <trkpt lat="46.61957" lon="-1.8605">
        <ele>7</ele>
        <time>2019-02-21T17:02:50Z</time>
      </trkpt>
      <trkpt lat="46.61954" lon="-1.8605">
        <ele>7</ele>
        <time>2019-02-21T17:02:52Z</time>
      </trkpt>
      <trkpt lat="46.6195" lon="-1.86049">
        <ele>7</ele>
        <time>2019-02-21T17:02:55Z</time>
      </trkpt>
      <trkpt lat="46.61948" lon="-1.86049">
        <ele>7</ele>
        <time>2019-02-21T17:02:57Z</time>
      </trkpt>
      <trkpt lat="46.61944" lon="-1.86049">
        <ele>7</ele>
        <time>2019-02-21T17:03:00Z</time>
      </trkpt>
      <trkpt lat="46.61937" lon="-1.86049">
        <ele>7</ele>
        <time>2019-02-21T17:03:05Z</time>
      </trkpt>
      <trkpt lat="46.61935" lon="-1.86049">
        <ele>7</ele>
        <time>2019-02-21T17:03:07Z</time>
      </trkpt>
      <trkpt lat="46.61931" lon="-1.86049">
        <ele>7</ele>
        <time>2019-02-21T17:03:10Z</time>
      </trkpt>
      <trkpt lat="46.61928" lon="-1.86049">
        <ele>7</ele>
        <time>2019-02-21T17:03:12Z</time>
      </trkpt>
      <trkpt lat="46.61924" lon="-1.86049">
        <ele>7</ele>
        <time>2019-02-21T17:03:15Z</time>
      </trkpt>
      <trkpt lat="46.61921" lon="-1.8605">
        <ele>7</ele>
        <time>2019-02-21T17:03:17Z</time>
      </trkpt>
      <trkpt lat="46.61917" lon="-1.86049">
        <ele>7</ele>
        <time>2019-02-21T17:03:20Z</time>
      </trkpt>
      <trkpt lat="46.61913" lon="-1.86048">
        <ele>7</ele>
        <time>2019-02-21T17:03:22Z</time>
      </trkpt>
      <trkpt lat="46.61911" lon="-1.86048">
        <ele>7</ele>
        <time>2019-02-21T17:03:25Z</time>
      </trkpt>
      <trkpt lat="46.61907" lon="-1.86047">
        <ele>7</ele>
        <time>2019-02-21T17:03:27Z</time>
      </trkpt>
      <trkpt lat="46.61905" lon="-1.86047">
        <ele>7</ele>
        <time>2019-02-21T17:03:30Z</time>
      </trkpt>
      <trkpt lat="46.61899" lon="-1.86046">
        <ele>7</ele>
        <time>2019-02-21T17:03:35Z</time>
      </trkpt>
      <trkpt lat="46.61896" lon="-1.86046">
        <ele>7</ele>
        <time>2019-02-21T17:03:38Z</time>
      </trkpt>
      <trkpt lat="46.61893" lon="-1.86046">
        <ele>7</ele>
        <time>2019-02-21T17:03:40Z</time>
      </trkpt>
      <trkpt lat="46.61889" lon="-1.86046">
        <ele>7</ele>
        <time>2019-02-21T17:03:43Z</time>
      </trkpt>
      <trkpt lat="46.61885" lon="-1.86045">
        <ele>7</ele>
        <time>2019-02-21T17:03:45Z</time>
      </trkpt>
      <trkpt lat="46.61882" lon="-1.86045">
        <ele>7</ele>
        <time>2019-02-21T17:03:48Z</time>
      </trkpt>
      <trkpt lat="46.61878" lon="-1.86045">
        <ele>7</ele>
        <time>2019-02-21T17:03:50Z</time>
      </trkpt>
      <trkpt lat="46.61876" lon="-1.86044">
        <ele>7</ele>
        <time>2019-02-21T17:03:53Z</time>
      </trkpt>
      <trkpt lat="46.61871" lon="-1.86043">
        <ele>7</ele>
        <time>2019-02-21T17:03:56Z</time>
      </trkpt>
      <trkpt lat="46.61868" lon="-1.86044">
        <ele>7</ele>
        <time>2019-02-21T17:03:58Z</time>
      </trkpt>
      <trkpt lat="46.61863" lon="-1.86044">
        <ele>7</ele>
        <time>2019-02-21T17:04:01Z</time>
      </trkpt>
      <trkpt lat="46.61856" lon="-1.86045">
        <ele>7</ele>
        <time>2019-02-21T17:04:06Z</time>
      </trkpt>
      <trkpt lat="46.61852" lon="-1.86046">
        <ele>7</ele>
        <time>2019-02-21T17:04:09Z</time>
      </trkpt>
      <trkpt lat="46.6185" lon="-1.86047">
        <ele>7</ele>
        <time>2019-02-21T17:04:11Z</time>
      </trkpt>
      <trkpt lat="46.61846" lon="-1.86048">
        <ele>7</ele>
        <time>2019-02-21T17:04:14Z</time>
      </trkpt>
      <trkpt lat="46.61842" lon="-1.86049">
        <ele>7</ele>
        <time>2019-02-21T17:04:16Z</time>
      </trkpt>
      <trkpt lat="46.6184" lon="-1.8605">
        <ele>7</ele>
        <time>2019-02-21T17:04:19Z</time>
      </trkpt>
      <trkpt lat="46.61836" lon="-1.86052">
        <ele>7</ele>
        <time>2019-02-21T17:04:22Z</time>
      </trkpt>
      <trkpt lat="46.61834" lon="-1.86053">
        <ele>7</ele>
        <time>2019-02-21T17:04:24Z</time>
      </trkpt>
      <trkpt lat="46.6183" lon="-1.86055">
        <ele>7</ele>
        <time>2019-02-21T17:04:27Z</time>
      </trkpt>
      <trkpt lat="46.61826" lon="-1.86057">
        <ele>7</ele>
        <time>2019-02-21T17:04:29Z</time>
      </trkpt>
      <trkpt lat="46.61823" lon="-1.86058">
        <ele>7</ele>
        <time>2019-02-21T17:04:32Z</time>
      </trkpt>
      <trkpt lat="46.61817" lon="-1.86063">
        <ele>7</ele>
        <time>2019-02-21T17:04:37Z</time>
      </trkpt>
      <trkpt lat="46.61814" lon="-1.86067">
        <ele>7</ele>
        <time>2019-02-21T17:04:40Z</time>
      </trkpt>
      <trkpt lat="46.61811" lon="-1.86072">
        <ele>7</ele>
        <time>2019-02-21T17:04:42Z</time>
      </trkpt>
      <trkpt lat="46.61809" lon="-1.86075">
        <ele>7</ele>
        <time>2019-02-21T17:04:45Z</time>
      </trkpt>
      <trkpt lat="46.61806" lon="-1.86079">
        <ele>7</ele>
        <time>2019-02-21T17:04:48Z</time>
      </trkpt>
      <trkpt lat="46.61804" lon="-1.86082">
        <ele>7</ele>
        <time>2019-02-21T17:04:50Z</time>
      </trkpt>
      <trkpt lat="46.61802" lon="-1.86087">
        <ele>7</ele>
        <time>2019-02-21T17:04:53Z</time>
      </trkpt>
      <trkpt lat="46.61801" lon="-1.86091">
        <ele>7</ele>
        <time>2019-02-21T17:04:55Z</time>
      </trkpt>
      <trkpt lat="46.618" lon="-1.86093">
        <ele>7</ele>
        <time>2019-02-21T17:04:58Z</time>
      </trkpt>
      <trkpt lat="46.61799" lon="-1.86098">
        <ele>7</ele>
        <time>2019-02-21T17:05:00Z</time>
      </trkpt>
      <trkpt lat="46.61797" lon="-1.86101">
        <ele>7</ele>
        <time>2019-02-21T17:05:03Z</time>
      </trkpt>
      <trkpt lat="46.61793" lon="-1.86111">
        <ele>8</ele>
        <time>2019-02-21T17:05:08Z</time>
      </trkpt>
      <trkpt lat="46.61792" lon="-1.86115">
        <ele>8</ele>
        <time>2019-02-21T17:05:11Z</time>
      </trkpt>
      <trkpt lat="46.61789" lon="-1.8612">
        <ele>8</ele>
        <time>2019-02-21T17:05:14Z</time>
      </trkpt>
      <trkpt lat="46.61788" lon="-1.86122">
        <ele>8</ele>
        <time>2019-02-21T17:05:16Z</time>
      </trkpt>
      <trkpt lat="46.61786" lon="-1.86127">
        <ele>8</ele>
        <time>2019-02-21T17:05:19Z</time>
      </trkpt>
      <trkpt lat="46.61783" lon="-1.86132">
        <ele>8</ele>
        <time>2019-02-21T17:05:21Z</time>
      </trkpt>
      <trkpt lat="46.61782" lon="-1.86136">
        <ele>8</ele>
        <time>2019-02-21T17:05:24Z</time>
      </trkpt>
      <trkpt lat="46.61779" lon="-1.86142">
        <ele>8</ele>
        <time>2019-02-21T17:05:27Z</time>
      </trkpt>
      <trkpt lat="46.61778" lon="-1.86146">
        <ele>8</ele>
        <time>2019-02-21T17:05:29Z</time>
      </trkpt>
      <trkpt lat="46.61776" lon="-1.86152">
        <ele>8</ele>
        <time>2019-02-21T17:05:32Z</time>
      </trkpt>
      <trkpt lat="46.61775" lon="-1.86157">
        <ele>8</ele>
        <time>2019-02-21T17:05:34Z</time>
      </trkpt>
      <trkpt lat="46.61771" lon="-1.86166">
        <ele>8</ele>
        <time>2019-02-21T17:05:40Z</time>
      </trkpt>
      <trkpt lat="46.61771" lon="-1.86169">
        <ele>8</ele>
        <time>2019-02-21T17:05:42Z</time>
      </trkpt>
      <trkpt lat="46.61769" lon="-1.86173">
        <ele>8</ele>
        <time>2019-02-21T17:05:45Z</time>
      </trkpt>
      <trkpt lat="46.61766" lon="-1.86176">
        <ele>8</ele>
        <time>2019-02-21T17:05:47Z</time>
      </trkpt>
      <trkpt lat="46.61765" lon="-1.86179">
        <ele>8</ele>
        <time>2019-02-21T17:05:50Z</time>
      </trkpt>
      <trkpt lat="46.61765" lon="-1.8618">
        <ele>8</ele>
        <time>2019-02-21T17:05:53Z</time>
      </trkpt>
      <trkpt lat="46.61765" lon="-1.86184">
        <ele>8</ele>
        <time>2019-02-21T17:05:55Z</time>
      </trkpt>
      <trkpt lat="46.61765" lon="-1.86188">
        <ele>8</ele>
        <time>2019-02-21T17:05:58Z</time>
      </trkpt>
      <trkpt lat="46.61765" lon="-1.86193">
        <ele>8</ele>
        <time>2019-02-21T17:06:01Z</time>
      </trkpt>
      <trkpt lat="46.61766" lon="-1.86197">
        <ele>8</ele>
        <time>2019-02-21T17:06:03Z</time>
      </trkpt>
      <trkpt lat="46.61767" lon="-1.86204">
        <ele>8</ele>
        <time>2019-02-21T17:06:06Z</time>
      </trkpt>
      <trkpt lat="46.61767" lon="-1.86213">
        <ele>8</ele>
        <time>2019-02-21T17:06:11Z</time>
      </trkpt>
      <trkpt lat="46.61769" lon="-1.86218">
        <ele>8</ele>
        <time>2019-02-21T17:06:13Z</time>
      </trkpt>
      <trkpt lat="46.61769" lon="-1.86222">
        <ele>8</ele>
        <time>2019-02-21T17:06:16Z</time>
      </trkpt>
      <trkpt lat="46.6177" lon="-1.86228">
        <ele>8</ele>
        <time>2019-02-21T17:06:19Z</time>
      </trkpt>
      <trkpt lat="46.6177" lon="-1.86232">
        <ele>8</ele>
        <time>2019-02-21T17:06:21Z</time>
      </trkpt>
      <trkpt lat="46.6177" lon="-1.86238">
        <ele>8</ele>
        <time>2019-02-21T17:06:24Z</time>
      </trkpt>
      <trkpt lat="46.6177" lon="-1.86242">
        <ele>8</ele>
        <time>2019-02-21T17:06:26Z</time>
      </trkpt>
      <trkpt lat="46.6177" lon="-1.86244">
        <ele>8</ele>
        <time>2019-02-21T17:06:29Z</time>
      </trkpt>
      <trkpt lat="46.6177" lon="-1.86245">
        <ele>8</ele>
        <time>2019-02-21T17:06:32Z</time>
      </trkpt>
      <trkpt lat="46.6177" lon="-1.86246">
        <ele>8</ele>
        <time>2019-02-21T17:06:34Z</time>
      </trkpt>
      <trkpt lat="46.61771" lon="-1.86247">
        <ele>8</ele>
        <time>2019-02-21T17:06:39Z</time>
      </trkpt>
      <trkpt lat="46.6177" lon="-1.86247">
        <ele>8</ele>
        <time>2019-02-21T17:06:42Z</time>
      </trkpt>
      <trkpt lat="46.6177" lon="-1.86247">
        <ele>8</ele>
        <time>2019-02-21T17:06:45Z</time>
      </trkpt>
      <trkpt lat="46.6177" lon="-1.86247">
        <ele>8</ele>
        <time>2019-02-21T17:06:47Z</time>
      </trkpt>
      <trkpt lat="46.61771" lon="-1.86247">
        <ele>8</ele>
        <time>2019-02-21T17:06:50Z</time>
      </trkpt>
      <trkpt lat="46.61771" lon="-1.86247">
        <ele>8</ele>
        <time>2019-02-21T17:06:52Z</time>
      </trkpt>
      <trkpt lat="46.61771" lon="-1.86248">
        <ele>8</ele>
        <time>2019-02-21T17:06:55Z</time>
      </trkpt>
      <trkpt lat="46.6177" lon="-1.86248">
        <ele>8</ele>
        <time>2019-02-21T17:06:58Z</time>
      </trkpt>
      <trkpt lat="46.6177" lon="-1.86248">
        <ele>8</ele>
        <time>2019-02-21T17:07:00Z</time>
      </trkpt>
      <trkpt lat="46.6177" lon="-1.86249">
        <ele>8</ele>
        <time>2019-02-21T17:07:03Z</time>
      </trkpt>
      <trkpt lat="46.6177" lon="-1.86249">
        <ele>8</ele>
        <time>2019-02-21T17:07:05Z</time>
      </trkpt>
      <trkpt lat="46.6177" lon="-1.86249">
        <ele>8</ele>
        <time>2019-02-21T17:07:11Z</time>
      </trkpt>
      <trkpt lat="46.61769" lon="-1.86249">
        <ele>8</ele>
        <time>2019-02-21T17:07:13Z</time>
      </trkpt>
      <trkpt lat="46.6177" lon="-1.86248">
        <ele>8</ele>
        <time>2019-02-21T17:07:16Z</time>
      </trkpt>
      <trkpt lat="46.6177" lon="-1.86247">
        <ele>8</ele>
        <time>2019-02-21T17:07:18Z</time>
      </trkpt>
      <trkpt lat="46.6177" lon="-1.86247">
        <ele>8</ele>
        <time>2019-02-21T17:07:21Z</time>
      </trkpt>
      <trkpt lat="46.61769" lon="-1.86248">
        <ele>8</ele>
        <time>2019-02-21T17:07:24Z</time>
      </trkpt>
      <trkpt lat="46.61765" lon="-1.8625">
        <ele>8</ele>
        <time>2019-02-21T17:07:26Z</time>
      </trkpt>
      <trkpt lat="46.61764" lon="-1.86253">
        <ele>8</ele>
        <time>2019-02-21T17:07:29Z</time>
      </trkpt>
      <trkpt lat="46.61763" lon="-1.86258">
        <ele>8</ele>
        <time>2019-02-21T17:07:32Z</time>
      </trkpt>
      <trkpt lat="46.61763" lon="-1.86261">
        <ele>8</ele>
        <time>2019-02-21T17:07:34Z</time>
      </trkpt>
      <trkpt lat="46.61762" lon="-1.86264">
        <ele>8</ele>
        <time>2019-02-21T17:07:37Z</time>
      </trkpt>
      <trkpt lat="46.61762" lon="-1.86269">
        <ele>8</ele>
        <time>2019-02-21T17:07:42Z</time>
      </trkpt>
      <trkpt lat="46.61762" lon="-1.86274">
        <ele>8</ele>
        <time>2019-02-21T17:07:45Z</time>
      </trkpt>
      <trkpt lat="46.61762" lon="-1.86278">
        <ele>8</ele>
        <time>2019-02-21T17:07:47Z</time>
      </trkpt>
      <trkpt lat="46.61761" lon="-1.86281">
        <ele>8</ele>
        <time>2019-02-21T17:07:50Z</time>
      </trkpt>
      <trkpt lat="46.61761" lon="-1.86286">
        <ele>8</ele>
        <time>2019-02-21T17:07:52Z</time>
      </trkpt>
      <trkpt lat="46.61762" lon="-1.86288">
        <ele>8</ele>
        <time>2019-02-21T17:07:55Z</time>
      </trkpt>
      <trkpt lat="46.61762" lon="-1.86293">
        <ele>8</ele>
        <time>2019-02-21T17:07:58Z</time>
      </trkpt>
      <trkpt lat="46.61763" lon="-1.86298">
        <ele>8</ele>
        <time>2019-02-21T17:08:00Z</time>
      </trkpt>
      <trkpt lat="46.61764" lon="-1.86301">
        <ele>8</ele>
        <time>2019-02-21T17:08:03Z</time>
      </trkpt>
      <trkpt lat="46.61765" lon="-1.86306">
        <ele>8</ele>
        <time>2019-02-21T17:08:05Z</time>
      </trkpt>
      <trkpt lat="46.61766" lon="-1.86309">
        <ele>8</ele>
        <time>2019-02-21T17:08:08Z</time>
      </trkpt>
      <trkpt lat="46.61766" lon="-1.86319">
        <ele>8</ele>
        <time>2019-02-21T17:08:13Z</time>
      </trkpt>
      <trkpt lat="46.61765" lon="-1.86322">
        <ele>8</ele>
        <time>2019-02-21T17:08:16Z</time>
      </trkpt>
      <trkpt lat="46.61764" lon="-1.86327">
        <ele>8</ele>
        <time>2019-02-21T17:08:19Z</time>
      </trkpt>
      <trkpt lat="46.61763" lon="-1.86331">
        <ele>9</ele>
        <time>2019-02-21T17:08:21Z</time>
      </trkpt>
      <trkpt lat="46.61762" lon="-1.86335">
        <ele>9</ele>
        <time>2019-02-21T17:08:24Z</time>
      </trkpt>
      <trkpt lat="46.6176" lon="-1.86339">
        <ele>9</ele>
        <time>2019-02-21T17:08:26Z</time>
      </trkpt>
      <trkpt lat="46.61758" lon="-1.86342">
        <ele>9</ele>
        <time>2019-02-21T17:08:29Z</time>
      </trkpt>
      <trkpt lat="46.61754" lon="-1.86345">
        <ele>9</ele>
        <time>2019-02-21T17:08:32Z</time>
      </trkpt>
      <trkpt lat="46.61751" lon="-1.86349">
        <ele>9</ele>
        <time>2019-02-21T17:08:34Z</time>
      </trkpt>
      <trkpt lat="46.61749" lon="-1.86351">
        <ele>9</ele>
        <time>2019-02-21T17:08:37Z</time>
      </trkpt>
      <trkpt lat="46.61745" lon="-1.86354">
        <ele>9</ele>
        <time>2019-02-21T17:08:40Z</time>
      </trkpt>
      <trkpt lat="46.61739" lon="-1.86358">
        <ele>9</ele>
        <time>2019-02-21T17:08:45Z</time>
      </trkpt>
      <trkpt lat="46.61736" lon="-1.8636">
        <ele>9</ele>
        <time>2019-02-21T17:08:47Z</time>
      </trkpt>
      <trkpt lat="46.61733" lon="-1.86363">
        <ele>9</ele>
        <time>2019-02-21T17:08:50Z</time>
      </trkpt>
      <trkpt lat="46.6173" lon="-1.86365">
        <ele>9</ele>
        <time>2019-02-21T17:08:52Z</time>
      </trkpt>
      <trkpt lat="46.61728" lon="-1.86366">
        <ele>9</ele>
        <time>2019-02-21T17:08:55Z</time>
      </trkpt>
      <trkpt lat="46.61726" lon="-1.86368">
        <ele>9</ele>
        <time>2019-02-21T17:08:58Z</time>
      </trkpt>
      <trkpt lat="46.61724" lon="-1.8637">
        <ele>9</ele>
        <time>2019-02-21T17:09:00Z</time>
      </trkpt>
      <trkpt lat="46.6172" lon="-1.8637">
        <ele>9</ele>
        <time>2019-02-21T17:09:03Z</time>
      </trkpt>
      <trkpt lat="46.61715" lon="-1.86372">
        <ele>9</ele>
        <time>2019-02-21T17:09:05Z</time>
      </trkpt>
      <trkpt lat="46.61712" lon="-1.86374">
        <ele>9</ele>
        <time>2019-02-21T17:09:08Z</time>
      </trkpt>
      <trkpt lat="46.61709" lon="-1.86377">
        <ele>9</ele>
        <time>2019-02-21T17:09:10Z</time>
      </trkpt>
      <trkpt lat="46.61703" lon="-1.86382">
        <ele>9</ele>
        <time>2019-02-21T17:09:16Z</time>
      </trkpt>
      <trkpt lat="46.61701" lon="-1.86384">
        <ele>9</ele>
        <time>2019-02-21T17:09:18Z</time>
      </trkpt>
      <trkpt lat="46.61698" lon="-1.86387">
        <ele>9</ele>
        <time>2019-02-21T17:09:21Z</time>
      </trkpt>
      <trkpt lat="46.61696" lon="-1.86389">
        <ele>9</ele>
        <time>2019-02-21T17:09:23Z</time>
      </trkpt>
      <trkpt lat="46.61694" lon="-1.86391">
        <ele>9</ele>
        <time>2019-02-21T17:09:26Z</time>
      </trkpt>
      <trkpt lat="46.61691" lon="-1.86393">
        <ele>9</ele>
        <time>2019-02-21T17:09:28Z</time>
      </trkpt>
      <trkpt lat="46.61689" lon="-1.86394">
        <ele>9</ele>
        <time>2019-02-21T17:09:31Z</time>
      </trkpt>
      <trkpt lat="46.61685" lon="-1.86397">
        <ele>9</ele>
        <time>2019-02-21T17:09:34Z</time>
      </trkpt>
      <trkpt lat="46.61682" lon="-1.86399">
        <ele>9</ele>
        <time>2019-02-21T17:09:36Z</time>
      </trkpt>
      <trkpt lat="46.61678" lon="-1.86402">
        <ele>9</ele>
        <time>2019-02-21T17:09:39Z</time>
      </trkpt>
      <trkpt lat="46.61671" lon="-1.86407">
        <ele>9</ele>
        <time>2019-02-21T17:09:44Z</time>
      </trkpt>
      <trkpt lat="46.61667" lon="-1.8641">
        <ele>9</ele>
        <time>2019-02-21T17:09:46Z</time>
      </trkpt>
      <trkpt lat="46.61664" lon="-1.86412">
        <ele>9</ele>
        <time>2019-02-21T17:09:49Z</time>
      </trkpt>
      <trkpt lat="46.6166" lon="-1.86415">
        <ele>9</ele>
        <time>2019-02-21T17:09:52Z</time>
      </trkpt>
      <trkpt lat="46.61657" lon="-1.86416">
        <ele>9</ele>
        <time>2019-02-21T17:09:54Z</time>
      </trkpt>
      <trkpt lat="46.61655" lon="-1.86416">
        <ele>9</ele>
        <time>2019-02-21T17:09:57Z</time>
      </trkpt>
      <trkpt lat="46.61654" lon="-1.86416">
        <ele>9</ele>
        <time>2019-02-21T17:09:59Z</time>
      </trkpt>
      <trkpt lat="46.61651" lon="-1.86413">
        <ele>9</ele>
        <time>2019-02-21T17:10:02Z</time>
      </trkpt>
      <trkpt lat="46.6165" lon="-1.8641">
        <ele>9</ele>
        <time>2019-02-21T17:10:04Z</time>
      </trkpt>
      <trkpt lat="46.61648" lon="-1.86409">
        <ele>8</ele>
        <time>2019-02-21T17:10:07Z</time>
      </trkpt>
      <trkpt lat="46.61646" lon="-1.86407">
        <ele>8</ele>
        <time>2019-02-21T17:10:09Z</time>
      </trkpt>
      <trkpt lat="46.61642" lon="-1.86407">
        <ele>8</ele>
        <time>2019-02-21T17:10:14Z</time>
      </trkpt>
      <trkpt lat="46.6164" lon="-1.86408">
        <ele>8</ele>
        <time>2019-02-21T17:10:17Z</time>
      </trkpt>
      <trkpt lat="46.61637" lon="-1.86409">
        <ele>8</ele>
        <time>2019-02-21T17:10:19Z</time>
      </trkpt>
      <trkpt lat="46.61634" lon="-1.86408">
        <ele>8</ele>
        <time>2019-02-21T17:10:22Z</time>
      </trkpt>
      <trkpt lat="46.61631" lon="-1.86407">
        <ele>8</ele>
        <time>2019-02-21T17:10:25Z</time>
      </trkpt>
      <trkpt lat="46.6163" lon="-1.86407">
        <ele>8</ele>
        <time>2019-02-21T17:10:27Z</time>
      </trkpt>
      <trkpt lat="46.61626" lon="-1.86408">
        <ele>8</ele>
        <time>2019-02-21T17:10:30Z</time>
      </trkpt>
      <trkpt lat="46.61626" lon="-1.86407">
        <ele>8</ele>
        <time>2019-02-21T17:10:32Z</time>
      </trkpt>
      <trkpt lat="46.61625" lon="-1.86407">
        <ele>7</ele>
        <time>2019-02-21T17:10:35Z</time>
      </trkpt>
      <trkpt lat="46.61625" lon="-1.86407">
        <ele>7</ele>
        <time>2019-02-21T17:10:37Z</time>
      </trkpt>
      <trkpt lat="46.61625" lon="-1.86407">
        <ele>7</ele>
        <time>2019-02-21T17:10:40Z</time>
      </trkpt>
      <trkpt lat="46.61624" lon="-1.86407">
        <ele>7</ele>
        <time>2019-02-21T17:10:45Z</time>
      </trkpt>
      <trkpt lat="46.61624" lon="-1.86407">
        <ele>7</ele>
        <time>2019-02-21T17:10:47Z</time>
      </trkpt>
      <trkpt lat="46.61623" lon="-1.86406">
        <ele>7</ele>
        <time>2019-02-21T17:10:50Z</time>
      </trkpt>
      <trkpt lat="46.61623" lon="-1.86406">
        <ele>7</ele>
        <time>2019-02-21T17:10:52Z</time>
      </trkpt>
      <trkpt lat="46.61623" lon="-1.86406">
        <ele>7</ele>
        <time>2019-02-21T17:10:55Z</time>
      </trkpt>
      <trkpt lat="46.61623" lon="-1.86406">
        <ele>7</ele>
        <time>2019-02-21T17:10:58Z</time>
      </trkpt>
      <trkpt lat="46.61623" lon="-1.86406">
        <ele>7</ele>
        <time>2019-02-21T17:11:00Z</time>
      </trkpt>
      <trkpt lat="46.61623" lon="-1.86405">
        <ele>7</ele>
        <time>2019-02-21T17:11:03Z</time>
      </trkpt>
      <trkpt lat="46.61623" lon="-1.86405">
        <ele>7</ele>
        <time>2019-02-21T17:11:05Z</time>
      </trkpt>
      <trkpt lat="46.61623" lon="-1.86404">
        <ele>7</ele>
        <time>2019-02-21T17:11:08Z</time>
      </trkpt>
      <trkpt lat="46.61622" lon="-1.86404">
        <ele>7</ele>
        <time>2019-02-21T17:11:10Z</time>
      </trkpt>
      <trkpt lat="46.61622" lon="-1.86403">
        <ele>7</ele>
        <time>2019-02-21T17:11:15Z</time>
      </trkpt>
      <trkpt lat="46.61622" lon="-1.86403">
        <ele>7</ele>
        <time>2019-02-21T17:11:18Z</time>
      </trkpt>
      <trkpt lat="46.61622" lon="-1.86403">
        <ele>7</ele>
        <time>2019-02-21T17:11:21Z</time>
      </trkpt>
      <trkpt lat="46.61622" lon="-1.86403">
        <ele>7</ele>
        <time>2019-02-21T17:11:23Z</time>
      </trkpt>
      <trkpt lat="46.61622" lon="-1.86404">
        <ele>7</ele>
        <time>2019-02-21T17:11:26Z</time>
      </trkpt>
      <trkpt lat="46.61622" lon="-1.86404">
        <ele>7</ele>
        <time>2019-02-21T17:11:28Z</time>
      </trkpt>
      <trkpt lat="46.61622" lon="-1.86403">
        <ele>7</ele>
        <time>2019-02-21T17:11:31Z</time>
      </trkpt>
      <trkpt lat="46.61621" lon="-1.86403">
        <ele>7</ele>
        <time>2019-02-21T17:11:33Z</time>
      </trkpt>
      <trkpt lat="46.61621" lon="-1.86402">
        <ele>7</ele>
        <time>2019-02-21T17:11:36Z</time>
      </trkpt>
      <trkpt lat="46.61621" lon="-1.86402">
        <ele>7</ele>
        <time>2019-02-21T17:11:39Z</time>
      </trkpt>
      <trkpt lat="46.61621" lon="-1.86402">
        <ele>7</ele>
        <time>2019-02-21T17:11:41Z</time>
      </trkpt>
      <trkpt lat="46.61622" lon="-1.86401">
        <ele>7</ele>
        <time>2019-02-21T17:11:46Z</time>
      </trkpt>
      <trkpt lat="46.61622" lon="-1.86401">
        <ele>7</ele>
        <time>2019-02-21T17:11:49Z</time>
      </trkpt>
      <trkpt lat="46.61623" lon="-1.864">
        <ele>7</ele>
        <time>2019-02-21T17:11:52Z</time>
      </trkpt>
      <trkpt lat="46.61624" lon="-1.864">
        <ele>7</ele>
        <time>2019-02-21T17:11:54Z</time>
      </trkpt>
      <trkpt lat="46.61626" lon="-1.86403">
        <ele>8</ele>
        <time>2019-02-21T17:11:57Z</time>
      </trkpt>
      <trkpt lat="46.61624" lon="-1.86404">
        <ele>7</ele>
        <time>2019-02-21T17:11:59Z</time>
      </trkpt>
      <trkpt lat="46.61625" lon="-1.86404">
        <ele>7</ele>
        <time>2019-02-21T17:12:02Z</time>
      </trkpt>
      <trkpt lat="46.61624" lon="-1.86405">
        <ele>7</ele>
        <time>2019-02-21T17:12:04Z</time>
      </trkpt>
      <trkpt lat="46.61625" lon="-1.86404">
        <ele>7</ele>
        <time>2019-02-21T17:12:07Z</time>
      </trkpt>
      <trkpt lat="46.61626" lon="-1.86402">
        <ele>8</ele>
        <time>2019-02-21T17:12:09Z</time>
      </trkpt>
      <trkpt lat="46.61625" lon="-1.86401">
        <ele>7</ele>
        <time>2019-02-21T17:12:12Z</time>
      </trkpt>
      <trkpt lat="46.61625" lon="-1.86402">
        <ele>7</ele>
        <time>2019-02-21T17:12:17Z</time>
      </trkpt>
      <trkpt lat="46.61626" lon="-1.86401">
        <ele>8</ele>
        <time>2019-02-21T17:12:19Z</time>
      </trkpt>
      <trkpt lat="46.61626" lon="-1.86401">
        <ele>8</ele>
        <time>2019-02-21T17:12:22Z</time>
      </trkpt>
      <trkpt lat="46.61628" lon="-1.86405">
        <ele>8</ele>
        <time>2019-02-21T17:12:25Z</time>
      </trkpt>
      <trkpt lat="46.61626" lon="-1.86406">
        <ele>8</ele>
        <time>2019-02-21T17:12:27Z</time>
      </trkpt>
      <trkpt lat="46.61625" lon="-1.86406">
        <ele>7</ele>
        <time>2019-02-21T17:12:30Z</time>
      </trkpt>
      <trkpt lat="46.61625" lon="-1.86406">
        <ele>7</ele>
        <time>2019-02-21T17:12:32Z</time>
      </trkpt>
      <trkpt lat="46.61625" lon="-1.86407">
        <ele>7</ele>
        <time>2019-02-21T17:12:35Z</time>
      </trkpt>
      <trkpt lat="46.61625" lon="-1.86407">
        <ele>7</ele>
        <time>2019-02-21T17:12:37Z</time>
      </trkpt>
      <trkpt lat="46.61625" lon="-1.86407">
        <ele>7</ele>
        <time>2019-02-21T17:12:40Z</time>
      </trkpt>
      <trkpt lat="46.61625" lon="-1.86407">
        <ele>7</ele>
        <time>2019-02-21T17:12:45Z</time>
      </trkpt>
      <trkpt lat="46.61625" lon="-1.86407">
        <ele>7</ele>
        <time>2019-02-21T17:12:47Z</time>
      </trkpt>
      <trkpt lat="46.61625" lon="-1.86408">
        <ele>7</ele>
        <time>2019-02-21T17:12:50Z</time>
      </trkpt>
      <trkpt lat="46.61625" lon="-1.86408">
        <ele>7</ele>
        <time>2019-02-21T17:12:52Z</time>
      </trkpt>
      <trkpt lat="46.61625" lon="-1.86408">
        <ele>7</ele>
        <time>2019-02-21T17:12:55Z</time>
      </trkpt>
      <trkpt lat="46.61625" lon="-1.86408">
        <ele>7</ele>
        <time>2019-02-21T17:12:57Z</time>
      </trkpt>
      <trkpt lat="46.61625" lon="-1.86409">
        <ele>7</ele>
        <time>2019-02-21T17:13:00Z</time>
      </trkpt>
      <trkpt lat="46.61625" lon="-1.86408">
        <ele>7</ele>
        <time>2019-02-21T17:13:02Z</time>
      </trkpt>
      <trkpt lat="46.61626" lon="-1.86408">
        <ele>8</ele>
        <time>2019-02-21T17:13:05Z</time>
      </trkpt>
      <trkpt lat="46.61626" lon="-1.86408">
        <ele>8</ele>
        <time>2019-02-21T17:13:07Z</time>
      </trkpt>
      <trkpt lat="46.61626" lon="-1.86408">
        <ele>8</ele>
        <time>2019-02-21T17:13:10Z</time>
      </trkpt>
      <trkpt lat="46.61626" lon="-1.86408">
        <ele>8</ele>
        <time>2019-02-21T17:13:15Z</time>
      </trkpt>
      <trkpt lat="46.61626" lon="-1.86408">
        <ele>8</ele>
        <time>2019-02-21T17:13:18Z</time>
      </trkpt>
      <trkpt lat="46.61626" lon="-1.86408">
        <ele>8</ele>
        <time>2019-02-21T17:13:20Z</time>
      </trkpt>
      <trkpt lat="46.61626" lon="-1.86408">
        <ele>8</ele>
        <time>2019-02-21T17:13:23Z</time>
      </trkpt>
      <trkpt lat="46.61625" lon="-1.86408">
        <ele>7</ele>
        <time>2019-02-21T17:13:26Z</time>
      </trkpt>
      <trkpt lat="46.61625" lon="-1.86408">
        <ele>7</ele>
        <time>2019-02-21T17:13:28Z</time>
      </trkpt>
      <trkpt lat="46.61625" lon="-1.86408">
        <ele>7</ele>
        <time>2019-02-21T17:13:31Z</time>
      </trkpt>
      <trkpt lat="46.61625" lon="-1.86408">
        <ele>7</ele>
        <time>2019-02-21T17:13:33Z</time>
      </trkpt>
      <trkpt lat="46.61625" lon="-1.86408">
        <ele>7</ele>
        <time>2019-02-21T17:13:36Z</time>
      </trkpt>
      <trkpt lat="46.61625" lon="-1.86409">
        <ele>7</ele>
        <time>2019-02-21T17:13:38Z</time>
      </trkpt>
      <trkpt lat="46.61625" lon="-1.8641">
        <ele>7</ele>
        <time>2019-02-21T17:13:41Z</time>
      </trkpt>
      <trkpt lat="46.61625" lon="-1.8641">
        <ele>7</ele>
        <time>2019-02-21T17:13:46Z</time>
      </trkpt>
      <trkpt lat="46.61625" lon="-1.8641">
        <ele>7</ele>
        <time>2019-02-21T17:13:49Z</time>
      </trkpt>
      <trkpt lat="46.61625" lon="-1.8641">
        <ele>7</ele>
        <time>2019-02-21T17:13:51Z</time>
      </trkpt>
      <trkpt lat="46.61625" lon="-1.8641">
        <ele>7</ele>
        <time>2019-02-21T17:13:54Z</time>
      </trkpt>
      <trkpt lat="46.61626" lon="-1.86407">
        <ele>8</ele>
        <time>2019-02-21T17:13:56Z</time>
      </trkpt>
      <trkpt lat="46.61624" lon="-1.86407">
        <ele>7</ele>
        <time>2019-02-21T17:13:59Z</time>
      </trkpt>
      <trkpt lat="46.61624" lon="-1.86407">
        <ele>7</ele>
        <time>2019-02-21T17:14:01Z</time>
      </trkpt>
      <trkpt lat="46.61623" lon="-1.86407">
        <ele>7</ele>
        <time>2019-02-21T17:14:04Z</time>
      </trkpt>
      <trkpt lat="46.61623" lon="-1.86406">
        <ele>7</ele>
        <time>2019-02-21T17:14:07Z</time>
      </trkpt>
      <trkpt lat="46.61623" lon="-1.86406">
        <ele>7</ele>
        <time>2019-02-21T17:14:09Z</time>
      </trkpt>
      <trkpt lat="46.61623" lon="-1.86406">
        <ele>7</ele>
        <time>2019-02-21T17:14:12Z</time>
      </trkpt>
      <trkpt lat="46.61623" lon="-1.86405">
        <ele>7</ele>
        <time>2019-02-21T17:14:17Z</time>
      </trkpt>
      <trkpt lat="46.61623" lon="-1.86404">
        <ele>7</ele>
        <time>2019-02-21T17:14:19Z</time>
      </trkpt>
      <trkpt lat="46.61623" lon="-1.86404">
        <ele>7</ele>
        <time>2019-02-21T17:14:22Z</time>
      </trkpt>
      <trkpt lat="46.61623" lon="-1.86405">
        <ele>7</ele>
        <time>2019-02-21T17:14:25Z</time>
      </trkpt>
      <trkpt lat="46.61623" lon="-1.86405">
        <ele>7</ele>
        <time>2019-02-21T17:14:27Z</time>
      </trkpt>
      <trkpt lat="46.61622" lon="-1.86404">
        <ele>7</ele>
        <time>2019-02-21T17:14:30Z</time>
      </trkpt>
      <trkpt lat="46.61622" lon="-1.86404">
        <ele>7</ele>
        <time>2019-02-21T17:14:32Z</time>
      </trkpt>
      <trkpt lat="46.61622" lon="-1.86403">
        <ele>7</ele>
        <time>2019-02-21T17:14:35Z</time>
      </trkpt>
      <trkpt lat="46.61622" lon="-1.86403">
        <ele>7</ele>
        <time>2019-02-21T17:14:37Z</time>
      </trkpt>
      <trkpt lat="46.61622" lon="-1.86403">
        <ele>7</ele>
        <time>2019-02-21T17:14:40Z</time>
      </trkpt>
      <trkpt lat="46.61622" lon="-1.86403">
        <ele>7</ele>
        <time>2019-02-21T17:14:43Z</time>
      </trkpt>
      <trkpt lat="46.61622" lon="-1.86403">
        <ele>7</ele>
        <time>2019-02-21T17:14:48Z</time>
      </trkpt>
      <trkpt lat="46.61622" lon="-1.86403">
        <ele>7</ele>
        <time>2019-02-21T17:14:50Z</time>
      </trkpt>
      <trkpt lat="46.61622" lon="-1.86403">
        <ele>7</ele>
        <time>2019-02-21T17:14:53Z</time>
      </trkpt>
      <trkpt lat="46.61622" lon="-1.86403">
        <ele>7</ele>
        <time>2019-02-21T17:14:55Z</time>
      </trkpt>
      <trkpt lat="46.61622" lon="-1.86402">
        <ele>7</ele>
        <time>2019-02-21T17:14:58Z</time>
      </trkpt>
      <trkpt lat="46.61622" lon="-1.86402">
        <ele>7</ele>
        <time>2019-02-21T17:15:00Z</time>
      </trkpt>
      <trkpt lat="46.61623" lon="-1.86402">
        <ele>7</ele>
        <time>2019-02-21T17:15:03Z</time>
      </trkpt>
      <trkpt lat="46.61623" lon="-1.86402">
        <ele>7</ele>
        <time>2019-02-21T17:15:05Z</time>
      </trkpt>
      <trkpt lat="46.61623" lon="-1.86401">
        <ele>7</ele>
        <time>2019-02-21T17:15:08Z</time>
      </trkpt>
      <trkpt lat="46.61623" lon="-1.86401">
        <ele>7</ele>
        <time>2019-02-21T17:15:10Z</time>
      </trkpt>
      <trkpt lat="46.61623" lon="-1.864">
        <ele>7</ele>
        <time>2019-02-21T17:15:13Z</time>
      </trkpt>
      <trkpt lat="46.61623" lon="-1.864">
        <ele>7</ele>
        <time>2019-02-21T17:15:18Z</time>
      </trkpt>
      <trkpt lat="46.61624" lon="-1.86401">
        <ele>7</ele>
        <time>2019-02-21T17:15:20Z</time>
      </trkpt>
      <trkpt lat="46.61624" lon="-1.86401">
        <ele>7</ele>
        <time>2019-02-21T17:15:22Z</time>
      </trkpt>
      <trkpt lat="46.61625" lon="-1.86401">
        <ele>7</ele>
        <time>2019-02-21T17:15:25Z</time>
      </trkpt>
      <trkpt lat="46.61628" lon="-1.86399">
        <ele>8</ele>
        <time>2019-02-21T17:15:28Z</time>
      </trkpt>
      <trkpt lat="46.61629" lon="-1.864">
        <ele>8</ele>
        <time>2019-02-21T17:15:30Z</time>
      </trkpt>
      <trkpt lat="46.61631" lon="-1.86397">
        <ele>8</ele>
        <time>2019-02-21T17:15:33Z</time>
      </trkpt>
      <trkpt lat="46.61632" lon="-1.86397">
        <ele>8</ele>
        <time>2019-02-21T17:15:35Z</time>
      </trkpt>
      <trkpt lat="46.61631" lon="-1.86397">
        <ele>8</ele>
        <time>2019-02-21T17:15:37Z</time>
      </trkpt>
      <trkpt lat="46.61631" lon="-1.86398">
        <ele>8</ele>
        <time>2019-02-21T17:15:40Z</time>
      </trkpt>
      <trkpt lat="46.61631" lon="-1.86398">
        <ele>8</ele>
        <time>2019-02-21T17:15:42Z</time>
      </trkpt>
    </trkseg>
  </trk>
</gpx>